<?xml version="1.0" encoding="UTF-8" standalone="no" ?>
<gpx xmlns="http://www.topografix.com/GPX/1/1" xmlns:xsi="http://www.w3.org/2001/XMLSchema-instance" xsi:schemaLocation="http://www.topografix.com/GPX/1/1 http://www.topografix.com/GPX/1/1/gpx.xsd" version="1.1" creator="VisuGPX - https://www.visugpx.com">
  <metadata>
    <name>Bluegrass Enduro Tour Dabo 2013</name>
    <desc><![CDATA[GPX du Bluegrass Enduro Tour Classic 2013 à Dabo.]]></desc>
  </metadata>
  <trk>
    <name><![CDATA[Bluegrass Enduro Tour Dabo 2013_1]]></name>
    <trkseg>
      <trkpt lat="48.63039" lon="7.26012">
        <ele>691</ele>
        <time>2013-04-07T07:17:09.000Z</time>
      </trkpt>
      <trkpt lat="48.63037" lon="7.26006">
        <ele>691</ele>
        <time>2013-04-07T07:17:12.000Z</time>
      </trkpt>
      <trkpt lat="48.63033" lon="7.2601">
        <ele>691</ele>
        <time>2013-04-07T07:17:15.000Z</time>
      </trkpt>
      <trkpt lat="48.63038" lon="7.26001">
        <ele>691</ele>
        <time>2013-04-07T07:17:23.000Z</time>
      </trkpt>
      <trkpt lat="48.63038" lon="7.26001">
        <ele>691</ele>
        <time>2013-04-07T07:17:43.000Z</time>
      </trkpt>
      <trkpt lat="48.63039" lon="7.26002">
        <ele>691</ele>
        <time>2013-04-07T07:18:36.000Z</time>
      </trkpt>
      <trkpt lat="48.6304" lon="7.26005">
        <ele>691</ele>
        <time>2013-04-07T07:18:56.000Z</time>
      </trkpt>
      <trkpt lat="48.6304" lon="7.26005">
        <ele>691</ele>
        <time>2013-04-07T07:19:16.000Z</time>
      </trkpt>
      <trkpt lat="48.63041" lon="7.26007">
        <ele>691</ele>
        <time>2013-04-07T07:19:29.000Z</time>
      </trkpt>
      <trkpt lat="48.63041" lon="7.26007">
        <ele>691</ele>
        <time>2013-04-07T07:19:49.000Z</time>
      </trkpt>
      <trkpt lat="48.63042" lon="7.26009">
        <ele>691</ele>
        <time>2013-04-07T07:20:03.000Z</time>
      </trkpt>
      <trkpt lat="48.63045" lon="7.26005">
        <ele>691</ele>
        <time>2013-04-07T07:20:05.000Z</time>
      </trkpt>
      <trkpt lat="48.63051" lon="7.26014">
        <ele>691</ele>
        <time>2013-04-07T07:20:08.000Z</time>
      </trkpt>
      <trkpt lat="48.63054" lon="7.26022">
        <ele>691</ele>
        <time>2013-04-07T07:20:10.000Z</time>
      </trkpt>
      <trkpt lat="48.63057" lon="7.26026">
        <ele>691</ele>
        <time>2013-04-07T07:20:12.000Z</time>
      </trkpt>
      <trkpt lat="48.63062" lon="7.26031">
        <ele>691</ele>
        <time>2013-04-07T07:20:14.000Z</time>
      </trkpt>
      <trkpt lat="48.6307" lon="7.26034">
        <ele>691</ele>
        <time>2013-04-07T07:20:16.000Z</time>
      </trkpt>
      <trkpt lat="48.63055" lon="7.26036">
        <ele>691</ele>
        <time>2013-04-07T07:20:19.000Z</time>
      </trkpt>
      <trkpt lat="48.63074" lon="7.2605">
        <ele>691</ele>
        <time>2013-04-07T07:20:23.000Z</time>
      </trkpt>
      <trkpt lat="48.63074" lon="7.26052">
        <ele>691</ele>
        <time>2013-04-07T07:20:25.000Z</time>
      </trkpt>
      <trkpt lat="48.63074" lon="7.26055">
        <ele>691</ele>
        <time>2013-04-07T07:20:27.000Z</time>
      </trkpt>
      <trkpt lat="48.63079" lon="7.26058">
        <ele>691</ele>
        <time>2013-04-07T07:20:31.000Z</time>
      </trkpt>
      <trkpt lat="48.6308" lon="7.26062">
        <ele>691</ele>
        <time>2013-04-07T07:20:33.000Z</time>
      </trkpt>
      <trkpt lat="48.63082" lon="7.26065">
        <ele>691</ele>
        <time>2013-04-07T07:20:37.000Z</time>
      </trkpt>
      <trkpt lat="48.63082" lon="7.26065">
        <ele>691</ele>
        <time>2013-04-07T07:20:57.000Z</time>
      </trkpt>
      <trkpt lat="48.63083" lon="7.26067">
        <ele>691</ele>
        <time>2013-04-07T07:21:04.000Z</time>
      </trkpt>
      <trkpt lat="48.63083" lon="7.26067">
        <ele>691</ele>
        <time>2013-04-07T07:21:24.000Z</time>
      </trkpt>
      <trkpt lat="48.63083" lon="7.26069">
        <ele>691</ele>
        <time>2013-04-07T07:21:33.000Z</time>
      </trkpt>
      <trkpt lat="48.63083" lon="7.26069">
        <ele>691</ele>
        <time>2013-04-07T07:21:53.000Z</time>
      </trkpt>
      <trkpt lat="48.63085" lon="7.2607">
        <ele>690</ele>
        <time>2013-04-07T07:22:07.000Z</time>
      </trkpt>
      <trkpt lat="48.63087" lon="7.26071">
        <ele>690</ele>
        <time>2013-04-07T07:22:27.000Z</time>
      </trkpt>
      <trkpt lat="48.63087" lon="7.26071">
        <ele>690</ele>
        <time>2013-04-07T07:22:47.000Z</time>
      </trkpt>
      <trkpt lat="48.63085" lon="7.26071">
        <ele>690</ele>
        <time>2013-04-07T07:22:55.000Z</time>
      </trkpt>
      <trkpt lat="48.63077" lon="7.26066">
        <ele>691</ele>
        <time>2013-04-07T07:22:58.000Z</time>
      </trkpt>
      <trkpt lat="48.63075" lon="7.26066">
        <ele>691</ele>
        <time>2013-04-07T07:23:12.000Z</time>
      </trkpt>
      <trkpt lat="48.63074" lon="7.26065">
        <ele>691</ele>
        <time>2013-04-07T07:23:15.000Z</time>
      </trkpt>
      <trkpt lat="48.6307" lon="7.26051">
        <ele>691</ele>
        <time>2013-04-07T07:23:18.000Z</time>
      </trkpt>
      <trkpt lat="48.63064" lon="7.26041">
        <ele>691</ele>
        <time>2013-04-07T07:23:20.000Z</time>
      </trkpt>
      <trkpt lat="48.63049" lon="7.26028">
        <ele>691</ele>
        <time>2013-04-07T07:23:23.000Z</time>
      </trkpt>
      <trkpt lat="48.63044" lon="7.26021">
        <ele>691</ele>
        <time>2013-04-07T07:23:25.000Z</time>
      </trkpt>
      <trkpt lat="48.63042" lon="7.26019">
        <ele>691</ele>
        <time>2013-04-07T07:23:43.000Z</time>
      </trkpt>
      <trkpt lat="48.63042" lon="7.26019">
        <ele>691</ele>
        <time>2013-04-07T07:24:03.000Z</time>
      </trkpt>
      <trkpt lat="48.63041" lon="7.26017">
        <ele>691</ele>
        <time>2013-04-07T07:24:13.000Z</time>
      </trkpt>
      <trkpt lat="48.63041" lon="7.26017">
        <ele>691</ele>
        <time>2013-04-07T07:24:33.000Z</time>
      </trkpt>
      <trkpt lat="48.63042" lon="7.26016">
        <ele>691</ele>
        <time>2013-04-07T07:26:38.000Z</time>
      </trkpt>
      <trkpt lat="48.63043" lon="7.26017">
        <ele>691</ele>
        <time>2013-04-07T07:26:40.000Z</time>
      </trkpt>
      <trkpt lat="48.63049" lon="7.26023">
        <ele>691</ele>
        <time>2013-04-07T07:26:44.000Z</time>
      </trkpt>
      <trkpt lat="48.63054" lon="7.26028">
        <ele>691</ele>
        <time>2013-04-07T07:26:47.000Z</time>
      </trkpt>
      <trkpt lat="48.63055" lon="7.26037">
        <ele>691</ele>
        <time>2013-04-07T07:26:49.000Z</time>
      </trkpt>
      <trkpt lat="48.63057" lon="7.26044">
        <ele>691</ele>
        <time>2013-04-07T07:26:52.000Z</time>
      </trkpt>
      <trkpt lat="48.6306" lon="7.26042">
        <ele>691</ele>
        <time>2013-04-07T07:26:54.000Z</time>
      </trkpt>
      <trkpt lat="48.63064" lon="7.26039">
        <ele>691</ele>
        <time>2013-04-07T07:26:58.000Z</time>
      </trkpt>
      <trkpt lat="48.63065" lon="7.26037">
        <ele>691</ele>
        <time>2013-04-07T07:27:01.000Z</time>
      </trkpt>
      <trkpt lat="48.63067" lon="7.26037">
        <ele>691</ele>
        <time>2013-04-07T07:27:03.000Z</time>
      </trkpt>
      <trkpt lat="48.63068" lon="7.26039">
        <ele>691</ele>
        <time>2013-04-07T07:27:05.000Z</time>
      </trkpt>
      <trkpt lat="48.63068" lon="7.26043">
        <ele>691</ele>
        <time>2013-04-07T07:27:07.000Z</time>
      </trkpt>
      <trkpt lat="48.63069" lon="7.26046">
        <ele>691</ele>
        <time>2013-04-07T07:27:09.000Z</time>
      </trkpt>
      <trkpt lat="48.63071" lon="7.2605">
        <ele>691</ele>
        <time>2013-04-07T07:27:13.000Z</time>
      </trkpt>
      <trkpt lat="48.63071" lon="7.26053">
        <ele>691</ele>
        <time>2013-04-07T07:27:18.000Z</time>
      </trkpt>
      <trkpt lat="48.63073" lon="7.26055">
        <ele>691</ele>
        <time>2013-04-07T07:27:21.000Z</time>
      </trkpt>
      <trkpt lat="48.63075" lon="7.26059">
        <ele>691</ele>
        <time>2013-04-07T07:27:23.000Z</time>
      </trkpt>
      <trkpt lat="48.63077" lon="7.26061">
        <ele>691</ele>
        <time>2013-04-07T07:27:25.000Z</time>
      </trkpt>
      <trkpt lat="48.63079" lon="7.26061">
        <ele>691</ele>
        <time>2013-04-07T07:27:28.000Z</time>
      </trkpt>
      <trkpt lat="48.63079" lon="7.26061">
        <ele>691</ele>
        <time>2013-04-07T07:27:48.000Z</time>
      </trkpt>
      <trkpt lat="48.63099" lon="7.26068">
        <ele>690</ele>
        <time>2013-04-07T07:27:54.000Z</time>
      </trkpt>
      <trkpt lat="48.63099" lon="7.26068">
        <ele>690</ele>
        <time>2013-04-07T07:28:14.000Z</time>
      </trkpt>
      <trkpt lat="48.63079" lon="7.26066">
        <ele>691</ele>
        <time>2013-04-07T07:28:35.000Z</time>
      </trkpt>
      <trkpt lat="48.63079" lon="7.26066">
        <ele>691</ele>
        <time>2013-04-07T07:28:55.000Z</time>
      </trkpt>
      <trkpt lat="48.6308" lon="7.26066">
        <ele>691</ele>
        <time>2013-04-07T07:33:13.000Z</time>
      </trkpt>
      <trkpt lat="48.6308" lon="7.26059">
        <ele>691</ele>
        <time>2013-04-07T07:33:20.000Z</time>
      </trkpt>
      <trkpt lat="48.6308" lon="7.26063">
        <ele>691</ele>
        <time>2013-04-07T07:33:22.000Z</time>
      </trkpt>
      <trkpt lat="48.63084" lon="7.26067">
        <ele>690</ele>
        <time>2013-04-07T07:33:30.000Z</time>
      </trkpt>
      <trkpt lat="48.63086" lon="7.26068">
        <ele>690</ele>
        <time>2013-04-07T07:33:32.000Z</time>
      </trkpt>
      <trkpt lat="48.63086" lon="7.26061">
        <ele>690</ele>
        <time>2013-04-07T07:33:34.000Z</time>
      </trkpt>
      <trkpt lat="48.63083" lon="7.26057">
        <ele>691</ele>
        <time>2013-04-07T07:33:38.000Z</time>
      </trkpt>
      <trkpt lat="48.63073" lon="7.26064">
        <ele>691</ele>
        <time>2013-04-07T07:33:41.000Z</time>
      </trkpt>
      <trkpt lat="48.63081" lon="7.2606">
        <ele>691</ele>
        <time>2013-04-07T07:33:47.000Z</time>
      </trkpt>
      <trkpt lat="48.63078" lon="7.26068">
        <ele>691</ele>
        <time>2013-04-07T07:33:50.000Z</time>
      </trkpt>
      <trkpt lat="48.63085" lon="7.26061">
        <ele>690</ele>
        <time>2013-04-07T07:33:53.000Z</time>
      </trkpt>
      <trkpt lat="48.63084" lon="7.26063">
        <ele>690</ele>
        <time>2013-04-07T07:34:06.000Z</time>
      </trkpt>
      <trkpt lat="48.63084" lon="7.26063">
        <ele>690</ele>
        <time>2013-04-07T07:34:26.000Z</time>
      </trkpt>
      <trkpt lat="48.63087" lon="7.26067">
        <ele>690</ele>
        <time>2013-04-07T07:35:10.000Z</time>
      </trkpt>
      <trkpt lat="48.63081" lon="7.2606">
        <ele>691</ele>
        <time>2013-04-07T07:35:13.000Z</time>
      </trkpt>
      <trkpt lat="48.63081" lon="7.2606">
        <ele>691</ele>
        <time>2013-04-07T07:35:33.000Z</time>
      </trkpt>
      <trkpt lat="48.63098" lon="7.26059">
        <ele>689</ele>
        <time>2013-04-07T07:36:23.000Z</time>
      </trkpt>
      <trkpt lat="48.63107" lon="7.26051">
        <ele>689</ele>
        <time>2013-04-07T07:36:27.000Z</time>
      </trkpt>
      <trkpt lat="48.63092" lon="7.26047">
        <ele>689</ele>
        <time>2013-04-07T07:36:30.000Z</time>
      </trkpt>
      <trkpt lat="48.63086" lon="7.26041">
        <ele>689</ele>
        <time>2013-04-07T07:36:33.000Z</time>
      </trkpt>
      <trkpt lat="48.63056" lon="7.26027">
        <ele>691</ele>
        <time>2013-04-07T07:36:38.000Z</time>
      </trkpt>
      <trkpt lat="48.63053" lon="7.26025">
        <ele>691</ele>
        <time>2013-04-07T07:36:40.000Z</time>
      </trkpt>
      <trkpt lat="48.63049" lon="7.26021">
        <ele>691</ele>
        <time>2013-04-07T07:36:42.000Z</time>
      </trkpt>
      <trkpt lat="48.63042" lon="7.2602">
        <ele>691</ele>
        <time>2013-04-07T07:36:44.000Z</time>
      </trkpt>
      <trkpt lat="48.63037" lon="7.26016">
        <ele>691</ele>
        <time>2013-04-07T07:36:47.000Z</time>
      </trkpt>
      <trkpt lat="48.63031" lon="7.26009">
        <ele>691</ele>
        <time>2013-04-07T07:36:51.000Z</time>
      </trkpt>
      <trkpt lat="48.63025" lon="7.26004">
        <ele>691</ele>
        <time>2013-04-07T07:36:55.000Z</time>
      </trkpt>
      <trkpt lat="48.6302" lon="7.26002">
        <ele>692</ele>
        <time>2013-04-07T07:36:59.000Z</time>
      </trkpt>
      <trkpt lat="48.63017" lon="7.26001">
        <ele>692</ele>
        <time>2013-04-07T07:37:01.000Z</time>
      </trkpt>
      <trkpt lat="48.63015" lon="7.25999">
        <ele>691</ele>
        <time>2013-04-07T07:37:03.000Z</time>
      </trkpt>
      <trkpt lat="48.63009" lon="7.25995">
        <ele>691</ele>
        <time>2013-04-07T07:37:07.000Z</time>
      </trkpt>
      <trkpt lat="48.63004" lon="7.25988">
        <ele>691</ele>
        <time>2013-04-07T07:37:09.000Z</time>
      </trkpt>
      <trkpt lat="48.62995" lon="7.25988">
        <ele>695</ele>
        <time>2013-04-07T07:37:14.000Z</time>
      </trkpt>
      <trkpt lat="48.62994" lon="7.25981">
        <ele>696</ele>
        <time>2013-04-07T07:37:16.000Z</time>
      </trkpt>
      <trkpt lat="48.62989" lon="7.25985">
        <ele>696</ele>
        <time>2013-04-07T07:37:18.000Z</time>
      </trkpt>
      <trkpt lat="48.6299" lon="7.25973">
        <ele>697</ele>
        <time>2013-04-07T07:37:20.000Z</time>
      </trkpt>
      <trkpt lat="48.63003" lon="7.25977">
        <ele>691</ele>
        <time>2013-04-07T07:37:24.000Z</time>
      </trkpt>
      <trkpt lat="48.62977" lon="7.25957">
        <ele>698</ele>
        <time>2013-04-07T07:37:28.000Z</time>
      </trkpt>
      <trkpt lat="48.62976" lon="7.25954">
        <ele>698</ele>
        <time>2013-04-07T07:37:30.000Z</time>
      </trkpt>
      <trkpt lat="48.62971" lon="7.25947">
        <ele>698</ele>
        <time>2013-04-07T07:37:33.000Z</time>
      </trkpt>
      <trkpt lat="48.62968" lon="7.25938">
        <ele>699</ele>
        <time>2013-04-07T07:37:37.000Z</time>
      </trkpt>
      <trkpt lat="48.62965" lon="7.25932">
        <ele>699</ele>
        <time>2013-04-07T07:37:39.000Z</time>
      </trkpt>
      <trkpt lat="48.62962" lon="7.25925">
        <ele>699</ele>
        <time>2013-04-07T07:37:42.000Z</time>
      </trkpt>
      <trkpt lat="48.62958" lon="7.25917">
        <ele>699</ele>
        <time>2013-04-07T07:37:45.000Z</time>
      </trkpt>
      <trkpt lat="48.62955" lon="7.25917">
        <ele>700</ele>
        <time>2013-04-07T07:37:47.000Z</time>
      </trkpt>
      <trkpt lat="48.62951" lon="7.25906">
        <ele>700</ele>
        <time>2013-04-07T07:37:51.000Z</time>
      </trkpt>
      <trkpt lat="48.62946" lon="7.25905">
        <ele>700</ele>
        <time>2013-04-07T07:37:54.000Z</time>
      </trkpt>
      <trkpt lat="48.62942" lon="7.25897">
        <ele>701</ele>
        <time>2013-04-07T07:37:58.000Z</time>
      </trkpt>
      <trkpt lat="48.62937" lon="7.25892">
        <ele>701</ele>
        <time>2013-04-07T07:38:02.000Z</time>
      </trkpt>
      <trkpt lat="48.62933" lon="7.25874">
        <ele>701</ele>
        <time>2013-04-07T07:38:06.000Z</time>
      </trkpt>
      <trkpt lat="48.6293" lon="7.25871">
        <ele>701</ele>
        <time>2013-04-07T07:38:09.000Z</time>
      </trkpt>
      <trkpt lat="48.62929" lon="7.25866">
        <ele>701</ele>
        <time>2013-04-07T07:38:11.000Z</time>
      </trkpt>
      <trkpt lat="48.6294" lon="7.25855">
        <ele>701</ele>
        <time>2013-04-07T07:38:14.000Z</time>
      </trkpt>
      <trkpt lat="48.62923" lon="7.2585">
        <ele>702</ele>
        <time>2013-04-07T07:38:17.000Z</time>
      </trkpt>
      <trkpt lat="48.6292" lon="7.25853">
        <ele>702</ele>
        <time>2013-04-07T07:38:19.000Z</time>
      </trkpt>
      <trkpt lat="48.62919" lon="7.25843">
        <ele>704</ele>
        <time>2013-04-07T07:38:22.000Z</time>
      </trkpt>
      <trkpt lat="48.62925" lon="7.25836">
        <ele>704</ele>
        <time>2013-04-07T07:38:26.000Z</time>
      </trkpt>
      <trkpt lat="48.62918" lon="7.25825">
        <ele>704</ele>
        <time>2013-04-07T07:38:30.000Z</time>
      </trkpt>
      <trkpt lat="48.62911" lon="7.25815">
        <ele>715</ele>
        <time>2013-04-07T07:38:34.000Z</time>
      </trkpt>
      <trkpt lat="48.62908" lon="7.25809">
        <ele>717</ele>
        <time>2013-04-07T07:38:36.000Z</time>
      </trkpt>
      <trkpt lat="48.62907" lon="7.25805">
        <ele>718</ele>
        <time>2013-04-07T07:38:38.000Z</time>
      </trkpt>
      <trkpt lat="48.62904" lon="7.25794">
        <ele>719</ele>
        <time>2013-04-07T07:38:44.000Z</time>
      </trkpt>
      <trkpt lat="48.62903" lon="7.25778">
        <ele>718</ele>
        <time>2013-04-07T07:38:48.000Z</time>
      </trkpt>
      <trkpt lat="48.62903" lon="7.25771">
        <ele>717</ele>
        <time>2013-04-07T07:38:50.000Z</time>
      </trkpt>
      <trkpt lat="48.62901" lon="7.25767">
        <ele>717</ele>
        <time>2013-04-07T07:38:54.000Z</time>
      </trkpt>
      <trkpt lat="48.62899" lon="7.25754">
        <ele>716</ele>
        <time>2013-04-07T07:38:57.000Z</time>
      </trkpt>
      <trkpt lat="48.62896" lon="7.25749">
        <ele>715</ele>
        <time>2013-04-07T07:39:01.000Z</time>
      </trkpt>
      <trkpt lat="48.62895" lon="7.25744">
        <ele>716</ele>
        <time>2013-04-07T07:39:03.000Z</time>
      </trkpt>
      <trkpt lat="48.62891" lon="7.25736">
        <ele>718</ele>
        <time>2013-04-07T07:39:07.000Z</time>
      </trkpt>
      <trkpt lat="48.62888" lon="7.25732">
        <ele>719</ele>
        <time>2013-04-07T07:39:10.000Z</time>
      </trkpt>
      <trkpt lat="48.62888" lon="7.25722">
        <ele>719</ele>
        <time>2013-04-07T07:39:12.000Z</time>
      </trkpt>
      <trkpt lat="48.62887" lon="7.25715">
        <ele>719</ele>
        <time>2013-04-07T07:39:15.000Z</time>
      </trkpt>
      <trkpt lat="48.62886" lon="7.25708">
        <ele>719</ele>
        <time>2013-04-07T07:39:17.000Z</time>
      </trkpt>
      <trkpt lat="48.62885" lon="7.25696">
        <ele>719</ele>
        <time>2013-04-07T07:39:20.000Z</time>
      </trkpt>
      <trkpt lat="48.62882" lon="7.25696">
        <ele>720</ele>
        <time>2013-04-07T07:39:22.000Z</time>
      </trkpt>
      <trkpt lat="48.62881" lon="7.25689">
        <ele>720</ele>
        <time>2013-04-07T07:39:25.000Z</time>
      </trkpt>
      <trkpt lat="48.62886" lon="7.25691">
        <ele>719</ele>
        <time>2013-04-07T07:39:28.000Z</time>
      </trkpt>
      <trkpt lat="48.62879" lon="7.25677">
        <ele>720</ele>
        <time>2013-04-07T07:39:32.000Z</time>
      </trkpt>
      <trkpt lat="48.62877" lon="7.25667">
        <ele>720</ele>
        <time>2013-04-07T07:39:36.000Z</time>
      </trkpt>
      <trkpt lat="48.62872" lon="7.25666">
        <ele>720</ele>
        <time>2013-04-07T07:39:38.000Z</time>
      </trkpt>
      <trkpt lat="48.62871" lon="7.25652">
        <ele>721</ele>
        <time>2013-04-07T07:39:42.000Z</time>
      </trkpt>
      <trkpt lat="48.6287" lon="7.25648">
        <ele>721</ele>
        <time>2013-04-07T07:39:44.000Z</time>
      </trkpt>
      <trkpt lat="48.62867" lon="7.25634">
        <ele>721</ele>
        <time>2013-04-07T07:39:49.000Z</time>
      </trkpt>
      <trkpt lat="48.62867" lon="7.25637">
        <ele>721</ele>
        <time>2013-04-07T07:39:51.000Z</time>
      </trkpt>
      <trkpt lat="48.62864" lon="7.25633">
        <ele>721</ele>
        <time>2013-04-07T07:39:53.000Z</time>
      </trkpt>
      <trkpt lat="48.62861" lon="7.2563">
        <ele>722</ele>
        <time>2013-04-07T07:39:57.000Z</time>
      </trkpt>
      <trkpt lat="48.62862" lon="7.25624">
        <ele>721</ele>
        <time>2013-04-07T07:39:59.000Z</time>
      </trkpt>
      <trkpt lat="48.6286" lon="7.25612">
        <ele>722</ele>
        <time>2013-04-07T07:40:03.000Z</time>
      </trkpt>
      <trkpt lat="48.62858" lon="7.25614">
        <ele>722</ele>
        <time>2013-04-07T07:40:06.000Z</time>
      </trkpt>
      <trkpt lat="48.62854" lon="7.25612">
        <ele>722</ele>
        <time>2013-04-07T07:40:10.000Z</time>
      </trkpt>
      <trkpt lat="48.62852" lon="7.25611">
        <ele>723</ele>
        <time>2013-04-07T07:40:12.000Z</time>
      </trkpt>
      <trkpt lat="48.6285" lon="7.25609">
        <ele>723</ele>
        <time>2013-04-07T07:40:14.000Z</time>
      </trkpt>
      <trkpt lat="48.62843" lon="7.25602">
        <ele>724</ele>
        <time>2013-04-07T07:40:17.000Z</time>
      </trkpt>
      <trkpt lat="48.62837" lon="7.25605">
        <ele>724</ele>
        <time>2013-04-07T07:40:20.000Z</time>
      </trkpt>
      <trkpt lat="48.62836" lon="7.25601">
        <ele>725</ele>
        <time>2013-04-07T07:40:22.000Z</time>
      </trkpt>
      <trkpt lat="48.62829" lon="7.25601">
        <ele>734</ele>
        <time>2013-04-07T07:40:25.000Z</time>
      </trkpt>
      <trkpt lat="48.62822" lon="7.25599">
        <ele>735</ele>
        <time>2013-04-07T07:40:30.000Z</time>
      </trkpt>
      <trkpt lat="48.62819" lon="7.25601">
        <ele>736</ele>
        <time>2013-04-07T07:40:32.000Z</time>
      </trkpt>
      <trkpt lat="48.62817" lon="7.25601">
        <ele>736</ele>
        <time>2013-04-07T07:40:34.000Z</time>
      </trkpt>
      <trkpt lat="48.6281" lon="7.25609">
        <ele>738</ele>
        <time>2013-04-07T07:40:38.000Z</time>
      </trkpt>
      <trkpt lat="48.6281" lon="7.25606">
        <ele>737</ele>
        <time>2013-04-07T07:40:40.000Z</time>
      </trkpt>
      <trkpt lat="48.62804" lon="7.2561">
        <ele>738</ele>
        <time>2013-04-07T07:40:44.000Z</time>
      </trkpt>
      <trkpt lat="48.62799" lon="7.25612">
        <ele>739</ele>
        <time>2013-04-07T07:40:48.000Z</time>
      </trkpt>
      <trkpt lat="48.62797" lon="7.25617">
        <ele>740</ele>
        <time>2013-04-07T07:40:50.000Z</time>
      </trkpt>
      <trkpt lat="48.62793" lon="7.2562">
        <ele>740</ele>
        <time>2013-04-07T07:40:54.000Z</time>
      </trkpt>
      <trkpt lat="48.62789" lon="7.25633">
        <ele>741</ele>
        <time>2013-04-07T07:40:58.000Z</time>
      </trkpt>
      <trkpt lat="48.62787" lon="7.25637">
        <ele>742</ele>
        <time>2013-04-07T07:41:02.000Z</time>
      </trkpt>
      <trkpt lat="48.62785" lon="7.25642">
        <ele>742</ele>
        <time>2013-04-07T07:41:04.000Z</time>
      </trkpt>
      <trkpt lat="48.62783" lon="7.25653">
        <ele>743</ele>
        <time>2013-04-07T07:41:10.000Z</time>
      </trkpt>
      <trkpt lat="48.62783" lon="7.25659">
        <ele>744</ele>
        <time>2013-04-07T07:41:14.000Z</time>
      </trkpt>
      <trkpt lat="48.62782" lon="7.25669">
        <ele>748</ele>
        <time>2013-04-07T07:41:16.000Z</time>
      </trkpt>
      <trkpt lat="48.62781" lon="7.25674">
        <ele>749</ele>
        <time>2013-04-07T07:41:20.000Z</time>
      </trkpt>
      <trkpt lat="48.62781" lon="7.25679">
        <ele>749</ele>
        <time>2013-04-07T07:41:24.000Z</time>
      </trkpt>
      <trkpt lat="48.62779" lon="7.25693">
        <ele>749</ele>
        <time>2013-04-07T07:41:28.000Z</time>
      </trkpt>
      <trkpt lat="48.62804" lon="7.25688">
        <ele>745</ele>
        <time>2013-04-07T07:41:32.000Z</time>
      </trkpt>
      <trkpt lat="48.62778" lon="7.25711">
        <ele>750</ele>
        <time>2013-04-07T07:41:36.000Z</time>
      </trkpt>
      <trkpt lat="48.62777" lon="7.25719">
        <ele>750</ele>
        <time>2013-04-07T07:41:40.000Z</time>
      </trkpt>
      <trkpt lat="48.62776" lon="7.25725">
        <ele>751</ele>
        <time>2013-04-07T07:41:44.000Z</time>
      </trkpt>
      <trkpt lat="48.62774" lon="7.2573">
        <ele>752</ele>
        <time>2013-04-07T07:41:48.000Z</time>
      </trkpt>
      <trkpt lat="48.62786" lon="7.25741">
        <ele>750</ele>
        <time>2013-04-07T07:41:52.000Z</time>
      </trkpt>
      <trkpt lat="48.62769" lon="7.25751">
        <ele>757</ele>
        <time>2013-04-07T07:41:55.000Z</time>
      </trkpt>
      <trkpt lat="48.62768" lon="7.25756">
        <ele>757</ele>
        <time>2013-04-07T07:41:57.000Z</time>
      </trkpt>
      <trkpt lat="48.62767" lon="7.25766">
        <ele>757</ele>
        <time>2013-04-07T07:42:01.000Z</time>
      </trkpt>
      <trkpt lat="48.62762" lon="7.25758">
        <ele>758</ele>
        <time>2013-04-07T07:42:03.000Z</time>
      </trkpt>
      <trkpt lat="48.62766" lon="7.25778">
        <ele>756</ele>
        <time>2013-04-07T07:42:07.000Z</time>
      </trkpt>
      <trkpt lat="48.62765" lon="7.25786">
        <ele>756</ele>
        <time>2013-04-07T07:42:11.000Z</time>
      </trkpt>
      <trkpt lat="48.62764" lon="7.25795">
        <ele>756</ele>
        <time>2013-04-07T07:42:13.000Z</time>
      </trkpt>
      <trkpt lat="48.62769" lon="7.25799">
        <ele>756</ele>
        <time>2013-04-07T07:42:16.000Z</time>
      </trkpt>
      <trkpt lat="48.62761" lon="7.25813">
        <ele>758</ele>
        <time>2013-04-07T07:42:20.000Z</time>
      </trkpt>
      <trkpt lat="48.62762" lon="7.25817">
        <ele>759</ele>
        <time>2013-04-07T07:42:23.000Z</time>
      </trkpt>
      <trkpt lat="48.62758" lon="7.25832">
        <ele>762</ele>
        <time>2013-04-07T07:42:27.000Z</time>
      </trkpt>
      <trkpt lat="48.62757" lon="7.25842">
        <ele>763</ele>
        <time>2013-04-07T07:42:30.000Z</time>
      </trkpt>
      <trkpt lat="48.6275" lon="7.25827">
        <ele>762</ele>
        <time>2013-04-07T07:42:33.000Z</time>
      </trkpt>
      <trkpt lat="48.62755" lon="7.25859">
        <ele>762</ele>
        <time>2013-04-07T07:42:36.000Z</time>
      </trkpt>
      <trkpt lat="48.62754" lon="7.25864">
        <ele>762</ele>
        <time>2013-04-07T07:42:38.000Z</time>
      </trkpt>
      <trkpt lat="48.62753" lon="7.25868">
        <ele>762</ele>
        <time>2013-04-07T07:42:40.000Z</time>
      </trkpt>
      <trkpt lat="48.62753" lon="7.25873">
        <ele>762</ele>
        <time>2013-04-07T07:42:42.000Z</time>
      </trkpt>
      <trkpt lat="48.6275" lon="7.25878">
        <ele>768</ele>
        <time>2013-04-07T07:42:45.000Z</time>
      </trkpt>
      <trkpt lat="48.62749" lon="7.25881">
        <ele>769</ele>
        <time>2013-04-07T07:42:47.000Z</time>
      </trkpt>
      <trkpt lat="48.62745" lon="7.25891">
        <ele>769</ele>
        <time>2013-04-07T07:42:50.000Z</time>
      </trkpt>
      <trkpt lat="48.6274" lon="7.25903">
        <ele>770</ele>
        <time>2013-04-07T07:42:53.000Z</time>
      </trkpt>
      <trkpt lat="48.62735" lon="7.2591">
        <ele>770</ele>
        <time>2013-04-07T07:42:56.000Z</time>
      </trkpt>
      <trkpt lat="48.62729" lon="7.25919">
        <ele>773</ele>
        <time>2013-04-07T07:42:59.000Z</time>
      </trkpt>
      <trkpt lat="48.62727" lon="7.2592">
        <ele>773</ele>
        <time>2013-04-07T07:43:01.000Z</time>
      </trkpt>
      <trkpt lat="48.62724" lon="7.25927">
        <ele>773</ele>
        <time>2013-04-07T07:43:04.000Z</time>
      </trkpt>
      <trkpt lat="48.6272" lon="7.25936">
        <ele>774</ele>
        <time>2013-04-07T07:43:07.000Z</time>
      </trkpt>
      <trkpt lat="48.62715" lon="7.25947">
        <ele>774</ele>
        <time>2013-04-07T07:43:10.000Z</time>
      </trkpt>
      <trkpt lat="48.62709" lon="7.25952">
        <ele>774</ele>
        <time>2013-04-07T07:43:13.000Z</time>
      </trkpt>
      <trkpt lat="48.62714" lon="7.2595">
        <ele>774</ele>
        <time>2013-04-07T07:43:16.000Z</time>
      </trkpt>
      <trkpt lat="48.62695" lon="7.25956">
        <ele>774</ele>
        <time>2013-04-07T07:43:20.000Z</time>
      </trkpt>
      <trkpt lat="48.6269" lon="7.25956">
        <ele>774</ele>
        <time>2013-04-07T07:43:23.000Z</time>
      </trkpt>
      <trkpt lat="48.62682" lon="7.2597">
        <ele>775</ele>
        <time>2013-04-07T07:43:28.000Z</time>
      </trkpt>
      <trkpt lat="48.62679" lon="7.25972">
        <ele>776</ele>
        <time>2013-04-07T07:43:31.000Z</time>
      </trkpt>
      <trkpt lat="48.62675" lon="7.25976">
        <ele>776</ele>
        <time>2013-04-07T07:43:34.000Z</time>
      </trkpt>
      <trkpt lat="48.62672" lon="7.25988">
        <ele>777</ele>
        <time>2013-04-07T07:43:37.000Z</time>
      </trkpt>
      <trkpt lat="48.62668" lon="7.25997">
        <ele>778</ele>
        <time>2013-04-07T07:43:41.000Z</time>
      </trkpt>
      <trkpt lat="48.62664" lon="7.2601">
        <ele>781</ele>
        <time>2013-04-07T07:43:44.000Z</time>
      </trkpt>
      <trkpt lat="48.62662" lon="7.26018">
        <ele>782</ele>
        <time>2013-04-07T07:43:47.000Z</time>
      </trkpt>
      <trkpt lat="48.6266" lon="7.26024">
        <ele>782</ele>
        <time>2013-04-07T07:43:49.000Z</time>
      </trkpt>
      <trkpt lat="48.62656" lon="7.26038">
        <ele>783</ele>
        <time>2013-04-07T07:43:52.000Z</time>
      </trkpt>
      <trkpt lat="48.62652" lon="7.26046">
        <ele>784</ele>
        <time>2013-04-07T07:43:55.000Z</time>
      </trkpt>
      <trkpt lat="48.62648" lon="7.26055">
        <ele>784</ele>
        <time>2013-04-07T07:43:58.000Z</time>
      </trkpt>
      <trkpt lat="48.62644" lon="7.26057">
        <ele>784</ele>
        <time>2013-04-07T07:44:01.000Z</time>
      </trkpt>
      <trkpt lat="48.6264" lon="7.26064">
        <ele>784</ele>
        <time>2013-04-07T07:44:04.000Z</time>
      </trkpt>
      <trkpt lat="48.62652" lon="7.26071">
        <ele>784</ele>
        <time>2013-04-07T07:44:07.000Z</time>
      </trkpt>
      <trkpt lat="48.62629" lon="7.2608">
        <ele>785</ele>
        <time>2013-04-07T07:44:11.000Z</time>
      </trkpt>
      <trkpt lat="48.62649" lon="7.26083">
        <ele>785</ele>
        <time>2013-04-07T07:44:15.000Z</time>
      </trkpt>
      <trkpt lat="48.62619" lon="7.26088">
        <ele>788</ele>
        <time>2013-04-07T07:44:19.000Z</time>
      </trkpt>
      <trkpt lat="48.6265" lon="7.26098">
        <ele>787</ele>
        <time>2013-04-07T07:44:22.000Z</time>
      </trkpt>
      <trkpt lat="48.62608" lon="7.26112">
        <ele>788</ele>
        <time>2013-04-07T07:44:25.000Z</time>
      </trkpt>
      <trkpt lat="48.62603" lon="7.26118">
        <ele>788</ele>
        <time>2013-04-07T07:44:28.000Z</time>
      </trkpt>
      <trkpt lat="48.626" lon="7.26117">
        <ele>788</ele>
        <time>2013-04-07T07:44:31.000Z</time>
      </trkpt>
      <trkpt lat="48.62595" lon="7.26121">
        <ele>789</ele>
        <time>2013-04-07T07:44:34.000Z</time>
      </trkpt>
      <trkpt lat="48.62591" lon="7.26128">
        <ele>789</ele>
        <time>2013-04-07T07:44:37.000Z</time>
      </trkpt>
      <trkpt lat="48.62586" lon="7.2613">
        <ele>789</ele>
        <time>2013-04-07T07:44:39.000Z</time>
      </trkpt>
      <trkpt lat="48.62579" lon="7.26142">
        <ele>790</ele>
        <time>2013-04-07T07:44:42.000Z</time>
      </trkpt>
      <trkpt lat="48.62576" lon="7.26142">
        <ele>790</ele>
        <time>2013-04-07T07:44:44.000Z</time>
      </trkpt>
      <trkpt lat="48.62568" lon="7.26149">
        <ele>790</ele>
        <time>2013-04-07T07:44:47.000Z</time>
      </trkpt>
      <trkpt lat="48.62561" lon="7.26149">
        <ele>790</ele>
        <time>2013-04-07T07:44:50.000Z</time>
      </trkpt>
      <trkpt lat="48.62557" lon="7.26153">
        <ele>790</ele>
        <time>2013-04-07T07:44:52.000Z</time>
      </trkpt>
      <trkpt lat="48.62551" lon="7.26159">
        <ele>790</ele>
        <time>2013-04-07T07:44:54.000Z</time>
      </trkpt>
      <trkpt lat="48.62545" lon="7.26164">
        <ele>790</ele>
        <time>2013-04-07T07:44:56.000Z</time>
      </trkpt>
      <trkpt lat="48.6254" lon="7.26162">
        <ele>790</ele>
        <time>2013-04-07T07:44:59.000Z</time>
      </trkpt>
      <trkpt lat="48.62538" lon="7.26166">
        <ele>790</ele>
        <time>2013-04-07T07:45:01.000Z</time>
      </trkpt>
      <trkpt lat="48.62532" lon="7.26172">
        <ele>791</ele>
        <time>2013-04-07T07:45:04.000Z</time>
      </trkpt>
      <trkpt lat="48.62539" lon="7.26177">
        <ele>791</ele>
        <time>2013-04-07T07:45:07.000Z</time>
      </trkpt>
      <trkpt lat="48.62518" lon="7.26181">
        <ele>791</ele>
        <time>2013-04-07T07:45:11.000Z</time>
      </trkpt>
      <trkpt lat="48.62512" lon="7.26183">
        <ele>791</ele>
        <time>2013-04-07T07:45:14.000Z</time>
      </trkpt>
      <trkpt lat="48.62501" lon="7.26191">
        <ele>792</ele>
        <time>2013-04-07T07:45:18.000Z</time>
      </trkpt>
      <trkpt lat="48.62497" lon="7.26187">
        <ele>793</ele>
        <time>2013-04-07T07:45:20.000Z</time>
      </trkpt>
      <trkpt lat="48.62493" lon="7.26187">
        <ele>793</ele>
        <time>2013-04-07T07:45:22.000Z</time>
      </trkpt>
      <trkpt lat="48.62487" lon="7.26193">
        <ele>794</ele>
        <time>2013-04-07T07:45:25.000Z</time>
      </trkpt>
      <trkpt lat="48.62482" lon="7.26199">
        <ele>794</ele>
        <time>2013-04-07T07:45:29.000Z</time>
      </trkpt>
      <trkpt lat="48.62479" lon="7.26207">
        <ele>794</ele>
        <time>2013-04-07T07:45:32.000Z</time>
      </trkpt>
      <trkpt lat="48.62474" lon="7.26211">
        <ele>794</ele>
        <time>2013-04-07T07:45:35.000Z</time>
      </trkpt>
      <trkpt lat="48.62472" lon="7.26212">
        <ele>795</ele>
        <time>2013-04-07T07:45:37.000Z</time>
      </trkpt>
      <trkpt lat="48.62466" lon="7.26216">
        <ele>795</ele>
        <time>2013-04-07T07:45:40.000Z</time>
      </trkpt>
      <trkpt lat="48.62462" lon="7.26218">
        <ele>795</ele>
        <time>2013-04-07T07:45:42.000Z</time>
      </trkpt>
      <trkpt lat="48.62452" lon="7.26227">
        <ele>795</ele>
        <time>2013-04-07T07:45:46.000Z</time>
      </trkpt>
      <trkpt lat="48.62444" lon="7.26224">
        <ele>796</ele>
        <time>2013-04-07T07:45:50.000Z</time>
      </trkpt>
      <trkpt lat="48.62441" lon="7.2623">
        <ele>796</ele>
        <time>2013-04-07T07:45:52.000Z</time>
      </trkpt>
      <trkpt lat="48.62437" lon="7.26236">
        <ele>796</ele>
        <time>2013-04-07T07:45:55.000Z</time>
      </trkpt>
      <trkpt lat="48.62431" lon="7.26248">
        <ele>797</ele>
        <time>2013-04-07T07:45:59.000Z</time>
      </trkpt>
      <trkpt lat="48.62428" lon="7.26249">
        <ele>797</ele>
        <time>2013-04-07T07:46:02.000Z</time>
      </trkpt>
      <trkpt lat="48.62424" lon="7.26255">
        <ele>799</ele>
        <time>2013-04-07T07:46:06.000Z</time>
      </trkpt>
      <trkpt lat="48.62421" lon="7.2626">
        <ele>799</ele>
        <time>2013-04-07T07:46:09.000Z</time>
      </trkpt>
      <trkpt lat="48.62414" lon="7.26272">
        <ele>800</ele>
        <time>2013-04-07T07:46:13.000Z</time>
      </trkpt>
      <trkpt lat="48.62408" lon="7.26278">
        <ele>800</ele>
        <time>2013-04-07T07:46:18.000Z</time>
      </trkpt>
      <trkpt lat="48.62403" lon="7.26283">
        <ele>801</ele>
        <time>2013-04-07T07:46:22.000Z</time>
      </trkpt>
      <trkpt lat="48.62397" lon="7.26295">
        <ele>801</ele>
        <time>2013-04-07T07:46:28.000Z</time>
      </trkpt>
      <trkpt lat="48.62394" lon="7.26295">
        <ele>801</ele>
        <time>2013-04-07T07:46:30.000Z</time>
      </trkpt>
      <trkpt lat="48.62389" lon="7.26296">
        <ele>801</ele>
        <time>2013-04-07T07:46:33.000Z</time>
      </trkpt>
      <trkpt lat="48.62384" lon="7.26297">
        <ele>801</ele>
        <time>2013-04-07T07:46:37.000Z</time>
      </trkpt>
      <trkpt lat="48.62383" lon="7.26305">
        <ele>801</ele>
        <time>2013-04-07T07:46:39.000Z</time>
      </trkpt>
      <trkpt lat="48.62378" lon="7.2631">
        <ele>801</ele>
        <time>2013-04-07T07:46:41.000Z</time>
      </trkpt>
      <trkpt lat="48.62376" lon="7.26313">
        <ele>801</ele>
        <time>2013-04-07T07:46:45.000Z</time>
      </trkpt>
      <trkpt lat="48.62375" lon="7.26318">
        <ele>802</ele>
        <time>2013-04-07T07:46:47.000Z</time>
      </trkpt>
      <trkpt lat="48.62374" lon="7.26321">
        <ele>802</ele>
        <time>2013-04-07T07:46:49.000Z</time>
      </trkpt>
      <trkpt lat="48.62369" lon="7.26333">
        <ele>802</ele>
        <time>2013-04-07T07:46:53.000Z</time>
      </trkpt>
      <trkpt lat="48.62364" lon="7.26343">
        <ele>804</ele>
        <time>2013-04-07T07:46:57.000Z</time>
      </trkpt>
      <trkpt lat="48.62365" lon="7.26338">
        <ele>804</ele>
        <time>2013-04-07T07:46:59.000Z</time>
      </trkpt>
      <trkpt lat="48.62362" lon="7.26345">
        <ele>804</ele>
        <time>2013-04-07T07:47:03.000Z</time>
      </trkpt>
      <trkpt lat="48.6236" lon="7.26353">
        <ele>804</ele>
        <time>2013-04-07T07:47:05.000Z</time>
      </trkpt>
      <trkpt lat="48.62357" lon="7.26354">
        <ele>804</ele>
        <time>2013-04-07T07:47:08.000Z</time>
      </trkpt>
      <trkpt lat="48.6236" lon="7.26371">
        <ele>804</ele>
        <time>2013-04-07T07:47:11.000Z</time>
      </trkpt>
      <trkpt lat="48.62359" lon="7.26376">
        <ele>804</ele>
        <time>2013-04-07T07:47:14.000Z</time>
      </trkpt>
      <trkpt lat="48.62358" lon="7.26383">
        <ele>804</ele>
        <time>2013-04-07T07:47:16.000Z</time>
      </trkpt>
      <trkpt lat="48.62359" lon="7.26387">
        <ele>804</ele>
        <time>2013-04-07T07:47:18.000Z</time>
      </trkpt>
      <trkpt lat="48.62358" lon="7.26392">
        <ele>804</ele>
        <time>2013-04-07T07:47:20.000Z</time>
      </trkpt>
      <trkpt lat="48.62356" lon="7.26397">
        <ele>804</ele>
        <time>2013-04-07T07:47:23.000Z</time>
      </trkpt>
      <trkpt lat="48.62354" lon="7.26408">
        <ele>804</ele>
        <time>2013-04-07T07:47:26.000Z</time>
      </trkpt>
      <trkpt lat="48.62351" lon="7.26411">
        <ele>805</ele>
        <time>2013-04-07T07:47:28.000Z</time>
      </trkpt>
      <trkpt lat="48.62349" lon="7.26413">
        <ele>805</ele>
        <time>2013-04-07T07:47:30.000Z</time>
      </trkpt>
      <trkpt lat="48.62346" lon="7.26423">
        <ele>806</ele>
        <time>2013-04-07T07:47:33.000Z</time>
      </trkpt>
      <trkpt lat="48.62344" lon="7.2643">
        <ele>806</ele>
        <time>2013-04-07T07:47:35.000Z</time>
      </trkpt>
      <trkpt lat="48.6234" lon="7.26439">
        <ele>806</ele>
        <time>2013-04-07T07:47:38.000Z</time>
      </trkpt>
      <trkpt lat="48.62338" lon="7.26444">
        <ele>806</ele>
        <time>2013-04-07T07:47:40.000Z</time>
      </trkpt>
      <trkpt lat="48.62335" lon="7.26449">
        <ele>806</ele>
        <time>2013-04-07T07:47:43.000Z</time>
      </trkpt>
      <trkpt lat="48.62333" lon="7.26456">
        <ele>813</ele>
        <time>2013-04-07T07:47:45.000Z</time>
      </trkpt>
      <trkpt lat="48.6233" lon="7.26463">
        <ele>813</ele>
        <time>2013-04-07T07:47:48.000Z</time>
      </trkpt>
      <trkpt lat="48.62328" lon="7.26469">
        <ele>813</ele>
        <time>2013-04-07T07:47:51.000Z</time>
      </trkpt>
      <trkpt lat="48.62323" lon="7.26477">
        <ele>814</ele>
        <time>2013-04-07T07:47:54.000Z</time>
      </trkpt>
      <trkpt lat="48.6232" lon="7.26483">
        <ele>814</ele>
        <time>2013-04-07T07:47:57.000Z</time>
      </trkpt>
      <trkpt lat="48.62317" lon="7.26485">
        <ele>814</ele>
        <time>2013-04-07T07:48:00.000Z</time>
      </trkpt>
      <trkpt lat="48.62312" lon="7.265">
        <ele>814</ele>
        <time>2013-04-07T07:48:03.000Z</time>
      </trkpt>
      <trkpt lat="48.6231" lon="7.26504">
        <ele>814</ele>
        <time>2013-04-07T07:48:05.000Z</time>
      </trkpt>
      <trkpt lat="48.62309" lon="7.26514">
        <ele>814</ele>
        <time>2013-04-07T07:48:08.000Z</time>
      </trkpt>
      <trkpt lat="48.62313" lon="7.26517">
        <ele>814</ele>
        <time>2013-04-07T07:48:11.000Z</time>
      </trkpt>
      <trkpt lat="48.62305" lon="7.26532">
        <ele>814</ele>
        <time>2013-04-07T07:48:14.000Z</time>
      </trkpt>
      <trkpt lat="48.62303" lon="7.26543">
        <ele>814</ele>
        <time>2013-04-07T07:48:16.000Z</time>
      </trkpt>
      <trkpt lat="48.62302" lon="7.26536">
        <ele>814</ele>
        <time>2013-04-07T07:48:18.000Z</time>
      </trkpt>
      <trkpt lat="48.62305" lon="7.26559">
        <ele>813</ele>
        <time>2013-04-07T07:48:21.000Z</time>
      </trkpt>
      <trkpt lat="48.62308" lon="7.2656">
        <ele>813</ele>
        <time>2013-04-07T07:48:23.000Z</time>
      </trkpt>
      <trkpt lat="48.62296" lon="7.26556">
        <ele>813</ele>
        <time>2013-04-07T07:48:26.000Z</time>
      </trkpt>
      <trkpt lat="48.6231" lon="7.2658">
        <ele>813</ele>
        <time>2013-04-07T07:48:29.000Z</time>
      </trkpt>
      <trkpt lat="48.62308" lon="7.26583">
        <ele>809</ele>
        <time>2013-04-07T07:48:31.000Z</time>
      </trkpt>
      <trkpt lat="48.62305" lon="7.26593">
        <ele>808</ele>
        <time>2013-04-07T07:48:34.000Z</time>
      </trkpt>
      <trkpt lat="48.62303" lon="7.26597">
        <ele>808</ele>
        <time>2013-04-07T07:48:36.000Z</time>
      </trkpt>
      <trkpt lat="48.62297" lon="7.266">
        <ele>808</ele>
        <time>2013-04-07T07:48:40.000Z</time>
      </trkpt>
      <trkpt lat="48.62293" lon="7.26613">
        <ele>807</ele>
        <time>2013-04-07T07:48:43.000Z</time>
      </trkpt>
      <trkpt lat="48.62293" lon="7.26608">
        <ele>807</ele>
        <time>2013-04-07T07:48:45.000Z</time>
      </trkpt>
      <trkpt lat="48.62293" lon="7.26608">
        <ele>807</ele>
        <time>2013-04-07T07:49:05.000Z</time>
      </trkpt>
      <trkpt lat="48.62292" lon="7.26621">
        <ele>807</ele>
        <time>2013-04-07T07:49:26.000Z</time>
      </trkpt>
      <trkpt lat="48.62292" lon="7.26621">
        <ele>807</ele>
        <time>2013-04-07T07:49:46.000Z</time>
      </trkpt>
      <trkpt lat="48.62291" lon="7.26617">
        <ele>807</ele>
        <time>2013-04-07T07:50:25.000Z</time>
      </trkpt>
      <trkpt lat="48.62291" lon="7.2662">
        <ele>807</ele>
        <time>2013-04-07T07:50:30.000Z</time>
      </trkpt>
      <trkpt lat="48.62292" lon="7.26623">
        <ele>807</ele>
        <time>2013-04-07T07:50:43.000Z</time>
      </trkpt>
      <trkpt lat="48.62291" lon="7.26629">
        <ele>806</ele>
        <time>2013-04-07T07:50:51.000Z</time>
      </trkpt>
      <trkpt lat="48.62295" lon="7.26624">
        <ele>807</ele>
        <time>2013-04-07T07:50:57.000Z</time>
      </trkpt>
      <trkpt lat="48.62295" lon="7.26624">
        <ele>807</ele>
        <time>2013-04-07T07:51:17.000Z</time>
      </trkpt>
      <trkpt lat="48.62292" lon="7.26632">
        <ele>806</ele>
        <time>2013-04-07T07:55:05.000Z</time>
      </trkpt>
      <trkpt lat="48.62292" lon="7.26637">
        <ele>806</ele>
        <time>2013-04-07T07:55:12.000Z</time>
      </trkpt>
      <trkpt lat="48.62294" lon="7.26639">
        <ele>806</ele>
        <time>2013-04-07T07:55:16.000Z</time>
      </trkpt>
      <trkpt lat="48.62294" lon="7.26644">
        <ele>806</ele>
        <time>2013-04-07T07:55:18.000Z</time>
      </trkpt>
      <trkpt lat="48.62297" lon="7.26647">
        <ele>805</ele>
        <time>2013-04-07T07:55:22.000Z</time>
      </trkpt>
      <trkpt lat="48.623" lon="7.26659">
        <ele>805</ele>
        <time>2013-04-07T07:55:26.000Z</time>
      </trkpt>
      <trkpt lat="48.623" lon="7.26659">
        <ele>805</ele>
        <time>2013-04-07T07:55:46.000Z</time>
      </trkpt>
      <trkpt lat="48.62301" lon="7.26655">
        <ele>805</ele>
        <time>2013-04-07T07:56:36.000Z</time>
      </trkpt>
      <trkpt lat="48.62304" lon="7.26659">
        <ele>805</ele>
        <time>2013-04-07T07:56:39.000Z</time>
      </trkpt>
      <trkpt lat="48.62303" lon="7.26663">
        <ele>805</ele>
        <time>2013-04-07T07:56:43.000Z</time>
      </trkpt>
      <trkpt lat="48.62303" lon="7.26663">
        <ele>805</ele>
        <time>2013-04-07T07:57:03.000Z</time>
      </trkpt>
      <trkpt lat="48.62303" lon="7.26667">
        <ele>799</ele>
        <time>2013-04-07T07:57:23.000Z</time>
      </trkpt>
      <trkpt lat="48.62303" lon="7.2667">
        <ele>799</ele>
        <time>2013-04-07T07:57:26.000Z</time>
      </trkpt>
      <trkpt lat="48.62303" lon="7.2667">
        <ele>799</ele>
        <time>2013-04-07T07:57:46.000Z</time>
      </trkpt>
      <trkpt lat="48.62308" lon="7.26671">
        <ele>799</ele>
        <time>2013-04-07T07:58:36.000Z</time>
      </trkpt>
      <trkpt lat="48.62318" lon="7.2667">
        <ele>801</ele>
        <time>2013-04-07T07:58:39.000Z</time>
      </trkpt>
      <trkpt lat="48.62294" lon="7.26724">
        <ele>795</ele>
        <time>2013-04-07T07:58:44.000Z</time>
      </trkpt>
      <trkpt lat="48.62308" lon="7.26759">
        <ele>788</ele>
        <time>2013-04-07T07:58:47.000Z</time>
      </trkpt>
      <trkpt lat="48.62309" lon="7.26767">
        <ele>788</ele>
        <time>2013-04-07T07:58:49.000Z</time>
      </trkpt>
      <trkpt lat="48.62312" lon="7.26778">
        <ele>787</ele>
        <time>2013-04-07T07:58:51.000Z</time>
      </trkpt>
      <trkpt lat="48.62321" lon="7.26769">
        <ele>790</ele>
        <time>2013-04-07T07:58:54.000Z</time>
      </trkpt>
      <trkpt lat="48.62325" lon="7.26782">
        <ele>788</ele>
        <time>2013-04-07T07:58:56.000Z</time>
      </trkpt>
      <trkpt lat="48.62326" lon="7.268">
        <ele>785</ele>
        <time>2013-04-07T07:59:00.000Z</time>
      </trkpt>
      <trkpt lat="48.62327" lon="7.26806">
        <ele>785</ele>
        <time>2013-04-07T07:59:04.000Z</time>
      </trkpt>
      <trkpt lat="48.62324" lon="7.26803">
        <ele>785</ele>
        <time>2013-04-07T07:59:06.000Z</time>
      </trkpt>
      <trkpt lat="48.6232" lon="7.26808">
        <ele>785</ele>
        <time>2013-04-07T07:59:10.000Z</time>
      </trkpt>
      <trkpt lat="48.62315" lon="7.26811">
        <ele>784</ele>
        <time>2013-04-07T07:59:14.000Z</time>
      </trkpt>
      <trkpt lat="48.62322" lon="7.26817">
        <ele>785</ele>
        <time>2013-04-07T07:59:18.000Z</time>
      </trkpt>
      <trkpt lat="48.62305" lon="7.26805">
        <ele>784</ele>
        <time>2013-04-07T07:59:22.000Z</time>
      </trkpt>
      <trkpt lat="48.62302" lon="7.26801">
        <ele>783</ele>
        <time>2013-04-07T07:59:24.000Z</time>
      </trkpt>
      <trkpt lat="48.62294" lon="7.26791">
        <ele>783</ele>
        <time>2013-04-07T07:59:27.000Z</time>
      </trkpt>
      <trkpt lat="48.62292" lon="7.26789">
        <ele>783</ele>
        <time>2013-04-07T07:59:29.000Z</time>
      </trkpt>
      <trkpt lat="48.62285" lon="7.26785">
        <ele>783</ele>
        <time>2013-04-07T07:59:33.000Z</time>
      </trkpt>
      <trkpt lat="48.62283" lon="7.26788">
        <ele>782</ele>
        <time>2013-04-07T07:59:35.000Z</time>
      </trkpt>
      <trkpt lat="48.62277" lon="7.26798">
        <ele>781</ele>
        <time>2013-04-07T07:59:38.000Z</time>
      </trkpt>
      <trkpt lat="48.62273" lon="7.26796">
        <ele>781</ele>
        <time>2013-04-07T07:59:40.000Z</time>
      </trkpt>
      <trkpt lat="48.62268" lon="7.26808">
        <ele>778</ele>
        <time>2013-04-07T07:59:44.000Z</time>
      </trkpt>
      <trkpt lat="48.62265" lon="7.26822">
        <ele>775</ele>
        <time>2013-04-07T07:59:47.000Z</time>
      </trkpt>
      <trkpt lat="48.62262" lon="7.26834">
        <ele>767</ele>
        <time>2013-04-07T07:59:50.000Z</time>
      </trkpt>
      <trkpt lat="48.62262" lon="7.26847">
        <ele>767</ele>
        <time>2013-04-07T07:59:53.000Z</time>
      </trkpt>
      <trkpt lat="48.62264" lon="7.26854">
        <ele>767</ele>
        <time>2013-04-07T07:59:55.000Z</time>
      </trkpt>
      <trkpt lat="48.62267" lon="7.26869">
        <ele>766</ele>
        <time>2013-04-07T07:59:57.000Z</time>
      </trkpt>
      <trkpt lat="48.62271" lon="7.26874">
        <ele>766</ele>
        <time>2013-04-07T07:59:59.000Z</time>
      </trkpt>
      <trkpt lat="48.6227" lon="7.26898">
        <ele>762</ele>
        <time>2013-04-07T08:00:02.000Z</time>
      </trkpt>
      <trkpt lat="48.62269" lon="7.26895">
        <ele>762</ele>
        <time>2013-04-07T08:00:04.000Z</time>
      </trkpt>
      <trkpt lat="48.62268" lon="7.26902">
        <ele>761</ele>
        <time>2013-04-07T08:00:06.000Z</time>
      </trkpt>
      <trkpt lat="48.6227" lon="7.26917">
        <ele>752</ele>
        <time>2013-04-07T08:00:09.000Z</time>
      </trkpt>
      <trkpt lat="48.62273" lon="7.26931">
        <ele>752</ele>
        <time>2013-04-07T08:00:11.000Z</time>
      </trkpt>
      <trkpt lat="48.62276" lon="7.2694">
        <ele>751</ele>
        <time>2013-04-07T08:00:14.000Z</time>
      </trkpt>
      <trkpt lat="48.62279" lon="7.26949">
        <ele>751</ele>
        <time>2013-04-07T08:00:16.000Z</time>
      </trkpt>
      <trkpt lat="48.62286" lon="7.26959">
        <ele>751</ele>
        <time>2013-04-07T08:00:19.000Z</time>
      </trkpt>
      <trkpt lat="48.62292" lon="7.2697">
        <ele>750</ele>
        <time>2013-04-07T08:00:22.000Z</time>
      </trkpt>
      <trkpt lat="48.62303" lon="7.2699">
        <ele>751</ele>
        <time>2013-04-07T08:00:25.000Z</time>
      </trkpt>
      <trkpt lat="48.62312" lon="7.26996">
        <ele>751</ele>
        <time>2013-04-07T08:00:28.000Z</time>
      </trkpt>
      <trkpt lat="48.62311" lon="7.27002">
        <ele>742</ele>
        <time>2013-04-07T08:00:30.000Z</time>
      </trkpt>
      <trkpt lat="48.6231" lon="7.27009">
        <ele>741</ele>
        <time>2013-04-07T08:00:33.000Z</time>
      </trkpt>
      <trkpt lat="48.62307" lon="7.27007">
        <ele>740</ele>
        <time>2013-04-07T08:00:36.000Z</time>
      </trkpt>
      <trkpt lat="48.6231" lon="7.27022">
        <ele>739</ele>
        <time>2013-04-07T08:00:39.000Z</time>
      </trkpt>
      <trkpt lat="48.62318" lon="7.27026">
        <ele>739</ele>
        <time>2013-04-07T08:00:42.000Z</time>
      </trkpt>
      <trkpt lat="48.62321" lon="7.27041">
        <ele>737</ele>
        <time>2013-04-07T08:00:44.000Z</time>
      </trkpt>
      <trkpt lat="48.62325" lon="7.27045">
        <ele>736</ele>
        <time>2013-04-07T08:00:47.000Z</time>
      </trkpt>
      <trkpt lat="48.62331" lon="7.27055">
        <ele>735</ele>
        <time>2013-04-07T08:00:50.000Z</time>
      </trkpt>
      <trkpt lat="48.62336" lon="7.27068">
        <ele>737</ele>
        <time>2013-04-07T08:00:52.000Z</time>
      </trkpt>
      <trkpt lat="48.62341" lon="7.27072">
        <ele>737</ele>
        <time>2013-04-07T08:00:55.000Z</time>
      </trkpt>
      <trkpt lat="48.62346" lon="7.27093">
        <ele>728</ele>
        <time>2013-04-07T08:00:58.000Z</time>
      </trkpt>
      <trkpt lat="48.62358" lon="7.27108">
        <ele>726</ele>
        <time>2013-04-07T08:01:01.000Z</time>
      </trkpt>
      <trkpt lat="48.62365" lon="7.27128">
        <ele>723</ele>
        <time>2013-04-07T08:01:04.000Z</time>
      </trkpt>
      <trkpt lat="48.62368" lon="7.27137">
        <ele>722</ele>
        <time>2013-04-07T08:01:07.000Z</time>
      </trkpt>
      <trkpt lat="48.6237" lon="7.27144">
        <ele>721</ele>
        <time>2013-04-07T08:01:09.000Z</time>
      </trkpt>
      <trkpt lat="48.62376" lon="7.27158">
        <ele>720</ele>
        <time>2013-04-07T08:01:13.000Z</time>
      </trkpt>
      <trkpt lat="48.62389" lon="7.27164">
        <ele>720</ele>
        <time>2013-04-07T08:01:16.000Z</time>
      </trkpt>
      <trkpt lat="48.6241" lon="7.27194">
        <ele>709</ele>
        <time>2013-04-07T08:01:20.000Z</time>
      </trkpt>
      <trkpt lat="48.62424" lon="7.27219">
        <ele>705</ele>
        <time>2013-04-07T08:01:23.000Z</time>
      </trkpt>
      <trkpt lat="48.62438" lon="7.27221">
        <ele>704</ele>
        <time>2013-04-07T08:01:26.000Z</time>
      </trkpt>
      <trkpt lat="48.62444" lon="7.27204">
        <ele>705</ele>
        <time>2013-04-07T08:01:29.000Z</time>
      </trkpt>
      <trkpt lat="48.62458" lon="7.27214">
        <ele>704</ele>
        <time>2013-04-07T08:01:34.000Z</time>
      </trkpt>
      <trkpt lat="48.62477" lon="7.27234">
        <ele>701</ele>
        <time>2013-04-07T08:01:38.000Z</time>
      </trkpt>
      <trkpt lat="48.62476" lon="7.27249">
        <ele>700</ele>
        <time>2013-04-07T08:01:40.000Z</time>
      </trkpt>
      <trkpt lat="48.62471" lon="7.27259">
        <ele>694</ele>
        <time>2013-04-07T08:01:43.000Z</time>
      </trkpt>
      <trkpt lat="48.62486" lon="7.27276">
        <ele>693</ele>
        <time>2013-04-07T08:01:46.000Z</time>
      </trkpt>
      <trkpt lat="48.62498" lon="7.27276">
        <ele>693</ele>
        <time>2013-04-07T08:01:49.000Z</time>
      </trkpt>
      <trkpt lat="48.62508" lon="7.27281">
        <ele>688</ele>
        <time>2013-04-07T08:01:52.000Z</time>
      </trkpt>
      <trkpt lat="48.6251" lon="7.27288">
        <ele>687</ele>
        <time>2013-04-07T08:01:54.000Z</time>
      </trkpt>
      <trkpt lat="48.62507" lon="7.27309">
        <ele>686</ele>
        <time>2013-04-07T08:01:57.000Z</time>
      </trkpt>
      <trkpt lat="48.62517" lon="7.27313">
        <ele>686</ele>
        <time>2013-04-07T08:02:01.000Z</time>
      </trkpt>
      <trkpt lat="48.62529" lon="7.27316">
        <ele>685</ele>
        <time>2013-04-07T08:02:04.000Z</time>
      </trkpt>
      <trkpt lat="48.62531" lon="7.27314">
        <ele>685</ele>
        <time>2013-04-07T08:02:07.000Z</time>
      </trkpt>
      <trkpt lat="48.62522" lon="7.27316">
        <ele>685</ele>
        <time>2013-04-07T08:02:10.000Z</time>
      </trkpt>
      <trkpt lat="48.62552" lon="7.27322">
        <ele>682</ele>
        <time>2013-04-07T08:02:17.000Z</time>
      </trkpt>
      <trkpt lat="48.62612" lon="7.27313">
        <ele>670</ele>
        <time>2013-04-07T08:02:23.000Z</time>
      </trkpt>
      <trkpt lat="48.62632" lon="7.27298">
        <ele>667</ele>
        <time>2013-04-07T08:02:26.000Z</time>
      </trkpt>
      <trkpt lat="48.6265" lon="7.27283">
        <ele>666</ele>
        <time>2013-04-07T08:02:29.000Z</time>
      </trkpt>
      <trkpt lat="48.62661" lon="7.27278">
        <ele>665</ele>
        <time>2013-04-07T08:02:31.000Z</time>
      </trkpt>
      <trkpt lat="48.62675" lon="7.27241">
        <ele>661</ele>
        <time>2013-04-07T08:02:35.000Z</time>
      </trkpt>
      <trkpt lat="48.62681" lon="7.2722">
        <ele>660</ele>
        <time>2013-04-07T08:02:37.000Z</time>
      </trkpt>
      <trkpt lat="48.62688" lon="7.27206">
        <ele>661</ele>
        <time>2013-04-07T08:02:39.000Z</time>
      </trkpt>
      <trkpt lat="48.62679" lon="7.27212">
        <ele>661</ele>
        <time>2013-04-07T08:02:41.000Z</time>
      </trkpt>
      <trkpt lat="48.62712" lon="7.2719">
        <ele>659</ele>
        <time>2013-04-07T08:02:45.000Z</time>
      </trkpt>
      <trkpt lat="48.62721" lon="7.27181">
        <ele>659</ele>
        <time>2013-04-07T08:02:47.000Z</time>
      </trkpt>
      <trkpt lat="48.62733" lon="7.27162">
        <ele>664</ele>
        <time>2013-04-07T08:02:50.000Z</time>
      </trkpt>
      <trkpt lat="48.62746" lon="7.27137">
        <ele>667</ele>
        <time>2013-04-07T08:02:53.000Z</time>
      </trkpt>
      <trkpt lat="48.6275" lon="7.27126">
        <ele>659</ele>
        <time>2013-04-07T08:02:56.000Z</time>
      </trkpt>
      <trkpt lat="48.62753" lon="7.27116">
        <ele>660</ele>
        <time>2013-04-07T08:02:59.000Z</time>
      </trkpt>
      <trkpt lat="48.6276" lon="7.27088">
        <ele>665</ele>
        <time>2013-04-07T08:03:03.000Z</time>
      </trkpt>
      <trkpt lat="48.62768" lon="7.27061">
        <ele>667</ele>
        <time>2013-04-07T08:03:06.000Z</time>
      </trkpt>
      <trkpt lat="48.62772" lon="7.27055">
        <ele>667</ele>
        <time>2013-04-07T08:03:08.000Z</time>
      </trkpt>
      <trkpt lat="48.62777" lon="7.2703">
        <ele>667</ele>
        <time>2013-04-07T08:03:11.000Z</time>
      </trkpt>
      <trkpt lat="48.62781" lon="7.27015">
        <ele>667</ele>
        <time>2013-04-07T08:03:14.000Z</time>
      </trkpt>
      <trkpt lat="48.62782" lon="7.26999">
        <ele>664</ele>
        <time>2013-04-07T08:03:16.000Z</time>
      </trkpt>
      <trkpt lat="48.62782" lon="7.2699">
        <ele>664</ele>
        <time>2013-04-07T08:03:18.000Z</time>
      </trkpt>
      <trkpt lat="48.62784" lon="7.26968">
        <ele>662</ele>
        <time>2013-04-07T08:03:21.000Z</time>
      </trkpt>
      <trkpt lat="48.62785" lon="7.26967">
        <ele>662</ele>
        <time>2013-04-07T08:03:23.000Z</time>
      </trkpt>
      <trkpt lat="48.6279" lon="7.26957">
        <ele>660</ele>
        <time>2013-04-07T08:03:27.000Z</time>
      </trkpt>
      <trkpt lat="48.62815" lon="7.26895">
        <ele>646</ele>
        <time>2013-04-07T08:03:33.000Z</time>
      </trkpt>
      <trkpt lat="48.62831" lon="7.26859">
        <ele>643</ele>
        <time>2013-04-07T08:03:36.000Z</time>
      </trkpt>
      <trkpt lat="48.62836" lon="7.26847">
        <ele>632</ele>
        <time>2013-04-07T08:03:38.000Z</time>
      </trkpt>
      <trkpt lat="48.62848" lon="7.26857">
        <ele>630</ele>
        <time>2013-04-07T08:03:41.000Z</time>
      </trkpt>
      <trkpt lat="48.62859" lon="7.26847">
        <ele>630</ele>
        <time>2013-04-07T08:03:44.000Z</time>
      </trkpt>
      <trkpt lat="48.62859" lon="7.26851">
        <ele>629</ele>
        <time>2013-04-07T08:03:46.000Z</time>
      </trkpt>
      <trkpt lat="48.62865" lon="7.26854">
        <ele>629</ele>
        <time>2013-04-07T08:03:48.000Z</time>
      </trkpt>
      <trkpt lat="48.62851" lon="7.2685">
        <ele>630</ele>
        <time>2013-04-07T08:03:51.000Z</time>
      </trkpt>
      <trkpt lat="48.62866" lon="7.26857">
        <ele>629</ele>
        <time>2013-04-07T08:03:53.000Z</time>
      </trkpt>
      <trkpt lat="48.62884" lon="7.26868">
        <ele>627</ele>
        <time>2013-04-07T08:03:56.000Z</time>
      </trkpt>
      <trkpt lat="48.62883" lon="7.26874">
        <ele>627</ele>
        <time>2013-04-07T08:04:00.000Z</time>
      </trkpt>
      <trkpt lat="48.62888" lon="7.26869">
        <ele>627</ele>
        <time>2013-04-07T08:04:03.000Z</time>
      </trkpt>
      <trkpt lat="48.62893" lon="7.26864">
        <ele>626</ele>
        <time>2013-04-07T08:04:06.000Z</time>
      </trkpt>
      <trkpt lat="48.62901" lon="7.26857">
        <ele>625</ele>
        <time>2013-04-07T08:04:09.000Z</time>
      </trkpt>
      <trkpt lat="48.6291" lon="7.26845">
        <ele>623</ele>
        <time>2013-04-07T08:04:12.000Z</time>
      </trkpt>
      <trkpt lat="48.62916" lon="7.26846">
        <ele>622</ele>
        <time>2013-04-07T08:04:15.000Z</time>
      </trkpt>
      <trkpt lat="48.62911" lon="7.26809">
        <ele>626</ele>
        <time>2013-04-07T08:04:19.000Z</time>
      </trkpt>
      <trkpt lat="48.62922" lon="7.26801">
        <ele>623</ele>
        <time>2013-04-07T08:04:22.000Z</time>
      </trkpt>
      <trkpt lat="48.62926" lon="7.26807">
        <ele>623</ele>
        <time>2013-04-07T08:04:25.000Z</time>
      </trkpt>
      <trkpt lat="48.62934" lon="7.26816">
        <ele>622</ele>
        <time>2013-04-07T08:04:28.000Z</time>
      </trkpt>
      <trkpt lat="48.62941" lon="7.26828">
        <ele>621</ele>
        <time>2013-04-07T08:04:31.000Z</time>
      </trkpt>
      <trkpt lat="48.62931" lon="7.26837">
        <ele>616</ele>
        <time>2013-04-07T08:04:34.000Z</time>
      </trkpt>
      <trkpt lat="48.62963" lon="7.26894">
        <ele>610</ele>
        <time>2013-04-07T08:04:41.000Z</time>
      </trkpt>
      <trkpt lat="48.63009" lon="7.26931">
        <ele>593</ele>
        <time>2013-04-07T08:04:46.000Z</time>
      </trkpt>
      <trkpt lat="48.63013" lon="7.26954">
        <ele>591</ele>
        <time>2013-04-07T08:04:48.000Z</time>
      </trkpt>
      <trkpt lat="48.63019" lon="7.26982">
        <ele>590</ele>
        <time>2013-04-07T08:04:51.000Z</time>
      </trkpt>
      <trkpt lat="48.63014" lon="7.27014">
        <ele>587</ele>
        <time>2013-04-07T08:04:54.000Z</time>
      </trkpt>
      <trkpt lat="48.63018" lon="7.27038">
        <ele>585</ele>
        <time>2013-04-07T08:04:56.000Z</time>
      </trkpt>
      <trkpt lat="48.63014" lon="7.27061">
        <ele>584</ele>
        <time>2013-04-07T08:04:59.000Z</time>
      </trkpt>
      <trkpt lat="48.63008" lon="7.27102">
        <ele>580</ele>
        <time>2013-04-07T08:05:02.000Z</time>
      </trkpt>
      <trkpt lat="48.63011" lon="7.27108">
        <ele>579</ele>
        <time>2013-04-07T08:05:04.000Z</time>
      </trkpt>
      <trkpt lat="48.62999" lon="7.27137">
        <ele>585</ele>
        <time>2013-04-07T08:05:08.000Z</time>
      </trkpt>
      <trkpt lat="48.62995" lon="7.27152">
        <ele>581</ele>
        <time>2013-04-07T08:05:10.000Z</time>
      </trkpt>
      <trkpt lat="48.62987" lon="7.27175">
        <ele>574</ele>
        <time>2013-04-07T08:05:13.000Z</time>
      </trkpt>
      <trkpt lat="48.62986" lon="7.27179">
        <ele>575</ele>
        <time>2013-04-07T08:05:15.000Z</time>
      </trkpt>
      <trkpt lat="48.6298" lon="7.27211">
        <ele>574</ele>
        <time>2013-04-07T08:05:19.000Z</time>
      </trkpt>
      <trkpt lat="48.62975" lon="7.27255">
        <ele>561</ele>
        <time>2013-04-07T08:05:22.000Z</time>
      </trkpt>
      <trkpt lat="48.62968" lon="7.27284">
        <ele>561</ele>
        <time>2013-04-07T08:05:25.000Z</time>
      </trkpt>
      <trkpt lat="48.62965" lon="7.27304">
        <ele>560</ele>
        <time>2013-04-07T08:05:27.000Z</time>
      </trkpt>
      <trkpt lat="48.62953" lon="7.27325">
        <ele>560</ele>
        <time>2013-04-07T08:05:30.000Z</time>
      </trkpt>
      <trkpt lat="48.6294" lon="7.27351">
        <ele>552</ele>
        <time>2013-04-07T08:05:33.000Z</time>
      </trkpt>
      <trkpt lat="48.62931" lon="7.27363">
        <ele>551</ele>
        <time>2013-04-07T08:05:35.000Z</time>
      </trkpt>
      <trkpt lat="48.62922" lon="7.27375">
        <ele>550</ele>
        <time>2013-04-07T08:05:38.000Z</time>
      </trkpt>
      <trkpt lat="48.62913" lon="7.27382">
        <ele>557</ele>
        <time>2013-04-07T08:05:40.000Z</time>
      </trkpt>
      <trkpt lat="48.62901" lon="7.27396">
        <ele>555</ele>
        <time>2013-04-07T08:05:42.000Z</time>
      </trkpt>
      <trkpt lat="48.62888" lon="7.27406">
        <ele>557</ele>
        <time>2013-04-07T08:05:45.000Z</time>
      </trkpt>
      <trkpt lat="48.6288" lon="7.2742">
        <ele>548</ele>
        <time>2013-04-07T08:05:47.000Z</time>
      </trkpt>
      <trkpt lat="48.62875" lon="7.27441">
        <ele>548</ele>
        <time>2013-04-07T08:05:50.000Z</time>
      </trkpt>
      <trkpt lat="48.62872" lon="7.27463">
        <ele>547</ele>
        <time>2013-04-07T08:05:52.000Z</time>
      </trkpt>
      <trkpt lat="48.62865" lon="7.27498">
        <ele>546</ele>
        <time>2013-04-07T08:05:55.000Z</time>
      </trkpt>
      <trkpt lat="48.62872" lon="7.27525">
        <ele>538</ele>
        <time>2013-04-07T08:05:58.000Z</time>
      </trkpt>
      <trkpt lat="48.62862" lon="7.27531">
        <ele>538</ele>
        <time>2013-04-07T08:06:00.000Z</time>
      </trkpt>
      <trkpt lat="48.62857" lon="7.27562">
        <ele>537</ele>
        <time>2013-04-07T08:06:03.000Z</time>
      </trkpt>
      <trkpt lat="48.6286" lon="7.2757">
        <ele>536</ele>
        <time>2013-04-07T08:06:05.000Z</time>
      </trkpt>
      <trkpt lat="48.62855" lon="7.27585">
        <ele>531</ele>
        <time>2013-04-07T08:06:07.000Z</time>
      </trkpt>
      <trkpt lat="48.62855" lon="7.27614">
        <ele>529</ele>
        <time>2013-04-07T08:06:10.000Z</time>
      </trkpt>
      <trkpt lat="48.62852" lon="7.27653">
        <ele>526</ele>
        <time>2013-04-07T08:06:13.000Z</time>
      </trkpt>
      <trkpt lat="48.62854" lon="7.2766">
        <ele>526</ele>
        <time>2013-04-07T08:06:15.000Z</time>
      </trkpt>
      <trkpt lat="48.62858" lon="7.27684">
        <ele>519</ele>
        <time>2013-04-07T08:06:19.000Z</time>
      </trkpt>
      <trkpt lat="48.62856" lon="7.27698">
        <ele>517</ele>
        <time>2013-04-07T08:06:21.000Z</time>
      </trkpt>
      <trkpt lat="48.62857" lon="7.27698">
        <ele>517</ele>
        <time>2013-04-07T08:06:24.000Z</time>
      </trkpt>
      <trkpt lat="48.62863" lon="7.27693">
        <ele>518</ele>
        <time>2013-04-07T08:06:27.000Z</time>
      </trkpt>
      <trkpt lat="48.62868" lon="7.27685">
        <ele>518</ele>
        <time>2013-04-07T08:06:29.000Z</time>
      </trkpt>
      <trkpt lat="48.62874" lon="7.27682">
        <ele>519</ele>
        <time>2013-04-07T08:06:33.000Z</time>
      </trkpt>
      <trkpt lat="48.62877" lon="7.2768">
        <ele>519</ele>
        <time>2013-04-07T08:06:35.000Z</time>
      </trkpt>
      <trkpt lat="48.62878" lon="7.27678">
        <ele>519</ele>
        <time>2013-04-07T08:06:39.000Z</time>
      </trkpt>
      <trkpt lat="48.62877" lon="7.2767">
        <ele>519</ele>
        <time>2013-04-07T08:06:47.000Z</time>
      </trkpt>
      <trkpt lat="48.62877" lon="7.27672">
        <ele>519</ele>
        <time>2013-04-07T08:06:56.000Z</time>
      </trkpt>
      <trkpt lat="48.62866" lon="7.27672">
        <ele>519</ele>
        <time>2013-04-07T08:07:02.000Z</time>
      </trkpt>
      <trkpt lat="48.62881" lon="7.27672">
        <ele>519</ele>
        <time>2013-04-07T08:07:11.000Z</time>
      </trkpt>
      <trkpt lat="48.62875" lon="7.27677">
        <ele>519</ele>
        <time>2013-04-07T08:07:17.000Z</time>
      </trkpt>
      <trkpt lat="48.62881" lon="7.27684">
        <ele>519</ele>
        <time>2013-04-07T08:07:22.000Z</time>
      </trkpt>
      <trkpt lat="48.62883" lon="7.27686">
        <ele>519</ele>
        <time>2013-04-07T08:07:34.000Z</time>
      </trkpt>
      <trkpt lat="48.62884" lon="7.27688">
        <ele>518</ele>
        <time>2013-04-07T08:07:36.000Z</time>
      </trkpt>
      <trkpt lat="48.62883" lon="7.27698">
        <ele>518</ele>
        <time>2013-04-07T08:07:40.000Z</time>
      </trkpt>
      <trkpt lat="48.62883" lon="7.27702">
        <ele>517</ele>
        <time>2013-04-07T08:07:48.000Z</time>
      </trkpt>
      <trkpt lat="48.62883" lon="7.27704">
        <ele>517</ele>
        <time>2013-04-07T08:07:51.000Z</time>
      </trkpt>
      <trkpt lat="48.62892" lon="7.27704">
        <ele>517</ele>
        <time>2013-04-07T08:07:56.000Z</time>
      </trkpt>
      <trkpt lat="48.62883" lon="7.27717">
        <ele>516</ele>
        <time>2013-04-07T08:08:06.000Z</time>
      </trkpt>
      <trkpt lat="48.62883" lon="7.27717">
        <ele>516</ele>
        <time>2013-04-07T08:08:26.000Z</time>
      </trkpt>
      <trkpt lat="48.62884" lon="7.27717">
        <ele>516</ele>
        <time>2013-04-07T08:08:48.000Z</time>
      </trkpt>
      <trkpt lat="48.62884" lon="7.27717">
        <ele>516</ele>
        <time>2013-04-07T08:09:08.000Z</time>
      </trkpt>
      <trkpt lat="48.62885" lon="7.27718">
        <ele>516</ele>
        <time>2013-04-07T08:09:25.000Z</time>
      </trkpt>
      <trkpt lat="48.62868" lon="7.27718">
        <ele>516</ele>
        <time>2013-04-07T08:09:34.000Z</time>
      </trkpt>
      <trkpt lat="48.62868" lon="7.27718">
        <ele>516</ele>
        <time>2013-04-07T08:09:54.000Z</time>
      </trkpt>
      <trkpt lat="48.62886" lon="7.27721">
        <ele>516</ele>
        <time>2013-04-07T08:10:41.000Z</time>
      </trkpt>
      <trkpt lat="48.62886" lon="7.27721">
        <ele>516</ele>
        <time>2013-04-07T08:11:01.000Z</time>
      </trkpt>
      <trkpt lat="48.62885" lon="7.27724">
        <ele>516</ele>
        <time>2013-04-07T08:11:03.000Z</time>
      </trkpt>
      <trkpt lat="48.62884" lon="7.27726">
        <ele>516</ele>
        <time>2013-04-07T08:11:12.000Z</time>
      </trkpt>
      <trkpt lat="48.62883" lon="7.27727">
        <ele>516</ele>
        <time>2013-04-07T08:11:18.000Z</time>
      </trkpt>
      <trkpt lat="48.62883" lon="7.27727">
        <ele>516</ele>
        <time>2013-04-07T08:11:38.000Z</time>
      </trkpt>
      <trkpt lat="48.62881" lon="7.27729">
        <ele>515</ele>
        <time>2013-04-07T08:11:55.000Z</time>
      </trkpt>
      <trkpt lat="48.6288" lon="7.27732">
        <ele>515</ele>
        <time>2013-04-07T08:12:01.000Z</time>
      </trkpt>
      <trkpt lat="48.62879" lon="7.27735">
        <ele>515</ele>
        <time>2013-04-07T08:12:04.000Z</time>
      </trkpt>
      <trkpt lat="48.62879" lon="7.27737">
        <ele>515</ele>
        <time>2013-04-07T08:12:08.000Z</time>
      </trkpt>
      <trkpt lat="48.62853" lon="7.27731">
        <ele>514</ele>
        <time>2013-04-07T08:12:13.000Z</time>
      </trkpt>
      <trkpt lat="48.62881" lon="7.27738">
        <ele>515</ele>
        <time>2013-04-07T08:12:22.000Z</time>
      </trkpt>
      <trkpt lat="48.62881" lon="7.27742">
        <ele>515</ele>
        <time>2013-04-07T08:12:37.000Z</time>
      </trkpt>
      <trkpt lat="48.62881" lon="7.27744">
        <ele>515</ele>
        <time>2013-04-07T08:12:41.000Z</time>
      </trkpt>
      <trkpt lat="48.62881" lon="7.27747">
        <ele>514</ele>
        <time>2013-04-07T08:12:43.000Z</time>
      </trkpt>
      <trkpt lat="48.62879" lon="7.27753">
        <ele>505</ele>
        <time>2013-04-07T08:12:45.000Z</time>
      </trkpt>
      <trkpt lat="48.62877" lon="7.2776">
        <ele>505</ele>
        <time>2013-04-07T08:12:47.000Z</time>
      </trkpt>
      <trkpt lat="48.62877" lon="7.27773">
        <ele>504</ele>
        <time>2013-04-07T08:12:50.000Z</time>
      </trkpt>
      <trkpt lat="48.62877" lon="7.27782">
        <ele>503</ele>
        <time>2013-04-07T08:12:52.000Z</time>
      </trkpt>
      <trkpt lat="48.62877" lon="7.27792">
        <ele>502</ele>
        <time>2013-04-07T08:12:54.000Z</time>
      </trkpt>
      <trkpt lat="48.62878" lon="7.27806">
        <ele>501</ele>
        <time>2013-04-07T08:12:56.000Z</time>
      </trkpt>
      <trkpt lat="48.62881" lon="7.2782">
        <ele>501</ele>
        <time>2013-04-07T08:13:00.000Z</time>
      </trkpt>
      <trkpt lat="48.62885" lon="7.27826">
        <ele>501</ele>
        <time>2013-04-07T08:13:03.000Z</time>
      </trkpt>
      <trkpt lat="48.62887" lon="7.27848">
        <ele>491</ele>
        <time>2013-04-07T08:13:06.000Z</time>
      </trkpt>
      <trkpt lat="48.62888" lon="7.27862">
        <ele>490</ele>
        <time>2013-04-07T08:13:08.000Z</time>
      </trkpt>
      <trkpt lat="48.6289" lon="7.27877">
        <ele>488</ele>
        <time>2013-04-07T08:13:10.000Z</time>
      </trkpt>
      <trkpt lat="48.62877" lon="7.27913">
        <ele>484</ele>
        <time>2013-04-07T08:13:14.000Z</time>
      </trkpt>
      <trkpt lat="48.62873" lon="7.27931">
        <ele>474</ele>
        <time>2013-04-07T08:13:16.000Z</time>
      </trkpt>
      <trkpt lat="48.62871" lon="7.27944">
        <ele>473</ele>
        <time>2013-04-07T08:13:18.000Z</time>
      </trkpt>
      <trkpt lat="48.62869" lon="7.27972">
        <ele>471</ele>
        <time>2013-04-07T08:13:21.000Z</time>
      </trkpt>
      <trkpt lat="48.62871" lon="7.27981">
        <ele>470</ele>
        <time>2013-04-07T08:13:23.000Z</time>
      </trkpt>
      <trkpt lat="48.62872" lon="7.27992">
        <ele>470</ele>
        <time>2013-04-07T08:13:25.000Z</time>
      </trkpt>
      <trkpt lat="48.62876" lon="7.28005">
        <ele>465</ele>
        <time>2013-04-07T08:13:27.000Z</time>
      </trkpt>
      <trkpt lat="48.62879" lon="7.28016">
        <ele>465</ele>
        <time>2013-04-07T08:13:29.000Z</time>
      </trkpt>
      <trkpt lat="48.62885" lon="7.28029">
        <ele>465</ele>
        <time>2013-04-07T08:13:31.000Z</time>
      </trkpt>
      <trkpt lat="48.62898" lon="7.28045">
        <ele>464</ele>
        <time>2013-04-07T08:13:34.000Z</time>
      </trkpt>
      <trkpt lat="48.62901" lon="7.2806">
        <ele>462</ele>
        <time>2013-04-07T08:13:36.000Z</time>
      </trkpt>
      <trkpt lat="48.62907" lon="7.28074">
        <ele>459</ele>
        <time>2013-04-07T08:13:38.000Z</time>
      </trkpt>
      <trkpt lat="48.62915" lon="7.28089">
        <ele>458</ele>
        <time>2013-04-07T08:13:40.000Z</time>
      </trkpt>
      <trkpt lat="48.62928" lon="7.28111">
        <ele>464</ele>
        <time>2013-04-07T08:13:43.000Z</time>
      </trkpt>
      <trkpt lat="48.62939" lon="7.28131">
        <ele>465</ele>
        <time>2013-04-07T08:13:46.000Z</time>
      </trkpt>
      <trkpt lat="48.62947" lon="7.28142">
        <ele>466</ele>
        <time>2013-04-07T08:13:48.000Z</time>
      </trkpt>
      <trkpt lat="48.62954" lon="7.28151">
        <ele>466</ele>
        <time>2013-04-07T08:13:50.000Z</time>
      </trkpt>
      <trkpt lat="48.62963" lon="7.28162">
        <ele>466</ele>
        <time>2013-04-07T08:13:53.000Z</time>
      </trkpt>
      <trkpt lat="48.62966" lon="7.2817">
        <ele>463</ele>
        <time>2013-04-07T08:13:55.000Z</time>
      </trkpt>
      <trkpt lat="48.62973" lon="7.2818">
        <ele>463</ele>
        <time>2013-04-07T08:13:58.000Z</time>
      </trkpt>
      <trkpt lat="48.62976" lon="7.28186">
        <ele>463</ele>
        <time>2013-04-07T08:14:00.000Z</time>
      </trkpt>
      <trkpt lat="48.62978" lon="7.28192">
        <ele>463</ele>
        <time>2013-04-07T08:14:02.000Z</time>
      </trkpt>
      <trkpt lat="48.6298" lon="7.28195">
        <ele>462</ele>
        <time>2013-04-07T08:14:04.000Z</time>
      </trkpt>
      <trkpt lat="48.62984" lon="7.282">
        <ele>462</ele>
        <time>2013-04-07T08:14:06.000Z</time>
      </trkpt>
      <trkpt lat="48.62992" lon="7.28204">
        <ele>461</ele>
        <time>2013-04-07T08:14:09.000Z</time>
      </trkpt>
      <trkpt lat="48.62994" lon="7.2821">
        <ele>461</ele>
        <time>2013-04-07T08:14:11.000Z</time>
      </trkpt>
      <trkpt lat="48.63" lon="7.28213">
        <ele>466</ele>
        <time>2013-04-07T08:14:14.000Z</time>
      </trkpt>
      <trkpt lat="48.63003" lon="7.28217">
        <ele>466</ele>
        <time>2013-04-07T08:14:16.000Z</time>
      </trkpt>
      <trkpt lat="48.63007" lon="7.28218">
        <ele>466</ele>
        <time>2013-04-07T08:14:19.000Z</time>
      </trkpt>
      <trkpt lat="48.6301" lon="7.28229">
        <ele>464</ele>
        <time>2013-04-07T08:14:22.000Z</time>
      </trkpt>
      <trkpt lat="48.63015" lon="7.28233">
        <ele>463</ele>
        <time>2013-04-07T08:14:26.000Z</time>
      </trkpt>
      <trkpt lat="48.6302" lon="7.28242">
        <ele>464</ele>
        <time>2013-04-07T08:14:29.000Z</time>
      </trkpt>
      <trkpt lat="48.63026" lon="7.28244">
        <ele>466</ele>
        <time>2013-04-07T08:14:31.000Z</time>
      </trkpt>
      <trkpt lat="48.63031" lon="7.28247">
        <ele>467</ele>
        <time>2013-04-07T08:14:33.000Z</time>
      </trkpt>
      <trkpt lat="48.63035" lon="7.28252">
        <ele>461</ele>
        <time>2013-04-07T08:14:35.000Z</time>
      </trkpt>
      <trkpt lat="48.63041" lon="7.28255">
        <ele>463</ele>
        <time>2013-04-07T08:14:37.000Z</time>
      </trkpt>
      <trkpt lat="48.63046" lon="7.28258">
        <ele>464</ele>
        <time>2013-04-07T08:14:39.000Z</time>
      </trkpt>
      <trkpt lat="48.6305" lon="7.28267">
        <ele>465</ele>
        <time>2013-04-07T08:14:42.000Z</time>
      </trkpt>
      <trkpt lat="48.63052" lon="7.28277">
        <ele>464</ele>
        <time>2013-04-07T08:14:45.000Z</time>
      </trkpt>
      <trkpt lat="48.63057" lon="7.28281">
        <ele>465</ele>
        <time>2013-04-07T08:14:47.000Z</time>
      </trkpt>
      <trkpt lat="48.63063" lon="7.28287">
        <ele>465</ele>
        <time>2013-04-07T08:14:50.000Z</time>
      </trkpt>
      <trkpt lat="48.63068" lon="7.28292">
        <ele>465</ele>
        <time>2013-04-07T08:14:53.000Z</time>
      </trkpt>
      <trkpt lat="48.6307" lon="7.28297">
        <ele>465</ele>
        <time>2013-04-07T08:14:55.000Z</time>
      </trkpt>
      <trkpt lat="48.63052" lon="7.28297">
        <ele>463</ele>
        <time>2013-04-07T08:14:59.000Z</time>
      </trkpt>
      <trkpt lat="48.63077" lon="7.28309">
        <ele>464</ele>
        <time>2013-04-07T08:15:03.000Z</time>
      </trkpt>
      <trkpt lat="48.63081" lon="7.28314">
        <ele>464</ele>
        <time>2013-04-07T08:15:07.000Z</time>
      </trkpt>
      <trkpt lat="48.63086" lon="7.28315">
        <ele>478</ele>
        <time>2013-04-07T08:15:11.000Z</time>
      </trkpt>
      <trkpt lat="48.63091" lon="7.28316">
        <ele>479</ele>
        <time>2013-04-07T08:15:15.000Z</time>
      </trkpt>
      <trkpt lat="48.63094" lon="7.28324">
        <ele>476</ele>
        <time>2013-04-07T08:15:17.000Z</time>
      </trkpt>
      <trkpt lat="48.63087" lon="7.28327">
        <ele>471</ele>
        <time>2013-04-07T08:15:19.000Z</time>
      </trkpt>
      <trkpt lat="48.63102" lon="7.28331">
        <ele>479</ele>
        <time>2013-04-07T08:15:23.000Z</time>
      </trkpt>
      <trkpt lat="48.63104" lon="7.28332">
        <ele>480</ele>
        <time>2013-04-07T08:15:25.000Z</time>
      </trkpt>
      <trkpt lat="48.63107" lon="7.28338">
        <ele>470</ele>
        <time>2013-04-07T08:15:27.000Z</time>
      </trkpt>
      <trkpt lat="48.63112" lon="7.28336">
        <ele>472</ele>
        <time>2013-04-07T08:15:31.000Z</time>
      </trkpt>
      <trkpt lat="48.63115" lon="7.28342">
        <ele>472</ele>
        <time>2013-04-07T08:15:33.000Z</time>
      </trkpt>
      <trkpt lat="48.63119" lon="7.28355">
        <ele>472</ele>
        <time>2013-04-07T08:15:37.000Z</time>
      </trkpt>
      <trkpt lat="48.6312" lon="7.28351">
        <ele>473</ele>
        <time>2013-04-07T08:15:40.000Z</time>
      </trkpt>
      <trkpt lat="48.63122" lon="7.28364">
        <ele>472</ele>
        <time>2013-04-07T08:15:43.000Z</time>
      </trkpt>
      <trkpt lat="48.63124" lon="7.28372">
        <ele>471</ele>
        <time>2013-04-07T08:15:46.000Z</time>
      </trkpt>
      <trkpt lat="48.63128" lon="7.28375">
        <ele>472</ele>
        <time>2013-04-07T08:15:49.000Z</time>
      </trkpt>
      <trkpt lat="48.63134" lon="7.28383">
        <ele>472</ele>
        <time>2013-04-07T08:15:54.000Z</time>
      </trkpt>
      <trkpt lat="48.63119" lon="7.28377">
        <ele>470</ele>
        <time>2013-04-07T08:15:58.000Z</time>
      </trkpt>
      <trkpt lat="48.63144" lon="7.2839">
        <ele>472</ele>
        <time>2013-04-07T08:16:02.000Z</time>
      </trkpt>
      <trkpt lat="48.63149" lon="7.28392">
        <ele>472</ele>
        <time>2013-04-07T08:16:06.000Z</time>
      </trkpt>
      <trkpt lat="48.63155" lon="7.28403">
        <ele>472</ele>
        <time>2013-04-07T08:16:10.000Z</time>
      </trkpt>
      <trkpt lat="48.63157" lon="7.2841">
        <ele>471</ele>
        <time>2013-04-07T08:16:14.000Z</time>
      </trkpt>
      <trkpt lat="48.6316" lon="7.2841">
        <ele>471</ele>
        <time>2013-04-07T08:16:16.000Z</time>
      </trkpt>
      <trkpt lat="48.63163" lon="7.28415">
        <ele>471</ele>
        <time>2013-04-07T08:16:20.000Z</time>
      </trkpt>
      <trkpt lat="48.63152" lon="7.28408">
        <ele>471</ele>
        <time>2013-04-07T08:16:24.000Z</time>
      </trkpt>
      <trkpt lat="48.63174" lon="7.28411">
        <ele>477</ele>
        <time>2013-04-07T08:16:28.000Z</time>
      </trkpt>
      <trkpt lat="48.63178" lon="7.28407">
        <ele>479</ele>
        <time>2013-04-07T08:16:32.000Z</time>
      </trkpt>
      <trkpt lat="48.63179" lon="7.28409">
        <ele>479</ele>
        <time>2013-04-07T08:16:34.000Z</time>
      </trkpt>
      <trkpt lat="48.63181" lon="7.28409">
        <ele>480</ele>
        <time>2013-04-07T08:16:41.000Z</time>
      </trkpt>
      <trkpt lat="48.63183" lon="7.28409">
        <ele>480</ele>
        <time>2013-04-07T08:16:43.000Z</time>
      </trkpt>
      <trkpt lat="48.63185" lon="7.28409">
        <ele>481</ele>
        <time>2013-04-07T08:16:45.000Z</time>
      </trkpt>
      <trkpt lat="48.63188" lon="7.28408">
        <ele>482</ele>
        <time>2013-04-07T08:16:47.000Z</time>
      </trkpt>
      <trkpt lat="48.63191" lon="7.28407">
        <ele>483</ele>
        <time>2013-04-07T08:16:49.000Z</time>
      </trkpt>
      <trkpt lat="48.63199" lon="7.28405">
        <ele>485</ele>
        <time>2013-04-07T08:16:52.000Z</time>
      </trkpt>
      <trkpt lat="48.632" lon="7.28406">
        <ele>484</ele>
        <time>2013-04-07T08:16:55.000Z</time>
      </trkpt>
      <trkpt lat="48.63201" lon="7.28406">
        <ele>485</ele>
        <time>2013-04-07T08:17:02.000Z</time>
      </trkpt>
      <trkpt lat="48.63202" lon="7.28406">
        <ele>485</ele>
        <time>2013-04-07T08:17:04.000Z</time>
      </trkpt>
      <trkpt lat="48.63204" lon="7.28406">
        <ele>485</ele>
        <time>2013-04-07T08:17:06.000Z</time>
      </trkpt>
      <trkpt lat="48.63215" lon="7.28414">
        <ele>486</ele>
        <time>2013-04-07T08:17:09.000Z</time>
      </trkpt>
      <trkpt lat="48.63226" lon="7.28405">
        <ele>487</ele>
        <time>2013-04-07T08:17:12.000Z</time>
      </trkpt>
      <trkpt lat="48.63234" lon="7.28407">
        <ele>486</ele>
        <time>2013-04-07T08:17:15.000Z</time>
      </trkpt>
      <trkpt lat="48.63237" lon="7.2841">
        <ele>486</ele>
        <time>2013-04-07T08:17:17.000Z</time>
      </trkpt>
      <trkpt lat="48.63242" lon="7.28416">
        <ele>485</ele>
        <time>2013-04-07T08:17:20.000Z</time>
      </trkpt>
      <trkpt lat="48.63245" lon="7.28421">
        <ele>481</ele>
        <time>2013-04-07T08:17:22.000Z</time>
      </trkpt>
      <trkpt lat="48.63248" lon="7.28426">
        <ele>479</ele>
        <time>2013-04-07T08:17:24.000Z</time>
      </trkpt>
      <trkpt lat="48.63249" lon="7.28432">
        <ele>478</ele>
        <time>2013-04-07T08:17:26.000Z</time>
      </trkpt>
      <trkpt lat="48.63251" lon="7.28437">
        <ele>488</ele>
        <time>2013-04-07T08:17:28.000Z</time>
      </trkpt>
      <trkpt lat="48.63253" lon="7.28444">
        <ele>489</ele>
        <time>2013-04-07T08:17:31.000Z</time>
      </trkpt>
      <trkpt lat="48.63254" lon="7.28451">
        <ele>489</ele>
        <time>2013-04-07T08:17:33.000Z</time>
      </trkpt>
      <trkpt lat="48.63255" lon="7.28456">
        <ele>489</ele>
        <time>2013-04-07T08:17:35.000Z</time>
      </trkpt>
      <trkpt lat="48.63256" lon="7.28465">
        <ele>488</ele>
        <time>2013-04-07T08:17:38.000Z</time>
      </trkpt>
      <trkpt lat="48.63258" lon="7.28474">
        <ele>487</ele>
        <time>2013-04-07T08:17:41.000Z</time>
      </trkpt>
      <trkpt lat="48.63261" lon="7.28484">
        <ele>485</ele>
        <time>2013-04-07T08:17:45.000Z</time>
      </trkpt>
      <trkpt lat="48.63264" lon="7.28491">
        <ele>484</ele>
        <time>2013-04-07T08:17:47.000Z</time>
      </trkpt>
      <trkpt lat="48.63256" lon="7.28494">
        <ele>481</ele>
        <time>2013-04-07T08:17:49.000Z</time>
      </trkpt>
      <trkpt lat="48.63269" lon="7.28504">
        <ele>481</ele>
        <time>2013-04-07T08:17:53.000Z</time>
      </trkpt>
      <trkpt lat="48.6327" lon="7.28511">
        <ele>482</ele>
        <time>2013-04-07T08:17:55.000Z</time>
      </trkpt>
      <trkpt lat="48.63271" lon="7.28515">
        <ele>482</ele>
        <time>2013-04-07T08:17:57.000Z</time>
      </trkpt>
      <trkpt lat="48.63274" lon="7.2853">
        <ele>483</ele>
        <time>2013-04-07T08:18:00.000Z</time>
      </trkpt>
      <trkpt lat="48.63276" lon="7.28532">
        <ele>483</ele>
        <time>2013-04-07T08:18:02.000Z</time>
      </trkpt>
      <trkpt lat="48.63281" lon="7.28538">
        <ele>484</ele>
        <time>2013-04-07T08:18:06.000Z</time>
      </trkpt>
      <trkpt lat="48.63277" lon="7.28543">
        <ele>483</ele>
        <time>2013-04-07T08:18:08.000Z</time>
      </trkpt>
      <trkpt lat="48.63285" lon="7.28552">
        <ele>484</ele>
        <time>2013-04-07T08:18:11.000Z</time>
      </trkpt>
      <trkpt lat="48.63278" lon="7.28557">
        <ele>481</ele>
        <time>2013-04-07T08:18:13.000Z</time>
      </trkpt>
      <trkpt lat="48.63284" lon="7.28565">
        <ele>482</ele>
        <time>2013-04-07T08:18:15.000Z</time>
      </trkpt>
      <trkpt lat="48.63291" lon="7.28575">
        <ele>484</ele>
        <time>2013-04-07T08:18:18.000Z</time>
      </trkpt>
      <trkpt lat="48.63292" lon="7.28584">
        <ele>477</ele>
        <time>2013-04-07T08:18:20.000Z</time>
      </trkpt>
      <trkpt lat="48.63297" lon="7.28599">
        <ele>477</ele>
        <time>2013-04-07T08:18:23.000Z</time>
      </trkpt>
      <trkpt lat="48.63303" lon="7.28605">
        <ele>478</ele>
        <time>2013-04-07T08:18:25.000Z</time>
      </trkpt>
      <trkpt lat="48.63305" lon="7.28619">
        <ele>477</ele>
        <time>2013-04-07T08:18:28.000Z</time>
      </trkpt>
      <trkpt lat="48.63309" lon="7.28631">
        <ele>477</ele>
        <time>2013-04-07T08:18:31.000Z</time>
      </trkpt>
      <trkpt lat="48.63314" lon="7.28646">
        <ele>477</ele>
        <time>2013-04-07T08:18:33.000Z</time>
      </trkpt>
      <trkpt lat="48.6332" lon="7.28663">
        <ele>480</ele>
        <time>2013-04-07T08:18:36.000Z</time>
      </trkpt>
      <trkpt lat="48.63329" lon="7.28666">
        <ele>483</ele>
        <time>2013-04-07T08:18:39.000Z</time>
      </trkpt>
      <trkpt lat="48.63334" lon="7.2867">
        <ele>484</ele>
        <time>2013-04-07T08:18:41.000Z</time>
      </trkpt>
      <trkpt lat="48.63342" lon="7.28681">
        <ele>483</ele>
        <time>2013-04-07T08:18:44.000Z</time>
      </trkpt>
      <trkpt lat="48.63348" lon="7.28685">
        <ele>482</ele>
        <time>2013-04-07T08:18:46.000Z</time>
      </trkpt>
      <trkpt lat="48.63356" lon="7.28686">
        <ele>482</ele>
        <time>2013-04-07T08:18:48.000Z</time>
      </trkpt>
      <trkpt lat="48.63365" lon="7.28686">
        <ele>482</ele>
        <time>2013-04-07T08:18:50.000Z</time>
      </trkpt>
      <trkpt lat="48.63377" lon="7.28682">
        <ele>483</ele>
        <time>2013-04-07T08:18:53.000Z</time>
      </trkpt>
      <trkpt lat="48.63388" lon="7.28676">
        <ele>484</ele>
        <time>2013-04-07T08:18:56.000Z</time>
      </trkpt>
      <trkpt lat="48.63395" lon="7.28673">
        <ele>485</ele>
        <time>2013-04-07T08:18:58.000Z</time>
      </trkpt>
      <trkpt lat="48.63402" lon="7.28671">
        <ele>487</ele>
        <time>2013-04-07T08:19:00.000Z</time>
      </trkpt>
      <trkpt lat="48.63409" lon="7.28669">
        <ele>489</ele>
        <time>2013-04-07T08:19:02.000Z</time>
      </trkpt>
      <trkpt lat="48.63415" lon="7.28668">
        <ele>492</ele>
        <time>2013-04-07T08:19:04.000Z</time>
      </trkpt>
      <trkpt lat="48.63419" lon="7.28668">
        <ele>493</ele>
        <time>2013-04-07T08:19:06.000Z</time>
      </trkpt>
      <trkpt lat="48.63424" lon="7.28668">
        <ele>493</ele>
        <time>2013-04-07T08:19:08.000Z</time>
      </trkpt>
      <trkpt lat="48.63428" lon="7.28669">
        <ele>493</ele>
        <time>2013-04-07T08:19:10.000Z</time>
      </trkpt>
      <trkpt lat="48.63432" lon="7.28671">
        <ele>493</ele>
        <time>2013-04-07T08:19:12.000Z</time>
      </trkpt>
      <trkpt lat="48.63435" lon="7.28676">
        <ele>493</ele>
        <time>2013-04-07T08:19:14.000Z</time>
      </trkpt>
      <trkpt lat="48.6344" lon="7.28681">
        <ele>492</ele>
        <time>2013-04-07T08:19:16.000Z</time>
      </trkpt>
      <trkpt lat="48.63442" lon="7.28686">
        <ele>492</ele>
        <time>2013-04-07T08:19:18.000Z</time>
      </trkpt>
      <trkpt lat="48.63445" lon="7.28692">
        <ele>492</ele>
        <time>2013-04-07T08:19:20.000Z</time>
      </trkpt>
      <trkpt lat="48.63446" lon="7.28697">
        <ele>492</ele>
        <time>2013-04-07T08:19:22.000Z</time>
      </trkpt>
      <trkpt lat="48.6344" lon="7.28698">
        <ele>491</ele>
        <time>2013-04-07T08:19:24.000Z</time>
      </trkpt>
      <trkpt lat="48.63452" lon="7.2871">
        <ele>491</ele>
        <time>2013-04-07T08:19:27.000Z</time>
      </trkpt>
      <trkpt lat="48.63454" lon="7.28716">
        <ele>490</ele>
        <time>2013-04-07T08:19:29.000Z</time>
      </trkpt>
      <trkpt lat="48.63456" lon="7.2872">
        <ele>490</ele>
        <time>2013-04-07T08:19:31.000Z</time>
      </trkpt>
      <trkpt lat="48.63457" lon="7.28725">
        <ele>490</ele>
        <time>2013-04-07T08:19:33.000Z</time>
      </trkpt>
      <trkpt lat="48.63459" lon="7.2873">
        <ele>490</ele>
        <time>2013-04-07T08:19:35.000Z</time>
      </trkpt>
      <trkpt lat="48.63459" lon="7.28734">
        <ele>490</ele>
        <time>2013-04-07T08:19:37.000Z</time>
      </trkpt>
      <trkpt lat="48.63461" lon="7.2874">
        <ele>490</ele>
        <time>2013-04-07T08:19:39.000Z</time>
      </trkpt>
      <trkpt lat="48.63463" lon="7.28744">
        <ele>490</ele>
        <time>2013-04-07T08:19:41.000Z</time>
      </trkpt>
      <trkpt lat="48.63465" lon="7.28749">
        <ele>490</ele>
        <time>2013-04-07T08:19:43.000Z</time>
      </trkpt>
      <trkpt lat="48.63461" lon="7.28749">
        <ele>489</ele>
        <time>2013-04-07T08:19:45.000Z</time>
      </trkpt>
      <trkpt lat="48.6347" lon="7.28767">
        <ele>481</ele>
        <time>2013-04-07T08:19:48.000Z</time>
      </trkpt>
      <trkpt lat="48.63451" lon="7.28773">
        <ele>477</ele>
        <time>2013-04-07T08:19:51.000Z</time>
      </trkpt>
      <trkpt lat="48.63475" lon="7.28787">
        <ele>480</ele>
        <time>2013-04-07T08:19:54.000Z</time>
      </trkpt>
      <trkpt lat="48.63477" lon="7.28791">
        <ele>480</ele>
        <time>2013-04-07T08:19:57.000Z</time>
      </trkpt>
      <trkpt lat="48.63478" lon="7.28802">
        <ele>479</ele>
        <time>2013-04-07T08:20:00.000Z</time>
      </trkpt>
      <trkpt lat="48.63482" lon="7.2881">
        <ele>480</ele>
        <time>2013-04-07T08:20:05.000Z</time>
      </trkpt>
      <trkpt lat="48.63484" lon="7.28815">
        <ele>480</ele>
        <time>2013-04-07T08:20:08.000Z</time>
      </trkpt>
      <trkpt lat="48.63486" lon="7.28825">
        <ele>481</ele>
        <time>2013-04-07T08:20:11.000Z</time>
      </trkpt>
      <trkpt lat="48.63491" lon="7.28831">
        <ele>483</ele>
        <time>2013-04-07T08:20:15.000Z</time>
      </trkpt>
      <trkpt lat="48.63475" lon="7.28835">
        <ele>474</ele>
        <time>2013-04-07T08:20:19.000Z</time>
      </trkpt>
      <trkpt lat="48.63495" lon="7.28849">
        <ele>478</ele>
        <time>2013-04-07T08:20:23.000Z</time>
      </trkpt>
      <trkpt lat="48.63495" lon="7.28862">
        <ele>475</ele>
        <time>2013-04-07T08:20:25.000Z</time>
      </trkpt>
      <trkpt lat="48.63499" lon="7.28864">
        <ele>475</ele>
        <time>2013-04-07T08:20:29.000Z</time>
      </trkpt>
      <trkpt lat="48.63498" lon="7.28871">
        <ele>474</ele>
        <time>2013-04-07T08:20:31.000Z</time>
      </trkpt>
      <trkpt lat="48.63501" lon="7.28876">
        <ele>490</ele>
        <time>2013-04-07T08:20:33.000Z</time>
      </trkpt>
      <trkpt lat="48.63504" lon="7.28883">
        <ele>490</ele>
        <time>2013-04-07T08:20:35.000Z</time>
      </trkpt>
      <trkpt lat="48.63507" lon="7.28892">
        <ele>489</ele>
        <time>2013-04-07T08:20:38.000Z</time>
      </trkpt>
      <trkpt lat="48.63511" lon="7.28894">
        <ele>489</ele>
        <time>2013-04-07T08:20:41.000Z</time>
      </trkpt>
      <trkpt lat="48.63517" lon="7.289">
        <ele>489</ele>
        <time>2013-04-07T08:20:44.000Z</time>
      </trkpt>
      <trkpt lat="48.63518" lon="7.28906">
        <ele>488</ele>
        <time>2013-04-07T08:20:46.000Z</time>
      </trkpt>
      <trkpt lat="48.63523" lon="7.28908">
        <ele>489</ele>
        <time>2013-04-07T08:20:50.000Z</time>
      </trkpt>
      <trkpt lat="48.63526" lon="7.28919">
        <ele>483</ele>
        <time>2013-04-07T08:20:52.000Z</time>
      </trkpt>
      <trkpt lat="48.6353" lon="7.28919">
        <ele>483</ele>
        <time>2013-04-07T08:20:55.000Z</time>
      </trkpt>
      <trkpt lat="48.63536" lon="7.28926">
        <ele>484</ele>
        <time>2013-04-07T08:20:59.000Z</time>
      </trkpt>
      <trkpt lat="48.63545" lon="7.28924">
        <ele>485</ele>
        <time>2013-04-07T08:21:03.000Z</time>
      </trkpt>
      <trkpt lat="48.63549" lon="7.28928">
        <ele>485</ele>
        <time>2013-04-07T08:21:06.000Z</time>
      </trkpt>
      <trkpt lat="48.63558" lon="7.28938">
        <ele>485</ele>
        <time>2013-04-07T08:21:09.000Z</time>
      </trkpt>
      <trkpt lat="48.6356" lon="7.28931">
        <ele>486</ele>
        <time>2013-04-07T08:21:11.000Z</time>
      </trkpt>
      <trkpt lat="48.63565" lon="7.28933">
        <ele>487</ele>
        <time>2013-04-07T08:21:14.000Z</time>
      </trkpt>
      <trkpt lat="48.63568" lon="7.28924">
        <ele>489</ele>
        <time>2013-04-07T08:21:23.000Z</time>
      </trkpt>
      <trkpt lat="48.6357" lon="7.28924">
        <ele>489</ele>
        <time>2013-04-07T08:21:30.000Z</time>
      </trkpt>
      <trkpt lat="48.63576" lon="7.2892">
        <ele>492</ele>
        <time>2013-04-07T08:21:34.000Z</time>
      </trkpt>
      <trkpt lat="48.63581" lon="7.2892">
        <ele>494</ele>
        <time>2013-04-07T08:21:37.000Z</time>
      </trkpt>
      <trkpt lat="48.63587" lon="7.28924">
        <ele>493</ele>
        <time>2013-04-07T08:21:41.000Z</time>
      </trkpt>
      <trkpt lat="48.63591" lon="7.2892">
        <ele>493</ele>
        <time>2013-04-07T08:21:45.000Z</time>
      </trkpt>
      <trkpt lat="48.6358" lon="7.28914">
        <ele>496</ele>
        <time>2013-04-07T08:21:49.000Z</time>
      </trkpt>
      <trkpt lat="48.63604" lon="7.28915">
        <ele>504</ele>
        <time>2013-04-07T08:21:53.000Z</time>
      </trkpt>
      <trkpt lat="48.63606" lon="7.28916">
        <ele>504</ele>
        <time>2013-04-07T08:21:55.000Z</time>
      </trkpt>
      <trkpt lat="48.6361" lon="7.28916">
        <ele>505</ele>
        <time>2013-04-07T08:21:57.000Z</time>
      </trkpt>
      <trkpt lat="48.63624" lon="7.28915">
        <ele>507</ele>
        <time>2013-04-07T08:22:00.000Z</time>
      </trkpt>
      <trkpt lat="48.6363" lon="7.28916">
        <ele>507</ele>
        <time>2013-04-07T08:22:05.000Z</time>
      </trkpt>
      <trkpt lat="48.63632" lon="7.28916">
        <ele>507</ele>
        <time>2013-04-07T08:22:08.000Z</time>
      </trkpt>
      <trkpt lat="48.63639" lon="7.28916">
        <ele>507</ele>
        <time>2013-04-07T08:22:11.000Z</time>
      </trkpt>
      <trkpt lat="48.63649" lon="7.28921">
        <ele>494</ele>
        <time>2013-04-07T08:22:14.000Z</time>
      </trkpt>
      <trkpt lat="48.63651" lon="7.28917">
        <ele>495</ele>
        <time>2013-04-07T08:22:16.000Z</time>
      </trkpt>
      <trkpt lat="48.63656" lon="7.28913">
        <ele>506</ele>
        <time>2013-04-07T08:22:18.000Z</time>
      </trkpt>
      <trkpt lat="48.63662" lon="7.28913">
        <ele>505</ele>
        <time>2013-04-07T08:22:21.000Z</time>
      </trkpt>
      <trkpt lat="48.63667" lon="7.28912">
        <ele>506</ele>
        <time>2013-04-07T08:22:23.000Z</time>
      </trkpt>
      <trkpt lat="48.63674" lon="7.28911">
        <ele>508</ele>
        <time>2013-04-07T08:22:26.000Z</time>
      </trkpt>
      <trkpt lat="48.63679" lon="7.28911">
        <ele>509</ele>
        <time>2013-04-07T08:22:28.000Z</time>
      </trkpt>
      <trkpt lat="48.63683" lon="7.28911">
        <ele>510</ele>
        <time>2013-04-07T08:22:30.000Z</time>
      </trkpt>
      <trkpt lat="48.63688" lon="7.28912">
        <ele>511</ele>
        <time>2013-04-07T08:22:32.000Z</time>
      </trkpt>
      <trkpt lat="48.63692" lon="7.28913">
        <ele>512</ele>
        <time>2013-04-07T08:22:34.000Z</time>
      </trkpt>
      <trkpt lat="48.63698" lon="7.28914">
        <ele>513</ele>
        <time>2013-04-07T08:22:37.000Z</time>
      </trkpt>
      <trkpt lat="48.63703" lon="7.28914">
        <ele>513</ele>
        <time>2013-04-07T08:22:39.000Z</time>
      </trkpt>
      <trkpt lat="48.63707" lon="7.28912">
        <ele>513</ele>
        <time>2013-04-07T08:22:41.000Z</time>
      </trkpt>
      <trkpt lat="48.63712" lon="7.2891">
        <ele>514</ele>
        <time>2013-04-07T08:22:44.000Z</time>
      </trkpt>
      <trkpt lat="48.63717" lon="7.28909">
        <ele>514</ele>
        <time>2013-04-07T08:22:46.000Z</time>
      </trkpt>
      <trkpt lat="48.63721" lon="7.28908">
        <ele>513</ele>
        <time>2013-04-07T08:22:48.000Z</time>
      </trkpt>
      <trkpt lat="48.6373" lon="7.28904">
        <ele>513</ele>
        <time>2013-04-07T08:22:50.000Z</time>
      </trkpt>
      <trkpt lat="48.63735" lon="7.2891">
        <ele>511</ele>
        <time>2013-04-07T08:22:52.000Z</time>
      </trkpt>
      <trkpt lat="48.63743" lon="7.2891">
        <ele>509</ele>
        <time>2013-04-07T08:22:55.000Z</time>
      </trkpt>
      <trkpt lat="48.63753" lon="7.28904">
        <ele>511</ele>
        <time>2013-04-07T08:22:58.000Z</time>
      </trkpt>
      <trkpt lat="48.63759" lon="7.28905">
        <ele>512</ele>
        <time>2013-04-07T08:23:01.000Z</time>
      </trkpt>
      <trkpt lat="48.63765" lon="7.28905">
        <ele>513</ele>
        <time>2013-04-07T08:23:03.000Z</time>
      </trkpt>
      <trkpt lat="48.63771" lon="7.28904">
        <ele>514</ele>
        <time>2013-04-07T08:23:05.000Z</time>
      </trkpt>
      <trkpt lat="48.63773" lon="7.28909">
        <ele>514</ele>
        <time>2013-04-07T08:23:07.000Z</time>
      </trkpt>
      <trkpt lat="48.63786" lon="7.289">
        <ele>516</ele>
        <time>2013-04-07T08:23:10.000Z</time>
      </trkpt>
      <trkpt lat="48.63792" lon="7.28903">
        <ele>516</ele>
        <time>2013-04-07T08:23:12.000Z</time>
      </trkpt>
      <trkpt lat="48.63796" lon="7.28899">
        <ele>516</ele>
        <time>2013-04-07T08:23:14.000Z</time>
      </trkpt>
      <trkpt lat="48.63795" lon="7.28892">
        <ele>517</ele>
        <time>2013-04-07T08:23:17.000Z</time>
      </trkpt>
      <trkpt lat="48.6381" lon="7.28895">
        <ele>516</ele>
        <time>2013-04-07T08:23:20.000Z</time>
      </trkpt>
      <trkpt lat="48.63816" lon="7.289">
        <ele>514</ele>
        <time>2013-04-07T08:23:22.000Z</time>
      </trkpt>
      <trkpt lat="48.63823" lon="7.28892">
        <ele>515</ele>
        <time>2013-04-07T08:23:24.000Z</time>
      </trkpt>
      <trkpt lat="48.63829" lon="7.28893">
        <ele>515</ele>
        <time>2013-04-07T08:23:27.000Z</time>
      </trkpt>
      <trkpt lat="48.63838" lon="7.28893">
        <ele>514</ele>
        <time>2013-04-07T08:23:30.000Z</time>
      </trkpt>
      <trkpt lat="48.63849" lon="7.28896">
        <ele>514</ele>
        <time>2013-04-07T08:23:33.000Z</time>
      </trkpt>
      <trkpt lat="48.63858" lon="7.28888">
        <ele>516</ele>
        <time>2013-04-07T08:23:36.000Z</time>
      </trkpt>
      <trkpt lat="48.63871" lon="7.28885">
        <ele>517</ele>
        <time>2013-04-07T08:23:39.000Z</time>
      </trkpt>
      <trkpt lat="48.63889" lon="7.28879">
        <ele>518</ele>
        <time>2013-04-07T08:23:42.000Z</time>
      </trkpt>
      <trkpt lat="48.63875" lon="7.28882">
        <ele>517</ele>
        <time>2013-04-07T08:23:44.000Z</time>
      </trkpt>
      <trkpt lat="48.63885" lon="7.28887">
        <ele>517</ele>
        <time>2013-04-07T08:23:47.000Z</time>
      </trkpt>
      <trkpt lat="48.63905" lon="7.28917">
        <ele>508</ele>
        <time>2013-04-07T08:23:51.000Z</time>
      </trkpt>
      <trkpt lat="48.63903" lon="7.28929">
        <ele>507</ele>
        <time>2013-04-07T08:23:53.000Z</time>
      </trkpt>
      <trkpt lat="48.63901" lon="7.28942">
        <ele>506</ele>
        <time>2013-04-07T08:23:57.000Z</time>
      </trkpt>
      <trkpt lat="48.639" lon="7.28955">
        <ele>506</ele>
        <time>2013-04-07T08:23:59.000Z</time>
      </trkpt>
      <trkpt lat="48.63893" lon="7.2896">
        <ele>505</ele>
        <time>2013-04-07T08:24:02.000Z</time>
      </trkpt>
      <trkpt lat="48.639" lon="7.28967">
        <ele>506</ele>
        <time>2013-04-07T08:24:04.000Z</time>
      </trkpt>
      <trkpt lat="48.63896" lon="7.28976">
        <ele>506</ele>
        <time>2013-04-07T08:24:08.000Z</time>
      </trkpt>
      <trkpt lat="48.63892" lon="7.28981">
        <ele>505</ele>
        <time>2013-04-07T08:24:12.000Z</time>
      </trkpt>
      <trkpt lat="48.63889" lon="7.28986">
        <ele>505</ele>
        <time>2013-04-07T08:24:16.000Z</time>
      </trkpt>
      <trkpt lat="48.63886" lon="7.28996">
        <ele>505</ele>
        <time>2013-04-07T08:24:19.000Z</time>
      </trkpt>
      <trkpt lat="48.63892" lon="7.29003">
        <ele>506</ele>
        <time>2013-04-07T08:24:21.000Z</time>
      </trkpt>
      <trkpt lat="48.63887" lon="7.2901">
        <ele>505</ele>
        <time>2013-04-07T08:24:24.000Z</time>
      </trkpt>
      <trkpt lat="48.63876" lon="7.29025">
        <ele>503</ele>
        <time>2013-04-07T08:24:27.000Z</time>
      </trkpt>
      <trkpt lat="48.63871" lon="7.29033">
        <ele>503</ele>
        <time>2013-04-07T08:24:32.000Z</time>
      </trkpt>
      <trkpt lat="48.6387" lon="7.29033">
        <ele>503</ele>
        <time>2013-04-07T08:24:35.000Z</time>
      </trkpt>
      <trkpt lat="48.6387" lon="7.29035">
        <ele>503</ele>
        <time>2013-04-07T08:24:38.000Z</time>
      </trkpt>
      <trkpt lat="48.6388" lon="7.29039">
        <ele>504</ele>
        <time>2013-04-07T08:24:43.000Z</time>
      </trkpt>
      <trkpt lat="48.63872" lon="7.29038">
        <ele>503</ele>
        <time>2013-04-07T08:24:56.000Z</time>
      </trkpt>
      <trkpt lat="48.63872" lon="7.29038">
        <ele>503</ele>
        <time>2013-04-07T08:25:16.000Z</time>
      </trkpt>
      <trkpt lat="48.6387" lon="7.29041">
        <ele>503</ele>
        <time>2013-04-07T08:25:39.000Z</time>
      </trkpt>
      <trkpt lat="48.63868" lon="7.29035">
        <ele>503</ele>
        <time>2013-04-07T08:25:54.000Z</time>
      </trkpt>
      <trkpt lat="48.63866" lon="7.29043">
        <ele>503</ele>
        <time>2013-04-07T08:25:56.000Z</time>
      </trkpt>
      <trkpt lat="48.63868" lon="7.29047">
        <ele>503</ele>
        <time>2013-04-07T08:25:58.000Z</time>
      </trkpt>
      <trkpt lat="48.6386" lon="7.29058">
        <ele>502</ele>
        <time>2013-04-07T08:26:02.000Z</time>
      </trkpt>
      <trkpt lat="48.63857" lon="7.29065">
        <ele>501</ele>
        <time>2013-04-07T08:26:04.000Z</time>
      </trkpt>
      <trkpt lat="48.63856" lon="7.29066">
        <ele>501</ele>
        <time>2013-04-07T08:26:06.000Z</time>
      </trkpt>
      <trkpt lat="48.6385" lon="7.29074">
        <ele>499</ele>
        <time>2013-04-07T08:26:10.000Z</time>
      </trkpt>
      <trkpt lat="48.63855" lon="7.29081">
        <ele>500</ele>
        <time>2013-04-07T08:26:12.000Z</time>
      </trkpt>
      <trkpt lat="48.63848" lon="7.29086">
        <ele>505</ele>
        <time>2013-04-07T08:26:14.000Z</time>
      </trkpt>
      <trkpt lat="48.6384" lon="7.29092">
        <ele>503</ele>
        <time>2013-04-07T08:26:17.000Z</time>
      </trkpt>
      <trkpt lat="48.63839" lon="7.291">
        <ele>507</ele>
        <time>2013-04-07T08:26:20.000Z</time>
      </trkpt>
      <trkpt lat="48.63832" lon="7.29099">
        <ele>494</ele>
        <time>2013-04-07T08:26:23.000Z</time>
      </trkpt>
      <trkpt lat="48.63831" lon="7.29113">
        <ele>496</ele>
        <time>2013-04-07T08:26:25.000Z</time>
      </trkpt>
      <trkpt lat="48.63819" lon="7.29124">
        <ele>497</ele>
        <time>2013-04-07T08:26:28.000Z</time>
      </trkpt>
      <trkpt lat="48.63815" lon="7.29128">
        <ele>497</ele>
        <time>2013-04-07T08:26:30.000Z</time>
      </trkpt>
      <trkpt lat="48.63813" lon="7.29128">
        <ele>496</ele>
        <time>2013-04-07T08:26:32.000Z</time>
      </trkpt>
      <trkpt lat="48.63811" lon="7.29131">
        <ele>497</ele>
        <time>2013-04-07T08:26:34.000Z</time>
      </trkpt>
      <trkpt lat="48.63804" lon="7.29136">
        <ele>497</ele>
        <time>2013-04-07T08:26:37.000Z</time>
      </trkpt>
      <trkpt lat="48.638" lon="7.29147">
        <ele>497</ele>
        <time>2013-04-07T08:26:39.000Z</time>
      </trkpt>
      <trkpt lat="48.63798" lon="7.29149">
        <ele>497</ele>
        <time>2013-04-07T08:26:41.000Z</time>
      </trkpt>
      <trkpt lat="48.63792" lon="7.2916">
        <ele>497</ele>
        <time>2013-04-07T08:26:44.000Z</time>
      </trkpt>
      <trkpt lat="48.63789" lon="7.29166">
        <ele>496</ele>
        <time>2013-04-07T08:26:47.000Z</time>
      </trkpt>
      <trkpt lat="48.63782" lon="7.29174">
        <ele>509</ele>
        <time>2013-04-07T08:26:50.000Z</time>
      </trkpt>
      <trkpt lat="48.63777" lon="7.29184">
        <ele>509</ele>
        <time>2013-04-07T08:26:52.000Z</time>
      </trkpt>
      <trkpt lat="48.63772" lon="7.29189">
        <ele>509</ele>
        <time>2013-04-07T08:26:55.000Z</time>
      </trkpt>
      <trkpt lat="48.63769" lon="7.29189">
        <ele>508</ele>
        <time>2013-04-07T08:26:57.000Z</time>
      </trkpt>
      <trkpt lat="48.63766" lon="7.29192">
        <ele>508</ele>
        <time>2013-04-07T08:27:00.000Z</time>
      </trkpt>
      <trkpt lat="48.63763" lon="7.29202">
        <ele>510</ele>
        <time>2013-04-07T08:27:02.000Z</time>
      </trkpt>
      <trkpt lat="48.63762" lon="7.29207">
        <ele>511</ele>
        <time>2013-04-07T08:27:04.000Z</time>
      </trkpt>
      <trkpt lat="48.63752" lon="7.29213">
        <ele>511</ele>
        <time>2013-04-07T08:27:07.000Z</time>
      </trkpt>
      <trkpt lat="48.63748" lon="7.29224">
        <ele>497</ele>
        <time>2013-04-07T08:27:10.000Z</time>
      </trkpt>
      <trkpt lat="48.63742" lon="7.29237">
        <ele>501</ele>
        <time>2013-04-07T08:27:13.000Z</time>
      </trkpt>
      <trkpt lat="48.63735" lon="7.29243">
        <ele>500</ele>
        <time>2013-04-07T08:27:16.000Z</time>
      </trkpt>
      <trkpt lat="48.63728" lon="7.2925">
        <ele>508</ele>
        <time>2013-04-07T08:27:19.000Z</time>
      </trkpt>
      <trkpt lat="48.6372" lon="7.29265">
        <ele>507</ele>
        <time>2013-04-07T08:27:22.000Z</time>
      </trkpt>
      <trkpt lat="48.63715" lon="7.29275">
        <ele>506</ele>
        <time>2013-04-07T08:27:24.000Z</time>
      </trkpt>
      <trkpt lat="48.63709" lon="7.29277">
        <ele>506</ele>
        <time>2013-04-07T08:27:26.000Z</time>
      </trkpt>
      <trkpt lat="48.63703" lon="7.29287">
        <ele>506</ele>
        <time>2013-04-07T08:27:29.000Z</time>
      </trkpt>
      <trkpt lat="48.63697" lon="7.29301">
        <ele>506</ele>
        <time>2013-04-07T08:27:31.000Z</time>
      </trkpt>
      <trkpt lat="48.63692" lon="7.2931">
        <ele>506</ele>
        <time>2013-04-07T08:27:34.000Z</time>
      </trkpt>
      <trkpt lat="48.63683" lon="7.29323">
        <ele>505</ele>
        <time>2013-04-07T08:27:37.000Z</time>
      </trkpt>
      <trkpt lat="48.63678" lon="7.29336">
        <ele>509</ele>
        <time>2013-04-07T08:27:39.000Z</time>
      </trkpt>
      <trkpt lat="48.63672" lon="7.29346">
        <ele>509</ele>
        <time>2013-04-07T08:27:43.000Z</time>
      </trkpt>
      <trkpt lat="48.63678" lon="7.29353">
        <ele>513</ele>
        <time>2013-04-07T08:27:45.000Z</time>
      </trkpt>
      <trkpt lat="48.63667" lon="7.29369">
        <ele>514</ele>
        <time>2013-04-07T08:27:48.000Z</time>
      </trkpt>
      <trkpt lat="48.63665" lon="7.29377">
        <ele>494</ele>
        <time>2013-04-07T08:27:50.000Z</time>
      </trkpt>
      <trkpt lat="48.63663" lon="7.29383">
        <ele>494</ele>
        <time>2013-04-07T08:27:52.000Z</time>
      </trkpt>
      <trkpt lat="48.6366" lon="7.29405">
        <ele>499</ele>
        <time>2013-04-07T08:27:55.000Z</time>
      </trkpt>
      <trkpt lat="48.6366" lon="7.29408">
        <ele>501</ele>
        <time>2013-04-07T08:27:57.000Z</time>
      </trkpt>
      <trkpt lat="48.63658" lon="7.29429">
        <ele>501</ele>
        <time>2013-04-07T08:28:00.000Z</time>
      </trkpt>
      <trkpt lat="48.63655" lon="7.2944">
        <ele>499</ele>
        <time>2013-04-07T08:28:03.000Z</time>
      </trkpt>
      <trkpt lat="48.6366" lon="7.29445">
        <ele>499</ele>
        <time>2013-04-07T08:28:05.000Z</time>
      </trkpt>
      <trkpt lat="48.63654" lon="7.29459">
        <ele>498</ele>
        <time>2013-04-07T08:28:09.000Z</time>
      </trkpt>
      <trkpt lat="48.63651" lon="7.29483">
        <ele>501</ele>
        <time>2013-04-07T08:28:12.000Z</time>
      </trkpt>
      <trkpt lat="48.63639" lon="7.29513">
        <ele>498</ele>
        <time>2013-04-07T08:28:16.000Z</time>
      </trkpt>
      <trkpt lat="48.63649" lon="7.29521">
        <ele>500</ele>
        <time>2013-04-07T08:28:19.000Z</time>
      </trkpt>
      <trkpt lat="48.63651" lon="7.29537">
        <ele>499</ele>
        <time>2013-04-07T08:28:22.000Z</time>
      </trkpt>
      <trkpt lat="48.63654" lon="7.29549">
        <ele>500</ele>
        <time>2013-04-07T08:28:24.000Z</time>
      </trkpt>
      <trkpt lat="48.63655" lon="7.29564">
        <ele>502</ele>
        <time>2013-04-07T08:28:27.000Z</time>
      </trkpt>
      <trkpt lat="48.63658" lon="7.29588">
        <ele>505</ele>
        <time>2013-04-07T08:28:30.000Z</time>
      </trkpt>
      <trkpt lat="48.63658" lon="7.29604">
        <ele>500</ele>
        <time>2013-04-07T08:28:32.000Z</time>
      </trkpt>
      <trkpt lat="48.63658" lon="7.29607">
        <ele>499</ele>
        <time>2013-04-07T08:28:34.000Z</time>
      </trkpt>
      <trkpt lat="48.6366" lon="7.29623">
        <ele>497</ele>
        <time>2013-04-07T08:28:37.000Z</time>
      </trkpt>
      <trkpt lat="48.63663" lon="7.29635">
        <ele>497</ele>
        <time>2013-04-07T08:28:40.000Z</time>
      </trkpt>
      <trkpt lat="48.63666" lon="7.2965">
        <ele>499</ele>
        <time>2013-04-07T08:28:43.000Z</time>
      </trkpt>
      <trkpt lat="48.6367" lon="7.29672">
        <ele>509</ele>
        <time>2013-04-07T08:28:46.000Z</time>
      </trkpt>
      <trkpt lat="48.63676" lon="7.29686">
        <ele>511</ele>
        <time>2013-04-07T08:28:49.000Z</time>
      </trkpt>
      <trkpt lat="48.6368" lon="7.29701">
        <ele>512</ele>
        <time>2013-04-07T08:28:52.000Z</time>
      </trkpt>
      <trkpt lat="48.63688" lon="7.2972">
        <ele>511</ele>
        <time>2013-04-07T08:28:55.000Z</time>
      </trkpt>
      <trkpt lat="48.6369" lon="7.29733">
        <ele>509</ele>
        <time>2013-04-07T08:28:57.000Z</time>
      </trkpt>
      <trkpt lat="48.63694" lon="7.2974">
        <ele>509</ele>
        <time>2013-04-07T08:28:59.000Z</time>
      </trkpt>
      <trkpt lat="48.63699" lon="7.29766">
        <ele>504</ele>
        <time>2013-04-07T08:29:03.000Z</time>
      </trkpt>
      <trkpt lat="48.63687" lon="7.29772">
        <ele>502</ele>
        <time>2013-04-07T08:29:05.000Z</time>
      </trkpt>
      <trkpt lat="48.63694" lon="7.29791">
        <ele>503</ele>
        <time>2013-04-07T08:29:08.000Z</time>
      </trkpt>
      <trkpt lat="48.63704" lon="7.29803">
        <ele>503</ele>
        <time>2013-04-07T08:29:10.000Z</time>
      </trkpt>
      <trkpt lat="48.63713" lon="7.29822">
        <ele>504</ele>
        <time>2013-04-07T08:29:12.000Z</time>
      </trkpt>
      <trkpt lat="48.63718" lon="7.29838">
        <ele>500</ele>
        <time>2013-04-07T08:29:15.000Z</time>
      </trkpt>
      <trkpt lat="48.63723" lon="7.29856">
        <ele>499</ele>
        <time>2013-04-07T08:29:18.000Z</time>
      </trkpt>
      <trkpt lat="48.63729" lon="7.2987">
        <ele>499</ele>
        <time>2013-04-07T08:29:21.000Z</time>
      </trkpt>
      <trkpt lat="48.63737" lon="7.2988">
        <ele>499</ele>
        <time>2013-04-07T08:29:24.000Z</time>
      </trkpt>
      <trkpt lat="48.63745" lon="7.29892">
        <ele>499</ele>
        <time>2013-04-07T08:29:27.000Z</time>
      </trkpt>
      <trkpt lat="48.63749" lon="7.29903">
        <ele>499</ele>
        <time>2013-04-07T08:29:30.000Z</time>
      </trkpt>
      <trkpt lat="48.63753" lon="7.29906">
        <ele>501</ele>
        <time>2013-04-07T08:29:34.000Z</time>
      </trkpt>
      <trkpt lat="48.63816" lon="7.29909">
        <ele>496</ele>
        <time>2013-04-07T08:29:42.000Z</time>
      </trkpt>
      <trkpt lat="48.63827" lon="7.29904">
        <ele>495</ele>
        <time>2013-04-07T08:29:44.000Z</time>
      </trkpt>
      <trkpt lat="48.63825" lon="7.29893">
        <ele>498</ele>
        <time>2013-04-07T08:29:46.000Z</time>
      </trkpt>
      <trkpt lat="48.63877" lon="7.29862">
        <ele>494</ele>
        <time>2013-04-07T08:29:52.000Z</time>
      </trkpt>
      <trkpt lat="48.63891" lon="7.2985">
        <ele>494</ele>
        <time>2013-04-07T08:29:54.000Z</time>
      </trkpt>
      <trkpt lat="48.63905" lon="7.29837">
        <ele>495</ele>
        <time>2013-04-07T08:29:56.000Z</time>
      </trkpt>
      <trkpt lat="48.63918" lon="7.29825">
        <ele>497</ele>
        <time>2013-04-07T08:29:58.000Z</time>
      </trkpt>
      <trkpt lat="48.63928" lon="7.29816">
        <ele>498</ele>
        <time>2013-04-07T08:30:00.000Z</time>
      </trkpt>
      <trkpt lat="48.6395" lon="7.29796">
        <ele>499</ele>
        <time>2013-04-07T08:30:03.000Z</time>
      </trkpt>
      <trkpt lat="48.63961" lon="7.29789">
        <ele>499</ele>
        <time>2013-04-07T08:30:05.000Z</time>
      </trkpt>
      <trkpt lat="48.63974" lon="7.29783">
        <ele>498</ele>
        <time>2013-04-07T08:30:07.000Z</time>
      </trkpt>
      <trkpt lat="48.6399" lon="7.2976">
        <ele>501</ele>
        <time>2013-04-07T08:30:10.000Z</time>
      </trkpt>
      <trkpt lat="48.64002" lon="7.2975">
        <ele>502</ele>
        <time>2013-04-07T08:30:13.000Z</time>
      </trkpt>
      <trkpt lat="48.64005" lon="7.29746">
        <ele>503</ele>
        <time>2013-04-07T08:30:15.000Z</time>
      </trkpt>
      <trkpt lat="48.64017" lon="7.29735">
        <ele>503</ele>
        <time>2013-04-07T08:30:18.000Z</time>
      </trkpt>
      <trkpt lat="48.64027" lon="7.29729">
        <ele>503</ele>
        <time>2013-04-07T08:30:20.000Z</time>
      </trkpt>
      <trkpt lat="48.64038" lon="7.2972">
        <ele>503</ele>
        <time>2013-04-07T08:30:23.000Z</time>
      </trkpt>
      <trkpt lat="48.64048" lon="7.29716">
        <ele>502</ele>
        <time>2013-04-07T08:30:25.000Z</time>
      </trkpt>
      <trkpt lat="48.64054" lon="7.2971">
        <ele>502</ele>
        <time>2013-04-07T08:30:27.000Z</time>
      </trkpt>
      <trkpt lat="48.64064" lon="7.297">
        <ele>503</ele>
        <time>2013-04-07T08:30:30.000Z</time>
      </trkpt>
      <trkpt lat="48.64075" lon="7.297">
        <ele>502</ele>
        <time>2013-04-07T08:30:32.000Z</time>
      </trkpt>
      <trkpt lat="48.64084" lon="7.29701">
        <ele>499</ele>
        <time>2013-04-07T08:30:34.000Z</time>
      </trkpt>
      <trkpt lat="48.64113" lon="7.29731">
        <ele>497</ele>
        <time>2013-04-07T08:30:38.000Z</time>
      </trkpt>
      <trkpt lat="48.64116" lon="7.29749">
        <ele>496</ele>
        <time>2013-04-07T08:30:40.000Z</time>
      </trkpt>
      <trkpt lat="48.6412" lon="7.29766">
        <ele>491</ele>
        <time>2013-04-07T08:30:42.000Z</time>
      </trkpt>
      <trkpt lat="48.64124" lon="7.29788">
        <ele>491</ele>
        <time>2013-04-07T08:30:45.000Z</time>
      </trkpt>
      <trkpt lat="48.64123" lon="7.2981">
        <ele>490</ele>
        <time>2013-04-07T08:30:47.000Z</time>
      </trkpt>
      <trkpt lat="48.64112" lon="7.2981">
        <ele>488</ele>
        <time>2013-04-07T08:30:49.000Z</time>
      </trkpt>
      <trkpt lat="48.64124" lon="7.29844">
        <ele>486</ele>
        <time>2013-04-07T08:30:52.000Z</time>
      </trkpt>
      <trkpt lat="48.64116" lon="7.29868">
        <ele>485</ele>
        <time>2013-04-07T08:30:56.000Z</time>
      </trkpt>
      <trkpt lat="48.64115" lon="7.29889">
        <ele>484</ele>
        <time>2013-04-07T08:30:59.000Z</time>
      </trkpt>
      <trkpt lat="48.64115" lon="7.29903">
        <ele>484</ele>
        <time>2013-04-07T08:31:01.000Z</time>
      </trkpt>
      <trkpt lat="48.64115" lon="7.29917">
        <ele>483</ele>
        <time>2013-04-07T08:31:03.000Z</time>
      </trkpt>
      <trkpt lat="48.6411" lon="7.29934">
        <ele>482</ele>
        <time>2013-04-07T08:31:06.000Z</time>
      </trkpt>
      <trkpt lat="48.64109" lon="7.29961">
        <ele>483</ele>
        <time>2013-04-07T08:31:09.000Z</time>
      </trkpt>
      <trkpt lat="48.64109" lon="7.29975">
        <ele>482</ele>
        <time>2013-04-07T08:31:11.000Z</time>
      </trkpt>
      <trkpt lat="48.64108" lon="7.29988">
        <ele>481</ele>
        <time>2013-04-07T08:31:13.000Z</time>
      </trkpt>
      <trkpt lat="48.64107" lon="7.30003">
        <ele>480</ele>
        <time>2013-04-07T08:31:16.000Z</time>
      </trkpt>
      <trkpt lat="48.64106" lon="7.30012">
        <ele>481</ele>
        <time>2013-04-07T08:31:18.000Z</time>
      </trkpt>
      <trkpt lat="48.64107" lon="7.30026">
        <ele>482</ele>
        <time>2013-04-07T08:31:20.000Z</time>
      </trkpt>
      <trkpt lat="48.64108" lon="7.30041">
        <ele>482</ele>
        <time>2013-04-07T08:31:22.000Z</time>
      </trkpt>
      <trkpt lat="48.64109" lon="7.30055">
        <ele>482</ele>
        <time>2013-04-07T08:31:24.000Z</time>
      </trkpt>
      <trkpt lat="48.64111" lon="7.30068">
        <ele>482</ele>
        <time>2013-04-07T08:31:26.000Z</time>
      </trkpt>
      <trkpt lat="48.64114" lon="7.30089">
        <ele>482</ele>
        <time>2013-04-07T08:31:29.000Z</time>
      </trkpt>
      <trkpt lat="48.64116" lon="7.30098">
        <ele>482</ele>
        <time>2013-04-07T08:31:31.000Z</time>
      </trkpt>
      <trkpt lat="48.64117" lon="7.30109">
        <ele>483</ele>
        <time>2013-04-07T08:31:33.000Z</time>
      </trkpt>
      <trkpt lat="48.64123" lon="7.30127">
        <ele>483</ele>
        <time>2013-04-07T08:31:36.000Z</time>
      </trkpt>
      <trkpt lat="48.64128" lon="7.30143">
        <ele>484</ele>
        <time>2013-04-07T08:31:39.000Z</time>
      </trkpt>
      <trkpt lat="48.64134" lon="7.3015">
        <ele>485</ele>
        <time>2013-04-07T08:31:41.000Z</time>
      </trkpt>
      <trkpt lat="48.64135" lon="7.30162">
        <ele>485</ele>
        <time>2013-04-07T08:31:43.000Z</time>
      </trkpt>
      <trkpt lat="48.64136" lon="7.30175">
        <ele>481</ele>
        <time>2013-04-07T08:31:45.000Z</time>
      </trkpt>
      <trkpt lat="48.64139" lon="7.30179">
        <ele>481</ele>
        <time>2013-04-07T08:31:47.000Z</time>
      </trkpt>
      <trkpt lat="48.64143" lon="7.30192">
        <ele>481</ele>
        <time>2013-04-07T08:31:50.000Z</time>
      </trkpt>
      <trkpt lat="48.64146" lon="7.30203">
        <ele>480</ele>
        <time>2013-04-07T08:31:52.000Z</time>
      </trkpt>
      <trkpt lat="48.64145" lon="7.30211">
        <ele>479</ele>
        <time>2013-04-07T08:31:55.000Z</time>
      </trkpt>
      <trkpt lat="48.64145" lon="7.30229">
        <ele>479</ele>
        <time>2013-04-07T08:31:59.000Z</time>
      </trkpt>
      <trkpt lat="48.64152" lon="7.30245">
        <ele>480</ele>
        <time>2013-04-07T08:32:02.000Z</time>
      </trkpt>
      <trkpt lat="48.64158" lon="7.3027">
        <ele>474</ele>
        <time>2013-04-07T08:32:05.000Z</time>
      </trkpt>
      <trkpt lat="48.64161" lon="7.30279">
        <ele>473</ele>
        <time>2013-04-07T08:32:08.000Z</time>
      </trkpt>
      <trkpt lat="48.64164" lon="7.30293">
        <ele>471</ele>
        <time>2013-04-07T08:32:10.000Z</time>
      </trkpt>
      <trkpt lat="48.64168" lon="7.303">
        <ele>487</ele>
        <time>2013-04-07T08:32:13.000Z</time>
      </trkpt>
      <trkpt lat="48.64174" lon="7.30319">
        <ele>483</ele>
        <time>2013-04-07T08:32:16.000Z</time>
      </trkpt>
      <trkpt lat="48.64177" lon="7.3032">
        <ele>484</ele>
        <time>2013-04-07T08:32:18.000Z</time>
      </trkpt>
      <trkpt lat="48.64179" lon="7.30328">
        <ele>483</ele>
        <time>2013-04-07T08:32:20.000Z</time>
      </trkpt>
      <trkpt lat="48.64176" lon="7.30343">
        <ele>478</ele>
        <time>2013-04-07T08:32:23.000Z</time>
      </trkpt>
      <trkpt lat="48.64188" lon="7.30365">
        <ele>480</ele>
        <time>2013-04-07T08:32:26.000Z</time>
      </trkpt>
      <trkpt lat="48.64191" lon="7.30391">
        <ele>479</ele>
        <time>2013-04-07T08:32:30.000Z</time>
      </trkpt>
      <trkpt lat="48.64195" lon="7.30396">
        <ele>479</ele>
        <time>2013-04-07T08:32:32.000Z</time>
      </trkpt>
      <trkpt lat="48.64198" lon="7.30409">
        <ele>478</ele>
        <time>2013-04-07T08:32:34.000Z</time>
      </trkpt>
      <trkpt lat="48.64207" lon="7.30405">
        <ele>480</ele>
        <time>2013-04-07T08:32:37.000Z</time>
      </trkpt>
      <trkpt lat="48.64212" lon="7.304">
        <ele>480</ele>
        <time>2013-04-07T08:32:40.000Z</time>
      </trkpt>
      <trkpt lat="48.64215" lon="7.30395">
        <ele>481</ele>
        <time>2013-04-07T08:32:43.000Z</time>
      </trkpt>
      <trkpt lat="48.64226" lon="7.30396">
        <ele>482</ele>
        <time>2013-04-07T08:32:46.000Z</time>
      </trkpt>
      <trkpt lat="48.64233" lon="7.3039">
        <ele>483</ele>
        <time>2013-04-07T08:32:49.000Z</time>
      </trkpt>
      <trkpt lat="48.64236" lon="7.30395">
        <ele>483</ele>
        <time>2013-04-07T08:32:51.000Z</time>
      </trkpt>
      <trkpt lat="48.64245" lon="7.30388">
        <ele>484</ele>
        <time>2013-04-07T08:32:55.000Z</time>
      </trkpt>
      <trkpt lat="48.64249" lon="7.30386">
        <ele>484</ele>
        <time>2013-04-07T08:32:57.000Z</time>
      </trkpt>
      <trkpt lat="48.64252" lon="7.30393">
        <ele>490</ele>
        <time>2013-04-07T08:32:59.000Z</time>
      </trkpt>
      <trkpt lat="48.64257" lon="7.3039">
        <ele>491</ele>
        <time>2013-04-07T08:33:02.000Z</time>
      </trkpt>
      <trkpt lat="48.6426" lon="7.30392">
        <ele>491</ele>
        <time>2013-04-07T08:33:04.000Z</time>
      </trkpt>
      <trkpt lat="48.64265" lon="7.30389">
        <ele>492</ele>
        <time>2013-04-07T08:33:06.000Z</time>
      </trkpt>
      <trkpt lat="48.64269" lon="7.30388">
        <ele>492</ele>
        <time>2013-04-07T08:33:08.000Z</time>
      </trkpt>
      <trkpt lat="48.64275" lon="7.30387">
        <ele>493</ele>
        <time>2013-04-07T08:33:12.000Z</time>
      </trkpt>
      <trkpt lat="48.64282" lon="7.30387">
        <ele>493</ele>
        <time>2013-04-07T08:33:16.000Z</time>
      </trkpt>
      <trkpt lat="48.64285" lon="7.30386">
        <ele>493</ele>
        <time>2013-04-07T08:33:18.000Z</time>
      </trkpt>
      <trkpt lat="48.64288" lon="7.30386">
        <ele>493</ele>
        <time>2013-04-07T08:33:20.000Z</time>
      </trkpt>
      <trkpt lat="48.64294" lon="7.30378">
        <ele>495</ele>
        <time>2013-04-07T08:33:24.000Z</time>
      </trkpt>
      <trkpt lat="48.64302" lon="7.30386">
        <ele>494</ele>
        <time>2013-04-07T08:33:26.000Z</time>
      </trkpt>
      <trkpt lat="48.64305" lon="7.30384">
        <ele>494</ele>
        <time>2013-04-07T08:33:29.000Z</time>
      </trkpt>
      <trkpt lat="48.64311" lon="7.30385">
        <ele>494</ele>
        <time>2013-04-07T08:33:32.000Z</time>
      </trkpt>
      <trkpt lat="48.64322" lon="7.30386">
        <ele>494</ele>
        <time>2013-04-07T08:33:38.000Z</time>
      </trkpt>
      <trkpt lat="48.64328" lon="7.30385">
        <ele>494</ele>
        <time>2013-04-07T08:33:41.000Z</time>
      </trkpt>
      <trkpt lat="48.64336" lon="7.30388">
        <ele>496</ele>
        <time>2013-04-07T08:33:44.000Z</time>
      </trkpt>
      <trkpt lat="48.64344" lon="7.30389">
        <ele>496</ele>
        <time>2013-04-07T08:33:47.000Z</time>
      </trkpt>
      <trkpt lat="48.64354" lon="7.30391">
        <ele>497</ele>
        <time>2013-04-07T08:33:50.000Z</time>
      </trkpt>
      <trkpt lat="48.64362" lon="7.30387">
        <ele>498</ele>
        <time>2013-04-07T08:33:53.000Z</time>
      </trkpt>
      <trkpt lat="48.64363" lon="7.30395">
        <ele>497</ele>
        <time>2013-04-07T08:33:55.000Z</time>
      </trkpt>
      <trkpt lat="48.6437" lon="7.30397">
        <ele>497</ele>
        <time>2013-04-07T08:33:58.000Z</time>
      </trkpt>
      <trkpt lat="48.64378" lon="7.30393">
        <ele>498</ele>
        <time>2013-04-07T08:34:01.000Z</time>
      </trkpt>
      <trkpt lat="48.64388" lon="7.3039">
        <ele>498</ele>
        <time>2013-04-07T08:34:04.000Z</time>
      </trkpt>
      <trkpt lat="48.64397" lon="7.3039">
        <ele>498</ele>
        <time>2013-04-07T08:34:07.000Z</time>
      </trkpt>
      <trkpt lat="48.64406" lon="7.30383">
        <ele>499</ele>
        <time>2013-04-07T08:34:10.000Z</time>
      </trkpt>
      <trkpt lat="48.64413" lon="7.30381">
        <ele>499</ele>
        <time>2013-04-07T08:34:13.000Z</time>
      </trkpt>
      <trkpt lat="48.64413" lon="7.30375">
        <ele>501</ele>
        <time>2013-04-07T08:34:16.000Z</time>
      </trkpt>
      <trkpt lat="48.6442" lon="7.30372">
        <ele>501</ele>
        <time>2013-04-07T08:34:19.000Z</time>
      </trkpt>
      <trkpt lat="48.64411" lon="7.30368">
        <ele>502</ele>
        <time>2013-04-07T08:34:23.000Z</time>
      </trkpt>
      <trkpt lat="48.64452" lon="7.30369">
        <ele>501</ele>
        <time>2013-04-07T08:34:29.000Z</time>
      </trkpt>
      <trkpt lat="48.6446" lon="7.30366">
        <ele>501</ele>
        <time>2013-04-07T08:34:31.000Z</time>
      </trkpt>
      <trkpt lat="48.64463" lon="7.30369">
        <ele>501</ele>
        <time>2013-04-07T08:34:33.000Z</time>
      </trkpt>
      <trkpt lat="48.64478" lon="7.30364">
        <ele>501</ele>
        <time>2013-04-07T08:34:37.000Z</time>
      </trkpt>
      <trkpt lat="48.64484" lon="7.3036">
        <ele>502</ele>
        <time>2013-04-07T08:34:39.000Z</time>
      </trkpt>
      <trkpt lat="48.64494" lon="7.30354">
        <ele>503</ele>
        <time>2013-04-07T08:34:42.000Z</time>
      </trkpt>
      <trkpt lat="48.64498" lon="7.30359">
        <ele>502</ele>
        <time>2013-04-07T08:34:44.000Z</time>
      </trkpt>
      <trkpt lat="48.6451" lon="7.30348">
        <ele>502</ele>
        <time>2013-04-07T08:34:48.000Z</time>
      </trkpt>
      <trkpt lat="48.64513" lon="7.30352">
        <ele>501</ele>
        <time>2013-04-07T08:34:50.000Z</time>
      </trkpt>
      <trkpt lat="48.64518" lon="7.30346">
        <ele>501</ele>
        <time>2013-04-07T08:34:53.000Z</time>
      </trkpt>
      <trkpt lat="48.6452" lon="7.30345">
        <ele>501</ele>
        <time>2013-04-07T08:34:55.000Z</time>
      </trkpt>
      <trkpt lat="48.64524" lon="7.30343">
        <ele>500</ele>
        <time>2013-04-07T08:34:58.000Z</time>
      </trkpt>
      <trkpt lat="48.64539" lon="7.30339">
        <ele>499</ele>
        <time>2013-04-07T08:35:01.000Z</time>
      </trkpt>
      <trkpt lat="48.6455" lon="7.30339">
        <ele>499</ele>
        <time>2013-04-07T08:35:04.000Z</time>
      </trkpt>
      <trkpt lat="48.64556" lon="7.30341">
        <ele>499</ele>
        <time>2013-04-07T08:35:06.000Z</time>
      </trkpt>
      <trkpt lat="48.64569" lon="7.30348">
        <ele>500</ele>
        <time>2013-04-07T08:35:09.000Z</time>
      </trkpt>
      <trkpt lat="48.64578" lon="7.30342">
        <ele>502</ele>
        <time>2013-04-07T08:35:11.000Z</time>
      </trkpt>
      <trkpt lat="48.64584" lon="7.30348">
        <ele>496</ele>
        <time>2013-04-07T08:35:13.000Z</time>
      </trkpt>
      <trkpt lat="48.64592" lon="7.30342">
        <ele>498</ele>
        <time>2013-04-07T08:35:16.000Z</time>
      </trkpt>
      <trkpt lat="48.64598" lon="7.30339">
        <ele>496</ele>
        <time>2013-04-07T08:35:18.000Z</time>
      </trkpt>
      <trkpt lat="48.64606" lon="7.30339">
        <ele>493</ele>
        <time>2013-04-07T08:35:20.000Z</time>
      </trkpt>
      <trkpt lat="48.64613" lon="7.30335">
        <ele>492</ele>
        <time>2013-04-07T08:35:23.000Z</time>
      </trkpt>
      <trkpt lat="48.64619" lon="7.30323">
        <ele>508</ele>
        <time>2013-04-07T08:35:26.000Z</time>
      </trkpt>
      <trkpt lat="48.64626" lon="7.3031">
        <ele>509</ele>
        <time>2013-04-07T08:35:29.000Z</time>
      </trkpt>
      <trkpt lat="48.64629" lon="7.30302">
        <ele>510</ele>
        <time>2013-04-07T08:35:32.000Z</time>
      </trkpt>
      <trkpt lat="48.64634" lon="7.30285">
        <ele>512</ele>
        <time>2013-04-07T08:35:35.000Z</time>
      </trkpt>
      <trkpt lat="48.64625" lon="7.30287">
        <ele>513</ele>
        <time>2013-04-07T08:35:37.000Z</time>
      </trkpt>
      <trkpt lat="48.64634" lon="7.30281">
        <ele>513</ele>
        <time>2013-04-07T08:35:39.000Z</time>
      </trkpt>
      <trkpt lat="48.64642" lon="7.30271">
        <ele>514</ele>
        <time>2013-04-07T08:35:41.000Z</time>
      </trkpt>
      <trkpt lat="48.64645" lon="7.30266">
        <ele>514</ele>
        <time>2013-04-07T08:35:43.000Z</time>
      </trkpt>
      <trkpt lat="48.64647" lon="7.30261">
        <ele>515</ele>
        <time>2013-04-07T08:35:45.000Z</time>
      </trkpt>
      <trkpt lat="48.6465" lon="7.30255">
        <ele>515</ele>
        <time>2013-04-07T08:35:47.000Z</time>
      </trkpt>
      <trkpt lat="48.64655" lon="7.30246">
        <ele>525</ele>
        <time>2013-04-07T08:35:50.000Z</time>
      </trkpt>
      <trkpt lat="48.64659" lon="7.30239">
        <ele>525</ele>
        <time>2013-04-07T08:35:53.000Z</time>
      </trkpt>
      <trkpt lat="48.64663" lon="7.30237">
        <ele>525</ele>
        <time>2013-04-07T08:35:57.000Z</time>
      </trkpt>
      <trkpt lat="48.64668" lon="7.30223">
        <ele>520</ele>
        <time>2013-04-07T08:36:00.000Z</time>
      </trkpt>
      <trkpt lat="48.6467" lon="7.30223">
        <ele>520</ele>
        <time>2013-04-07T08:36:03.000Z</time>
      </trkpt>
      <trkpt lat="48.64671" lon="7.30223">
        <ele>520</ele>
        <time>2013-04-07T08:36:06.000Z</time>
      </trkpt>
      <trkpt lat="48.64682" lon="7.3023">
        <ele>519</ele>
        <time>2013-04-07T08:36:10.000Z</time>
      </trkpt>
      <trkpt lat="48.64684" lon="7.30223">
        <ele>520</ele>
        <time>2013-04-07T08:36:12.000Z</time>
      </trkpt>
      <trkpt lat="48.64686" lon="7.30226">
        <ele>519</ele>
        <time>2013-04-07T08:36:15.000Z</time>
      </trkpt>
      <trkpt lat="48.64692" lon="7.3023">
        <ele>519</ele>
        <time>2013-04-07T08:36:19.000Z</time>
      </trkpt>
      <trkpt lat="48.64696" lon="7.30232">
        <ele>518</ele>
        <time>2013-04-07T08:36:21.000Z</time>
      </trkpt>
      <trkpt lat="48.64699" lon="7.30232">
        <ele>518</ele>
        <time>2013-04-07T08:36:23.000Z</time>
      </trkpt>
      <trkpt lat="48.64703" lon="7.30232">
        <ele>517</ele>
        <time>2013-04-07T08:36:25.000Z</time>
      </trkpt>
      <trkpt lat="48.64706" lon="7.30232">
        <ele>517</ele>
        <time>2013-04-07T08:36:27.000Z</time>
      </trkpt>
      <trkpt lat="48.64711" lon="7.30231">
        <ele>516</ele>
        <time>2013-04-07T08:36:29.000Z</time>
      </trkpt>
      <trkpt lat="48.64719" lon="7.30229">
        <ele>515</ele>
        <time>2013-04-07T08:36:32.000Z</time>
      </trkpt>
      <trkpt lat="48.64723" lon="7.30228">
        <ele>515</ele>
        <time>2013-04-07T08:36:34.000Z</time>
      </trkpt>
      <trkpt lat="48.64726" lon="7.30225">
        <ele>515</ele>
        <time>2013-04-07T08:36:36.000Z</time>
      </trkpt>
      <trkpt lat="48.6473" lon="7.30221">
        <ele>515</ele>
        <time>2013-04-07T08:36:38.000Z</time>
      </trkpt>
      <trkpt lat="48.64734" lon="7.30217">
        <ele>516</ele>
        <time>2013-04-07T08:36:40.000Z</time>
      </trkpt>
      <trkpt lat="48.64737" lon="7.30212">
        <ele>516</ele>
        <time>2013-04-07T08:36:42.000Z</time>
      </trkpt>
      <trkpt lat="48.6474" lon="7.30208">
        <ele>517</ele>
        <time>2013-04-07T08:36:44.000Z</time>
      </trkpt>
      <trkpt lat="48.64739" lon="7.30199">
        <ele>519</ele>
        <time>2013-04-07T08:36:47.000Z</time>
      </trkpt>
      <trkpt lat="48.64753" lon="7.30193">
        <ele>511</ele>
        <time>2013-04-07T08:36:50.000Z</time>
      </trkpt>
      <trkpt lat="48.64756" lon="7.30189">
        <ele>512</ele>
        <time>2013-04-07T08:36:52.000Z</time>
      </trkpt>
      <trkpt lat="48.64761" lon="7.3018">
        <ele>515</ele>
        <time>2013-04-07T08:36:54.000Z</time>
      </trkpt>
      <trkpt lat="48.64763" lon="7.30179">
        <ele>515</ele>
        <time>2013-04-07T08:36:56.000Z</time>
      </trkpt>
      <trkpt lat="48.64767" lon="7.30175">
        <ele>514</ele>
        <time>2013-04-07T08:36:59.000Z</time>
      </trkpt>
      <trkpt lat="48.64771" lon="7.30171">
        <ele>514</ele>
        <time>2013-04-07T08:37:01.000Z</time>
      </trkpt>
      <trkpt lat="48.64775" lon="7.30168">
        <ele>513</ele>
        <time>2013-04-07T08:37:03.000Z</time>
      </trkpt>
      <trkpt lat="48.64782" lon="7.30157">
        <ele>529</ele>
        <time>2013-04-07T08:37:06.000Z</time>
      </trkpt>
      <trkpt lat="48.64787" lon="7.30153">
        <ele>529</ele>
        <time>2013-04-07T08:37:08.000Z</time>
      </trkpt>
      <trkpt lat="48.6478" lon="7.30157">
        <ele>529</ele>
        <time>2013-04-07T08:37:10.000Z</time>
      </trkpt>
      <trkpt lat="48.64795" lon="7.30152">
        <ele>528</ele>
        <time>2013-04-07T08:37:13.000Z</time>
      </trkpt>
      <trkpt lat="48.64799" lon="7.30146">
        <ele>528</ele>
        <time>2013-04-07T08:37:16.000Z</time>
      </trkpt>
      <trkpt lat="48.64803" lon="7.30146">
        <ele>527</ele>
        <time>2013-04-07T08:37:18.000Z</time>
      </trkpt>
      <trkpt lat="48.64808" lon="7.30141">
        <ele>527</ele>
        <time>2013-04-07T08:37:21.000Z</time>
      </trkpt>
      <trkpt lat="48.64811" lon="7.30141">
        <ele>527</ele>
        <time>2013-04-07T08:37:23.000Z</time>
      </trkpt>
      <trkpt lat="48.64804" lon="7.30144">
        <ele>527</ele>
        <time>2013-04-07T08:37:25.000Z</time>
      </trkpt>
      <trkpt lat="48.64822" lon="7.30135">
        <ele>527</ele>
        <time>2013-04-07T08:37:28.000Z</time>
      </trkpt>
      <trkpt lat="48.64824" lon="7.30135">
        <ele>527</ele>
        <time>2013-04-07T08:37:30.000Z</time>
      </trkpt>
      <trkpt lat="48.64828" lon="7.30132">
        <ele>527</ele>
        <time>2013-04-07T08:37:32.000Z</time>
      </trkpt>
      <trkpt lat="48.64832" lon="7.3013">
        <ele>527</ele>
        <time>2013-04-07T08:37:34.000Z</time>
      </trkpt>
      <trkpt lat="48.64835" lon="7.30128">
        <ele>514</ele>
        <time>2013-04-07T08:37:36.000Z</time>
      </trkpt>
      <trkpt lat="48.64839" lon="7.30125">
        <ele>515</ele>
        <time>2013-04-07T08:37:39.000Z</time>
      </trkpt>
      <trkpt lat="48.64843" lon="7.30122">
        <ele>515</ele>
        <time>2013-04-07T08:37:41.000Z</time>
      </trkpt>
      <trkpt lat="48.64846" lon="7.30119">
        <ele>515</ele>
        <time>2013-04-07T08:37:43.000Z</time>
      </trkpt>
      <trkpt lat="48.6485" lon="7.30116">
        <ele>515</ele>
        <time>2013-04-07T08:37:45.000Z</time>
      </trkpt>
      <trkpt lat="48.64854" lon="7.30112">
        <ele>516</ele>
        <time>2013-04-07T08:37:47.000Z</time>
      </trkpt>
      <trkpt lat="48.64857" lon="7.30108">
        <ele>516</ele>
        <time>2013-04-07T08:37:49.000Z</time>
      </trkpt>
      <trkpt lat="48.64862" lon="7.30101">
        <ele>516</ele>
        <time>2013-04-07T08:37:52.000Z</time>
      </trkpt>
      <trkpt lat="48.64867" lon="7.30094">
        <ele>516</ele>
        <time>2013-04-07T08:37:55.000Z</time>
      </trkpt>
      <trkpt lat="48.64871" lon="7.30089">
        <ele>515</ele>
        <time>2013-04-07T08:37:57.000Z</time>
      </trkpt>
      <trkpt lat="48.64874" lon="7.30084">
        <ele>515</ele>
        <time>2013-04-07T08:37:59.000Z</time>
      </trkpt>
      <trkpt lat="48.64878" lon="7.30079">
        <ele>527</ele>
        <time>2013-04-07T08:38:01.000Z</time>
      </trkpt>
      <trkpt lat="48.64881" lon="7.30074">
        <ele>527</ele>
        <time>2013-04-07T08:38:03.000Z</time>
      </trkpt>
      <trkpt lat="48.64886" lon="7.30065">
        <ele>527</ele>
        <time>2013-04-07T08:38:05.000Z</time>
      </trkpt>
      <trkpt lat="48.6489" lon="7.30058">
        <ele>527</ele>
        <time>2013-04-07T08:38:08.000Z</time>
      </trkpt>
      <trkpt lat="48.64893" lon="7.30051">
        <ele>527</ele>
        <time>2013-04-07T08:38:10.000Z</time>
      </trkpt>
      <trkpt lat="48.64896" lon="7.30045">
        <ele>528</ele>
        <time>2013-04-07T08:38:12.000Z</time>
      </trkpt>
      <trkpt lat="48.64899" lon="7.30045">
        <ele>527</ele>
        <time>2013-04-07T08:38:14.000Z</time>
      </trkpt>
      <trkpt lat="48.64902" lon="7.30038">
        <ele>528</ele>
        <time>2013-04-07T08:38:17.000Z</time>
      </trkpt>
      <trkpt lat="48.64909" lon="7.30029">
        <ele>528</ele>
        <time>2013-04-07T08:38:19.000Z</time>
      </trkpt>
      <trkpt lat="48.64902" lon="7.30025">
        <ele>529</ele>
        <time>2013-04-07T08:38:22.000Z</time>
      </trkpt>
      <trkpt lat="48.64912" lon="7.3002">
        <ele>527</ele>
        <time>2013-04-07T08:38:24.000Z</time>
      </trkpt>
      <trkpt lat="48.64917" lon="7.30005">
        <ele>521</ele>
        <time>2013-04-07T08:38:27.000Z</time>
      </trkpt>
      <trkpt lat="48.64921" lon="7.29998">
        <ele>524</ele>
        <time>2013-04-07T08:38:30.000Z</time>
      </trkpt>
      <trkpt lat="48.64922" lon="7.29995">
        <ele>524</ele>
        <time>2013-04-07T08:38:32.000Z</time>
      </trkpt>
      <trkpt lat="48.64923" lon="7.29989">
        <ele>524</ele>
        <time>2013-04-07T08:38:34.000Z</time>
      </trkpt>
      <trkpt lat="48.64925" lon="7.29982">
        <ele>524</ele>
        <time>2013-04-07T08:38:36.000Z</time>
      </trkpt>
      <trkpt lat="48.64927" lon="7.29977">
        <ele>524</ele>
        <time>2013-04-07T08:38:38.000Z</time>
      </trkpt>
      <trkpt lat="48.64928" lon="7.2997">
        <ele>524</ele>
        <time>2013-04-07T08:38:40.000Z</time>
      </trkpt>
      <trkpt lat="48.6493" lon="7.29963">
        <ele>525</ele>
        <time>2013-04-07T08:38:42.000Z</time>
      </trkpt>
      <trkpt lat="48.6493" lon="7.29955">
        <ele>525</ele>
        <time>2013-04-07T08:38:44.000Z</time>
      </trkpt>
      <trkpt lat="48.64932" lon="7.29937">
        <ele>528</ele>
        <time>2013-04-07T08:38:47.000Z</time>
      </trkpt>
      <trkpt lat="48.64932" lon="7.29936">
        <ele>528</ele>
        <time>2013-04-07T08:38:49.000Z</time>
      </trkpt>
      <trkpt lat="48.64933" lon="7.2993">
        <ele>528</ele>
        <time>2013-04-07T08:38:51.000Z</time>
      </trkpt>
      <trkpt lat="48.64936" lon="7.29914">
        <ele>536</ele>
        <time>2013-04-07T08:38:54.000Z</time>
      </trkpt>
      <trkpt lat="48.64939" lon="7.29907">
        <ele>536</ele>
        <time>2013-04-07T08:38:57.000Z</time>
      </trkpt>
      <trkpt lat="48.64941" lon="7.29903">
        <ele>536</ele>
        <time>2013-04-07T08:38:59.000Z</time>
      </trkpt>
      <trkpt lat="48.64944" lon="7.29892">
        <ele>537</ele>
        <time>2013-04-07T08:39:02.000Z</time>
      </trkpt>
      <trkpt lat="48.64948" lon="7.29885">
        <ele>537</ele>
        <time>2013-04-07T08:39:04.000Z</time>
      </trkpt>
      <trkpt lat="48.6495" lon="7.29883">
        <ele>537</ele>
        <time>2013-04-07T08:39:06.000Z</time>
      </trkpt>
      <trkpt lat="48.64957" lon="7.29876">
        <ele>537</ele>
        <time>2013-04-07T08:39:09.000Z</time>
      </trkpt>
      <trkpt lat="48.6496" lon="7.29878">
        <ele>537</ele>
        <time>2013-04-07T08:39:11.000Z</time>
      </trkpt>
      <trkpt lat="48.64968" lon="7.29889">
        <ele>535</ele>
        <time>2013-04-07T08:39:14.000Z</time>
      </trkpt>
      <trkpt lat="48.64972" lon="7.29879">
        <ele>536</ele>
        <time>2013-04-07T08:39:16.000Z</time>
      </trkpt>
      <trkpt lat="48.64978" lon="7.29881">
        <ele>535</ele>
        <time>2013-04-07T08:39:19.000Z</time>
      </trkpt>
      <trkpt lat="48.64985" lon="7.29886">
        <ele>534</ele>
        <time>2013-04-07T08:39:22.000Z</time>
      </trkpt>
      <trkpt lat="48.64991" lon="7.29888">
        <ele>534</ele>
        <time>2013-04-07T08:39:24.000Z</time>
      </trkpt>
      <trkpt lat="48.64997" lon="7.29899">
        <ele>531</ele>
        <time>2013-04-07T08:39:27.000Z</time>
      </trkpt>
      <trkpt lat="48.65002" lon="7.299">
        <ele>535</ele>
        <time>2013-04-07T08:39:29.000Z</time>
      </trkpt>
      <trkpt lat="48.65006" lon="7.2991">
        <ele>531</ele>
        <time>2013-04-07T08:39:32.000Z</time>
      </trkpt>
      <trkpt lat="48.65011" lon="7.29919">
        <ele>528</ele>
        <time>2013-04-07T08:39:35.000Z</time>
      </trkpt>
      <trkpt lat="48.65014" lon="7.29928">
        <ele>530</ele>
        <time>2013-04-07T08:39:37.000Z</time>
      </trkpt>
      <trkpt lat="48.65015" lon="7.29931">
        <ele>530</ele>
        <time>2013-04-07T08:39:39.000Z</time>
      </trkpt>
      <trkpt lat="48.65018" lon="7.29936">
        <ele>531</ele>
        <time>2013-04-07T08:39:42.000Z</time>
      </trkpt>
      <trkpt lat="48.65023" lon="7.29942">
        <ele>532</ele>
        <time>2013-04-07T08:39:45.000Z</time>
      </trkpt>
      <trkpt lat="48.65023" lon="7.29948">
        <ele>532</ele>
        <time>2013-04-07T08:39:48.000Z</time>
      </trkpt>
      <trkpt lat="48.65033" lon="7.29963">
        <ele>532</ele>
        <time>2013-04-07T08:39:51.000Z</time>
      </trkpt>
      <trkpt lat="48.65036" lon="7.29971">
        <ele>533</ele>
        <time>2013-04-07T08:39:54.000Z</time>
      </trkpt>
      <trkpt lat="48.65039" lon="7.29972">
        <ele>533</ele>
        <time>2013-04-07T08:39:56.000Z</time>
      </trkpt>
      <trkpt lat="48.65033" lon="7.29977">
        <ele>531</ele>
        <time>2013-04-07T08:39:58.000Z</time>
      </trkpt>
      <trkpt lat="48.65044" lon="7.29983">
        <ele>534</ele>
        <time>2013-04-07T08:40:01.000Z</time>
      </trkpt>
      <trkpt lat="48.65045" lon="7.29995">
        <ele>533</ele>
        <time>2013-04-07T08:40:03.000Z</time>
      </trkpt>
      <trkpt lat="48.65048" lon="7.30008">
        <ele>526</ele>
        <time>2013-04-07T08:40:06.000Z</time>
      </trkpt>
      <trkpt lat="48.65052" lon="7.30016">
        <ele>526</ele>
        <time>2013-04-07T08:40:09.000Z</time>
      </trkpt>
      <trkpt lat="48.65054" lon="7.30025">
        <ele>526</ele>
        <time>2013-04-07T08:40:12.000Z</time>
      </trkpt>
      <trkpt lat="48.65055" lon="7.30032">
        <ele>526</ele>
        <time>2013-04-07T08:40:14.000Z</time>
      </trkpt>
      <trkpt lat="48.65057" lon="7.30038">
        <ele>525</ele>
        <time>2013-04-07T08:40:16.000Z</time>
      </trkpt>
      <trkpt lat="48.65057" lon="7.30044">
        <ele>525</ele>
        <time>2013-04-07T08:40:18.000Z</time>
      </trkpt>
      <trkpt lat="48.65058" lon="7.30058">
        <ele>524</ele>
        <time>2013-04-07T08:40:21.000Z</time>
      </trkpt>
      <trkpt lat="48.6506" lon="7.30065">
        <ele>525</ele>
        <time>2013-04-07T08:40:23.000Z</time>
      </trkpt>
      <trkpt lat="48.65062" lon="7.30065">
        <ele>525</ele>
        <time>2013-04-07T08:40:25.000Z</time>
      </trkpt>
      <trkpt lat="48.65068" lon="7.30072">
        <ele>528</ele>
        <time>2013-04-07T08:40:29.000Z</time>
      </trkpt>
      <trkpt lat="48.65071" lon="7.30087">
        <ele>524</ele>
        <time>2013-04-07T08:40:32.000Z</time>
      </trkpt>
      <trkpt lat="48.65074" lon="7.30091">
        <ele>525</ele>
        <time>2013-04-07T08:40:35.000Z</time>
      </trkpt>
      <trkpt lat="48.6507" lon="7.30097">
        <ele>521</ele>
        <time>2013-04-07T08:40:37.000Z</time>
      </trkpt>
      <trkpt lat="48.65076" lon="7.30107">
        <ele>519</ele>
        <time>2013-04-07T08:40:39.000Z</time>
      </trkpt>
      <trkpt lat="48.65075" lon="7.3011">
        <ele>518</ele>
        <time>2013-04-07T08:40:42.000Z</time>
      </trkpt>
      <trkpt lat="48.65082" lon="7.30124">
        <ele>516</ele>
        <time>2013-04-07T08:40:45.000Z</time>
      </trkpt>
      <trkpt lat="48.65087" lon="7.30134">
        <ele>540</ele>
        <time>2013-04-07T08:40:49.000Z</time>
      </trkpt>
      <trkpt lat="48.65089" lon="7.30146">
        <ele>537</ele>
        <time>2013-04-07T08:40:52.000Z</time>
      </trkpt>
      <trkpt lat="48.65079" lon="7.30141">
        <ele>516</ele>
        <time>2013-04-07T08:40:55.000Z</time>
      </trkpt>
      <trkpt lat="48.65098" lon="7.30151">
        <ele>538</ele>
        <time>2013-04-07T08:40:58.000Z</time>
      </trkpt>
      <trkpt lat="48.65101" lon="7.30162">
        <ele>537</ele>
        <time>2013-04-07T08:41:01.000Z</time>
      </trkpt>
      <trkpt lat="48.65103" lon="7.30168">
        <ele>530</ele>
        <time>2013-04-07T08:41:04.000Z</time>
      </trkpt>
      <trkpt lat="48.65104" lon="7.30172">
        <ele>530</ele>
        <time>2013-04-07T08:41:06.000Z</time>
      </trkpt>
      <trkpt lat="48.65111" lon="7.30182">
        <ele>532</ele>
        <time>2013-04-07T08:41:11.000Z</time>
      </trkpt>
      <trkpt lat="48.65116" lon="7.30186">
        <ele>533</ele>
        <time>2013-04-07T08:41:14.000Z</time>
      </trkpt>
      <trkpt lat="48.65118" lon="7.30194">
        <ele>533</ele>
        <time>2013-04-07T08:41:16.000Z</time>
      </trkpt>
      <trkpt lat="48.65123" lon="7.30204">
        <ele>533</ele>
        <time>2013-04-07T08:41:18.000Z</time>
      </trkpt>
      <trkpt lat="48.65131" lon="7.30208">
        <ele>534</ele>
        <time>2013-04-07T08:41:22.000Z</time>
      </trkpt>
      <trkpt lat="48.65134" lon="7.3022">
        <ele>534</ele>
        <time>2013-04-07T08:41:24.000Z</time>
      </trkpt>
      <trkpt lat="48.65139" lon="7.30224">
        <ele>534</ele>
        <time>2013-04-07T08:41:27.000Z</time>
      </trkpt>
      <trkpt lat="48.65144" lon="7.30234">
        <ele>534</ele>
        <time>2013-04-07T08:41:29.000Z</time>
      </trkpt>
      <trkpt lat="48.65145" lon="7.30234">
        <ele>534</ele>
        <time>2013-04-07T08:41:32.000Z</time>
      </trkpt>
      <trkpt lat="48.65162" lon="7.30239">
        <ele>535</ele>
        <time>2013-04-07T08:41:36.000Z</time>
      </trkpt>
      <trkpt lat="48.65162" lon="7.30241">
        <ele>535</ele>
        <time>2013-04-07T08:41:39.000Z</time>
      </trkpt>
      <trkpt lat="48.65178" lon="7.30237">
        <ele>543</ele>
        <time>2013-04-07T08:41:43.000Z</time>
      </trkpt>
      <trkpt lat="48.65187" lon="7.30236">
        <ele>545</ele>
        <time>2013-04-07T08:41:46.000Z</time>
      </trkpt>
      <trkpt lat="48.65193" lon="7.30229">
        <ele>547</ele>
        <time>2013-04-07T08:41:48.000Z</time>
      </trkpt>
      <trkpt lat="48.65197" lon="7.30232">
        <ele>547</ele>
        <time>2013-04-07T08:41:51.000Z</time>
      </trkpt>
      <trkpt lat="48.65206" lon="7.30227">
        <ele>548</ele>
        <time>2013-04-07T08:41:54.000Z</time>
      </trkpt>
      <trkpt lat="48.65213" lon="7.30225">
        <ele>549</ele>
        <time>2013-04-07T08:41:57.000Z</time>
      </trkpt>
      <trkpt lat="48.65218" lon="7.30227">
        <ele>548</ele>
        <time>2013-04-07T08:41:59.000Z</time>
      </trkpt>
      <trkpt lat="48.65226" lon="7.30217">
        <ele>550</ele>
        <time>2013-04-07T08:42:02.000Z</time>
      </trkpt>
      <trkpt lat="48.65231" lon="7.30222">
        <ele>549</ele>
        <time>2013-04-07T08:42:05.000Z</time>
      </trkpt>
      <trkpt lat="48.65241" lon="7.30211">
        <ele>552</ele>
        <time>2013-04-07T08:42:09.000Z</time>
      </trkpt>
      <trkpt lat="48.65247" lon="7.30216">
        <ele>550</ele>
        <time>2013-04-07T08:42:12.000Z</time>
      </trkpt>
      <trkpt lat="48.65257" lon="7.30207">
        <ele>555</ele>
        <time>2013-04-07T08:42:16.000Z</time>
      </trkpt>
      <trkpt lat="48.6526" lon="7.30211">
        <ele>554</ele>
        <time>2013-04-07T08:42:18.000Z</time>
      </trkpt>
      <trkpt lat="48.65265" lon="7.30206">
        <ele>555</ele>
        <time>2013-04-07T08:42:21.000Z</time>
      </trkpt>
      <trkpt lat="48.65271" lon="7.302">
        <ele>557</ele>
        <time>2013-04-07T08:42:23.000Z</time>
      </trkpt>
      <trkpt lat="48.65274" lon="7.30205">
        <ele>555</ele>
        <time>2013-04-07T08:42:25.000Z</time>
      </trkpt>
      <trkpt lat="48.6528" lon="7.30195">
        <ele>557</ele>
        <time>2013-04-07T08:42:28.000Z</time>
      </trkpt>
      <trkpt lat="48.6528" lon="7.30199">
        <ele>557</ele>
        <time>2013-04-07T08:42:30.000Z</time>
      </trkpt>
      <trkpt lat="48.65287" lon="7.30191">
        <ele>558</ele>
        <time>2013-04-07T08:42:34.000Z</time>
      </trkpt>
      <trkpt lat="48.65292" lon="7.30193">
        <ele>558</ele>
        <time>2013-04-07T08:42:36.000Z</time>
      </trkpt>
      <trkpt lat="48.65298" lon="7.30188">
        <ele>558</ele>
        <time>2013-04-07T08:42:39.000Z</time>
      </trkpt>
      <trkpt lat="48.65304" lon="7.3019">
        <ele>558</ele>
        <time>2013-04-07T08:42:42.000Z</time>
      </trkpt>
      <trkpt lat="48.65311" lon="7.30198">
        <ele>557</ele>
        <time>2013-04-07T08:42:45.000Z</time>
      </trkpt>
      <trkpt lat="48.65318" lon="7.30195">
        <ele>558</ele>
        <time>2013-04-07T08:42:47.000Z</time>
      </trkpt>
      <trkpt lat="48.65325" lon="7.30201">
        <ele>557</ele>
        <time>2013-04-07T08:42:50.000Z</time>
      </trkpt>
      <trkpt lat="48.6533" lon="7.30204">
        <ele>556</ele>
        <time>2013-04-07T08:42:52.000Z</time>
      </trkpt>
      <trkpt lat="48.65336" lon="7.30212">
        <ele>563</ele>
        <time>2013-04-07T08:42:55.000Z</time>
      </trkpt>
      <trkpt lat="48.65339" lon="7.30226">
        <ele>558</ele>
        <time>2013-04-07T08:42:57.000Z</time>
      </trkpt>
      <trkpt lat="48.65346" lon="7.30228">
        <ele>559</ele>
        <time>2013-04-07T08:43:00.000Z</time>
      </trkpt>
      <trkpt lat="48.65347" lon="7.30242">
        <ele>554</ele>
        <time>2013-04-07T08:43:02.000Z</time>
      </trkpt>
      <trkpt lat="48.65354" lon="7.3025">
        <ele>545</ele>
        <time>2013-04-07T08:43:06.000Z</time>
      </trkpt>
      <trkpt lat="48.65361" lon="7.30252">
        <ele>546</ele>
        <time>2013-04-07T08:43:08.000Z</time>
      </trkpt>
      <trkpt lat="48.65367" lon="7.3027">
        <ele>547</ele>
        <time>2013-04-07T08:43:11.000Z</time>
      </trkpt>
      <trkpt lat="48.65375" lon="7.30277">
        <ele>548</ele>
        <time>2013-04-07T08:43:14.000Z</time>
      </trkpt>
      <trkpt lat="48.65381" lon="7.3029">
        <ele>548</ele>
        <time>2013-04-07T08:43:17.000Z</time>
      </trkpt>
      <trkpt lat="48.65387" lon="7.30298">
        <ele>548</ele>
        <time>2013-04-07T08:43:21.000Z</time>
      </trkpt>
      <trkpt lat="48.6539" lon="7.30319">
        <ele>547</ele>
        <time>2013-04-07T08:43:24.000Z</time>
      </trkpt>
      <trkpt lat="48.65369" lon="7.30328">
        <ele>541</ele>
        <time>2013-04-07T08:43:27.000Z</time>
      </trkpt>
      <trkpt lat="48.65399" lon="7.30333">
        <ele>549</ele>
        <time>2013-04-07T08:43:30.000Z</time>
      </trkpt>
      <trkpt lat="48.65401" lon="7.30351">
        <ele>539</ele>
        <time>2013-04-07T08:43:32.000Z</time>
      </trkpt>
      <trkpt lat="48.65408" lon="7.30359">
        <ele>539</ele>
        <time>2013-04-07T08:43:35.000Z</time>
      </trkpt>
      <trkpt lat="48.65417" lon="7.30382">
        <ele>556</ele>
        <time>2013-04-07T08:43:39.000Z</time>
      </trkpt>
      <trkpt lat="48.65422" lon="7.30379">
        <ele>557</ele>
        <time>2013-04-07T08:43:41.000Z</time>
      </trkpt>
      <trkpt lat="48.65424" lon="7.30394">
        <ele>554</ele>
        <time>2013-04-07T08:43:43.000Z</time>
      </trkpt>
      <trkpt lat="48.65429" lon="7.30404">
        <ele>552</ele>
        <time>2013-04-07T08:43:46.000Z</time>
      </trkpt>
      <trkpt lat="48.65435" lon="7.30403">
        <ele>554</ele>
        <time>2013-04-07T08:43:48.000Z</time>
      </trkpt>
      <trkpt lat="48.65438" lon="7.30425">
        <ele>547</ele>
        <time>2013-04-07T08:43:51.000Z</time>
      </trkpt>
      <trkpt lat="48.65445" lon="7.30442">
        <ele>548</ele>
        <time>2013-04-07T08:43:55.000Z</time>
      </trkpt>
      <trkpt lat="48.65449" lon="7.30462">
        <ele>547</ele>
        <time>2013-04-07T08:43:58.000Z</time>
      </trkpt>
      <trkpt lat="48.65454" lon="7.30471">
        <ele>547</ele>
        <time>2013-04-07T08:44:01.000Z</time>
      </trkpt>
      <trkpt lat="48.65457" lon="7.30487">
        <ele>546</ele>
        <time>2013-04-07T08:44:03.000Z</time>
      </trkpt>
      <trkpt lat="48.65467" lon="7.30495">
        <ele>548</ele>
        <time>2013-04-07T08:44:07.000Z</time>
      </trkpt>
      <trkpt lat="48.65471" lon="7.30516">
        <ele>539</ele>
        <time>2013-04-07T08:44:10.000Z</time>
      </trkpt>
      <trkpt lat="48.65477" lon="7.30522">
        <ele>540</ele>
        <time>2013-04-07T08:44:13.000Z</time>
      </trkpt>
      <trkpt lat="48.65483" lon="7.30529">
        <ele>540</ele>
        <time>2013-04-07T08:44:15.000Z</time>
      </trkpt>
      <trkpt lat="48.65486" lon="7.30542">
        <ele>538</ele>
        <time>2013-04-07T08:44:17.000Z</time>
      </trkpt>
      <trkpt lat="48.65494" lon="7.30546">
        <ele>538</ele>
        <time>2013-04-07T08:44:20.000Z</time>
      </trkpt>
      <trkpt lat="48.655" lon="7.30562">
        <ele>545</ele>
        <time>2013-04-07T08:44:23.000Z</time>
      </trkpt>
      <trkpt lat="48.65504" lon="7.30563">
        <ele>545</ele>
        <time>2013-04-07T08:44:25.000Z</time>
      </trkpt>
      <trkpt lat="48.65515" lon="7.30568">
        <ele>545</ele>
        <time>2013-04-07T08:44:28.000Z</time>
      </trkpt>
      <trkpt lat="48.6552" lon="7.30579">
        <ele>544</ele>
        <time>2013-04-07T08:44:30.000Z</time>
      </trkpt>
      <trkpt lat="48.65504" lon="7.30573">
        <ele>542</ele>
        <time>2013-04-07T08:44:33.000Z</time>
      </trkpt>
      <trkpt lat="48.65513" lon="7.30575">
        <ele>543</ele>
        <time>2013-04-07T08:44:36.000Z</time>
      </trkpt>
      <trkpt lat="48.65519" lon="7.30573">
        <ele>544</ele>
        <time>2013-04-07T08:44:40.000Z</time>
      </trkpt>
      <trkpt lat="48.65559" lon="7.30575">
        <ele>547</ele>
        <time>2013-04-07T08:44:47.000Z</time>
      </trkpt>
      <trkpt lat="48.65562" lon="7.30574">
        <ele>547</ele>
        <time>2013-04-07T08:44:49.000Z</time>
      </trkpt>
      <trkpt lat="48.65566" lon="7.30569">
        <ele>547</ele>
        <time>2013-04-07T08:44:52.000Z</time>
      </trkpt>
      <trkpt lat="48.65568" lon="7.30567">
        <ele>548</ele>
        <time>2013-04-07T08:44:54.000Z</time>
      </trkpt>
      <trkpt lat="48.6557" lon="7.30564">
        <ele>548</ele>
        <time>2013-04-07T08:44:56.000Z</time>
      </trkpt>
      <trkpt lat="48.65574" lon="7.30561">
        <ele>548</ele>
        <time>2013-04-07T08:45:07.000Z</time>
      </trkpt>
      <trkpt lat="48.65575" lon="7.30559">
        <ele>549</ele>
        <time>2013-04-07T08:45:12.000Z</time>
      </trkpt>
      <trkpt lat="48.6558" lon="7.30559">
        <ele>549</ele>
        <time>2013-04-07T08:45:15.000Z</time>
      </trkpt>
      <trkpt lat="48.65582" lon="7.30557">
        <ele>549</ele>
        <time>2013-04-07T08:45:18.000Z</time>
      </trkpt>
      <trkpt lat="48.65583" lon="7.30556">
        <ele>549</ele>
        <time>2013-04-07T08:45:22.000Z</time>
      </trkpt>
      <trkpt lat="48.65584" lon="7.30554">
        <ele>548</ele>
        <time>2013-04-07T08:45:27.000Z</time>
      </trkpt>
      <trkpt lat="48.65588" lon="7.30551">
        <ele>549</ele>
        <time>2013-04-07T08:45:35.000Z</time>
      </trkpt>
      <trkpt lat="48.65587" lon="7.30547">
        <ele>550</ele>
        <time>2013-04-07T08:45:39.000Z</time>
      </trkpt>
      <trkpt lat="48.65591" lon="7.30538">
        <ele>551</ele>
        <time>2013-04-07T08:45:43.000Z</time>
      </trkpt>
      <trkpt lat="48.65577" lon="7.30539">
        <ele>553</ele>
        <time>2013-04-07T08:45:49.000Z</time>
      </trkpt>
      <trkpt lat="48.65596" lon="7.30533">
        <ele>552</ele>
        <time>2013-04-07T08:45:54.000Z</time>
      </trkpt>
      <trkpt lat="48.65598" lon="7.3053">
        <ele>553</ele>
        <time>2013-04-07T08:45:56.000Z</time>
      </trkpt>
      <trkpt lat="48.65601" lon="7.30525">
        <ele>554</ele>
        <time>2013-04-07T08:46:00.000Z</time>
      </trkpt>
      <trkpt lat="48.65603" lon="7.30522">
        <ele>554</ele>
        <time>2013-04-07T08:46:02.000Z</time>
      </trkpt>
      <trkpt lat="48.65605" lon="7.30516">
        <ele>555</ele>
        <time>2013-04-07T08:46:06.000Z</time>
      </trkpt>
      <trkpt lat="48.65607" lon="7.30513">
        <ele>555</ele>
        <time>2013-04-07T08:46:08.000Z</time>
      </trkpt>
      <trkpt lat="48.65608" lon="7.30515">
        <ele>555</ele>
        <time>2013-04-07T08:46:10.000Z</time>
      </trkpt>
      <trkpt lat="48.65612" lon="7.30506">
        <ele>555</ele>
        <time>2013-04-07T08:46:14.000Z</time>
      </trkpt>
      <trkpt lat="48.65614" lon="7.30505">
        <ele>555</ele>
        <time>2013-04-07T08:46:17.000Z</time>
      </trkpt>
      <trkpt lat="48.65615" lon="7.305">
        <ele>555</ele>
        <time>2013-04-07T08:46:20.000Z</time>
      </trkpt>
      <trkpt lat="48.65618" lon="7.30502">
        <ele>555</ele>
        <time>2013-04-07T08:46:23.000Z</time>
      </trkpt>
      <trkpt lat="48.65619" lon="7.30496">
        <ele>573</ele>
        <time>2013-04-07T08:46:26.000Z</time>
      </trkpt>
      <trkpt lat="48.65621" lon="7.30499">
        <ele>572</ele>
        <time>2013-04-07T08:46:29.000Z</time>
      </trkpt>
      <trkpt lat="48.65622" lon="7.30493">
        <ele>573</ele>
        <time>2013-04-07T08:46:32.000Z</time>
      </trkpt>
      <trkpt lat="48.65626" lon="7.3049">
        <ele>573</ele>
        <time>2013-04-07T08:46:35.000Z</time>
      </trkpt>
      <trkpt lat="48.65627" lon="7.3049">
        <ele>573</ele>
        <time>2013-04-07T08:46:38.000Z</time>
      </trkpt>
      <trkpt lat="48.65628" lon="7.30489">
        <ele>573</ele>
        <time>2013-04-07T08:46:42.000Z</time>
      </trkpt>
      <trkpt lat="48.65629" lon="7.30488">
        <ele>573</ele>
        <time>2013-04-07T08:46:46.000Z</time>
      </trkpt>
      <trkpt lat="48.65631" lon="7.30485">
        <ele>573</ele>
        <time>2013-04-07T08:46:53.000Z</time>
      </trkpt>
      <trkpt lat="48.65633" lon="7.3048">
        <ele>574</ele>
        <time>2013-04-07T08:46:57.000Z</time>
      </trkpt>
      <trkpt lat="48.65636" lon="7.30484">
        <ele>573</ele>
        <time>2013-04-07T08:47:00.000Z</time>
      </trkpt>
      <trkpt lat="48.65638" lon="7.30479">
        <ele>574</ele>
        <time>2013-04-07T08:47:05.000Z</time>
      </trkpt>
      <trkpt lat="48.65629" lon="7.30477">
        <ele>574</ele>
        <time>2013-04-07T08:47:08.000Z</time>
      </trkpt>
      <trkpt lat="48.65639" lon="7.30471">
        <ele>575</ele>
        <time>2013-04-07T08:47:12.000Z</time>
      </trkpt>
      <trkpt lat="48.65645" lon="7.30477">
        <ele>573</ele>
        <time>2013-04-07T08:47:14.000Z</time>
      </trkpt>
      <trkpt lat="48.65648" lon="7.30468">
        <ele>575</ele>
        <time>2013-04-07T08:47:16.000Z</time>
      </trkpt>
      <trkpt lat="48.65651" lon="7.30467">
        <ele>575</ele>
        <time>2013-04-07T08:47:20.000Z</time>
      </trkpt>
      <trkpt lat="48.65652" lon="7.30464">
        <ele>576</ele>
        <time>2013-04-07T08:47:22.000Z</time>
      </trkpt>
      <trkpt lat="48.65659" lon="7.30458">
        <ele>577</ele>
        <time>2013-04-07T08:47:27.000Z</time>
      </trkpt>
      <trkpt lat="48.65659" lon="7.30461">
        <ele>577</ele>
        <time>2013-04-07T08:47:29.000Z</time>
      </trkpt>
      <trkpt lat="48.65664" lon="7.30458">
        <ele>577</ele>
        <time>2013-04-07T08:47:34.000Z</time>
      </trkpt>
      <trkpt lat="48.65665" lon="7.30456">
        <ele>578</ele>
        <time>2013-04-07T08:47:37.000Z</time>
      </trkpt>
      <trkpt lat="48.65669" lon="7.30455">
        <ele>576</ele>
        <time>2013-04-07T08:47:41.000Z</time>
      </trkpt>
      <trkpt lat="48.65672" lon="7.30451">
        <ele>578</ele>
        <time>2013-04-07T08:47:43.000Z</time>
      </trkpt>
      <trkpt lat="48.65677" lon="7.30443">
        <ele>580</ele>
        <time>2013-04-07T08:47:48.000Z</time>
      </trkpt>
      <trkpt lat="48.65677" lon="7.30447">
        <ele>579</ele>
        <time>2013-04-07T08:47:51.000Z</time>
      </trkpt>
      <trkpt lat="48.65681" lon="7.30447">
        <ele>578</ele>
        <time>2013-04-07T08:47:54.000Z</time>
      </trkpt>
      <trkpt lat="48.65683" lon="7.30444">
        <ele>579</ele>
        <time>2013-04-07T08:47:57.000Z</time>
      </trkpt>
      <trkpt lat="48.65684" lon="7.30443">
        <ele>579</ele>
        <time>2013-04-07T08:48:00.000Z</time>
      </trkpt>
      <trkpt lat="48.65691" lon="7.30437">
        <ele>580</ele>
        <time>2013-04-07T08:48:05.000Z</time>
      </trkpt>
      <trkpt lat="48.65692" lon="7.30439">
        <ele>579</ele>
        <time>2013-04-07T08:48:07.000Z</time>
      </trkpt>
      <trkpt lat="48.65694" lon="7.30439">
        <ele>579</ele>
        <time>2013-04-07T08:48:10.000Z</time>
      </trkpt>
      <trkpt lat="48.65695" lon="7.30439">
        <ele>579</ele>
        <time>2013-04-07T08:48:13.000Z</time>
      </trkpt>
      <trkpt lat="48.65657" lon="7.30441">
        <ele>582</ele>
        <time>2013-04-07T08:48:19.000Z</time>
      </trkpt>
      <trkpt lat="48.65699" lon="7.30435">
        <ele>579</ele>
        <time>2013-04-07T08:48:23.000Z</time>
      </trkpt>
      <trkpt lat="48.65683" lon="7.30439">
        <ele>581</ele>
        <time>2013-04-07T08:48:26.000Z</time>
      </trkpt>
      <trkpt lat="48.65704" lon="7.30439">
        <ele>578</ele>
        <time>2013-04-07T08:48:29.000Z</time>
      </trkpt>
      <trkpt lat="48.65705" lon="7.30434">
        <ele>579</ele>
        <time>2013-04-07T08:48:32.000Z</time>
      </trkpt>
      <trkpt lat="48.65708" lon="7.3044">
        <ele>578</ele>
        <time>2013-04-07T08:48:35.000Z</time>
      </trkpt>
      <trkpt lat="48.6571" lon="7.30433">
        <ele>579</ele>
        <time>2013-04-07T08:48:41.000Z</time>
      </trkpt>
      <trkpt lat="48.65714" lon="7.30431">
        <ele>579</ele>
        <time>2013-04-07T08:48:46.000Z</time>
      </trkpt>
      <trkpt lat="48.65713" lon="7.30436">
        <ele>578</ele>
        <time>2013-04-07T08:48:48.000Z</time>
      </trkpt>
      <trkpt lat="48.65718" lon="7.30428">
        <ele>580</ele>
        <time>2013-04-07T08:48:51.000Z</time>
      </trkpt>
      <trkpt lat="48.6572" lon="7.30432">
        <ele>579</ele>
        <time>2013-04-07T08:48:54.000Z</time>
      </trkpt>
      <trkpt lat="48.65724" lon="7.30429">
        <ele>580</ele>
        <time>2013-04-07T08:48:58.000Z</time>
      </trkpt>
      <trkpt lat="48.65708" lon="7.30432">
        <ele>579</ele>
        <time>2013-04-07T08:49:03.000Z</time>
      </trkpt>
      <trkpt lat="48.65732" lon="7.30432">
        <ele>580</ele>
        <time>2013-04-07T08:49:07.000Z</time>
      </trkpt>
      <trkpt lat="48.65712" lon="7.30431">
        <ele>579</ele>
        <time>2013-04-07T08:49:09.000Z</time>
      </trkpt>
      <trkpt lat="48.65728" lon="7.30433">
        <ele>579</ele>
        <time>2013-04-07T08:49:13.000Z</time>
      </trkpt>
      <trkpt lat="48.65741" lon="7.30432">
        <ele>581</ele>
        <time>2013-04-07T08:49:18.000Z</time>
      </trkpt>
      <trkpt lat="48.65744" lon="7.30439">
        <ele>579</ele>
        <time>2013-04-07T08:49:21.000Z</time>
      </trkpt>
      <trkpt lat="48.6575" lon="7.30429">
        <ele>585</ele>
        <time>2013-04-07T08:49:25.000Z</time>
      </trkpt>
      <trkpt lat="48.65751" lon="7.3043">
        <ele>585</ele>
        <time>2013-04-07T08:49:27.000Z</time>
      </trkpt>
      <trkpt lat="48.65756" lon="7.30427">
        <ele>585</ele>
        <time>2013-04-07T08:49:32.000Z</time>
      </trkpt>
      <trkpt lat="48.65747" lon="7.3043">
        <ele>582</ele>
        <time>2013-04-07T08:49:35.000Z</time>
      </trkpt>
      <trkpt lat="48.6576" lon="7.30422">
        <ele>586</ele>
        <time>2013-04-07T08:49:38.000Z</time>
      </trkpt>
      <trkpt lat="48.65755" lon="7.30428">
        <ele>585</ele>
        <time>2013-04-07T08:49:40.000Z</time>
      </trkpt>
      <trkpt lat="48.65765" lon="7.30426">
        <ele>585</ele>
        <time>2013-04-07T08:49:44.000Z</time>
      </trkpt>
      <trkpt lat="48.65749" lon="7.30422">
        <ele>585</ele>
        <time>2013-04-07T08:49:47.000Z</time>
      </trkpt>
      <trkpt lat="48.65771" lon="7.3042">
        <ele>585</ele>
        <time>2013-04-07T08:49:50.000Z</time>
      </trkpt>
      <trkpt lat="48.65771" lon="7.30424">
        <ele>585</ele>
        <time>2013-04-07T08:49:53.000Z</time>
      </trkpt>
      <trkpt lat="48.65775" lon="7.30426">
        <ele>585</ele>
        <time>2013-04-07T08:49:56.000Z</time>
      </trkpt>
      <trkpt lat="48.6578" lon="7.30416">
        <ele>598</ele>
        <time>2013-04-07T08:50:01.000Z</time>
      </trkpt>
      <trkpt lat="48.6578" lon="7.30421">
        <ele>586</ele>
        <time>2013-04-07T08:50:04.000Z</time>
      </trkpt>
      <trkpt lat="48.65784" lon="7.30419">
        <ele>586</ele>
        <time>2013-04-07T08:50:07.000Z</time>
      </trkpt>
      <trkpt lat="48.65786" lon="7.30415">
        <ele>599</ele>
        <time>2013-04-07T08:50:10.000Z</time>
      </trkpt>
      <trkpt lat="48.65789" lon="7.3042">
        <ele>586</ele>
        <time>2013-04-07T08:50:14.000Z</time>
      </trkpt>
      <trkpt lat="48.65784" lon="7.30414">
        <ele>599</ele>
        <time>2013-04-07T08:50:17.000Z</time>
      </trkpt>
      <trkpt lat="48.65793" lon="7.30422">
        <ele>587</ele>
        <time>2013-04-07T08:50:21.000Z</time>
      </trkpt>
      <trkpt lat="48.65799" lon="7.30418">
        <ele>588</ele>
        <time>2013-04-07T08:50:25.000Z</time>
      </trkpt>
      <trkpt lat="48.65803" lon="7.30422">
        <ele>588</ele>
        <time>2013-04-07T08:50:28.000Z</time>
      </trkpt>
      <trkpt lat="48.65813" lon="7.30421">
        <ele>591</ele>
        <time>2013-04-07T08:50:34.000Z</time>
      </trkpt>
      <trkpt lat="48.65813" lon="7.30426">
        <ele>590</ele>
        <time>2013-04-07T08:50:36.000Z</time>
      </trkpt>
      <trkpt lat="48.6582" lon="7.30426">
        <ele>592</ele>
        <time>2013-04-07T08:50:40.000Z</time>
      </trkpt>
      <trkpt lat="48.65828" lon="7.30426">
        <ele>594</ele>
        <time>2013-04-07T08:50:45.000Z</time>
      </trkpt>
      <trkpt lat="48.65822" lon="7.30431">
        <ele>592</ele>
        <time>2013-04-07T08:50:47.000Z</time>
      </trkpt>
      <trkpt lat="48.65835" lon="7.30431">
        <ele>598</ele>
        <time>2013-04-07T08:50:51.000Z</time>
      </trkpt>
      <trkpt lat="48.65839" lon="7.3044">
        <ele>597</ele>
        <time>2013-04-07T08:50:53.000Z</time>
      </trkpt>
      <trkpt lat="48.65842" lon="7.30439">
        <ele>597</ele>
        <time>2013-04-07T08:50:55.000Z</time>
      </trkpt>
      <trkpt lat="48.6585" lon="7.30434">
        <ele>597</ele>
        <time>2013-04-07T08:51:01.000Z</time>
      </trkpt>
      <trkpt lat="48.65851" lon="7.30437">
        <ele>597</ele>
        <time>2013-04-07T08:51:03.000Z</time>
      </trkpt>
      <trkpt lat="48.65858" lon="7.30444">
        <ele>596</ele>
        <time>2013-04-07T08:51:07.000Z</time>
      </trkpt>
      <trkpt lat="48.6586" lon="7.30443">
        <ele>596</ele>
        <time>2013-04-07T08:51:09.000Z</time>
      </trkpt>
      <trkpt lat="48.65868" lon="7.3044">
        <ele>597</ele>
        <time>2013-04-07T08:51:13.000Z</time>
      </trkpt>
      <trkpt lat="48.65868" lon="7.30446">
        <ele>596</ele>
        <time>2013-04-07T08:51:15.000Z</time>
      </trkpt>
      <trkpt lat="48.65874" lon="7.30446">
        <ele>596</ele>
        <time>2013-04-07T08:51:18.000Z</time>
      </trkpt>
      <trkpt lat="48.65881" lon="7.30453">
        <ele>596</ele>
        <time>2013-04-07T08:51:21.000Z</time>
      </trkpt>
      <trkpt lat="48.65891" lon="7.30454">
        <ele>596</ele>
        <time>2013-04-07T08:51:25.000Z</time>
      </trkpt>
      <trkpt lat="48.65897" lon="7.30451">
        <ele>597</ele>
        <time>2013-04-07T08:51:27.000Z</time>
      </trkpt>
      <trkpt lat="48.65905" lon="7.30457">
        <ele>597</ele>
        <time>2013-04-07T08:51:30.000Z</time>
      </trkpt>
      <trkpt lat="48.65913" lon="7.30458">
        <ele>597</ele>
        <time>2013-04-07T08:51:33.000Z</time>
      </trkpt>
      <trkpt lat="48.65916" lon="7.30455">
        <ele>597</ele>
        <time>2013-04-07T08:51:36.000Z</time>
      </trkpt>
      <trkpt lat="48.65905" lon="7.30455">
        <ele>597</ele>
        <time>2013-04-07T08:51:39.000Z</time>
      </trkpt>
      <trkpt lat="48.6592" lon="7.30453">
        <ele>599</ele>
        <time>2013-04-07T08:51:43.000Z</time>
      </trkpt>
      <trkpt lat="48.65927" lon="7.30449">
        <ele>599</ele>
        <time>2013-04-07T08:51:47.000Z</time>
      </trkpt>
      <trkpt lat="48.65925" lon="7.30449">
        <ele>599</ele>
        <time>2013-04-07T08:51:49.000Z</time>
      </trkpt>
      <trkpt lat="48.6592" lon="7.3045">
        <ele>599</ele>
        <time>2013-04-07T08:51:53.000Z</time>
      </trkpt>
      <trkpt lat="48.65917" lon="7.3044">
        <ele>600</ele>
        <time>2013-04-07T08:51:57.000Z</time>
      </trkpt>
      <trkpt lat="48.65938" lon="7.30446">
        <ele>599</ele>
        <time>2013-04-07T08:52:01.000Z</time>
      </trkpt>
      <trkpt lat="48.65908" lon="7.30439">
        <ele>598</ele>
        <time>2013-04-07T08:52:05.000Z</time>
      </trkpt>
      <trkpt lat="48.65903" lon="7.3043">
        <ele>599</ele>
        <time>2013-04-07T08:52:09.000Z</time>
      </trkpt>
      <trkpt lat="48.65899" lon="7.30424">
        <ele>599</ele>
        <time>2013-04-07T08:52:12.000Z</time>
      </trkpt>
      <trkpt lat="48.65895" lon="7.30426">
        <ele>598</ele>
        <time>2013-04-07T08:52:15.000Z</time>
      </trkpt>
      <trkpt lat="48.6589" lon="7.30426">
        <ele>598</ele>
        <time>2013-04-07T08:52:17.000Z</time>
      </trkpt>
      <trkpt lat="48.65889" lon="7.30422">
        <ele>598</ele>
        <time>2013-04-07T08:52:19.000Z</time>
      </trkpt>
      <trkpt lat="48.65881" lon="7.30416">
        <ele>603</ele>
        <time>2013-04-07T08:52:24.000Z</time>
      </trkpt>
      <trkpt lat="48.65878" lon="7.30411">
        <ele>603</ele>
        <time>2013-04-07T08:52:26.000Z</time>
      </trkpt>
      <trkpt lat="48.65872" lon="7.30402">
        <ele>603</ele>
        <time>2013-04-07T08:52:30.000Z</time>
      </trkpt>
      <trkpt lat="48.65868" lon="7.30399">
        <ele>603</ele>
        <time>2013-04-07T08:52:33.000Z</time>
      </trkpt>
      <trkpt lat="48.65863" lon="7.30388">
        <ele>604</ele>
        <time>2013-04-07T08:52:37.000Z</time>
      </trkpt>
      <trkpt lat="48.6586" lon="7.30379">
        <ele>604</ele>
        <time>2013-04-07T08:52:40.000Z</time>
      </trkpt>
      <trkpt lat="48.65863" lon="7.30386">
        <ele>604</ele>
        <time>2013-04-07T08:52:42.000Z</time>
      </trkpt>
      <trkpt lat="48.65852" lon="7.30377">
        <ele>604</ele>
        <time>2013-04-07T08:52:46.000Z</time>
      </trkpt>
      <trkpt lat="48.65848" lon="7.30372">
        <ele>605</ele>
        <time>2013-04-07T08:52:50.000Z</time>
      </trkpt>
      <trkpt lat="48.65845" lon="7.30359">
        <ele>606</ele>
        <time>2013-04-07T08:52:52.000Z</time>
      </trkpt>
      <trkpt lat="48.6584" lon="7.30353">
        <ele>607</ele>
        <time>2013-04-07T08:52:55.000Z</time>
      </trkpt>
      <trkpt lat="48.65836" lon="7.30352">
        <ele>607</ele>
        <time>2013-04-07T08:52:57.000Z</time>
      </trkpt>
      <trkpt lat="48.65833" lon="7.30338">
        <ele>609</ele>
        <time>2013-04-07T08:53:01.000Z</time>
      </trkpt>
      <trkpt lat="48.65825" lon="7.30339">
        <ele>608</ele>
        <time>2013-04-07T08:53:04.000Z</time>
      </trkpt>
      <trkpt lat="48.65823" lon="7.30329">
        <ele>611</ele>
        <time>2013-04-07T08:53:07.000Z</time>
      </trkpt>
      <trkpt lat="48.65821" lon="7.30324">
        <ele>612</ele>
        <time>2013-04-07T08:53:09.000Z</time>
      </trkpt>
      <trkpt lat="48.65818" lon="7.30319">
        <ele>612</ele>
        <time>2013-04-07T08:53:12.000Z</time>
      </trkpt>
      <trkpt lat="48.65833" lon="7.30313">
        <ele>612</ele>
        <time>2013-04-07T08:53:16.000Z</time>
      </trkpt>
      <trkpt lat="48.65815" lon="7.30302">
        <ele>613</ele>
        <time>2013-04-07T08:53:19.000Z</time>
      </trkpt>
      <trkpt lat="48.65852" lon="7.30298">
        <ele>608</ele>
        <time>2013-04-07T08:53:23.000Z</time>
      </trkpt>
      <trkpt lat="48.65807" lon="7.30287">
        <ele>614</ele>
        <time>2013-04-07T08:53:27.000Z</time>
      </trkpt>
      <trkpt lat="48.65807" lon="7.30278">
        <ele>614</ele>
        <time>2013-04-07T08:53:31.000Z</time>
      </trkpt>
      <trkpt lat="48.65805" lon="7.30276">
        <ele>614</ele>
        <time>2013-04-07T08:53:33.000Z</time>
      </trkpt>
      <trkpt lat="48.65805" lon="7.30265">
        <ele>614</ele>
        <time>2013-04-07T08:53:37.000Z</time>
      </trkpt>
      <trkpt lat="48.6581" lon="7.3027">
        <ele>614</ele>
        <time>2013-04-07T08:53:39.000Z</time>
      </trkpt>
      <trkpt lat="48.65801" lon="7.30264">
        <ele>614</ele>
        <time>2013-04-07T08:53:42.000Z</time>
      </trkpt>
      <trkpt lat="48.65797" lon="7.30253">
        <ele>615</ele>
        <time>2013-04-07T08:53:46.000Z</time>
      </trkpt>
      <trkpt lat="48.65812" lon="7.3026">
        <ele>614</ele>
        <time>2013-04-07T08:53:50.000Z</time>
      </trkpt>
      <trkpt lat="48.65796" lon="7.30257">
        <ele>615</ele>
        <time>2013-04-07T08:53:54.000Z</time>
      </trkpt>
      <trkpt lat="48.65782" lon="7.30251">
        <ele>616</ele>
        <time>2013-04-07T08:53:58.000Z</time>
      </trkpt>
      <trkpt lat="48.65776" lon="7.3025">
        <ele>619</ele>
        <time>2013-04-07T08:54:01.000Z</time>
      </trkpt>
      <trkpt lat="48.6577" lon="7.3025">
        <ele>620</ele>
        <time>2013-04-07T08:54:04.000Z</time>
      </trkpt>
      <trkpt lat="48.65765" lon="7.30246">
        <ele>620</ele>
        <time>2013-04-07T08:54:07.000Z</time>
      </trkpt>
      <trkpt lat="48.65762" lon="7.30248">
        <ele>620</ele>
        <time>2013-04-07T08:54:09.000Z</time>
      </trkpt>
      <trkpt lat="48.65765" lon="7.30257">
        <ele>618</ele>
        <time>2013-04-07T08:54:13.000Z</time>
      </trkpt>
      <trkpt lat="48.65755" lon="7.30253">
        <ele>619</ele>
        <time>2013-04-07T08:54:16.000Z</time>
      </trkpt>
      <trkpt lat="48.65747" lon="7.30243">
        <ele>623</ele>
        <time>2013-04-07T08:54:19.000Z</time>
      </trkpt>
      <trkpt lat="48.65744" lon="7.30243">
        <ele>623</ele>
        <time>2013-04-07T08:54:22.000Z</time>
      </trkpt>
      <trkpt lat="48.65736" lon="7.30248">
        <ele>624</ele>
        <time>2013-04-07T08:54:25.000Z</time>
      </trkpt>
      <trkpt lat="48.65734" lon="7.30249">
        <ele>624</ele>
        <time>2013-04-07T08:54:27.000Z</time>
      </trkpt>
      <trkpt lat="48.65727" lon="7.3025">
        <ele>625</ele>
        <time>2013-04-07T08:54:30.000Z</time>
      </trkpt>
      <trkpt lat="48.65723" lon="7.30252">
        <ele>620</ele>
        <time>2013-04-07T08:54:32.000Z</time>
      </trkpt>
      <trkpt lat="48.65718" lon="7.30255">
        <ele>621</ele>
        <time>2013-04-07T08:54:34.000Z</time>
      </trkpt>
      <trkpt lat="48.65714" lon="7.30252">
        <ele>621</ele>
        <time>2013-04-07T08:54:38.000Z</time>
      </trkpt>
      <trkpt lat="48.65707" lon="7.30254">
        <ele>621</ele>
        <time>2013-04-07T08:54:40.000Z</time>
      </trkpt>
      <trkpt lat="48.65703" lon="7.30251">
        <ele>621</ele>
        <time>2013-04-07T08:54:42.000Z</time>
      </trkpt>
      <trkpt lat="48.65697" lon="7.30247">
        <ele>627</ele>
        <time>2013-04-07T08:54:45.000Z</time>
      </trkpt>
      <trkpt lat="48.65686" lon="7.30252">
        <ele>623</ele>
        <time>2013-04-07T08:54:50.000Z</time>
      </trkpt>
      <trkpt lat="48.65683" lon="7.30244">
        <ele>627</ele>
        <time>2013-04-07T08:54:52.000Z</time>
      </trkpt>
      <trkpt lat="48.65678" lon="7.30245">
        <ele>627</ele>
        <time>2013-04-07T08:54:55.000Z</time>
      </trkpt>
      <trkpt lat="48.65671" lon="7.30244">
        <ele>627</ele>
        <time>2013-04-07T08:54:58.000Z</time>
      </trkpt>
      <trkpt lat="48.65666" lon="7.30243">
        <ele>627</ele>
        <time>2013-04-07T08:55:00.000Z</time>
      </trkpt>
      <trkpt lat="48.65654" lon="7.30249">
        <ele>627</ele>
        <time>2013-04-07T08:55:03.000Z</time>
      </trkpt>
      <trkpt lat="48.65649" lon="7.30244">
        <ele>627</ele>
        <time>2013-04-07T08:55:05.000Z</time>
      </trkpt>
      <trkpt lat="48.65642" lon="7.30251">
        <ele>621</ele>
        <time>2013-04-07T08:55:07.000Z</time>
      </trkpt>
      <trkpt lat="48.65636" lon="7.30246">
        <ele>626</ele>
        <time>2013-04-07T08:55:10.000Z</time>
      </trkpt>
      <trkpt lat="48.65627" lon="7.30244">
        <ele>626</ele>
        <time>2013-04-07T08:55:13.000Z</time>
      </trkpt>
      <trkpt lat="48.6562" lon="7.30248">
        <ele>625</ele>
        <time>2013-04-07T08:55:15.000Z</time>
      </trkpt>
      <trkpt lat="48.65614" lon="7.30245">
        <ele>625</ele>
        <time>2013-04-07T08:55:18.000Z</time>
      </trkpt>
      <trkpt lat="48.65604" lon="7.30236">
        <ele>624</ele>
        <time>2013-04-07T08:55:21.000Z</time>
      </trkpt>
      <trkpt lat="48.65597" lon="7.3024">
        <ele>623</ele>
        <time>2013-04-07T08:55:23.000Z</time>
      </trkpt>
      <trkpt lat="48.65589" lon="7.30236">
        <ele>623</ele>
        <time>2013-04-07T08:55:26.000Z</time>
      </trkpt>
      <trkpt lat="48.65582" lon="7.30232">
        <ele>619</ele>
        <time>2013-04-07T08:55:29.000Z</time>
      </trkpt>
      <trkpt lat="48.65574" lon="7.30225">
        <ele>619</ele>
        <time>2013-04-07T08:55:32.000Z</time>
      </trkpt>
      <trkpt lat="48.6557" lon="7.30215">
        <ele>619</ele>
        <time>2013-04-07T08:55:34.000Z</time>
      </trkpt>
      <trkpt lat="48.65555" lon="7.30206">
        <ele>619</ele>
        <time>2013-04-07T08:55:37.000Z</time>
      </trkpt>
      <trkpt lat="48.65554" lon="7.30199">
        <ele>619</ele>
        <time>2013-04-07T08:55:39.000Z</time>
      </trkpt>
      <trkpt lat="48.65551" lon="7.30194">
        <ele>619</ele>
        <time>2013-04-07T08:55:41.000Z</time>
      </trkpt>
      <trkpt lat="48.65543" lon="7.30182">
        <ele>620</ele>
        <time>2013-04-07T08:55:44.000Z</time>
      </trkpt>
      <trkpt lat="48.65551" lon="7.30189">
        <ele>620</ele>
        <time>2013-04-07T08:55:46.000Z</time>
      </trkpt>
      <trkpt lat="48.65555" lon="7.30185">
        <ele>621</ele>
        <time>2013-04-07T08:55:49.000Z</time>
      </trkpt>
      <trkpt lat="48.65555" lon="7.3018">
        <ele>621</ele>
        <time>2013-04-07T08:55:52.000Z</time>
      </trkpt>
      <trkpt lat="48.65535" lon="7.30163">
        <ele>627</ele>
        <time>2013-04-07T08:55:57.000Z</time>
      </trkpt>
      <trkpt lat="48.65505" lon="7.30149">
        <ele>624</ele>
        <time>2013-04-07T08:56:01.000Z</time>
      </trkpt>
      <trkpt lat="48.65492" lon="7.30138">
        <ele>617</ele>
        <time>2013-04-07T08:56:04.000Z</time>
      </trkpt>
      <trkpt lat="48.65491" lon="7.30136">
        <ele>617</ele>
        <time>2013-04-07T08:56:06.000Z</time>
      </trkpt>
      <trkpt lat="48.65487" lon="7.30129">
        <ele>617</ele>
        <time>2013-04-07T08:56:08.000Z</time>
      </trkpt>
      <trkpt lat="48.6549" lon="7.30125">
        <ele>618</ele>
        <time>2013-04-07T08:56:11.000Z</time>
      </trkpt>
      <trkpt lat="48.65474" lon="7.30112">
        <ele>618</ele>
        <time>2013-04-07T08:56:15.000Z</time>
      </trkpt>
      <trkpt lat="48.65466" lon="7.301">
        <ele>618</ele>
        <time>2013-04-07T08:56:18.000Z</time>
      </trkpt>
      <trkpt lat="48.65459" lon="7.30098">
        <ele>617</ele>
        <time>2013-04-07T08:56:20.000Z</time>
      </trkpt>
      <trkpt lat="48.65454" lon="7.30088">
        <ele>617</ele>
        <time>2013-04-07T08:56:23.000Z</time>
      </trkpt>
      <trkpt lat="48.65447" lon="7.30083">
        <ele>626</ele>
        <time>2013-04-07T08:56:25.000Z</time>
      </trkpt>
      <trkpt lat="48.65463" lon="7.30079">
        <ele>629</ele>
        <time>2013-04-07T08:56:28.000Z</time>
      </trkpt>
      <trkpt lat="48.65455" lon="7.30067">
        <ele>629</ele>
        <time>2013-04-07T08:56:31.000Z</time>
      </trkpt>
      <trkpt lat="48.65437" lon="7.30057">
        <ele>627</ele>
        <time>2013-04-07T08:56:34.000Z</time>
      </trkpt>
      <trkpt lat="48.65433" lon="7.3005">
        <ele>628</ele>
        <time>2013-04-07T08:56:36.000Z</time>
      </trkpt>
      <trkpt lat="48.65427" lon="7.30044">
        <ele>629</ele>
        <time>2013-04-07T08:56:39.000Z</time>
      </trkpt>
      <trkpt lat="48.65422" lon="7.30037">
        <ele>629</ele>
        <time>2013-04-07T08:56:42.000Z</time>
      </trkpt>
      <trkpt lat="48.6542" lon="7.30024">
        <ele>631</ele>
        <time>2013-04-07T08:56:44.000Z</time>
      </trkpt>
      <trkpt lat="48.65416" lon="7.30024">
        <ele>625</ele>
        <time>2013-04-07T08:56:46.000Z</time>
      </trkpt>
      <trkpt lat="48.65415" lon="7.3002">
        <ele>626</ele>
        <time>2013-04-07T08:56:48.000Z</time>
      </trkpt>
      <trkpt lat="48.6541" lon="7.30007">
        <ele>629</ele>
        <time>2013-04-07T08:56:51.000Z</time>
      </trkpt>
      <trkpt lat="48.65405" lon="7.30003">
        <ele>628</ele>
        <time>2013-04-07T08:56:54.000Z</time>
      </trkpt>
      <trkpt lat="48.65411" lon="7.3">
        <ele>634</ele>
        <time>2013-04-07T08:56:57.000Z</time>
      </trkpt>
      <trkpt lat="48.65389" lon="7.29989">
        <ele>635</ele>
        <time>2013-04-07T08:57:01.000Z</time>
      </trkpt>
      <trkpt lat="48.65404" lon="7.29985">
        <ele>635</ele>
        <time>2013-04-07T08:57:04.000Z</time>
      </trkpt>
      <trkpt lat="48.65374" lon="7.29969">
        <ele>635</ele>
        <time>2013-04-07T08:57:08.000Z</time>
      </trkpt>
      <trkpt lat="48.65369" lon="7.29964">
        <ele>636</ele>
        <time>2013-04-07T08:57:11.000Z</time>
      </trkpt>
      <trkpt lat="48.65366" lon="7.29963">
        <ele>636</ele>
        <time>2013-04-07T08:57:13.000Z</time>
      </trkpt>
      <trkpt lat="48.6536" lon="7.29955">
        <ele>636</ele>
        <time>2013-04-07T08:57:16.000Z</time>
      </trkpt>
      <trkpt lat="48.65356" lon="7.29954">
        <ele>636</ele>
        <time>2013-04-07T08:57:18.000Z</time>
      </trkpt>
      <trkpt lat="48.6535" lon="7.29953">
        <ele>636</ele>
        <time>2013-04-07T08:57:20.000Z</time>
      </trkpt>
      <trkpt lat="48.65345" lon="7.29949">
        <ele>637</ele>
        <time>2013-04-07T08:57:23.000Z</time>
      </trkpt>
      <trkpt lat="48.65341" lon="7.29938">
        <ele>638</ele>
        <time>2013-04-07T08:57:25.000Z</time>
      </trkpt>
      <trkpt lat="48.65337" lon="7.29937">
        <ele>638</ele>
        <time>2013-04-07T08:57:28.000Z</time>
      </trkpt>
      <trkpt lat="48.6533" lon="7.29936">
        <ele>634</ele>
        <time>2013-04-07T08:57:30.000Z</time>
      </trkpt>
      <trkpt lat="48.65327" lon="7.2993">
        <ele>636</ele>
        <time>2013-04-07T08:57:32.000Z</time>
      </trkpt>
      <trkpt lat="48.65321" lon="7.29921">
        <ele>636</ele>
        <time>2013-04-07T08:57:35.000Z</time>
      </trkpt>
      <trkpt lat="48.65319" lon="7.29922">
        <ele>636</ele>
        <time>2013-04-07T08:57:37.000Z</time>
      </trkpt>
      <trkpt lat="48.65312" lon="7.29921">
        <ele>634</ele>
        <time>2013-04-07T08:57:40.000Z</time>
      </trkpt>
      <trkpt lat="48.65306" lon="7.29908">
        <ele>641</ele>
        <time>2013-04-07T08:57:44.000Z</time>
      </trkpt>
      <trkpt lat="48.65302" lon="7.29901">
        <ele>641</ele>
        <time>2013-04-07T08:57:47.000Z</time>
      </trkpt>
      <trkpt lat="48.65298" lon="7.29903">
        <ele>640</ele>
        <time>2013-04-07T08:57:49.000Z</time>
      </trkpt>
      <trkpt lat="48.65295" lon="7.29898">
        <ele>640</ele>
        <time>2013-04-07T08:57:51.000Z</time>
      </trkpt>
      <trkpt lat="48.65292" lon="7.29897">
        <ele>640</ele>
        <time>2013-04-07T08:57:53.000Z</time>
      </trkpt>
      <trkpt lat="48.65284" lon="7.29893">
        <ele>640</ele>
        <time>2013-04-07T08:57:57.000Z</time>
      </trkpt>
      <trkpt lat="48.65279" lon="7.2988">
        <ele>640</ele>
        <time>2013-04-07T08:58:00.000Z</time>
      </trkpt>
      <trkpt lat="48.65274" lon="7.29878">
        <ele>640</ele>
        <time>2013-04-07T08:58:03.000Z</time>
      </trkpt>
      <trkpt lat="48.65285" lon="7.2987">
        <ele>642</ele>
        <time>2013-04-07T08:58:06.000Z</time>
      </trkpt>
      <trkpt lat="48.65288" lon="7.2987">
        <ele>642</ele>
        <time>2013-04-07T08:58:09.000Z</time>
      </trkpt>
      <trkpt lat="48.65279" lon="7.29863">
        <ele>642</ele>
        <time>2013-04-07T08:58:12.000Z</time>
      </trkpt>
      <trkpt lat="48.65277" lon="7.29844">
        <ele>642</ele>
        <time>2013-04-07T08:58:16.000Z</time>
      </trkpt>
      <trkpt lat="48.65257" lon="7.29831">
        <ele>644</ele>
        <time>2013-04-07T08:58:19.000Z</time>
      </trkpt>
      <trkpt lat="48.65256" lon="7.29827">
        <ele>644</ele>
        <time>2013-04-07T08:58:22.000Z</time>
      </trkpt>
      <trkpt lat="48.65255" lon="7.29816">
        <ele>647</ele>
        <time>2013-04-07T08:58:25.000Z</time>
      </trkpt>
      <trkpt lat="48.65253" lon="7.29809">
        <ele>648</ele>
        <time>2013-04-07T08:58:27.000Z</time>
      </trkpt>
      <trkpt lat="48.65255" lon="7.29794">
        <ele>650</ele>
        <time>2013-04-07T08:58:30.000Z</time>
      </trkpt>
      <trkpt lat="48.65248" lon="7.29791">
        <ele>637</ele>
        <time>2013-04-07T08:58:32.000Z</time>
      </trkpt>
      <trkpt lat="48.65247" lon="7.29776">
        <ele>639</ele>
        <time>2013-04-07T08:58:36.000Z</time>
      </trkpt>
      <trkpt lat="48.65243" lon="7.29773">
        <ele>640</ele>
        <time>2013-04-07T08:58:39.000Z</time>
      </trkpt>
      <trkpt lat="48.6524" lon="7.29768">
        <ele>641</ele>
        <time>2013-04-07T08:58:41.000Z</time>
      </trkpt>
      <trkpt lat="48.65236" lon="7.29756">
        <ele>642</ele>
        <time>2013-04-07T08:58:43.000Z</time>
      </trkpt>
      <trkpt lat="48.65233" lon="7.29754">
        <ele>641</ele>
        <time>2013-04-07T08:58:45.000Z</time>
      </trkpt>
      <trkpt lat="48.65229" lon="7.29741">
        <ele>645</ele>
        <time>2013-04-07T08:58:48.000Z</time>
      </trkpt>
      <trkpt lat="48.65227" lon="7.29739">
        <ele>645</ele>
        <time>2013-04-07T08:58:50.000Z</time>
      </trkpt>
      <trkpt lat="48.65223" lon="7.29735">
        <ele>644</ele>
        <time>2013-04-07T08:58:52.000Z</time>
      </trkpt>
      <trkpt lat="48.6522" lon="7.29723">
        <ele>644</ele>
        <time>2013-04-07T08:58:54.000Z</time>
      </trkpt>
      <trkpt lat="48.65216" lon="7.29722">
        <ele>643</ele>
        <time>2013-04-07T08:58:57.000Z</time>
      </trkpt>
      <trkpt lat="48.65211" lon="7.29709">
        <ele>643</ele>
        <time>2013-04-07T08:59:00.000Z</time>
      </trkpt>
      <trkpt lat="48.65208" lon="7.29697">
        <ele>644</ele>
        <time>2013-04-07T08:59:03.000Z</time>
      </trkpt>
      <trkpt lat="48.65202" lon="7.29692">
        <ele>643</ele>
        <time>2013-04-07T08:59:06.000Z</time>
      </trkpt>
      <trkpt lat="48.65198" lon="7.29684">
        <ele>643</ele>
        <time>2013-04-07T08:59:09.000Z</time>
      </trkpt>
      <trkpt lat="48.65195" lon="7.29672">
        <ele>643</ele>
        <time>2013-04-07T08:59:11.000Z</time>
      </trkpt>
      <trkpt lat="48.65191" lon="7.29672">
        <ele>642</ele>
        <time>2013-04-07T08:59:13.000Z</time>
      </trkpt>
      <trkpt lat="48.65189" lon="7.29662">
        <ele>646</ele>
        <time>2013-04-07T08:59:16.000Z</time>
      </trkpt>
      <trkpt lat="48.65184" lon="7.29662">
        <ele>645</ele>
        <time>2013-04-07T08:59:18.000Z</time>
      </trkpt>
      <trkpt lat="48.65184" lon="7.29651">
        <ele>646</ele>
        <time>2013-04-07T08:59:20.000Z</time>
      </trkpt>
      <trkpt lat="48.65195" lon="7.29646">
        <ele>648</ele>
        <time>2013-04-07T08:59:23.000Z</time>
      </trkpt>
      <trkpt lat="48.65188" lon="7.2964">
        <ele>648</ele>
        <time>2013-04-07T08:59:26.000Z</time>
      </trkpt>
      <trkpt lat="48.65171" lon="7.29621">
        <ele>648</ele>
        <time>2013-04-07T08:59:30.000Z</time>
      </trkpt>
      <trkpt lat="48.65167" lon="7.29614">
        <ele>648</ele>
        <time>2013-04-07T08:59:32.000Z</time>
      </trkpt>
      <trkpt lat="48.65163" lon="7.2961">
        <ele>640</ele>
        <time>2013-04-07T08:59:35.000Z</time>
      </trkpt>
      <trkpt lat="48.65161" lon="7.29596">
        <ele>642</ele>
        <time>2013-04-07T08:59:38.000Z</time>
      </trkpt>
      <trkpt lat="48.65158" lon="7.29589">
        <ele>643</ele>
        <time>2013-04-07T08:59:41.000Z</time>
      </trkpt>
      <trkpt lat="48.65165" lon="7.29597">
        <ele>643</ele>
        <time>2013-04-07T08:59:43.000Z</time>
      </trkpt>
      <trkpt lat="48.65165" lon="7.29592">
        <ele>644</ele>
        <time>2013-04-07T08:59:46.000Z</time>
      </trkpt>
      <trkpt lat="48.65149" lon="7.29573">
        <ele>646</ele>
        <time>2013-04-07T08:59:50.000Z</time>
      </trkpt>
      <trkpt lat="48.65184" lon="7.29566">
        <ele>652</ele>
        <time>2013-04-07T08:59:54.000Z</time>
      </trkpt>
      <trkpt lat="48.65158" lon="7.29559">
        <ele>646</ele>
        <time>2013-04-07T08:59:58.000Z</time>
      </trkpt>
      <trkpt lat="48.6514" lon="7.29545">
        <ele>646</ele>
        <time>2013-04-07T09:00:02.000Z</time>
      </trkpt>
      <trkpt lat="48.65139" lon="7.29542">
        <ele>646</ele>
        <time>2013-04-07T09:00:04.000Z</time>
      </trkpt>
      <trkpt lat="48.65138" lon="7.29539">
        <ele>646</ele>
        <time>2013-04-07T09:00:06.000Z</time>
      </trkpt>
      <trkpt lat="48.65137" lon="7.2953">
        <ele>647</ele>
        <time>2013-04-07T09:00:10.000Z</time>
      </trkpt>
      <trkpt lat="48.65135" lon="7.29512">
        <ele>647</ele>
        <time>2013-04-07T09:00:15.000Z</time>
      </trkpt>
      <trkpt lat="48.65132" lon="7.29509">
        <ele>647</ele>
        <time>2013-04-07T09:00:19.000Z</time>
      </trkpt>
      <trkpt lat="48.65134" lon="7.29504">
        <ele>648</ele>
        <time>2013-04-07T09:00:23.000Z</time>
      </trkpt>
      <trkpt lat="48.65129" lon="7.29498">
        <ele>651</ele>
        <time>2013-04-07T09:00:25.000Z</time>
      </trkpt>
      <trkpt lat="48.65128" lon="7.29489">
        <ele>651</ele>
        <time>2013-04-07T09:00:29.000Z</time>
      </trkpt>
      <trkpt lat="48.65126" lon="7.29484">
        <ele>652</ele>
        <time>2013-04-07T09:00:33.000Z</time>
      </trkpt>
      <trkpt lat="48.65123" lon="7.29468">
        <ele>652</ele>
        <time>2013-04-07T09:00:37.000Z</time>
      </trkpt>
      <trkpt lat="48.65122" lon="7.29473">
        <ele>652</ele>
        <time>2013-04-07T09:00:39.000Z</time>
      </trkpt>
      <trkpt lat="48.6512" lon="7.29466">
        <ele>652</ele>
        <time>2013-04-07T09:00:41.000Z</time>
      </trkpt>
      <trkpt lat="48.65117" lon="7.29463">
        <ele>652</ele>
        <time>2013-04-07T09:00:45.000Z</time>
      </trkpt>
      <trkpt lat="48.65118" lon="7.29454">
        <ele>652</ele>
        <time>2013-04-07T09:00:47.000Z</time>
      </trkpt>
      <trkpt lat="48.65099" lon="7.29453">
        <ele>652</ele>
        <time>2013-04-07T09:00:51.000Z</time>
      </trkpt>
      <trkpt lat="48.65118" lon="7.29448">
        <ele>653</ele>
        <time>2013-04-07T09:00:55.000Z</time>
      </trkpt>
      <trkpt lat="48.65131" lon="7.2945">
        <ele>653</ele>
        <time>2013-04-07T09:00:59.000Z</time>
      </trkpt>
      <trkpt lat="48.65138" lon="7.29452">
        <ele>653</ele>
        <time>2013-04-07T09:01:02.000Z</time>
      </trkpt>
      <trkpt lat="48.65145" lon="7.29453">
        <ele>653</ele>
        <time>2013-04-07T09:01:05.000Z</time>
      </trkpt>
      <trkpt lat="48.65151" lon="7.29456">
        <ele>653</ele>
        <time>2013-04-07T09:01:08.000Z</time>
      </trkpt>
      <trkpt lat="48.65159" lon="7.29448">
        <ele>653</ele>
        <time>2013-04-07T09:01:10.000Z</time>
      </trkpt>
      <trkpt lat="48.65167" lon="7.29453">
        <ele>655</ele>
        <time>2013-04-07T09:01:13.000Z</time>
      </trkpt>
      <trkpt lat="48.65173" lon="7.29453">
        <ele>655</ele>
        <time>2013-04-07T09:01:16.000Z</time>
      </trkpt>
      <trkpt lat="48.65178" lon="7.29454">
        <ele>655</ele>
        <time>2013-04-07T09:01:18.000Z</time>
      </trkpt>
      <trkpt lat="48.65185" lon="7.29456">
        <ele>655</ele>
        <time>2013-04-07T09:01:22.000Z</time>
      </trkpt>
      <trkpt lat="48.65182" lon="7.29444">
        <ele>655</ele>
        <time>2013-04-07T09:01:24.000Z</time>
      </trkpt>
      <trkpt lat="48.65192" lon="7.29455">
        <ele>656</ele>
        <time>2013-04-07T09:01:27.000Z</time>
      </trkpt>
      <trkpt lat="48.65198" lon="7.29459">
        <ele>656</ele>
        <time>2013-04-07T09:01:31.000Z</time>
      </trkpt>
      <trkpt lat="48.65207" lon="7.2947">
        <ele>656</ele>
        <time>2013-04-07T09:01:35.000Z</time>
      </trkpt>
      <trkpt lat="48.65214" lon="7.2947">
        <ele>656</ele>
        <time>2013-04-07T09:01:39.000Z</time>
      </trkpt>
      <trkpt lat="48.65219" lon="7.29477">
        <ele>657</ele>
        <time>2013-04-07T09:01:43.000Z</time>
      </trkpt>
      <trkpt lat="48.6522" lon="7.29473">
        <ele>657</ele>
        <time>2013-04-07T09:01:45.000Z</time>
      </trkpt>
      <trkpt lat="48.65224" lon="7.29478">
        <ele>657</ele>
        <time>2013-04-07T09:01:49.000Z</time>
      </trkpt>
      <trkpt lat="48.65228" lon="7.29481">
        <ele>657</ele>
        <time>2013-04-07T09:01:51.000Z</time>
      </trkpt>
      <trkpt lat="48.6523" lon="7.29479">
        <ele>657</ele>
        <time>2013-04-07T09:01:53.000Z</time>
      </trkpt>
      <trkpt lat="48.65239" lon="7.29474">
        <ele>658</ele>
        <time>2013-04-07T09:01:59.000Z</time>
      </trkpt>
      <trkpt lat="48.65239" lon="7.29479">
        <ele>658</ele>
        <time>2013-04-07T09:02:01.000Z</time>
      </trkpt>
      <trkpt lat="48.65243" lon="7.29481">
        <ele>658</ele>
        <time>2013-04-07T09:02:05.000Z</time>
      </trkpt>
      <trkpt lat="48.65248" lon="7.29485">
        <ele>658</ele>
        <time>2013-04-07T09:02:09.000Z</time>
      </trkpt>
      <trkpt lat="48.65254" lon="7.29486">
        <ele>659</ele>
        <time>2013-04-07T09:02:13.000Z</time>
      </trkpt>
      <trkpt lat="48.65259" lon="7.29489">
        <ele>659</ele>
        <time>2013-04-07T09:02:17.000Z</time>
      </trkpt>
      <trkpt lat="48.65265" lon="7.29489">
        <ele>659</ele>
        <time>2013-04-07T09:02:19.000Z</time>
      </trkpt>
      <trkpt lat="48.65272" lon="7.29486">
        <ele>659</ele>
        <time>2013-04-07T09:02:23.000Z</time>
      </trkpt>
      <trkpt lat="48.65272" lon="7.2949">
        <ele>659</ele>
        <time>2013-04-07T09:02:25.000Z</time>
      </trkpt>
      <trkpt lat="48.65277" lon="7.29489">
        <ele>659</ele>
        <time>2013-04-07T09:02:29.000Z</time>
      </trkpt>
      <trkpt lat="48.65282" lon="7.2949">
        <ele>659</ele>
        <time>2013-04-07T09:02:31.000Z</time>
      </trkpt>
      <trkpt lat="48.65292" lon="7.29497">
        <ele>659</ele>
        <time>2013-04-07T09:02:36.000Z</time>
      </trkpt>
      <trkpt lat="48.65302" lon="7.29514">
        <ele>662</ele>
        <time>2013-04-07T09:02:39.000Z</time>
      </trkpt>
      <trkpt lat="48.65309" lon="7.29523">
        <ele>662</ele>
        <time>2013-04-07T09:02:42.000Z</time>
      </trkpt>
      <trkpt lat="48.65318" lon="7.29534">
        <ele>662</ele>
        <time>2013-04-07T09:02:45.000Z</time>
      </trkpt>
      <trkpt lat="48.65326" lon="7.29544">
        <ele>663</ele>
        <time>2013-04-07T09:02:48.000Z</time>
      </trkpt>
      <trkpt lat="48.65334" lon="7.29553">
        <ele>662</ele>
        <time>2013-04-07T09:02:51.000Z</time>
      </trkpt>
      <trkpt lat="48.65319" lon="7.29556">
        <ele>663</ele>
        <time>2013-04-07T09:02:54.000Z</time>
      </trkpt>
      <trkpt lat="48.65343" lon="7.29574">
        <ele>664</ele>
        <time>2013-04-07T09:02:58.000Z</time>
      </trkpt>
      <trkpt lat="48.65346" lon="7.2959">
        <ele>666</ele>
        <time>2013-04-07T09:03:01.000Z</time>
      </trkpt>
      <trkpt lat="48.65344" lon="7.29592">
        <ele>666</ele>
        <time>2013-04-07T09:03:05.000Z</time>
      </trkpt>
      <trkpt lat="48.65343" lon="7.29598">
        <ele>666</ele>
        <time>2013-04-07T09:03:07.000Z</time>
      </trkpt>
      <trkpt lat="48.65343" lon="7.29595">
        <ele>666</ele>
        <time>2013-04-07T09:03:09.000Z</time>
      </trkpt>
      <trkpt lat="48.6534" lon="7.29608">
        <ele>666</ele>
        <time>2013-04-07T09:03:13.000Z</time>
      </trkpt>
      <trkpt lat="48.65336" lon="7.29621">
        <ele>666</ele>
        <time>2013-04-07T09:03:17.000Z</time>
      </trkpt>
      <trkpt lat="48.65334" lon="7.2962">
        <ele>666</ele>
        <time>2013-04-07T09:03:21.000Z</time>
      </trkpt>
      <trkpt lat="48.65332" lon="7.29628">
        <ele>664</ele>
        <time>2013-04-07T09:03:25.000Z</time>
      </trkpt>
      <trkpt lat="48.65331" lon="7.29632">
        <ele>665</ele>
        <time>2013-04-07T09:03:27.000Z</time>
      </trkpt>
      <trkpt lat="48.6533" lon="7.29641">
        <ele>665</ele>
        <time>2013-04-07T09:03:31.000Z</time>
      </trkpt>
      <trkpt lat="48.65329" lon="7.29645">
        <ele>665</ele>
        <time>2013-04-07T09:03:33.000Z</time>
      </trkpt>
      <trkpt lat="48.65328" lon="7.29653">
        <ele>666</ele>
        <time>2013-04-07T09:03:37.000Z</time>
      </trkpt>
      <trkpt lat="48.65327" lon="7.29656">
        <ele>666</ele>
        <time>2013-04-07T09:03:39.000Z</time>
      </trkpt>
      <trkpt lat="48.65327" lon="7.29659">
        <ele>666</ele>
        <time>2013-04-07T09:03:41.000Z</time>
      </trkpt>
      <trkpt lat="48.65328" lon="7.29666">
        <ele>667</ele>
        <time>2013-04-07T09:03:45.000Z</time>
      </trkpt>
      <trkpt lat="48.65331" lon="7.2968">
        <ele>665</ele>
        <time>2013-04-07T09:03:49.000Z</time>
      </trkpt>
      <trkpt lat="48.65332" lon="7.29681">
        <ele>665</ele>
        <time>2013-04-07T09:03:51.000Z</time>
      </trkpt>
      <trkpt lat="48.65332" lon="7.29689">
        <ele>664</ele>
        <time>2013-04-07T09:04:02.000Z</time>
      </trkpt>
      <trkpt lat="48.65332" lon="7.29689">
        <ele>664</ele>
        <time>2013-04-07T09:04:22.000Z</time>
      </trkpt>
      <trkpt lat="48.65334" lon="7.2969">
        <ele>667</ele>
        <time>2013-04-07T09:04:42.000Z</time>
      </trkpt>
      <trkpt lat="48.65334" lon="7.2969">
        <ele>667</ele>
        <time>2013-04-07T09:05:02.000Z</time>
      </trkpt>
      <trkpt lat="48.65305" lon="7.29684">
        <ele>663</ele>
        <time>2013-04-07T09:10:41.000Z</time>
      </trkpt>
      <trkpt lat="48.65305" lon="7.29684">
        <ele>663</ele>
        <time>2013-04-07T09:11:01.000Z</time>
      </trkpt>
      <trkpt lat="48.65334" lon="7.29695">
        <ele>667</ele>
        <time>2013-04-07T09:12:07.000Z</time>
      </trkpt>
      <trkpt lat="48.65334" lon="7.29695">
        <ele>667</ele>
        <time>2013-04-07T09:12:27.000Z</time>
      </trkpt>
      <trkpt lat="48.65336" lon="7.29695">
        <ele>667</ele>
        <time>2013-04-07T09:14:32.000Z</time>
      </trkpt>
      <trkpt lat="48.65336" lon="7.29697">
        <ele>667</ele>
        <time>2013-04-07T09:14:40.000Z</time>
      </trkpt>
      <trkpt lat="48.65339" lon="7.29704">
        <ele>667</ele>
        <time>2013-04-07T09:14:43.000Z</time>
      </trkpt>
      <trkpt lat="48.65351" lon="7.29743">
        <ele>667</ele>
        <time>2013-04-07T09:14:48.000Z</time>
      </trkpt>
      <trkpt lat="48.65377" lon="7.29765">
        <ele>664</ele>
        <time>2013-04-07T09:14:52.000Z</time>
      </trkpt>
      <trkpt lat="48.65395" lon="7.29788">
        <ele>663</ele>
        <time>2013-04-07T09:14:55.000Z</time>
      </trkpt>
      <trkpt lat="48.65377" lon="7.29796">
        <ele>662</ele>
        <time>2013-04-07T09:14:58.000Z</time>
      </trkpt>
      <trkpt lat="48.6539" lon="7.29816">
        <ele>662</ele>
        <time>2013-04-07T09:15:03.000Z</time>
      </trkpt>
      <trkpt lat="48.65438" lon="7.2984">
        <ele>656</ele>
        <time>2013-04-07T09:15:09.000Z</time>
      </trkpt>
      <trkpt lat="48.65454" lon="7.29847">
        <ele>655</ele>
        <time>2013-04-07T09:15:11.000Z</time>
      </trkpt>
      <trkpt lat="48.65467" lon="7.29849">
        <ele>654</ele>
        <time>2013-04-07T09:15:14.000Z</time>
      </trkpt>
      <trkpt lat="48.65478" lon="7.29855">
        <ele>654</ele>
        <time>2013-04-07T09:15:17.000Z</time>
      </trkpt>
      <trkpt lat="48.65485" lon="7.29863">
        <ele>653</ele>
        <time>2013-04-07T09:15:19.000Z</time>
      </trkpt>
      <trkpt lat="48.65486" lon="7.2988">
        <ele>653</ele>
        <time>2013-04-07T09:15:22.000Z</time>
      </trkpt>
      <trkpt lat="48.65483" lon="7.29885">
        <ele>653</ele>
        <time>2013-04-07T09:15:25.000Z</time>
      </trkpt>
      <trkpt lat="48.65495" lon="7.29895">
        <ele>653</ele>
        <time>2013-04-07T09:15:28.000Z</time>
      </trkpt>
      <trkpt lat="48.65521" lon="7.29919">
        <ele>648</ele>
        <time>2013-04-07T09:15:32.000Z</time>
      </trkpt>
      <trkpt lat="48.6549" lon="7.29928">
        <ele>649</ele>
        <time>2013-04-07T09:15:35.000Z</time>
      </trkpt>
      <trkpt lat="48.65538" lon="7.29956">
        <ele>645</ele>
        <time>2013-04-07T09:15:39.000Z</time>
      </trkpt>
      <trkpt lat="48.65541" lon="7.2997">
        <ele>645</ele>
        <time>2013-04-07T09:15:42.000Z</time>
      </trkpt>
      <trkpt lat="48.65552" lon="7.29984">
        <ele>645</ele>
        <time>2013-04-07T09:15:45.000Z</time>
      </trkpt>
      <trkpt lat="48.65563" lon="7.30001">
        <ele>642</ele>
        <time>2013-04-07T09:15:48.000Z</time>
      </trkpt>
      <trkpt lat="48.65573" lon="7.30016">
        <ele>642</ele>
        <time>2013-04-07T09:15:50.000Z</time>
      </trkpt>
      <trkpt lat="48.65583" lon="7.30031">
        <ele>640</ele>
        <time>2013-04-07T09:15:52.000Z</time>
      </trkpt>
      <trkpt lat="48.65582" lon="7.30042">
        <ele>641</ele>
        <time>2013-04-07T09:15:54.000Z</time>
      </trkpt>
      <trkpt lat="48.65592" lon="7.30048">
        <ele>639</ele>
        <time>2013-04-07T09:15:56.000Z</time>
      </trkpt>
      <trkpt lat="48.6561" lon="7.30055">
        <ele>639</ele>
        <time>2013-04-07T09:15:59.000Z</time>
      </trkpt>
      <trkpt lat="48.65625" lon="7.30057">
        <ele>638</ele>
        <time>2013-04-07T09:16:02.000Z</time>
      </trkpt>
      <trkpt lat="48.65619" lon="7.30062">
        <ele>638</ele>
        <time>2013-04-07T09:16:04.000Z</time>
      </trkpt>
      <trkpt lat="48.65607" lon="7.30059">
        <ele>639</ele>
        <time>2013-04-07T09:16:06.000Z</time>
      </trkpt>
      <trkpt lat="48.65643" lon="7.30079">
        <ele>637</ele>
        <time>2013-04-07T09:16:10.000Z</time>
      </trkpt>
      <trkpt lat="48.65644" lon="7.30075">
        <ele>637</ele>
        <time>2013-04-07T09:16:13.000Z</time>
      </trkpt>
      <trkpt lat="48.65653" lon="7.30088">
        <ele>636</ele>
        <time>2013-04-07T09:16:18.000Z</time>
      </trkpt>
      <trkpt lat="48.65716" lon="7.30122">
        <ele>631</ele>
        <time>2013-04-07T09:16:25.000Z</time>
      </trkpt>
      <trkpt lat="48.65723" lon="7.30153">
        <ele>630</ele>
        <time>2013-04-07T09:16:27.000Z</time>
      </trkpt>
      <trkpt lat="48.65731" lon="7.30159">
        <ele>630</ele>
        <time>2013-04-07T09:16:29.000Z</time>
      </trkpt>
      <trkpt lat="48.65741" lon="7.30163">
        <ele>630</ele>
        <time>2013-04-07T09:16:32.000Z</time>
      </trkpt>
      <trkpt lat="48.65751" lon="7.30181">
        <ele>625</ele>
        <time>2013-04-07T09:16:35.000Z</time>
      </trkpt>
      <trkpt lat="48.65736" lon="7.30181">
        <ele>628</ele>
        <time>2013-04-07T09:16:38.000Z</time>
      </trkpt>
      <trkpt lat="48.6577" lon="7.302">
        <ele>621</ele>
        <time>2013-04-07T09:16:43.000Z</time>
      </trkpt>
      <trkpt lat="48.65801" lon="7.30211">
        <ele>618</ele>
        <time>2013-04-07T09:16:46.000Z</time>
      </trkpt>
      <trkpt lat="48.658" lon="7.30238">
        <ele>618</ele>
        <time>2013-04-07T09:16:49.000Z</time>
      </trkpt>
      <trkpt lat="48.65799" lon="7.30249">
        <ele>618</ele>
        <time>2013-04-07T09:16:51.000Z</time>
      </trkpt>
      <trkpt lat="48.65806" lon="7.30255">
        <ele>614</ele>
        <time>2013-04-07T09:16:53.000Z</time>
      </trkpt>
      <trkpt lat="48.65824" lon="7.30259">
        <ele>614</ele>
        <time>2013-04-07T09:16:56.000Z</time>
      </trkpt>
      <trkpt lat="48.6584" lon="7.30262">
        <ele>610</ele>
        <time>2013-04-07T09:16:58.000Z</time>
      </trkpt>
      <trkpt lat="48.65853" lon="7.30281">
        <ele>608</ele>
        <time>2013-04-07T09:17:00.000Z</time>
      </trkpt>
      <trkpt lat="48.65862" lon="7.30297">
        <ele>607</ele>
        <time>2013-04-07T09:17:02.000Z</time>
      </trkpt>
      <trkpt lat="48.65873" lon="7.30315">
        <ele>607</ele>
        <time>2013-04-07T09:17:05.000Z</time>
      </trkpt>
      <trkpt lat="48.6586" lon="7.30334">
        <ele>606</ele>
        <time>2013-04-07T09:17:08.000Z</time>
      </trkpt>
      <trkpt lat="48.65857" lon="7.30358">
        <ele>605</ele>
        <time>2013-04-07T09:17:11.000Z</time>
      </trkpt>
      <trkpt lat="48.65944" lon="7.30403">
        <ele>601</ele>
        <time>2013-04-07T09:17:18.000Z</time>
      </trkpt>
      <trkpt lat="48.65956" lon="7.30405">
        <ele>601</ele>
        <time>2013-04-07T09:17:20.000Z</time>
      </trkpt>
      <trkpt lat="48.65968" lon="7.30415">
        <ele>601</ele>
        <time>2013-04-07T09:17:22.000Z</time>
      </trkpt>
      <trkpt lat="48.65984" lon="7.30425">
        <ele>600</ele>
        <time>2013-04-07T09:17:25.000Z</time>
      </trkpt>
      <trkpt lat="48.66003" lon="7.30422">
        <ele>600</ele>
        <time>2013-04-07T09:17:28.000Z</time>
      </trkpt>
      <trkpt lat="48.66003" lon="7.3042">
        <ele>600</ele>
        <time>2013-04-07T09:17:30.000Z</time>
      </trkpt>
      <trkpt lat="48.66001" lon="7.30414">
        <ele>600</ele>
        <time>2013-04-07T09:17:32.000Z</time>
      </trkpt>
      <trkpt lat="48.65998" lon="7.30391">
        <ele>601</ele>
        <time>2013-04-07T09:17:35.000Z</time>
      </trkpt>
      <trkpt lat="48.65998" lon="7.30379">
        <ele>601</ele>
        <time>2013-04-07T09:17:37.000Z</time>
      </trkpt>
      <trkpt lat="48.65998" lon="7.30361">
        <ele>600</ele>
        <time>2013-04-07T09:17:39.000Z</time>
      </trkpt>
      <trkpt lat="48.65999" lon="7.30342">
        <ele>600</ele>
        <time>2013-04-07T09:17:42.000Z</time>
      </trkpt>
      <trkpt lat="48.65997" lon="7.30325">
        <ele>599</ele>
        <time>2013-04-07T09:17:44.000Z</time>
      </trkpt>
      <trkpt lat="48.65997" lon="7.30305">
        <ele>599</ele>
        <time>2013-04-07T09:17:46.000Z</time>
      </trkpt>
      <trkpt lat="48.66001" lon="7.30279">
        <ele>592</ele>
        <time>2013-04-07T09:17:49.000Z</time>
      </trkpt>
      <trkpt lat="48.66001" lon="7.30261">
        <ele>593</ele>
        <time>2013-04-07T09:17:51.000Z</time>
      </trkpt>
      <trkpt lat="48.66" lon="7.30249">
        <ele>594</ele>
        <time>2013-04-07T09:17:53.000Z</time>
      </trkpt>
      <trkpt lat="48.66" lon="7.30229">
        <ele>594</ele>
        <time>2013-04-07T09:17:56.000Z</time>
      </trkpt>
      <trkpt lat="48.65998" lon="7.30216">
        <ele>593</ele>
        <time>2013-04-07T09:17:58.000Z</time>
      </trkpt>
      <trkpt lat="48.66" lon="7.30207">
        <ele>592</ele>
        <time>2013-04-07T09:18:00.000Z</time>
      </trkpt>
      <trkpt lat="48.66005" lon="7.30191">
        <ele>583</ele>
        <time>2013-04-07T09:18:03.000Z</time>
      </trkpt>
      <trkpt lat="48.66016" lon="7.30198">
        <ele>583</ele>
        <time>2013-04-07T09:18:06.000Z</time>
      </trkpt>
      <trkpt lat="48.66024" lon="7.30201">
        <ele>582</ele>
        <time>2013-04-07T09:18:08.000Z</time>
      </trkpt>
      <trkpt lat="48.66015" lon="7.30192">
        <ele>583</ele>
        <time>2013-04-07T09:18:10.000Z</time>
      </trkpt>
      <trkpt lat="48.66036" lon="7.3019">
        <ele>580</ele>
        <time>2013-04-07T09:18:13.000Z</time>
      </trkpt>
      <trkpt lat="48.66042" lon="7.30186">
        <ele>579</ele>
        <time>2013-04-07T09:18:15.000Z</time>
      </trkpt>
      <trkpt lat="48.66048" lon="7.30184">
        <ele>578</ele>
        <time>2013-04-07T09:18:17.000Z</time>
      </trkpt>
      <trkpt lat="48.66055" lon="7.30178">
        <ele>576</ele>
        <time>2013-04-07T09:18:20.000Z</time>
      </trkpt>
      <trkpt lat="48.66062" lon="7.30169">
        <ele>574</ele>
        <time>2013-04-07T09:18:23.000Z</time>
      </trkpt>
      <trkpt lat="48.66063" lon="7.30159">
        <ele>570</ele>
        <time>2013-04-07T09:18:25.000Z</time>
      </trkpt>
      <trkpt lat="48.66061" lon="7.30164">
        <ele>570</ele>
        <time>2013-04-07T09:18:28.000Z</time>
      </trkpt>
      <trkpt lat="48.66071" lon="7.30156">
        <ele>568</ele>
        <time>2013-04-07T09:18:31.000Z</time>
      </trkpt>
      <trkpt lat="48.66061" lon="7.30152">
        <ele>570</ele>
        <time>2013-04-07T09:18:34.000Z</time>
      </trkpt>
      <trkpt lat="48.66068" lon="7.30163">
        <ele>569</ele>
        <time>2013-04-07T09:18:38.000Z</time>
      </trkpt>
      <trkpt lat="48.66079" lon="7.30178">
        <ele>571</ele>
        <time>2013-04-07T09:18:41.000Z</time>
      </trkpt>
      <trkpt lat="48.66141" lon="7.30204">
        <ele>557</ele>
        <time>2013-04-07T09:18:47.000Z</time>
      </trkpt>
      <trkpt lat="48.66145" lon="7.30212">
        <ele>558</ele>
        <time>2013-04-07T09:18:49.000Z</time>
      </trkpt>
      <trkpt lat="48.66145" lon="7.30223">
        <ele>559</ele>
        <time>2013-04-07T09:18:51.000Z</time>
      </trkpt>
      <trkpt lat="48.66154" lon="7.30232">
        <ele>559</ele>
        <time>2013-04-07T09:18:54.000Z</time>
      </trkpt>
      <trkpt lat="48.66145" lon="7.30237">
        <ele>560</ele>
        <time>2013-04-07T09:18:56.000Z</time>
      </trkpt>
      <trkpt lat="48.66168" lon="7.30246">
        <ele>556</ele>
        <time>2013-04-07T09:18:59.000Z</time>
      </trkpt>
      <trkpt lat="48.66177" lon="7.30256">
        <ele>558</ele>
        <time>2013-04-07T09:19:02.000Z</time>
      </trkpt>
      <trkpt lat="48.66187" lon="7.30275">
        <ele>557</ele>
        <time>2013-04-07T09:19:05.000Z</time>
      </trkpt>
      <trkpt lat="48.66195" lon="7.3028">
        <ele>556</ele>
        <time>2013-04-07T09:19:08.000Z</time>
      </trkpt>
      <trkpt lat="48.66185" lon="7.30284">
        <ele>558</ele>
        <time>2013-04-07T09:19:11.000Z</time>
      </trkpt>
      <trkpt lat="48.66244" lon="7.30303">
        <ele>554</ele>
        <time>2013-04-07T09:19:17.000Z</time>
      </trkpt>
      <trkpt lat="48.66259" lon="7.30308">
        <ele>543</ele>
        <time>2013-04-07T09:19:20.000Z</time>
      </trkpt>
      <trkpt lat="48.66253" lon="7.30313">
        <ele>545</ele>
        <time>2013-04-07T09:19:22.000Z</time>
      </trkpt>
      <trkpt lat="48.66286" lon="7.3031">
        <ele>539</ele>
        <time>2013-04-07T09:19:27.000Z</time>
      </trkpt>
      <trkpt lat="48.6631" lon="7.30324">
        <ele>538</ele>
        <time>2013-04-07T09:19:30.000Z</time>
      </trkpt>
      <trkpt lat="48.66304" lon="7.30319">
        <ele>538</ele>
        <time>2013-04-07T09:19:33.000Z</time>
      </trkpt>
      <trkpt lat="48.66312" lon="7.30322">
        <ele>538</ele>
        <time>2013-04-07T09:19:38.000Z</time>
      </trkpt>
      <trkpt lat="48.66393" lon="7.30327">
        <ele>517</ele>
        <time>2013-04-07T09:19:46.000Z</time>
      </trkpt>
      <trkpt lat="48.66401" lon="7.30333">
        <ele>518</ele>
        <time>2013-04-07T09:19:48.000Z</time>
      </trkpt>
      <trkpt lat="48.66422" lon="7.3033">
        <ele>514</ele>
        <time>2013-04-07T09:19:51.000Z</time>
      </trkpt>
      <trkpt lat="48.66437" lon="7.30337">
        <ele>521</ele>
        <time>2013-04-07T09:19:54.000Z</time>
      </trkpt>
      <trkpt lat="48.66444" lon="7.30337">
        <ele>521</ele>
        <time>2013-04-07T09:19:57.000Z</time>
      </trkpt>
      <trkpt lat="48.66451" lon="7.30332">
        <ele>502</ele>
        <time>2013-04-07T09:19:59.000Z</time>
      </trkpt>
      <trkpt lat="48.66448" lon="7.30336">
        <ele>520</ele>
        <time>2013-04-07T09:20:02.000Z</time>
      </trkpt>
      <trkpt lat="48.66506" lon="7.30348">
        <ele>505</ele>
        <time>2013-04-07T09:20:09.000Z</time>
      </trkpt>
      <trkpt lat="48.66532" lon="7.3035">
        <ele>504</ele>
        <time>2013-04-07T09:20:12.000Z</time>
      </trkpt>
      <trkpt lat="48.66546" lon="7.30351">
        <ele>502</ele>
        <time>2013-04-07T09:20:15.000Z</time>
      </trkpt>
      <trkpt lat="48.66564" lon="7.30352">
        <ele>499</ele>
        <time>2013-04-07T09:20:18.000Z</time>
      </trkpt>
      <trkpt lat="48.66577" lon="7.30355">
        <ele>498</ele>
        <time>2013-04-07T09:20:20.000Z</time>
      </trkpt>
      <trkpt lat="48.66597" lon="7.30354">
        <ele>488</ele>
        <time>2013-04-07T09:20:23.000Z</time>
      </trkpt>
      <trkpt lat="48.6661" lon="7.30355">
        <ele>487</ele>
        <time>2013-04-07T09:20:25.000Z</time>
      </trkpt>
      <trkpt lat="48.66632" lon="7.30355">
        <ele>485</ele>
        <time>2013-04-07T09:20:28.000Z</time>
      </trkpt>
      <trkpt lat="48.66644" lon="7.30358">
        <ele>483</ele>
        <time>2013-04-07T09:20:30.000Z</time>
      </trkpt>
      <trkpt lat="48.66679" lon="7.30367">
        <ele>472</ele>
        <time>2013-04-07T09:20:34.000Z</time>
      </trkpt>
      <trkpt lat="48.66702" lon="7.30365">
        <ele>470</ele>
        <time>2013-04-07T09:20:37.000Z</time>
      </trkpt>
      <trkpt lat="48.66712" lon="7.30362">
        <ele>468</ele>
        <time>2013-04-07T09:20:39.000Z</time>
      </trkpt>
      <trkpt lat="48.66732" lon="7.30364">
        <ele>466</ele>
        <time>2013-04-07T09:20:42.000Z</time>
      </trkpt>
      <trkpt lat="48.66758" lon="7.30372">
        <ele>452</ele>
        <time>2013-04-07T09:20:45.000Z</time>
      </trkpt>
      <trkpt lat="48.66777" lon="7.30365">
        <ele>449</ele>
        <time>2013-04-07T09:20:48.000Z</time>
      </trkpt>
      <trkpt lat="48.66787" lon="7.30386">
        <ele>450</ele>
        <time>2013-04-07T09:20:50.000Z</time>
      </trkpt>
      <trkpt lat="48.66792" lon="7.30404">
        <ele>451</ele>
        <time>2013-04-07T09:20:53.000Z</time>
      </trkpt>
      <trkpt lat="48.66789" lon="7.30418">
        <ele>466</ele>
        <time>2013-04-07T09:20:55.000Z</time>
      </trkpt>
      <trkpt lat="48.66812" lon="7.30447">
        <ele>464</ele>
        <time>2013-04-07T09:20:59.000Z</time>
      </trkpt>
      <trkpt lat="48.66793" lon="7.30442">
        <ele>467</ele>
        <time>2013-04-07T09:21:01.000Z</time>
      </trkpt>
      <trkpt lat="48.66838" lon="7.30469">
        <ele>444</ele>
        <time>2013-04-07T09:21:05.000Z</time>
      </trkpt>
      <trkpt lat="48.66852" lon="7.30488">
        <ele>446</ele>
        <time>2013-04-07T09:21:08.000Z</time>
      </trkpt>
      <trkpt lat="48.66864" lon="7.30507">
        <ele>453</ele>
        <time>2013-04-07T09:21:10.000Z</time>
      </trkpt>
      <trkpt lat="48.66882" lon="7.30517">
        <ele>449</ele>
        <time>2013-04-07T09:21:13.000Z</time>
      </trkpt>
      <trkpt lat="48.66896" lon="7.30528">
        <ele>447</ele>
        <time>2013-04-07T09:21:16.000Z</time>
      </trkpt>
      <trkpt lat="48.66923" lon="7.30561">
        <ele>430</ele>
        <time>2013-04-07T09:21:20.000Z</time>
      </trkpt>
      <trkpt lat="48.66941" lon="7.30566">
        <ele>427</ele>
        <time>2013-04-07T09:21:23.000Z</time>
      </trkpt>
      <trkpt lat="48.66922" lon="7.30571">
        <ele>434</ele>
        <time>2013-04-07T09:21:25.000Z</time>
      </trkpt>
      <trkpt lat="48.6693" lon="7.30586">
        <ele>440</ele>
        <time>2013-04-07T09:21:28.000Z</time>
      </trkpt>
      <trkpt lat="48.67001" lon="7.30632">
        <ele>407</ele>
        <time>2013-04-07T09:21:35.000Z</time>
      </trkpt>
      <trkpt lat="48.67013" lon="7.30646">
        <ele>409</ele>
        <time>2013-04-07T09:21:38.000Z</time>
      </trkpt>
      <trkpt lat="48.67019" lon="7.30652">
        <ele>409</ele>
        <time>2013-04-07T09:21:40.000Z</time>
      </trkpt>
      <trkpt lat="48.67029" lon="7.30663">
        <ele>406</ele>
        <time>2013-04-07T09:21:43.000Z</time>
      </trkpt>
      <trkpt lat="48.67037" lon="7.30672">
        <ele>410</ele>
        <time>2013-04-07T09:21:45.000Z</time>
      </trkpt>
      <trkpt lat="48.67046" lon="7.3069">
        <ele>408</ele>
        <time>2013-04-07T09:21:47.000Z</time>
      </trkpt>
      <trkpt lat="48.67054" lon="7.30694">
        <ele>406</ele>
        <time>2013-04-07T09:21:49.000Z</time>
      </trkpt>
      <trkpt lat="48.67064" lon="7.30715">
        <ele>406</ele>
        <time>2013-04-07T09:21:52.000Z</time>
      </trkpt>
      <trkpt lat="48.67076" lon="7.30726">
        <ele>404</ele>
        <time>2013-04-07T09:21:55.000Z</time>
      </trkpt>
      <trkpt lat="48.67084" lon="7.30743">
        <ele>392</ele>
        <time>2013-04-07T09:21:58.000Z</time>
      </trkpt>
      <trkpt lat="48.67097" lon="7.3077">
        <ele>388</ele>
        <time>2013-04-07T09:22:01.000Z</time>
      </trkpt>
      <trkpt lat="48.67103" lon="7.30782">
        <ele>387</ele>
        <time>2013-04-07T09:22:03.000Z</time>
      </trkpt>
      <trkpt lat="48.67118" lon="7.30794">
        <ele>385</ele>
        <time>2013-04-07T09:22:06.000Z</time>
      </trkpt>
      <trkpt lat="48.67131" lon="7.30826">
        <ele>382</ele>
        <time>2013-04-07T09:22:09.000Z</time>
      </trkpt>
      <trkpt lat="48.67124" lon="7.30851">
        <ele>388</ele>
        <time>2013-04-07T09:22:13.000Z</time>
      </trkpt>
      <trkpt lat="48.67189" lon="7.30917">
        <ele>366</ele>
        <time>2013-04-07T09:22:21.000Z</time>
      </trkpt>
      <trkpt lat="48.67194" lon="7.30935">
        <ele>366</ele>
        <time>2013-04-07T09:22:23.000Z</time>
      </trkpt>
      <trkpt lat="48.6721" lon="7.30951">
        <ele>365</ele>
        <time>2013-04-07T09:22:26.000Z</time>
      </trkpt>
      <trkpt lat="48.67217" lon="7.30968">
        <ele>364</ele>
        <time>2013-04-07T09:22:29.000Z</time>
      </trkpt>
      <trkpt lat="48.67218" lon="7.30989">
        <ele>363</ele>
        <time>2013-04-07T09:22:31.000Z</time>
      </trkpt>
      <trkpt lat="48.6721" lon="7.30985">
        <ele>364</ele>
        <time>2013-04-07T09:22:33.000Z</time>
      </trkpt>
      <trkpt lat="48.67223" lon="7.30988">
        <ele>363</ele>
        <time>2013-04-07T09:22:36.000Z</time>
      </trkpt>
      <trkpt lat="48.67233" lon="7.30977">
        <ele>362</ele>
        <time>2013-04-07T09:22:39.000Z</time>
      </trkpt>
      <trkpt lat="48.67238" lon="7.30979">
        <ele>361</ele>
        <time>2013-04-07T09:22:41.000Z</time>
      </trkpt>
      <trkpt lat="48.67237" lon="7.30984">
        <ele>361</ele>
        <time>2013-04-07T09:22:45.000Z</time>
      </trkpt>
      <trkpt lat="48.67237" lon="7.30976">
        <ele>362</ele>
        <time>2013-04-07T09:22:55.000Z</time>
      </trkpt>
      <trkpt lat="48.67237" lon="7.30976">
        <ele>362</ele>
        <time>2013-04-07T09:23:15.000Z</time>
      </trkpt>
      <trkpt lat="48.67235" lon="7.30986">
        <ele>361</ele>
        <time>2013-04-07T09:23:42.000Z</time>
      </trkpt>
      <trkpt lat="48.67238" lon="7.30984">
        <ele>361</ele>
        <time>2013-04-07T09:23:52.000Z</time>
      </trkpt>
      <trkpt lat="48.67242" lon="7.30987">
        <ele>360</ele>
        <time>2013-04-07T09:24:00.000Z</time>
      </trkpt>
      <trkpt lat="48.67242" lon="7.30987">
        <ele>360</ele>
        <time>2013-04-07T09:24:20.000Z</time>
      </trkpt>
      <trkpt lat="48.67243" lon="7.30983">
        <ele>360</ele>
        <time>2013-04-07T09:24:35.000Z</time>
      </trkpt>
      <trkpt lat="48.67243" lon="7.30983">
        <ele>360</ele>
        <time>2013-04-07T09:24:55.000Z</time>
      </trkpt>
      <trkpt lat="48.6724" lon="7.3098">
        <ele>361</ele>
        <time>2013-04-07T09:26:14.000Z</time>
      </trkpt>
      <trkpt lat="48.6724" lon="7.3098">
        <ele>361</ele>
        <time>2013-04-07T09:26:34.000Z</time>
      </trkpt>
      <trkpt lat="48.67242" lon="7.30973">
        <ele>362</ele>
        <time>2013-04-07T09:27:01.000Z</time>
      </trkpt>
      <trkpt lat="48.67241" lon="7.30971">
        <ele>362</ele>
        <time>2013-04-07T09:27:06.000Z</time>
      </trkpt>
      <trkpt lat="48.67234" lon="7.30961">
        <ele>363</ele>
        <time>2013-04-07T09:27:09.000Z</time>
      </trkpt>
      <trkpt lat="48.67237" lon="7.30959">
        <ele>363</ele>
        <time>2013-04-07T09:27:11.000Z</time>
      </trkpt>
      <trkpt lat="48.67235" lon="7.30951">
        <ele>364</ele>
        <time>2013-04-07T09:27:15.000Z</time>
      </trkpt>
      <trkpt lat="48.67234" lon="7.30941">
        <ele>364</ele>
        <time>2013-04-07T09:27:18.000Z</time>
      </trkpt>
      <trkpt lat="48.67232" lon="7.30933">
        <ele>365</ele>
        <time>2013-04-07T09:27:22.000Z</time>
      </trkpt>
      <trkpt lat="48.67229" lon="7.30925">
        <ele>365</ele>
        <time>2013-04-07T09:27:26.000Z</time>
      </trkpt>
      <trkpt lat="48.67226" lon="7.30927">
        <ele>365</ele>
        <time>2013-04-07T09:27:28.000Z</time>
      </trkpt>
      <trkpt lat="48.67229" lon="7.30914">
        <ele>368</ele>
        <time>2013-04-07T09:27:32.000Z</time>
      </trkpt>
      <trkpt lat="48.67223" lon="7.3091">
        <ele>368</ele>
        <time>2013-04-07T09:27:36.000Z</time>
      </trkpt>
      <trkpt lat="48.67219" lon="7.30908">
        <ele>368</ele>
        <time>2013-04-07T09:27:39.000Z</time>
      </trkpt>
      <trkpt lat="48.67219" lon="7.30899">
        <ele>369</ele>
        <time>2013-04-07T09:27:48.000Z</time>
      </trkpt>
      <trkpt lat="48.67218" lon="7.30897">
        <ele>369</ele>
        <time>2013-04-07T09:27:52.000Z</time>
      </trkpt>
      <trkpt lat="48.67218" lon="7.30895">
        <ele>369</ele>
        <time>2013-04-07T09:27:54.000Z</time>
      </trkpt>
      <trkpt lat="48.67215" lon="7.30886">
        <ele>369</ele>
        <time>2013-04-07T09:27:59.000Z</time>
      </trkpt>
      <trkpt lat="48.67215" lon="7.30878">
        <ele>370</ele>
        <time>2013-04-07T09:28:03.000Z</time>
      </trkpt>
      <trkpt lat="48.67214" lon="7.30869">
        <ele>370</ele>
        <time>2013-04-07T09:28:07.000Z</time>
      </trkpt>
      <trkpt lat="48.67211" lon="7.30867">
        <ele>370</ele>
        <time>2013-04-07T09:28:09.000Z</time>
      </trkpt>
      <trkpt lat="48.67208" lon="7.30862">
        <ele>370</ele>
        <time>2013-04-07T09:28:12.000Z</time>
      </trkpt>
      <trkpt lat="48.67206" lon="7.30853">
        <ele>370</ele>
        <time>2013-04-07T09:28:16.000Z</time>
      </trkpt>
      <trkpt lat="48.67205" lon="7.30846">
        <ele>370</ele>
        <time>2013-04-07T09:28:19.000Z</time>
      </trkpt>
      <trkpt lat="48.67203" lon="7.30841">
        <ele>370</ele>
        <time>2013-04-07T09:28:21.000Z</time>
      </trkpt>
      <trkpt lat="48.67192" lon="7.30835">
        <ele>369</ele>
        <time>2013-04-07T09:28:24.000Z</time>
      </trkpt>
      <trkpt lat="48.67197" lon="7.30821">
        <ele>373</ele>
        <time>2013-04-07T09:28:28.000Z</time>
      </trkpt>
      <trkpt lat="48.67193" lon="7.30815">
        <ele>373</ele>
        <time>2013-04-07T09:28:31.000Z</time>
      </trkpt>
      <trkpt lat="48.67192" lon="7.30807">
        <ele>373</ele>
        <time>2013-04-07T09:28:34.000Z</time>
      </trkpt>
      <trkpt lat="48.67191" lon="7.30798">
        <ele>373</ele>
        <time>2013-04-07T09:28:36.000Z</time>
      </trkpt>
      <trkpt lat="48.67189" lon="7.30789">
        <ele>373</ele>
        <time>2013-04-07T09:28:40.000Z</time>
      </trkpt>
      <trkpt lat="48.67196" lon="7.30784">
        <ele>374</ele>
        <time>2013-04-07T09:28:42.000Z</time>
      </trkpt>
      <trkpt lat="48.67188" lon="7.30765">
        <ele>372</ele>
        <time>2013-04-07T09:28:45.000Z</time>
      </trkpt>
      <trkpt lat="48.67185" lon="7.30764">
        <ele>372</ele>
        <time>2013-04-07T09:28:47.000Z</time>
      </trkpt>
      <trkpt lat="48.67184" lon="7.30756">
        <ele>371</ele>
        <time>2013-04-07T09:28:49.000Z</time>
      </trkpt>
      <trkpt lat="48.67181" lon="7.30747">
        <ele>373</ele>
        <time>2013-04-07T09:28:53.000Z</time>
      </trkpt>
      <trkpt lat="48.67178" lon="7.30737">
        <ele>373</ele>
        <time>2013-04-07T09:28:56.000Z</time>
      </trkpt>
      <trkpt lat="48.67179" lon="7.30725">
        <ele>376</ele>
        <time>2013-04-07T09:28:58.000Z</time>
      </trkpt>
      <trkpt lat="48.67178" lon="7.30717">
        <ele>376</ele>
        <time>2013-04-07T09:29:01.000Z</time>
      </trkpt>
      <trkpt lat="48.67176" lon="7.30705">
        <ele>377</ele>
        <time>2013-04-07T09:29:05.000Z</time>
      </trkpt>
      <trkpt lat="48.67173" lon="7.30706">
        <ele>377</ele>
        <time>2013-04-07T09:29:07.000Z</time>
      </trkpt>
      <trkpt lat="48.67173" lon="7.30684">
        <ele>375</ele>
        <time>2013-04-07T09:29:10.000Z</time>
      </trkpt>
      <trkpt lat="48.67172" lon="7.30682">
        <ele>374</ele>
        <time>2013-04-07T09:29:12.000Z</time>
      </trkpt>
      <trkpt lat="48.67171" lon="7.30674">
        <ele>372</ele>
        <time>2013-04-07T09:29:16.000Z</time>
      </trkpt>
      <trkpt lat="48.67168" lon="7.30662">
        <ele>372</ele>
        <time>2013-04-07T09:29:19.000Z</time>
      </trkpt>
      <trkpt lat="48.67176" lon="7.30665">
        <ele>375</ele>
        <time>2013-04-07T09:29:21.000Z</time>
      </trkpt>
      <trkpt lat="48.67167" lon="7.30661">
        <ele>370</ele>
        <time>2013-04-07T09:29:25.000Z</time>
      </trkpt>
      <trkpt lat="48.67162" lon="7.30651">
        <ele>372</ele>
        <time>2013-04-07T09:29:27.000Z</time>
      </trkpt>
      <trkpt lat="48.67161" lon="7.30644">
        <ele>373</ele>
        <time>2013-04-07T09:29:30.000Z</time>
      </trkpt>
      <trkpt lat="48.67158" lon="7.30637">
        <ele>374</ele>
        <time>2013-04-07T09:29:32.000Z</time>
      </trkpt>
      <trkpt lat="48.67151" lon="7.30633">
        <ele>375</ele>
        <time>2013-04-07T09:29:35.000Z</time>
      </trkpt>
      <trkpt lat="48.6715" lon="7.30612">
        <ele>376</ele>
        <time>2013-04-07T09:29:38.000Z</time>
      </trkpt>
      <trkpt lat="48.67146" lon="7.30608">
        <ele>376</ele>
        <time>2013-04-07T09:29:41.000Z</time>
      </trkpt>
      <trkpt lat="48.67144" lon="7.30599">
        <ele>376</ele>
        <time>2013-04-07T09:29:44.000Z</time>
      </trkpt>
      <trkpt lat="48.67147" lon="7.30594">
        <ele>376</ele>
        <time>2013-04-07T09:29:47.000Z</time>
      </trkpt>
      <trkpt lat="48.67134" lon="7.30583">
        <ele>377</ele>
        <time>2013-04-07T09:29:50.000Z</time>
      </trkpt>
      <trkpt lat="48.67131" lon="7.30581">
        <ele>377</ele>
        <time>2013-04-07T09:29:52.000Z</time>
      </trkpt>
      <trkpt lat="48.67135" lon="7.30573">
        <ele>377</ele>
        <time>2013-04-07T09:29:54.000Z</time>
      </trkpt>
      <trkpt lat="48.67126" lon="7.30567">
        <ele>377</ele>
        <time>2013-04-07T09:29:56.000Z</time>
      </trkpt>
      <trkpt lat="48.67142" lon="7.30567">
        <ele>377</ele>
        <time>2013-04-07T09:29:59.000Z</time>
      </trkpt>
      <trkpt lat="48.6712" lon="7.30556">
        <ele>377</ele>
        <time>2013-04-07T09:30:02.000Z</time>
      </trkpt>
      <trkpt lat="48.67116" lon="7.30541">
        <ele>377</ele>
        <time>2013-04-07T09:30:05.000Z</time>
      </trkpt>
      <trkpt lat="48.67114" lon="7.30533">
        <ele>377</ele>
        <time>2013-04-07T09:30:08.000Z</time>
      </trkpt>
      <trkpt lat="48.6711" lon="7.30532">
        <ele>376</ele>
        <time>2013-04-07T09:30:11.000Z</time>
      </trkpt>
      <trkpt lat="48.67109" lon="7.30521">
        <ele>376</ele>
        <time>2013-04-07T09:30:13.000Z</time>
      </trkpt>
      <trkpt lat="48.67105" lon="7.30517">
        <ele>376</ele>
        <time>2013-04-07T09:30:16.000Z</time>
      </trkpt>
      <trkpt lat="48.67118" lon="7.30516">
        <ele>377</ele>
        <time>2013-04-07T09:30:19.000Z</time>
      </trkpt>
      <trkpt lat="48.67105" lon="7.30503">
        <ele>375</ele>
        <time>2013-04-07T09:30:22.000Z</time>
      </trkpt>
      <trkpt lat="48.67094" lon="7.30497">
        <ele>376</ele>
        <time>2013-04-07T09:30:24.000Z</time>
      </trkpt>
      <trkpt lat="48.67089" lon="7.30491">
        <ele>376</ele>
        <time>2013-04-07T09:30:27.000Z</time>
      </trkpt>
      <trkpt lat="48.67086" lon="7.30484">
        <ele>377</ele>
        <time>2013-04-07T09:30:29.000Z</time>
      </trkpt>
      <trkpt lat="48.6708" lon="7.3048">
        <ele>377</ele>
        <time>2013-04-07T09:30:32.000Z</time>
      </trkpt>
      <trkpt lat="48.67078" lon="7.30477">
        <ele>378</ele>
        <time>2013-04-07T09:30:34.000Z</time>
      </trkpt>
      <trkpt lat="48.67072" lon="7.30476">
        <ele>379</ele>
        <time>2013-04-07T09:30:37.000Z</time>
      </trkpt>
      <trkpt lat="48.67068" lon="7.30464">
        <ele>380</ele>
        <time>2013-04-07T09:30:40.000Z</time>
      </trkpt>
      <trkpt lat="48.67067" lon="7.30461">
        <ele>380</ele>
        <time>2013-04-07T09:30:43.000Z</time>
      </trkpt>
      <trkpt lat="48.67067" lon="7.30451">
        <ele>380</ele>
        <time>2013-04-07T09:30:46.000Z</time>
      </trkpt>
      <trkpt lat="48.67055" lon="7.30439">
        <ele>381</ele>
        <time>2013-04-07T09:30:49.000Z</time>
      </trkpt>
      <trkpt lat="48.67051" lon="7.30434">
        <ele>381</ele>
        <time>2013-04-07T09:30:53.000Z</time>
      </trkpt>
      <trkpt lat="48.67043" lon="7.30425">
        <ele>381</ele>
        <time>2013-04-07T09:30:56.000Z</time>
      </trkpt>
      <trkpt lat="48.6704" lon="7.30413">
        <ele>383</ele>
        <time>2013-04-07T09:30:59.000Z</time>
      </trkpt>
      <trkpt lat="48.67036" lon="7.30407">
        <ele>383</ele>
        <time>2013-04-07T09:31:02.000Z</time>
      </trkpt>
      <trkpt lat="48.67035" lon="7.30396">
        <ele>383</ele>
        <time>2013-04-07T09:31:04.000Z</time>
      </trkpt>
      <trkpt lat="48.6703" lon="7.30396">
        <ele>383</ele>
        <time>2013-04-07T09:31:07.000Z</time>
      </trkpt>
      <trkpt lat="48.67025" lon="7.30389">
        <ele>383</ele>
        <time>2013-04-07T09:31:10.000Z</time>
      </trkpt>
      <trkpt lat="48.67019" lon="7.30376">
        <ele>383</ele>
        <time>2013-04-07T09:31:14.000Z</time>
      </trkpt>
      <trkpt lat="48.67017" lon="7.30371">
        <ele>383</ele>
        <time>2013-04-07T09:31:16.000Z</time>
      </trkpt>
      <trkpt lat="48.67013" lon="7.30366">
        <ele>383</ele>
        <time>2013-04-07T09:31:19.000Z</time>
      </trkpt>
      <trkpt lat="48.67007" lon="7.30364">
        <ele>383</ele>
        <time>2013-04-07T09:31:21.000Z</time>
      </trkpt>
      <trkpt lat="48.67004" lon="7.30362">
        <ele>383</ele>
        <time>2013-04-07T09:31:23.000Z</time>
      </trkpt>
      <trkpt lat="48.66999" lon="7.30353">
        <ele>386</ele>
        <time>2013-04-07T09:31:26.000Z</time>
      </trkpt>
      <trkpt lat="48.66996" lon="7.3035">
        <ele>385</ele>
        <time>2013-04-07T09:31:28.000Z</time>
      </trkpt>
      <trkpt lat="48.66993" lon="7.30345">
        <ele>385</ele>
        <time>2013-04-07T09:31:30.000Z</time>
      </trkpt>
      <trkpt lat="48.66989" lon="7.30331">
        <ele>383</ele>
        <time>2013-04-07T09:31:33.000Z</time>
      </trkpt>
      <trkpt lat="48.66984" lon="7.30332">
        <ele>384</ele>
        <time>2013-04-07T09:31:36.000Z</time>
      </trkpt>
      <trkpt lat="48.66977" lon="7.30327">
        <ele>386</ele>
        <time>2013-04-07T09:31:39.000Z</time>
      </trkpt>
      <trkpt lat="48.6697" lon="7.3032">
        <ele>387</ele>
        <time>2013-04-07T09:31:41.000Z</time>
      </trkpt>
      <trkpt lat="48.66969" lon="7.30312">
        <ele>387</ele>
        <time>2013-04-07T09:31:44.000Z</time>
      </trkpt>
      <trkpt lat="48.66965" lon="7.30299">
        <ele>388</ele>
        <time>2013-04-07T09:31:47.000Z</time>
      </trkpt>
      <trkpt lat="48.66959" lon="7.30302">
        <ele>388</ele>
        <time>2013-04-07T09:31:49.000Z</time>
      </trkpt>
      <trkpt lat="48.66955" lon="7.30295">
        <ele>388</ele>
        <time>2013-04-07T09:31:52.000Z</time>
      </trkpt>
      <trkpt lat="48.66953" lon="7.3029">
        <ele>388</ele>
        <time>2013-04-07T09:31:54.000Z</time>
      </trkpt>
      <trkpt lat="48.6695" lon="7.30286">
        <ele>388</ele>
        <time>2013-04-07T09:31:56.000Z</time>
      </trkpt>
      <trkpt lat="48.66949" lon="7.30272">
        <ele>388</ele>
        <time>2013-04-07T09:31:59.000Z</time>
      </trkpt>
      <trkpt lat="48.66949" lon="7.30268">
        <ele>388</ele>
        <time>2013-04-07T09:32:01.000Z</time>
      </trkpt>
      <trkpt lat="48.66946" lon="7.30256">
        <ele>387</ele>
        <time>2013-04-07T09:32:04.000Z</time>
      </trkpt>
      <trkpt lat="48.66942" lon="7.30254">
        <ele>387</ele>
        <time>2013-04-07T09:32:06.000Z</time>
      </trkpt>
      <trkpt lat="48.66937" lon="7.30242">
        <ele>388</ele>
        <time>2013-04-07T09:32:10.000Z</time>
      </trkpt>
      <trkpt lat="48.66931" lon="7.3024">
        <ele>387</ele>
        <time>2013-04-07T09:32:14.000Z</time>
      </trkpt>
      <trkpt lat="48.66928" lon="7.30237">
        <ele>387</ele>
        <time>2013-04-07T09:32:16.000Z</time>
      </trkpt>
      <trkpt lat="48.66928" lon="7.30232">
        <ele>387</ele>
        <time>2013-04-07T09:32:18.000Z</time>
      </trkpt>
      <trkpt lat="48.66927" lon="7.30216">
        <ele>388</ele>
        <time>2013-04-07T09:32:22.000Z</time>
      </trkpt>
      <trkpt lat="48.66925" lon="7.30211">
        <ele>388</ele>
        <time>2013-04-07T09:32:25.000Z</time>
      </trkpt>
      <trkpt lat="48.66924" lon="7.30206">
        <ele>388</ele>
        <time>2013-04-07T09:32:27.000Z</time>
      </trkpt>
      <trkpt lat="48.66923" lon="7.302">
        <ele>388</ele>
        <time>2013-04-07T09:32:29.000Z</time>
      </trkpt>
      <trkpt lat="48.66923" lon="7.30185">
        <ele>387</ele>
        <time>2013-04-07T09:32:32.000Z</time>
      </trkpt>
      <trkpt lat="48.6692" lon="7.30174">
        <ele>385</ele>
        <time>2013-04-07T09:32:35.000Z</time>
      </trkpt>
      <trkpt lat="48.6692" lon="7.30171">
        <ele>384</ele>
        <time>2013-04-07T09:32:37.000Z</time>
      </trkpt>
      <trkpt lat="48.66918" lon="7.30162">
        <ele>385</ele>
        <time>2013-04-07T09:32:40.000Z</time>
      </trkpt>
      <trkpt lat="48.66927" lon="7.30164">
        <ele>388</ele>
        <time>2013-04-07T09:32:42.000Z</time>
      </trkpt>
      <trkpt lat="48.66917" lon="7.30156">
        <ele>387</ele>
        <time>2013-04-07T09:32:46.000Z</time>
      </trkpt>
      <trkpt lat="48.66911" lon="7.30154">
        <ele>386</ele>
        <time>2013-04-07T09:32:53.000Z</time>
      </trkpt>
      <trkpt lat="48.6691" lon="7.30149">
        <ele>387</ele>
        <time>2013-04-07T09:33:03.000Z</time>
      </trkpt>
      <trkpt lat="48.66908" lon="7.30153">
        <ele>386</ele>
        <time>2013-04-07T09:33:07.000Z</time>
      </trkpt>
      <trkpt lat="48.66906" lon="7.30152">
        <ele>387</ele>
        <time>2013-04-07T09:33:12.000Z</time>
      </trkpt>
      <trkpt lat="48.66906" lon="7.30152">
        <ele>387</ele>
        <time>2013-04-07T09:33:32.000Z</time>
      </trkpt>
      <trkpt lat="48.66908" lon="7.30147">
        <ele>388</ele>
        <time>2013-04-07T09:33:55.000Z</time>
      </trkpt>
      <trkpt lat="48.66908" lon="7.30147">
        <ele>388</ele>
        <time>2013-04-07T09:34:15.000Z</time>
      </trkpt>
      <trkpt lat="48.66909" lon="7.30143">
        <ele>388</ele>
        <time>2013-04-07T09:34:25.000Z</time>
      </trkpt>
      <trkpt lat="48.66908" lon="7.30146">
        <ele>388</ele>
        <time>2013-04-07T09:34:31.000Z</time>
      </trkpt>
      <trkpt lat="48.66911" lon="7.30137">
        <ele>389</ele>
        <time>2013-04-07T09:34:35.000Z</time>
      </trkpt>
      <trkpt lat="48.66912" lon="7.30138">
        <ele>389</ele>
        <time>2013-04-07T09:34:37.000Z</time>
      </trkpt>
      <trkpt lat="48.66915" lon="7.3012">
        <ele>390</ele>
        <time>2013-04-07T09:34:41.000Z</time>
      </trkpt>
      <trkpt lat="48.66916" lon="7.30118">
        <ele>390</ele>
        <time>2013-04-07T09:34:43.000Z</time>
      </trkpt>
      <trkpt lat="48.66916" lon="7.30115">
        <ele>391</ele>
        <time>2013-04-07T09:34:45.000Z</time>
      </trkpt>
      <trkpt lat="48.66917" lon="7.30105">
        <ele>395</ele>
        <time>2013-04-07T09:34:49.000Z</time>
      </trkpt>
      <trkpt lat="48.66919" lon="7.30089">
        <ele>393</ele>
        <time>2013-04-07T09:34:53.000Z</time>
      </trkpt>
      <trkpt lat="48.6692" lon="7.30088">
        <ele>393</ele>
        <time>2013-04-07T09:34:55.000Z</time>
      </trkpt>
      <trkpt lat="48.66922" lon="7.3008">
        <ele>395</ele>
        <time>2013-04-07T09:34:59.000Z</time>
      </trkpt>
      <trkpt lat="48.66916" lon="7.30076">
        <ele>396</ele>
        <time>2013-04-07T09:35:03.000Z</time>
      </trkpt>
      <trkpt lat="48.66926" lon="7.30066">
        <ele>401</ele>
        <time>2013-04-07T09:35:07.000Z</time>
      </trkpt>
      <trkpt lat="48.66927" lon="7.30062">
        <ele>402</ele>
        <time>2013-04-07T09:35:09.000Z</time>
      </trkpt>
      <trkpt lat="48.66931" lon="7.30048">
        <ele>405</ele>
        <time>2013-04-07T09:35:13.000Z</time>
      </trkpt>
      <trkpt lat="48.6693" lon="7.30051">
        <ele>405</ele>
        <time>2013-04-07T09:35:16.000Z</time>
      </trkpt>
      <trkpt lat="48.66932" lon="7.30037">
        <ele>406</ele>
        <time>2013-04-07T09:35:20.000Z</time>
      </trkpt>
      <trkpt lat="48.66933" lon="7.30036">
        <ele>407</ele>
        <time>2013-04-07T09:35:24.000Z</time>
      </trkpt>
      <trkpt lat="48.66932" lon="7.3003">
        <ele>407</ele>
        <time>2013-04-07T09:35:26.000Z</time>
      </trkpt>
      <trkpt lat="48.66933" lon="7.30016">
        <ele>407</ele>
        <time>2013-04-07T09:35:30.000Z</time>
      </trkpt>
      <trkpt lat="48.66934" lon="7.30013">
        <ele>407</ele>
        <time>2013-04-07T09:35:32.000Z</time>
      </trkpt>
      <trkpt lat="48.66935" lon="7.30006">
        <ele>407</ele>
        <time>2013-04-07T09:35:36.000Z</time>
      </trkpt>
      <trkpt lat="48.66935" lon="7.30002">
        <ele>407</ele>
        <time>2013-04-07T09:35:40.000Z</time>
      </trkpt>
      <trkpt lat="48.66935" lon="7.29988">
        <ele>411</ele>
        <time>2013-04-07T09:35:44.000Z</time>
      </trkpt>
      <trkpt lat="48.6694" lon="7.2998">
        <ele>413</ele>
        <time>2013-04-07T09:35:48.000Z</time>
      </trkpt>
      <trkpt lat="48.66943" lon="7.29975">
        <ele>414</ele>
        <time>2013-04-07T09:35:52.000Z</time>
      </trkpt>
      <trkpt lat="48.66942" lon="7.29972">
        <ele>414</ele>
        <time>2013-04-07T09:35:54.000Z</time>
      </trkpt>
      <trkpt lat="48.66945" lon="7.29971">
        <ele>414</ele>
        <time>2013-04-07T09:35:56.000Z</time>
      </trkpt>
      <trkpt lat="48.66948" lon="7.29955">
        <ele>415</ele>
        <time>2013-04-07T09:36:00.000Z</time>
      </trkpt>
      <trkpt lat="48.66946" lon="7.2996">
        <ele>415</ele>
        <time>2013-04-07T09:36:03.000Z</time>
      </trkpt>
      <trkpt lat="48.6695" lon="7.29946">
        <ele>415</ele>
        <time>2013-04-07T09:36:07.000Z</time>
      </trkpt>
      <trkpt lat="48.66951" lon="7.2994">
        <ele>415</ele>
        <time>2013-04-07T09:36:11.000Z</time>
      </trkpt>
      <trkpt lat="48.66949" lon="7.29937">
        <ele>415</ele>
        <time>2013-04-07T09:36:14.000Z</time>
      </trkpt>
      <trkpt lat="48.66949" lon="7.29932">
        <ele>415</ele>
        <time>2013-04-07T09:36:19.000Z</time>
      </trkpt>
      <trkpt lat="48.66949" lon="7.29927">
        <ele>415</ele>
        <time>2013-04-07T09:36:22.000Z</time>
      </trkpt>
      <trkpt lat="48.6695" lon="7.2992">
        <ele>416</ele>
        <time>2013-04-07T09:36:26.000Z</time>
      </trkpt>
      <trkpt lat="48.66937" lon="7.29918">
        <ele>414</ele>
        <time>2013-04-07T09:36:30.000Z</time>
      </trkpt>
      <trkpt lat="48.66948" lon="7.29905">
        <ele>418</ele>
        <time>2013-04-07T09:36:34.000Z</time>
      </trkpt>
      <trkpt lat="48.66952" lon="7.29907">
        <ele>419</ele>
        <time>2013-04-07T09:36:36.000Z</time>
      </trkpt>
      <trkpt lat="48.66954" lon="7.29892">
        <ele>419</ele>
        <time>2013-04-07T09:36:40.000Z</time>
      </trkpt>
      <trkpt lat="48.66955" lon="7.29892">
        <ele>419</ele>
        <time>2013-04-07T09:36:42.000Z</time>
      </trkpt>
      <trkpt lat="48.66954" lon="7.29888">
        <ele>420</ele>
        <time>2013-04-07T09:36:44.000Z</time>
      </trkpt>
      <trkpt lat="48.66953" lon="7.29881">
        <ele>420</ele>
        <time>2013-04-07T09:36:47.000Z</time>
      </trkpt>
      <trkpt lat="48.66956" lon="7.2987">
        <ele>420</ele>
        <time>2013-04-07T09:36:49.000Z</time>
      </trkpt>
      <trkpt lat="48.66956" lon="7.29868">
        <ele>420</ele>
        <time>2013-04-07T09:36:53.000Z</time>
      </trkpt>
      <trkpt lat="48.66957" lon="7.29862">
        <ele>421</ele>
        <time>2013-04-07T09:36:55.000Z</time>
      </trkpt>
      <trkpt lat="48.66957" lon="7.29854">
        <ele>421</ele>
        <time>2013-04-07T09:36:57.000Z</time>
      </trkpt>
      <trkpt lat="48.66957" lon="7.29851">
        <ele>421</ele>
        <time>2013-04-07T09:37:01.000Z</time>
      </trkpt>
      <trkpt lat="48.66959" lon="7.29851">
        <ele>421</ele>
        <time>2013-04-07T09:37:03.000Z</time>
      </trkpt>
      <trkpt lat="48.66957" lon="7.29844">
        <ele>421</ele>
        <time>2013-04-07T09:37:08.000Z</time>
      </trkpt>
      <trkpt lat="48.66954" lon="7.29838">
        <ele>421</ele>
        <time>2013-04-07T09:37:11.000Z</time>
      </trkpt>
      <trkpt lat="48.66953" lon="7.29835">
        <ele>421</ele>
        <time>2013-04-07T09:37:15.000Z</time>
      </trkpt>
      <trkpt lat="48.66954" lon="7.29826">
        <ele>425</ele>
        <time>2013-04-07T09:37:17.000Z</time>
      </trkpt>
      <trkpt lat="48.66954" lon="7.2982">
        <ele>425</ele>
        <time>2013-04-07T09:37:21.000Z</time>
      </trkpt>
      <trkpt lat="48.66954" lon="7.29816">
        <ele>425</ele>
        <time>2013-04-07T09:37:23.000Z</time>
      </trkpt>
      <trkpt lat="48.66954" lon="7.29813">
        <ele>425</ele>
        <time>2013-04-07T09:37:26.000Z</time>
      </trkpt>
      <trkpt lat="48.66954" lon="7.29808">
        <ele>425</ele>
        <time>2013-04-07T09:37:31.000Z</time>
      </trkpt>
      <trkpt lat="48.66954" lon="7.29803">
        <ele>425</ele>
        <time>2013-04-07T09:37:34.000Z</time>
      </trkpt>
      <trkpt lat="48.66954" lon="7.29799">
        <ele>426</ele>
        <time>2013-04-07T09:37:37.000Z</time>
      </trkpt>
      <trkpt lat="48.66955" lon="7.29799">
        <ele>426</ele>
        <time>2013-04-07T09:37:41.000Z</time>
      </trkpt>
      <trkpt lat="48.66951" lon="7.29787">
        <ele>426</ele>
        <time>2013-04-07T09:37:45.000Z</time>
      </trkpt>
      <trkpt lat="48.66948" lon="7.2978">
        <ele>426</ele>
        <time>2013-04-07T09:37:49.000Z</time>
      </trkpt>
      <trkpt lat="48.66948" lon="7.29772">
        <ele>426</ele>
        <time>2013-04-07T09:37:53.000Z</time>
      </trkpt>
      <trkpt lat="48.66948" lon="7.29759">
        <ele>427</ele>
        <time>2013-04-07T09:37:56.000Z</time>
      </trkpt>
      <trkpt lat="48.66946" lon="7.2976">
        <ele>427</ele>
        <time>2013-04-07T09:37:58.000Z</time>
      </trkpt>
      <trkpt lat="48.66945" lon="7.29758">
        <ele>427</ele>
        <time>2013-04-07T09:38:01.000Z</time>
      </trkpt>
      <trkpt lat="48.66945" lon="7.29752">
        <ele>427</ele>
        <time>2013-04-07T09:38:05.000Z</time>
      </trkpt>
      <trkpt lat="48.66943" lon="7.29744">
        <ele>431</ele>
        <time>2013-04-07T09:38:09.000Z</time>
      </trkpt>
      <trkpt lat="48.66942" lon="7.29737">
        <ele>431</ele>
        <time>2013-04-07T09:38:13.000Z</time>
      </trkpt>
      <trkpt lat="48.66935" lon="7.29741">
        <ele>430</ele>
        <time>2013-04-07T09:38:15.000Z</time>
      </trkpt>
      <trkpt lat="48.66941" lon="7.29726">
        <ele>431</ele>
        <time>2013-04-07T09:38:19.000Z</time>
      </trkpt>
      <trkpt lat="48.6694" lon="7.29724">
        <ele>431</ele>
        <time>2013-04-07T09:38:25.000Z</time>
      </trkpt>
      <trkpt lat="48.66939" lon="7.29721">
        <ele>431</ele>
        <time>2013-04-07T09:38:29.000Z</time>
      </trkpt>
      <trkpt lat="48.66938" lon="7.29718">
        <ele>431</ele>
        <time>2013-04-07T09:38:32.000Z</time>
      </trkpt>
      <trkpt lat="48.66934" lon="7.29715">
        <ele>431</ele>
        <time>2013-04-07T09:38:36.000Z</time>
      </trkpt>
      <trkpt lat="48.66933" lon="7.29707">
        <ele>432</ele>
        <time>2013-04-07T09:38:40.000Z</time>
      </trkpt>
      <trkpt lat="48.66933" lon="7.29704">
        <ele>432</ele>
        <time>2013-04-07T09:38:42.000Z</time>
      </trkpt>
      <trkpt lat="48.66933" lon="7.29697">
        <ele>432</ele>
        <time>2013-04-07T09:38:46.000Z</time>
      </trkpt>
      <trkpt lat="48.66932" lon="7.29695">
        <ele>432</ele>
        <time>2013-04-07T09:38:49.000Z</time>
      </trkpt>
      <trkpt lat="48.66926" lon="7.29694">
        <ele>432</ele>
        <time>2013-04-07T09:38:55.000Z</time>
      </trkpt>
      <trkpt lat="48.66926" lon="7.2969">
        <ele>432</ele>
        <time>2013-04-07T09:38:57.000Z</time>
      </trkpt>
      <trkpt lat="48.66925" lon="7.29687">
        <ele>432</ele>
        <time>2013-04-07T09:38:59.000Z</time>
      </trkpt>
      <trkpt lat="48.66927" lon="7.29671">
        <ele>431</ele>
        <time>2013-04-07T09:39:02.000Z</time>
      </trkpt>
      <trkpt lat="48.66927" lon="7.29663">
        <ele>435</ele>
        <time>2013-04-07T09:39:05.000Z</time>
      </trkpt>
      <trkpt lat="48.66929" lon="7.29654">
        <ele>437</ele>
        <time>2013-04-07T09:39:09.000Z</time>
      </trkpt>
      <trkpt lat="48.66929" lon="7.29649">
        <ele>438</ele>
        <time>2013-04-07T09:39:11.000Z</time>
      </trkpt>
      <trkpt lat="48.66927" lon="7.29645">
        <ele>439</ele>
        <time>2013-04-07T09:39:15.000Z</time>
      </trkpt>
      <trkpt lat="48.66927" lon="7.29638">
        <ele>440</ele>
        <time>2013-04-07T09:39:17.000Z</time>
      </trkpt>
      <trkpt lat="48.66932" lon="7.29636">
        <ele>441</ele>
        <time>2013-04-07T09:39:21.000Z</time>
      </trkpt>
      <trkpt lat="48.66925" lon="7.2963">
        <ele>441</ele>
        <time>2013-04-07T09:39:26.000Z</time>
      </trkpt>
      <trkpt lat="48.66924" lon="7.29621">
        <ele>442</ele>
        <time>2013-04-07T09:39:28.000Z</time>
      </trkpt>
      <trkpt lat="48.66922" lon="7.29625">
        <ele>441</ele>
        <time>2013-04-07T09:39:30.000Z</time>
      </trkpt>
      <trkpt lat="48.66921" lon="7.29619">
        <ele>442</ele>
        <time>2013-04-07T09:39:32.000Z</time>
      </trkpt>
      <trkpt lat="48.6692" lon="7.29613">
        <ele>442</ele>
        <time>2013-04-07T09:39:36.000Z</time>
      </trkpt>
      <trkpt lat="48.66921" lon="7.29607">
        <ele>442</ele>
        <time>2013-04-07T09:39:39.000Z</time>
      </trkpt>
      <trkpt lat="48.66921" lon="7.29604">
        <ele>442</ele>
        <time>2013-04-07T09:39:42.000Z</time>
      </trkpt>
      <trkpt lat="48.6692" lon="7.296">
        <ele>442</ele>
        <time>2013-04-07T09:39:49.000Z</time>
      </trkpt>
      <trkpt lat="48.66919" lon="7.29595">
        <ele>441</ele>
        <time>2013-04-07T09:39:53.000Z</time>
      </trkpt>
      <trkpt lat="48.66919" lon="7.29591">
        <ele>441</ele>
        <time>2013-04-07T09:39:57.000Z</time>
      </trkpt>
      <trkpt lat="48.66918" lon="7.29588">
        <ele>440</ele>
        <time>2013-04-07T09:40:06.000Z</time>
      </trkpt>
      <trkpt lat="48.66917" lon="7.29583">
        <ele>440</ele>
        <time>2013-04-07T09:40:17.000Z</time>
      </trkpt>
      <trkpt lat="48.66916" lon="7.2958">
        <ele>441</ele>
        <time>2013-04-07T09:40:23.000Z</time>
      </trkpt>
      <trkpt lat="48.66928" lon="7.29582">
        <ele>448</ele>
        <time>2013-04-07T09:40:27.000Z</time>
      </trkpt>
      <trkpt lat="48.66912" lon="7.29573">
        <ele>445</ele>
        <time>2013-04-07T09:40:31.000Z</time>
      </trkpt>
      <trkpt lat="48.66912" lon="7.29564">
        <ele>448</ele>
        <time>2013-04-07T09:40:35.000Z</time>
      </trkpt>
      <trkpt lat="48.66912" lon="7.29558">
        <ele>450</ele>
        <time>2013-04-07T09:40:37.000Z</time>
      </trkpt>
      <trkpt lat="48.66911" lon="7.29557">
        <ele>450</ele>
        <time>2013-04-07T09:40:47.000Z</time>
      </trkpt>
      <trkpt lat="48.66908" lon="7.29551">
        <ele>452</ele>
        <time>2013-04-07T09:40:53.000Z</time>
      </trkpt>
      <trkpt lat="48.66907" lon="7.29543">
        <ele>453</ele>
        <time>2013-04-07T09:40:57.000Z</time>
      </trkpt>
      <trkpt lat="48.66909" lon="7.29549">
        <ele>452</ele>
        <time>2013-04-07T09:40:59.000Z</time>
      </trkpt>
      <trkpt lat="48.66904" lon="7.29535">
        <ele>454</ele>
        <time>2013-04-07T09:41:03.000Z</time>
      </trkpt>
      <trkpt lat="48.66901" lon="7.29534">
        <ele>454</ele>
        <time>2013-04-07T09:41:07.000Z</time>
      </trkpt>
      <trkpt lat="48.66901" lon="7.2953">
        <ele>455</ele>
        <time>2013-04-07T09:41:11.000Z</time>
      </trkpt>
      <trkpt lat="48.66901" lon="7.2952">
        <ele>455</ele>
        <time>2013-04-07T09:41:15.000Z</time>
      </trkpt>
      <trkpt lat="48.66901" lon="7.29516">
        <ele>455</ele>
        <time>2013-04-07T09:41:17.000Z</time>
      </trkpt>
      <trkpt lat="48.66913" lon="7.2952">
        <ele>455</ele>
        <time>2013-04-07T09:41:21.000Z</time>
      </trkpt>
      <trkpt lat="48.66899" lon="7.29503">
        <ele>456</ele>
        <time>2013-04-07T09:41:29.000Z</time>
      </trkpt>
      <trkpt lat="48.66896" lon="7.295">
        <ele>456</ele>
        <time>2013-04-07T09:41:33.000Z</time>
      </trkpt>
      <trkpt lat="48.66895" lon="7.29497">
        <ele>461</ele>
        <time>2013-04-07T09:41:36.000Z</time>
      </trkpt>
      <trkpt lat="48.66895" lon="7.29494">
        <ele>461</ele>
        <time>2013-04-07T09:41:39.000Z</time>
      </trkpt>
      <trkpt lat="48.66893" lon="7.2949">
        <ele>462</ele>
        <time>2013-04-07T09:41:43.000Z</time>
      </trkpt>
      <trkpt lat="48.66892" lon="7.29484">
        <ele>462</ele>
        <time>2013-04-07T09:41:45.000Z</time>
      </trkpt>
      <trkpt lat="48.6689" lon="7.29481">
        <ele>462</ele>
        <time>2013-04-07T09:41:50.000Z</time>
      </trkpt>
      <trkpt lat="48.66889" lon="7.29476">
        <ele>463</ele>
        <time>2013-04-07T09:41:53.000Z</time>
      </trkpt>
      <trkpt lat="48.66888" lon="7.29473">
        <ele>463</ele>
        <time>2013-04-07T09:41:56.000Z</time>
      </trkpt>
      <trkpt lat="48.66887" lon="7.2947">
        <ele>463</ele>
        <time>2013-04-07T09:41:58.000Z</time>
      </trkpt>
      <trkpt lat="48.66893" lon="7.29471">
        <ele>463</ele>
        <time>2013-04-07T09:42:01.000Z</time>
      </trkpt>
      <trkpt lat="48.66883" lon="7.29463">
        <ele>464</ele>
        <time>2013-04-07T09:42:04.000Z</time>
      </trkpt>
      <trkpt lat="48.66882" lon="7.29452">
        <ele>465</ele>
        <time>2013-04-07T09:42:08.000Z</time>
      </trkpt>
      <trkpt lat="48.6688" lon="7.29455">
        <ele>464</ele>
        <time>2013-04-07T09:42:12.000Z</time>
      </trkpt>
      <trkpt lat="48.66877" lon="7.29454">
        <ele>464</ele>
        <time>2013-04-07T09:42:15.000Z</time>
      </trkpt>
      <trkpt lat="48.66875" lon="7.2945">
        <ele>465</ele>
        <time>2013-04-07T09:42:18.000Z</time>
      </trkpt>
      <trkpt lat="48.66873" lon="7.29437">
        <ele>465</ele>
        <time>2013-04-07T09:42:22.000Z</time>
      </trkpt>
      <trkpt lat="48.6688" lon="7.29438">
        <ele>465</ele>
        <time>2013-04-07T09:42:26.000Z</time>
      </trkpt>
      <trkpt lat="48.66869" lon="7.29427">
        <ele>465</ele>
        <time>2013-04-07T09:42:30.000Z</time>
      </trkpt>
      <trkpt lat="48.66868" lon="7.29422">
        <ele>465</ele>
        <time>2013-04-07T09:42:35.000Z</time>
      </trkpt>
      <trkpt lat="48.66866" lon="7.2942">
        <ele>465</ele>
        <time>2013-04-07T09:42:38.000Z</time>
      </trkpt>
      <trkpt lat="48.66864" lon="7.29417">
        <ele>465</ele>
        <time>2013-04-07T09:42:44.000Z</time>
      </trkpt>
      <trkpt lat="48.66864" lon="7.2941">
        <ele>472</ele>
        <time>2013-04-07T09:42:48.000Z</time>
      </trkpt>
      <trkpt lat="48.66864" lon="7.29397">
        <ele>473</ele>
        <time>2013-04-07T09:42:52.000Z</time>
      </trkpt>
      <trkpt lat="48.66866" lon="7.29402">
        <ele>473</ele>
        <time>2013-04-07T09:42:57.000Z</time>
      </trkpt>
      <trkpt lat="48.66863" lon="7.29387">
        <ele>474</ele>
        <time>2013-04-07T09:43:01.000Z</time>
      </trkpt>
      <trkpt lat="48.66866" lon="7.29389">
        <ele>474</ele>
        <time>2013-04-07T09:43:03.000Z</time>
      </trkpt>
      <trkpt lat="48.66861" lon="7.2938">
        <ele>474</ele>
        <time>2013-04-07T09:43:06.000Z</time>
      </trkpt>
      <trkpt lat="48.66861" lon="7.29383">
        <ele>474</ele>
        <time>2013-04-07T09:43:09.000Z</time>
      </trkpt>
      <trkpt lat="48.66857" lon="7.2938">
        <ele>474</ele>
        <time>2013-04-07T09:43:11.000Z</time>
      </trkpt>
      <trkpt lat="48.66855" lon="7.29376">
        <ele>474</ele>
        <time>2013-04-07T09:43:15.000Z</time>
      </trkpt>
      <trkpt lat="48.66856" lon="7.29369">
        <ele>475</ele>
        <time>2013-04-07T09:43:17.000Z</time>
      </trkpt>
      <trkpt lat="48.66853" lon="7.29362">
        <ele>475</ele>
        <time>2013-04-07T09:43:21.000Z</time>
      </trkpt>
      <trkpt lat="48.66849" lon="7.29366">
        <ele>474</ele>
        <time>2013-04-07T09:43:23.000Z</time>
      </trkpt>
      <trkpt lat="48.66853" lon="7.29355">
        <ele>475</ele>
        <time>2013-04-07T09:43:27.000Z</time>
      </trkpt>
      <trkpt lat="48.66847" lon="7.29355">
        <ele>475</ele>
        <time>2013-04-07T09:43:29.000Z</time>
      </trkpt>
      <trkpt lat="48.66846" lon="7.2935">
        <ele>475</ele>
        <time>2013-04-07T09:43:32.000Z</time>
      </trkpt>
      <trkpt lat="48.66856" lon="7.29349">
        <ele>476</ele>
        <time>2013-04-07T09:43:35.000Z</time>
      </trkpt>
      <trkpt lat="48.66845" lon="7.29349">
        <ele>475</ele>
        <time>2013-04-07T09:43:43.000Z</time>
      </trkpt>
      <trkpt lat="48.66843" lon="7.29343">
        <ele>475</ele>
        <time>2013-04-07T09:43:49.000Z</time>
      </trkpt>
      <trkpt lat="48.66855" lon="7.29343">
        <ele>476</ele>
        <time>2013-04-07T09:43:52.000Z</time>
      </trkpt>
      <trkpt lat="48.66841" lon="7.29332">
        <ele>478</ele>
        <time>2013-04-07T09:43:55.000Z</time>
      </trkpt>
      <trkpt lat="48.6684" lon="7.29331">
        <ele>478</ele>
        <time>2013-04-07T09:43:58.000Z</time>
      </trkpt>
      <trkpt lat="48.66838" lon="7.29323">
        <ele>480</ele>
        <time>2013-04-07T09:44:02.000Z</time>
      </trkpt>
      <trkpt lat="48.66837" lon="7.29321">
        <ele>481</ele>
        <time>2013-04-07T09:44:04.000Z</time>
      </trkpt>
      <trkpt lat="48.66837" lon="7.29318">
        <ele>482</ele>
        <time>2013-04-07T09:44:06.000Z</time>
      </trkpt>
      <trkpt lat="48.66833" lon="7.29314">
        <ele>483</ele>
        <time>2013-04-07T09:44:10.000Z</time>
      </trkpt>
      <trkpt lat="48.66832" lon="7.29309">
        <ele>481</ele>
        <time>2013-04-07T09:44:14.000Z</time>
      </trkpt>
      <trkpt lat="48.6685" lon="7.29314">
        <ele>485</ele>
        <time>2013-04-07T09:44:18.000Z</time>
      </trkpt>
      <trkpt lat="48.66837" lon="7.293">
        <ele>487</ele>
        <time>2013-04-07T09:44:22.000Z</time>
      </trkpt>
      <trkpt lat="48.66829" lon="7.29296">
        <ele>482</ele>
        <time>2013-04-07T09:44:24.000Z</time>
      </trkpt>
      <trkpt lat="48.66827" lon="7.29281">
        <ele>484</ele>
        <time>2013-04-07T09:44:28.000Z</time>
      </trkpt>
      <trkpt lat="48.66826" lon="7.29286">
        <ele>484</ele>
        <time>2013-04-07T09:44:30.000Z</time>
      </trkpt>
      <trkpt lat="48.66824" lon="7.29275">
        <ele>485</ele>
        <time>2013-04-07T09:44:34.000Z</time>
      </trkpt>
      <trkpt lat="48.6682" lon="7.29278">
        <ele>484</ele>
        <time>2013-04-07T09:44:36.000Z</time>
      </trkpt>
      <trkpt lat="48.66821" lon="7.29271">
        <ele>485</ele>
        <time>2013-04-07T09:44:38.000Z</time>
      </trkpt>
      <trkpt lat="48.66819" lon="7.29259">
        <ele>486</ele>
        <time>2013-04-07T09:44:42.000Z</time>
      </trkpt>
      <trkpt lat="48.66818" lon="7.29251">
        <ele>487</ele>
        <time>2013-04-07T09:44:46.000Z</time>
      </trkpt>
      <trkpt lat="48.66816" lon="7.29252">
        <ele>486</ele>
        <time>2013-04-07T09:44:48.000Z</time>
      </trkpt>
      <trkpt lat="48.66813" lon="7.29251">
        <ele>486</ele>
        <time>2013-04-07T09:44:50.000Z</time>
      </trkpt>
      <trkpt lat="48.66809" lon="7.29243">
        <ele>490</ele>
        <time>2013-04-07T09:44:54.000Z</time>
      </trkpt>
      <trkpt lat="48.66803" lon="7.29241">
        <ele>490</ele>
        <time>2013-04-07T09:44:58.000Z</time>
      </trkpt>
      <trkpt lat="48.66801" lon="7.29228">
        <ele>490</ele>
        <time>2013-04-07T09:45:02.000Z</time>
      </trkpt>
      <trkpt lat="48.668" lon="7.29232">
        <ele>490</ele>
        <time>2013-04-07T09:45:04.000Z</time>
      </trkpt>
      <trkpt lat="48.66798" lon="7.29221">
        <ele>490</ele>
        <time>2013-04-07T09:45:07.000Z</time>
      </trkpt>
      <trkpt lat="48.66792" lon="7.29218">
        <ele>490</ele>
        <time>2013-04-07T09:45:11.000Z</time>
      </trkpt>
      <trkpt lat="48.6679" lon="7.29205">
        <ele>490</ele>
        <time>2013-04-07T09:45:14.000Z</time>
      </trkpt>
      <trkpt lat="48.66788" lon="7.29206">
        <ele>490</ele>
        <time>2013-04-07T09:45:16.000Z</time>
      </trkpt>
      <trkpt lat="48.66796" lon="7.29201">
        <ele>491</ele>
        <time>2013-04-07T09:45:20.000Z</time>
      </trkpt>
      <trkpt lat="48.66784" lon="7.29192">
        <ele>490</ele>
        <time>2013-04-07T09:45:24.000Z</time>
      </trkpt>
      <trkpt lat="48.66781" lon="7.29184">
        <ele>490</ele>
        <time>2013-04-07T09:45:28.000Z</time>
      </trkpt>
      <trkpt lat="48.66781" lon="7.2918">
        <ele>490</ele>
        <time>2013-04-07T09:45:30.000Z</time>
      </trkpt>
      <trkpt lat="48.66795" lon="7.29182">
        <ele>491</ele>
        <time>2013-04-07T09:45:34.000Z</time>
      </trkpt>
      <trkpt lat="48.66785" lon="7.29167">
        <ele>494</ele>
        <time>2013-04-07T09:45:38.000Z</time>
      </trkpt>
      <trkpt lat="48.66777" lon="7.29158">
        <ele>493</ele>
        <time>2013-04-07T09:45:42.000Z</time>
      </trkpt>
      <trkpt lat="48.66775" lon="7.29146">
        <ele>494</ele>
        <time>2013-04-07T09:45:46.000Z</time>
      </trkpt>
      <trkpt lat="48.66773" lon="7.29138">
        <ele>494</ele>
        <time>2013-04-07T09:45:48.000Z</time>
      </trkpt>
      <trkpt lat="48.66772" lon="7.29142">
        <ele>493</ele>
        <time>2013-04-07T09:45:50.000Z</time>
      </trkpt>
      <trkpt lat="48.6677" lon="7.29132">
        <ele>494</ele>
        <time>2013-04-07T09:45:54.000Z</time>
      </trkpt>
      <trkpt lat="48.66765" lon="7.2913">
        <ele>494</ele>
        <time>2013-04-07T09:45:56.000Z</time>
      </trkpt>
      <trkpt lat="48.66763" lon="7.29126">
        <ele>494</ele>
        <time>2013-04-07T09:45:58.000Z</time>
      </trkpt>
      <trkpt lat="48.66759" lon="7.29121">
        <ele>494</ele>
        <time>2013-04-07T09:46:01.000Z</time>
      </trkpt>
      <trkpt lat="48.66755" lon="7.2912">
        <ele>493</ele>
        <time>2013-04-07T09:46:03.000Z</time>
      </trkpt>
      <trkpt lat="48.6675" lon="7.29116">
        <ele>493</ele>
        <time>2013-04-07T09:46:07.000Z</time>
      </trkpt>
      <trkpt lat="48.66752" lon="7.29108">
        <ele>493</ele>
        <time>2013-04-07T09:46:09.000Z</time>
      </trkpt>
      <trkpt lat="48.66746" lon="7.29103">
        <ele>493</ele>
        <time>2013-04-07T09:46:12.000Z</time>
      </trkpt>
      <trkpt lat="48.66743" lon="7.29099">
        <ele>493</ele>
        <time>2013-04-07T09:46:15.000Z</time>
      </trkpt>
      <trkpt lat="48.6674" lon="7.2909">
        <ele>492</ele>
        <time>2013-04-07T09:46:20.000Z</time>
      </trkpt>
      <trkpt lat="48.66738" lon="7.29081">
        <ele>493</ele>
        <time>2013-04-07T09:46:23.000Z</time>
      </trkpt>
      <trkpt lat="48.66727" lon="7.29075">
        <ele>495</ele>
        <time>2013-04-07T09:46:26.000Z</time>
      </trkpt>
      <trkpt lat="48.66733" lon="7.29067">
        <ele>495</ele>
        <time>2013-04-07T09:46:28.000Z</time>
      </trkpt>
      <trkpt lat="48.66733" lon="7.29063">
        <ele>495</ele>
        <time>2013-04-07T09:46:30.000Z</time>
      </trkpt>
      <trkpt lat="48.66736" lon="7.29064">
        <ele>495</ele>
        <time>2013-04-07T09:46:33.000Z</time>
      </trkpt>
      <trkpt lat="48.66727" lon="7.29048">
        <ele>496</ele>
        <time>2013-04-07T09:46:37.000Z</time>
      </trkpt>
      <trkpt lat="48.66725" lon="7.29042">
        <ele>496</ele>
        <time>2013-04-07T09:46:39.000Z</time>
      </trkpt>
      <trkpt lat="48.66722" lon="7.29032">
        <ele>497</ele>
        <time>2013-04-07T09:46:43.000Z</time>
      </trkpt>
      <trkpt lat="48.6672" lon="7.29019">
        <ele>497</ele>
        <time>2013-04-07T09:46:46.000Z</time>
      </trkpt>
      <trkpt lat="48.66717" lon="7.2902">
        <ele>497</ele>
        <time>2013-04-07T09:46:48.000Z</time>
      </trkpt>
      <trkpt lat="48.66714" lon="7.29016">
        <ele>497</ele>
        <time>2013-04-07T09:46:51.000Z</time>
      </trkpt>
      <trkpt lat="48.66713" lon="7.29009">
        <ele>497</ele>
        <time>2013-04-07T09:46:53.000Z</time>
      </trkpt>
      <trkpt lat="48.6671" lon="7.28996">
        <ele>502</ele>
        <time>2013-04-07T09:46:57.000Z</time>
      </trkpt>
      <trkpt lat="48.66706" lon="7.28986">
        <ele>502</ele>
        <time>2013-04-07T09:47:01.000Z</time>
      </trkpt>
      <trkpt lat="48.66702" lon="7.28985">
        <ele>502</ele>
        <time>2013-04-07T09:47:05.000Z</time>
      </trkpt>
      <trkpt lat="48.667" lon="7.28984">
        <ele>502</ele>
        <time>2013-04-07T09:47:07.000Z</time>
      </trkpt>
      <trkpt lat="48.66698" lon="7.28982">
        <ele>502</ele>
        <time>2013-04-07T09:47:09.000Z</time>
      </trkpt>
      <trkpt lat="48.66695" lon="7.2898">
        <ele>503</ele>
        <time>2013-04-07T09:47:11.000Z</time>
      </trkpt>
      <trkpt lat="48.66688" lon="7.2897">
        <ele>503</ele>
        <time>2013-04-07T09:47:15.000Z</time>
      </trkpt>
      <trkpt lat="48.66686" lon="7.28969">
        <ele>503</ele>
        <time>2013-04-07T09:47:17.000Z</time>
      </trkpt>
      <trkpt lat="48.66684" lon="7.28968">
        <ele>503</ele>
        <time>2013-04-07T09:47:19.000Z</time>
      </trkpt>
      <trkpt lat="48.66681" lon="7.28958">
        <ele>504</ele>
        <time>2013-04-07T09:47:23.000Z</time>
      </trkpt>
      <trkpt lat="48.66675" lon="7.28957">
        <ele>504</ele>
        <time>2013-04-07T09:47:27.000Z</time>
      </trkpt>
      <trkpt lat="48.66671" lon="7.28954">
        <ele>504</ele>
        <time>2013-04-07T09:47:31.000Z</time>
      </trkpt>
      <trkpt lat="48.66669" lon="7.28947">
        <ele>504</ele>
        <time>2013-04-07T09:47:33.000Z</time>
      </trkpt>
      <trkpt lat="48.66665" lon="7.28937">
        <ele>507</ele>
        <time>2013-04-07T09:47:37.000Z</time>
      </trkpt>
      <trkpt lat="48.66662" lon="7.28937">
        <ele>507</ele>
        <time>2013-04-07T09:47:41.000Z</time>
      </trkpt>
      <trkpt lat="48.66656" lon="7.28931">
        <ele>507</ele>
        <time>2013-04-07T09:47:45.000Z</time>
      </trkpt>
      <trkpt lat="48.66652" lon="7.2893">
        <ele>507</ele>
        <time>2013-04-07T09:47:49.000Z</time>
      </trkpt>
      <trkpt lat="48.66647" lon="7.28926">
        <ele>507</ele>
        <time>2013-04-07T09:47:53.000Z</time>
      </trkpt>
      <trkpt lat="48.66645" lon="7.28924">
        <ele>507</ele>
        <time>2013-04-07T09:47:55.000Z</time>
      </trkpt>
      <trkpt lat="48.66639" lon="7.28919">
        <ele>507</ele>
        <time>2013-04-07T09:47:59.000Z</time>
      </trkpt>
      <trkpt lat="48.66637" lon="7.28917">
        <ele>508</ele>
        <time>2013-04-07T09:48:01.000Z</time>
      </trkpt>
      <trkpt lat="48.66635" lon="7.28915">
        <ele>512</ele>
        <time>2013-04-07T09:48:03.000Z</time>
      </trkpt>
      <trkpt lat="48.66631" lon="7.28911">
        <ele>513</ele>
        <time>2013-04-07T09:48:07.000Z</time>
      </trkpt>
      <trkpt lat="48.66629" lon="7.28909">
        <ele>513</ele>
        <time>2013-04-07T09:48:09.000Z</time>
      </trkpt>
      <trkpt lat="48.66621" lon="7.28908">
        <ele>513</ele>
        <time>2013-04-07T09:48:13.000Z</time>
      </trkpt>
      <trkpt lat="48.66617" lon="7.28899">
        <ele>514</ele>
        <time>2013-04-07T09:48:17.000Z</time>
      </trkpt>
      <trkpt lat="48.66615" lon="7.28903">
        <ele>514</ele>
        <time>2013-04-07T09:48:19.000Z</time>
      </trkpt>
      <trkpt lat="48.6661" lon="7.28902">
        <ele>514</ele>
        <time>2013-04-07T09:48:21.000Z</time>
      </trkpt>
      <trkpt lat="48.66606" lon="7.28894">
        <ele>514</ele>
        <time>2013-04-07T09:48:25.000Z</time>
      </trkpt>
      <trkpt lat="48.66616" lon="7.289">
        <ele>514</ele>
        <time>2013-04-07T09:48:29.000Z</time>
      </trkpt>
      <trkpt lat="48.66598" lon="7.28891">
        <ele>514</ele>
        <time>2013-04-07T09:48:33.000Z</time>
      </trkpt>
      <trkpt lat="48.66594" lon="7.28886">
        <ele>515</ele>
        <time>2013-04-07T09:48:37.000Z</time>
      </trkpt>
      <trkpt lat="48.66587" lon="7.28886">
        <ele>515</ele>
        <time>2013-04-07T09:48:41.000Z</time>
      </trkpt>
      <trkpt lat="48.66586" lon="7.28885">
        <ele>515</ele>
        <time>2013-04-07T09:48:43.000Z</time>
      </trkpt>
      <trkpt lat="48.66582" lon="7.28881">
        <ele>518</ele>
        <time>2013-04-07T09:48:47.000Z</time>
      </trkpt>
      <trkpt lat="48.66578" lon="7.28873">
        <ele>519</ele>
        <time>2013-04-07T09:48:51.000Z</time>
      </trkpt>
      <trkpt lat="48.66574" lon="7.28871">
        <ele>519</ele>
        <time>2013-04-07T09:48:55.000Z</time>
      </trkpt>
      <trkpt lat="48.66572" lon="7.2887">
        <ele>519</ele>
        <time>2013-04-07T09:48:57.000Z</time>
      </trkpt>
      <trkpt lat="48.6657" lon="7.28868">
        <ele>519</ele>
        <time>2013-04-07T09:48:59.000Z</time>
      </trkpt>
      <trkpt lat="48.66568" lon="7.28866">
        <ele>519</ele>
        <time>2013-04-07T09:49:01.000Z</time>
      </trkpt>
      <trkpt lat="48.6656" lon="7.28864">
        <ele>520</ele>
        <time>2013-04-07T09:49:05.000Z</time>
      </trkpt>
      <trkpt lat="48.6656" lon="7.28859">
        <ele>520</ele>
        <time>2013-04-07T09:49:07.000Z</time>
      </trkpt>
      <trkpt lat="48.66553" lon="7.28854">
        <ele>520</ele>
        <time>2013-04-07T09:49:11.000Z</time>
      </trkpt>
      <trkpt lat="48.66551" lon="7.28854">
        <ele>520</ele>
        <time>2013-04-07T09:49:13.000Z</time>
      </trkpt>
      <trkpt lat="48.66549" lon="7.28853">
        <ele>520</ele>
        <time>2013-04-07T09:49:15.000Z</time>
      </trkpt>
      <trkpt lat="48.66544" lon="7.28855">
        <ele>520</ele>
        <time>2013-04-07T09:49:19.000Z</time>
      </trkpt>
      <trkpt lat="48.66545" lon="7.28858">
        <ele>520</ele>
        <time>2013-04-07T09:49:21.000Z</time>
      </trkpt>
      <trkpt lat="48.66542" lon="7.28859">
        <ele>520</ele>
        <time>2013-04-07T09:49:23.000Z</time>
      </trkpt>
      <trkpt lat="48.66543" lon="7.28865">
        <ele>520</ele>
        <time>2013-04-07T09:49:25.000Z</time>
      </trkpt>
      <trkpt lat="48.66544" lon="7.28863">
        <ele>520</ele>
        <time>2013-04-07T09:49:27.000Z</time>
      </trkpt>
      <trkpt lat="48.66544" lon="7.28871">
        <ele>520</ele>
        <time>2013-04-07T09:49:29.000Z</time>
      </trkpt>
      <trkpt lat="48.66544" lon="7.28874">
        <ele>520</ele>
        <time>2013-04-07T09:49:31.000Z</time>
      </trkpt>
      <trkpt lat="48.66547" lon="7.28888">
        <ele>520</ele>
        <time>2013-04-07T09:49:35.000Z</time>
      </trkpt>
      <trkpt lat="48.66549" lon="7.2889">
        <ele>520</ele>
        <time>2013-04-07T09:49:37.000Z</time>
      </trkpt>
      <trkpt lat="48.66553" lon="7.28894">
        <ele>519</ele>
        <time>2013-04-07T09:49:41.000Z</time>
      </trkpt>
      <trkpt lat="48.66553" lon="7.28899">
        <ele>519</ele>
        <time>2013-04-07T09:49:43.000Z</time>
      </trkpt>
      <trkpt lat="48.66558" lon="7.28902">
        <ele>518</ele>
        <time>2013-04-07T09:49:47.000Z</time>
      </trkpt>
      <trkpt lat="48.66559" lon="7.28908">
        <ele>518</ele>
        <time>2013-04-07T09:49:49.000Z</time>
      </trkpt>
      <trkpt lat="48.66561" lon="7.28915">
        <ele>517</ele>
        <time>2013-04-07T09:49:53.000Z</time>
      </trkpt>
      <trkpt lat="48.66561" lon="7.2892">
        <ele>517</ele>
        <time>2013-04-07T09:49:56.000Z</time>
      </trkpt>
      <trkpt lat="48.66565" lon="7.28925">
        <ele>517</ele>
        <time>2013-04-07T09:49:59.000Z</time>
      </trkpt>
      <trkpt lat="48.66567" lon="7.28928">
        <ele>516</ele>
        <time>2013-04-07T09:50:01.000Z</time>
      </trkpt>
      <trkpt lat="48.6657" lon="7.28931">
        <ele>516</ele>
        <time>2013-04-07T09:50:03.000Z</time>
      </trkpt>
      <trkpt lat="48.66572" lon="7.28934">
        <ele>516</ele>
        <time>2013-04-07T09:50:05.000Z</time>
      </trkpt>
      <trkpt lat="48.66578" lon="7.28945">
        <ele>517</ele>
        <time>2013-04-07T09:50:08.000Z</time>
      </trkpt>
      <trkpt lat="48.66579" lon="7.28942">
        <ele>516</ele>
        <time>2013-04-07T09:50:10.000Z</time>
      </trkpt>
      <trkpt lat="48.66582" lon="7.28953">
        <ele>517</ele>
        <time>2013-04-07T09:50:12.000Z</time>
      </trkpt>
      <trkpt lat="48.66584" lon="7.28953">
        <ele>509</ele>
        <time>2013-04-07T09:50:14.000Z</time>
      </trkpt>
      <trkpt lat="48.66589" lon="7.28962">
        <ele>509</ele>
        <time>2013-04-07T09:50:19.000Z</time>
      </trkpt>
      <trkpt lat="48.66596" lon="7.28968">
        <ele>508</ele>
        <time>2013-04-07T09:50:25.000Z</time>
      </trkpt>
      <trkpt lat="48.66595" lon="7.28975">
        <ele>508</ele>
        <time>2013-04-07T09:50:27.000Z</time>
      </trkpt>
      <trkpt lat="48.66599" lon="7.28973">
        <ele>508</ele>
        <time>2013-04-07T09:50:29.000Z</time>
      </trkpt>
      <trkpt lat="48.66603" lon="7.28977">
        <ele>508</ele>
        <time>2013-04-07T09:50:32.000Z</time>
      </trkpt>
      <trkpt lat="48.66603" lon="7.28989">
        <ele>508</ele>
        <time>2013-04-07T09:50:35.000Z</time>
      </trkpt>
      <trkpt lat="48.66604" lon="7.28995">
        <ele>508</ele>
        <time>2013-04-07T09:50:37.000Z</time>
      </trkpt>
      <trkpt lat="48.66605" lon="7.29002">
        <ele>507</ele>
        <time>2013-04-07T09:50:40.000Z</time>
      </trkpt>
      <trkpt lat="48.66608" lon="7.29016">
        <ele>507</ele>
        <time>2013-04-07T09:50:43.000Z</time>
      </trkpt>
      <trkpt lat="48.6661" lon="7.29018">
        <ele>506</ele>
        <time>2013-04-07T09:50:46.000Z</time>
      </trkpt>
      <trkpt lat="48.66611" lon="7.29028">
        <ele>506</ele>
        <time>2013-04-07T09:50:49.000Z</time>
      </trkpt>
      <trkpt lat="48.66611" lon="7.29034">
        <ele>506</ele>
        <time>2013-04-07T09:50:51.000Z</time>
      </trkpt>
      <trkpt lat="48.66613" lon="7.29044">
        <ele>506</ele>
        <time>2013-04-07T09:50:54.000Z</time>
      </trkpt>
      <trkpt lat="48.66615" lon="7.29053">
        <ele>506</ele>
        <time>2013-04-07T09:50:57.000Z</time>
      </trkpt>
      <trkpt lat="48.66615" lon="7.29062">
        <ele>506</ele>
        <time>2013-04-07T09:50:59.000Z</time>
      </trkpt>
      <trkpt lat="48.66611" lon="7.29057">
        <ele>506</ele>
        <time>2013-04-07T09:51:01.000Z</time>
      </trkpt>
      <trkpt lat="48.66618" lon="7.29076">
        <ele>506</ele>
        <time>2013-04-07T09:51:04.000Z</time>
      </trkpt>
      <trkpt lat="48.66616" lon="7.29072">
        <ele>506</ele>
        <time>2013-04-07T09:51:06.000Z</time>
      </trkpt>
      <trkpt lat="48.66621" lon="7.29089">
        <ele>508</ele>
        <time>2013-04-07T09:51:09.000Z</time>
      </trkpt>
      <trkpt lat="48.66622" lon="7.29098">
        <ele>508</ele>
        <time>2013-04-07T09:51:12.000Z</time>
      </trkpt>
      <trkpt lat="48.66622" lon="7.29102">
        <ele>508</ele>
        <time>2013-04-07T09:51:14.000Z</time>
      </trkpt>
      <trkpt lat="48.66625" lon="7.29119">
        <ele>508</ele>
        <time>2013-04-07T09:51:18.000Z</time>
      </trkpt>
      <trkpt lat="48.66627" lon="7.29124">
        <ele>508</ele>
        <time>2013-04-07T09:51:22.000Z</time>
      </trkpt>
      <trkpt lat="48.66628" lon="7.2913">
        <ele>508</ele>
        <time>2013-04-07T09:51:24.000Z</time>
      </trkpt>
      <trkpt lat="48.66631" lon="7.29134">
        <ele>508</ele>
        <time>2013-04-07T09:51:27.000Z</time>
      </trkpt>
      <trkpt lat="48.66631" lon="7.29144">
        <ele>508</ele>
        <time>2013-04-07T09:51:29.000Z</time>
      </trkpt>
      <trkpt lat="48.66632" lon="7.2915">
        <ele>508</ele>
        <time>2013-04-07T09:51:32.000Z</time>
      </trkpt>
      <trkpt lat="48.66634" lon="7.29159">
        <ele>508</ele>
        <time>2013-04-07T09:51:35.000Z</time>
      </trkpt>
      <trkpt lat="48.66635" lon="7.29165">
        <ele>507</ele>
        <time>2013-04-07T09:51:37.000Z</time>
      </trkpt>
      <trkpt lat="48.66636" lon="7.29168">
        <ele>511</ele>
        <time>2013-04-07T09:51:39.000Z</time>
      </trkpt>
      <trkpt lat="48.66637" lon="7.29176">
        <ele>511</ele>
        <time>2013-04-07T09:51:41.000Z</time>
      </trkpt>
      <trkpt lat="48.66639" lon="7.29184">
        <ele>511</ele>
        <time>2013-04-07T09:51:44.000Z</time>
      </trkpt>
      <trkpt lat="48.66642" lon="7.29191">
        <ele>511</ele>
        <time>2013-04-07T09:51:47.000Z</time>
      </trkpt>
      <trkpt lat="48.66642" lon="7.29201">
        <ele>511</ele>
        <time>2013-04-07T09:51:50.000Z</time>
      </trkpt>
      <trkpt lat="48.66642" lon="7.29206">
        <ele>512</ele>
        <time>2013-04-07T09:51:52.000Z</time>
      </trkpt>
      <trkpt lat="48.66644" lon="7.29216">
        <ele>512</ele>
        <time>2013-04-07T09:51:55.000Z</time>
      </trkpt>
      <trkpt lat="48.66645" lon="7.29218">
        <ele>512</ele>
        <time>2013-04-07T09:51:57.000Z</time>
      </trkpt>
      <trkpt lat="48.66646" lon="7.29232">
        <ele>511</ele>
        <time>2013-04-07T09:52:00.000Z</time>
      </trkpt>
      <trkpt lat="48.66646" lon="7.29238">
        <ele>511</ele>
        <time>2013-04-07T09:52:02.000Z</time>
      </trkpt>
      <trkpt lat="48.66647" lon="7.29246">
        <ele>511</ele>
        <time>2013-04-07T09:52:05.000Z</time>
      </trkpt>
      <trkpt lat="48.66648" lon="7.29252">
        <ele>513</ele>
        <time>2013-04-07T09:52:07.000Z</time>
      </trkpt>
      <trkpt lat="48.66648" lon="7.29257">
        <ele>513</ele>
        <time>2013-04-07T09:52:09.000Z</time>
      </trkpt>
      <trkpt lat="48.66649" lon="7.29264">
        <ele>514</ele>
        <time>2013-04-07T09:52:12.000Z</time>
      </trkpt>
      <trkpt lat="48.66655" lon="7.29264">
        <ele>513</ele>
        <time>2013-04-07T09:52:15.000Z</time>
      </trkpt>
      <trkpt lat="48.66652" lon="7.29276">
        <ele>515</ele>
        <time>2013-04-07T09:52:17.000Z</time>
      </trkpt>
      <trkpt lat="48.6664" lon="7.29277">
        <ele>517</ele>
        <time>2013-04-07T09:52:21.000Z</time>
      </trkpt>
      <trkpt lat="48.66654" lon="7.29296">
        <ele>516</ele>
        <time>2013-04-07T09:52:24.000Z</time>
      </trkpt>
      <trkpt lat="48.66655" lon="7.29305">
        <ele>516</ele>
        <time>2013-04-07T09:52:27.000Z</time>
      </trkpt>
      <trkpt lat="48.66655" lon="7.29311">
        <ele>515</ele>
        <time>2013-04-07T09:52:29.000Z</time>
      </trkpt>
      <trkpt lat="48.66655" lon="7.29317">
        <ele>515</ele>
        <time>2013-04-07T09:52:31.000Z</time>
      </trkpt>
      <trkpt lat="48.66656" lon="7.29322">
        <ele>514</ele>
        <time>2013-04-07T09:52:33.000Z</time>
      </trkpt>
      <trkpt lat="48.66663" lon="7.29325">
        <ele>512</ele>
        <time>2013-04-07T09:52:36.000Z</time>
      </trkpt>
      <trkpt lat="48.66659" lon="7.29337">
        <ele>514</ele>
        <time>2013-04-07T09:52:38.000Z</time>
      </trkpt>
      <trkpt lat="48.6666" lon="7.29342">
        <ele>515</ele>
        <time>2013-04-07T09:52:40.000Z</time>
      </trkpt>
      <trkpt lat="48.6666" lon="7.29348">
        <ele>517</ele>
        <time>2013-04-07T09:52:42.000Z</time>
      </trkpt>
      <trkpt lat="48.66661" lon="7.29353">
        <ele>518</ele>
        <time>2013-04-07T09:52:44.000Z</time>
      </trkpt>
      <trkpt lat="48.66663" lon="7.29359">
        <ele>519</ele>
        <time>2013-04-07T09:52:46.000Z</time>
      </trkpt>
      <trkpt lat="48.66666" lon="7.29365">
        <ele>520</ele>
        <time>2013-04-07T09:52:49.000Z</time>
      </trkpt>
      <trkpt lat="48.66666" lon="7.29373">
        <ele>521</ele>
        <time>2013-04-07T09:52:51.000Z</time>
      </trkpt>
      <trkpt lat="48.66669" lon="7.29378">
        <ele>505</ele>
        <time>2013-04-07T09:52:54.000Z</time>
      </trkpt>
      <trkpt lat="48.66671" lon="7.29386">
        <ele>506</ele>
        <time>2013-04-07T09:52:57.000Z</time>
      </trkpt>
      <trkpt lat="48.66672" lon="7.29396">
        <ele>508</ele>
        <time>2013-04-07T09:52:59.000Z</time>
      </trkpt>
      <trkpt lat="48.66674" lon="7.29403">
        <ele>510</ele>
        <time>2013-04-07T09:53:02.000Z</time>
      </trkpt>
      <trkpt lat="48.66676" lon="7.29412">
        <ele>512</ele>
        <time>2013-04-07T09:53:05.000Z</time>
      </trkpt>
      <trkpt lat="48.66679" lon="7.29413">
        <ele>511</ele>
        <time>2013-04-07T09:53:07.000Z</time>
      </trkpt>
      <trkpt lat="48.66679" lon="7.29428">
        <ele>512</ele>
        <time>2013-04-07T09:53:10.000Z</time>
      </trkpt>
      <trkpt lat="48.66682" lon="7.29437">
        <ele>511</ele>
        <time>2013-04-07T09:53:14.000Z</time>
      </trkpt>
      <trkpt lat="48.66683" lon="7.29449">
        <ele>510</ele>
        <time>2013-04-07T09:53:16.000Z</time>
      </trkpt>
      <trkpt lat="48.66668" lon="7.29453">
        <ele>512</ele>
        <time>2013-04-07T09:53:20.000Z</time>
      </trkpt>
      <trkpt lat="48.66687" lon="7.29467">
        <ele>511</ele>
        <time>2013-04-07T09:53:24.000Z</time>
      </trkpt>
      <trkpt lat="48.66688" lon="7.29477">
        <ele>511</ele>
        <time>2013-04-07T09:53:27.000Z</time>
      </trkpt>
      <trkpt lat="48.66689" lon="7.29483">
        <ele>512</ele>
        <time>2013-04-07T09:53:29.000Z</time>
      </trkpt>
      <trkpt lat="48.66689" lon="7.29489">
        <ele>513</ele>
        <time>2013-04-07T09:53:31.000Z</time>
      </trkpt>
      <trkpt lat="48.66689" lon="7.29496">
        <ele>513</ele>
        <time>2013-04-07T09:53:33.000Z</time>
      </trkpt>
      <trkpt lat="48.66689" lon="7.29502">
        <ele>517</ele>
        <time>2013-04-07T09:53:35.000Z</time>
      </trkpt>
      <trkpt lat="48.66689" lon="7.29509">
        <ele>517</ele>
        <time>2013-04-07T09:53:37.000Z</time>
      </trkpt>
      <trkpt lat="48.66687" lon="7.29521">
        <ele>517</ele>
        <time>2013-04-07T09:53:40.000Z</time>
      </trkpt>
      <trkpt lat="48.66687" lon="7.2953">
        <ele>516</ele>
        <time>2013-04-07T09:53:44.000Z</time>
      </trkpt>
      <trkpt lat="48.66692" lon="7.29528">
        <ele>516</ele>
        <time>2013-04-07T09:53:48.000Z</time>
      </trkpt>
      <trkpt lat="48.66689" lon="7.29536">
        <ele>516</ele>
        <time>2013-04-07T09:53:52.000Z</time>
      </trkpt>
      <trkpt lat="48.66687" lon="7.29548">
        <ele>517</ele>
        <time>2013-04-07T09:53:56.000Z</time>
      </trkpt>
      <trkpt lat="48.66685" lon="7.29542">
        <ele>517</ele>
        <time>2013-04-07T09:53:58.000Z</time>
      </trkpt>
      <trkpt lat="48.66686" lon="7.29556">
        <ele>518</ele>
        <time>2013-04-07T09:54:01.000Z</time>
      </trkpt>
      <trkpt lat="48.66686" lon="7.2955">
        <ele>517</ele>
        <time>2013-04-07T09:54:03.000Z</time>
      </trkpt>
      <trkpt lat="48.66684" lon="7.29563">
        <ele>519</ele>
        <time>2013-04-07T09:54:05.000Z</time>
      </trkpt>
      <trkpt lat="48.66688" lon="7.29557">
        <ele>518</ele>
        <time>2013-04-07T09:54:10.000Z</time>
      </trkpt>
      <trkpt lat="48.66685" lon="7.29565">
        <ele>520</ele>
        <time>2013-04-07T09:54:14.000Z</time>
      </trkpt>
      <trkpt lat="48.66682" lon="7.29571">
        <ele>521</ele>
        <time>2013-04-07T09:54:16.000Z</time>
      </trkpt>
      <trkpt lat="48.66682" lon="7.29578">
        <ele>522</ele>
        <time>2013-04-07T09:54:20.000Z</time>
      </trkpt>
      <trkpt lat="48.66682" lon="7.29581">
        <ele>523</ele>
        <time>2013-04-07T09:54:22.000Z</time>
      </trkpt>
      <trkpt lat="48.66682" lon="7.29584">
        <ele>525</ele>
        <time>2013-04-07T09:54:25.000Z</time>
      </trkpt>
      <trkpt lat="48.66682" lon="7.29588">
        <ele>525</ele>
        <time>2013-04-07T09:54:28.000Z</time>
      </trkpt>
      <trkpt lat="48.66683" lon="7.296">
        <ele>523</ele>
        <time>2013-04-07T09:54:34.000Z</time>
      </trkpt>
      <trkpt lat="48.66682" lon="7.29607">
        <ele>523</ele>
        <time>2013-04-07T09:54:38.000Z</time>
      </trkpt>
      <trkpt lat="48.66682" lon="7.29602">
        <ele>524</ele>
        <time>2013-04-07T09:54:42.000Z</time>
      </trkpt>
      <trkpt lat="48.66683" lon="7.29609">
        <ele>523</ele>
        <time>2013-04-07T09:54:44.000Z</time>
      </trkpt>
      <trkpt lat="48.66683" lon="7.29614">
        <ele>523</ele>
        <time>2013-04-07T09:54:47.000Z</time>
      </trkpt>
      <trkpt lat="48.66683" lon="7.29617">
        <ele>523</ele>
        <time>2013-04-07T09:54:50.000Z</time>
      </trkpt>
      <trkpt lat="48.66682" lon="7.29624">
        <ele>523</ele>
        <time>2013-04-07T09:54:54.000Z</time>
      </trkpt>
      <trkpt lat="48.66681" lon="7.29628">
        <ele>523</ele>
        <time>2013-04-07T09:54:58.000Z</time>
      </trkpt>
      <trkpt lat="48.66682" lon="7.29634">
        <ele>523</ele>
        <time>2013-04-07T09:55:02.000Z</time>
      </trkpt>
      <trkpt lat="48.66679" lon="7.29649">
        <ele>526</ele>
        <time>2013-04-07T09:55:06.000Z</time>
      </trkpt>
      <trkpt lat="48.66679" lon="7.29654">
        <ele>527</ele>
        <time>2013-04-07T09:55:08.000Z</time>
      </trkpt>
      <trkpt lat="48.66678" lon="7.29664">
        <ele>529</ele>
        <time>2013-04-07T09:55:12.000Z</time>
      </trkpt>
      <trkpt lat="48.66684" lon="7.29656">
        <ele>526</ele>
        <time>2013-04-07T09:55:15.000Z</time>
      </trkpt>
      <trkpt lat="48.66678" lon="7.29674">
        <ele>529</ele>
        <time>2013-04-07T09:55:19.000Z</time>
      </trkpt>
      <trkpt lat="48.66676" lon="7.29686">
        <ele>527</ele>
        <time>2013-04-07T09:55:23.000Z</time>
      </trkpt>
      <trkpt lat="48.66673" lon="7.29695">
        <ele>527</ele>
        <time>2013-04-07T09:55:27.000Z</time>
      </trkpt>
      <trkpt lat="48.66671" lon="7.29699">
        <ele>526</ele>
        <time>2013-04-07T09:55:29.000Z</time>
      </trkpt>
      <trkpt lat="48.6667" lon="7.29702">
        <ele>526</ele>
        <time>2013-04-07T09:55:31.000Z</time>
      </trkpt>
      <trkpt lat="48.66669" lon="7.29704">
        <ele>526</ele>
        <time>2013-04-07T09:55:33.000Z</time>
      </trkpt>
      <trkpt lat="48.66671" lon="7.29705">
        <ele>526</ele>
        <time>2013-04-07T09:55:35.000Z</time>
      </trkpt>
      <trkpt lat="48.66664" lon="7.29707">
        <ele>541</ele>
        <time>2013-04-07T09:55:37.000Z</time>
      </trkpt>
      <trkpt lat="48.66661" lon="7.29709">
        <ele>542</ele>
        <time>2013-04-07T09:55:41.000Z</time>
      </trkpt>
      <trkpt lat="48.66655" lon="7.29718">
        <ele>542</ele>
        <time>2013-04-07T09:55:44.000Z</time>
      </trkpt>
      <trkpt lat="48.66648" lon="7.2972">
        <ele>542</ele>
        <time>2013-04-07T09:55:47.000Z</time>
      </trkpt>
      <trkpt lat="48.66645" lon="7.29725">
        <ele>542</ele>
        <time>2013-04-07T09:55:50.000Z</time>
      </trkpt>
      <trkpt lat="48.66643" lon="7.29727">
        <ele>543</ele>
        <time>2013-04-07T09:55:54.000Z</time>
      </trkpt>
      <trkpt lat="48.66663" lon="7.29729">
        <ele>541</ele>
        <time>2013-04-07T09:56:01.000Z</time>
      </trkpt>
      <trkpt lat="48.66636" lon="7.29734">
        <ele>543</ele>
        <time>2013-04-07T09:56:06.000Z</time>
      </trkpt>
      <trkpt lat="48.66634" lon="7.29733">
        <ele>543</ele>
        <time>2013-04-07T09:56:11.000Z</time>
      </trkpt>
      <trkpt lat="48.66633" lon="7.29733">
        <ele>543</ele>
        <time>2013-04-07T09:56:18.000Z</time>
      </trkpt>
      <trkpt lat="48.66628" lon="7.29728">
        <ele>544</ele>
        <time>2013-04-07T09:56:24.000Z</time>
      </trkpt>
      <trkpt lat="48.66627" lon="7.29734">
        <ele>544</ele>
        <time>2013-04-07T09:56:28.000Z</time>
      </trkpt>
      <trkpt lat="48.66623" lon="7.29737">
        <ele>545</ele>
        <time>2013-04-07T09:56:32.000Z</time>
      </trkpt>
      <trkpt lat="48.66623" lon="7.29732">
        <ele>545</ele>
        <time>2013-04-07T09:56:37.000Z</time>
      </trkpt>
      <trkpt lat="48.6662" lon="7.2973">
        <ele>545</ele>
        <time>2013-04-07T09:56:40.000Z</time>
      </trkpt>
      <trkpt lat="48.66618" lon="7.29732">
        <ele>545</ele>
        <time>2013-04-07T09:56:43.000Z</time>
      </trkpt>
      <trkpt lat="48.66616" lon="7.29733">
        <ele>546</ele>
        <time>2013-04-07T09:56:45.000Z</time>
      </trkpt>
      <trkpt lat="48.66614" lon="7.29733">
        <ele>546</ele>
        <time>2013-04-07T09:56:51.000Z</time>
      </trkpt>
      <trkpt lat="48.6661" lon="7.2973">
        <ele>546</ele>
        <time>2013-04-07T09:56:56.000Z</time>
      </trkpt>
      <trkpt lat="48.66607" lon="7.29731">
        <ele>547</ele>
        <time>2013-04-07T09:56:58.000Z</time>
      </trkpt>
      <trkpt lat="48.66604" lon="7.29731">
        <ele>547</ele>
        <time>2013-04-07T09:57:01.000Z</time>
      </trkpt>
      <trkpt lat="48.66602" lon="7.2973">
        <ele>547</ele>
        <time>2013-04-07T09:57:06.000Z</time>
      </trkpt>
      <trkpt lat="48.666" lon="7.2973">
        <ele>547</ele>
        <time>2013-04-07T09:57:09.000Z</time>
      </trkpt>
      <trkpt lat="48.66598" lon="7.29729">
        <ele>547</ele>
        <time>2013-04-07T09:57:12.000Z</time>
      </trkpt>
      <trkpt lat="48.66596" lon="7.29727">
        <ele>547</ele>
        <time>2013-04-07T09:57:15.000Z</time>
      </trkpt>
      <trkpt lat="48.66603" lon="7.29729">
        <ele>547</ele>
        <time>2013-04-07T09:57:20.000Z</time>
      </trkpt>
      <trkpt lat="48.66591" lon="7.2972">
        <ele>548</ele>
        <time>2013-04-07T09:57:26.000Z</time>
      </trkpt>
      <trkpt lat="48.6659" lon="7.2972">
        <ele>548</ele>
        <time>2013-04-07T09:57:29.000Z</time>
      </trkpt>
      <trkpt lat="48.66587" lon="7.29719">
        <ele>548</ele>
        <time>2013-04-07T09:57:33.000Z</time>
      </trkpt>
      <trkpt lat="48.66583" lon="7.29718">
        <ele>556</ele>
        <time>2013-04-07T09:57:37.000Z</time>
      </trkpt>
      <trkpt lat="48.66581" lon="7.29716">
        <ele>557</ele>
        <time>2013-04-07T09:57:40.000Z</time>
      </trkpt>
      <trkpt lat="48.66575" lon="7.29714">
        <ele>557</ele>
        <time>2013-04-07T09:57:46.000Z</time>
      </trkpt>
      <trkpt lat="48.66574" lon="7.2971">
        <ele>557</ele>
        <time>2013-04-07T09:57:49.000Z</time>
      </trkpt>
      <trkpt lat="48.6657" lon="7.29712">
        <ele>557</ele>
        <time>2013-04-07T09:57:52.000Z</time>
      </trkpt>
      <trkpt lat="48.66566" lon="7.29711">
        <ele>558</ele>
        <time>2013-04-07T09:57:56.000Z</time>
      </trkpt>
      <trkpt lat="48.66567" lon="7.29702">
        <ele>558</ele>
        <time>2013-04-07T09:58:00.000Z</time>
      </trkpt>
      <trkpt lat="48.66562" lon="7.29709">
        <ele>558</ele>
        <time>2013-04-07T09:58:03.000Z</time>
      </trkpt>
      <trkpt lat="48.66563" lon="7.29698">
        <ele>559</ele>
        <time>2013-04-07T09:58:06.000Z</time>
      </trkpt>
      <trkpt lat="48.6656" lon="7.29695">
        <ele>559</ele>
        <time>2013-04-07T09:58:09.000Z</time>
      </trkpt>
      <trkpt lat="48.66558" lon="7.29701">
        <ele>559</ele>
        <time>2013-04-07T09:58:12.000Z</time>
      </trkpt>
      <trkpt lat="48.66557" lon="7.29689">
        <ele>560</ele>
        <time>2013-04-07T09:58:15.000Z</time>
      </trkpt>
      <trkpt lat="48.66556" lon="7.29697">
        <ele>559</ele>
        <time>2013-04-07T09:58:18.000Z</time>
      </trkpt>
      <trkpt lat="48.66554" lon="7.29686">
        <ele>560</ele>
        <time>2013-04-07T09:58:21.000Z</time>
      </trkpt>
      <trkpt lat="48.66552" lon="7.29686">
        <ele>560</ele>
        <time>2013-04-07T09:58:25.000Z</time>
      </trkpt>
      <trkpt lat="48.66551" lon="7.29685">
        <ele>560</ele>
        <time>2013-04-07T09:58:28.000Z</time>
      </trkpt>
      <trkpt lat="48.6655" lon="7.29683">
        <ele>560</ele>
        <time>2013-04-07T09:58:31.000Z</time>
      </trkpt>
      <trkpt lat="48.66559" lon="7.29674">
        <ele>560</ele>
        <time>2013-04-07T09:58:34.000Z</time>
      </trkpt>
      <trkpt lat="48.66547" lon="7.29673">
        <ele>561</ele>
        <time>2013-04-07T09:58:37.000Z</time>
      </trkpt>
      <trkpt lat="48.6655" lon="7.29673">
        <ele>561</ele>
        <time>2013-04-07T09:58:40.000Z</time>
      </trkpt>
      <trkpt lat="48.66547" lon="7.29669">
        <ele>561</ele>
        <time>2013-04-07T09:58:52.000Z</time>
      </trkpt>
      <trkpt lat="48.66547" lon="7.29669">
        <ele>561</ele>
        <time>2013-04-07T09:59:12.000Z</time>
      </trkpt>
      <trkpt lat="48.66544" lon="7.29659">
        <ele>567</ele>
        <time>2013-04-07T10:00:41.000Z</time>
      </trkpt>
      <trkpt lat="48.66544" lon="7.29666">
        <ele>567</ele>
        <time>2013-04-07T10:00:44.000Z</time>
      </trkpt>
      <trkpt lat="48.66539" lon="7.29663">
        <ele>568</ele>
        <time>2013-04-07T10:00:46.000Z</time>
      </trkpt>
      <trkpt lat="48.66534" lon="7.29665">
        <ele>568</ele>
        <time>2013-04-07T10:00:50.000Z</time>
      </trkpt>
      <trkpt lat="48.66534" lon="7.2966">
        <ele>568</ele>
        <time>2013-04-07T10:00:52.000Z</time>
      </trkpt>
      <trkpt lat="48.66531" lon="7.29661">
        <ele>569</ele>
        <time>2013-04-07T10:00:55.000Z</time>
      </trkpt>
      <trkpt lat="48.66529" lon="7.29654">
        <ele>569</ele>
        <time>2013-04-07T10:00:57.000Z</time>
      </trkpt>
      <trkpt lat="48.66526" lon="7.29644">
        <ele>569</ele>
        <time>2013-04-07T10:01:01.000Z</time>
      </trkpt>
      <trkpt lat="48.66525" lon="7.29644">
        <ele>569</ele>
        <time>2013-04-07T10:01:03.000Z</time>
      </trkpt>
      <trkpt lat="48.66523" lon="7.29643">
        <ele>569</ele>
        <time>2013-04-07T10:01:06.000Z</time>
      </trkpt>
      <trkpt lat="48.66522" lon="7.29643">
        <ele>569</ele>
        <time>2013-04-07T10:01:09.000Z</time>
      </trkpt>
      <trkpt lat="48.66515" lon="7.2964">
        <ele>570</ele>
        <time>2013-04-07T10:01:14.000Z</time>
      </trkpt>
      <trkpt lat="48.66516" lon="7.29636">
        <ele>570</ele>
        <time>2013-04-07T10:01:16.000Z</time>
      </trkpt>
      <trkpt lat="48.66513" lon="7.29629">
        <ele>570</ele>
        <time>2013-04-07T10:01:18.000Z</time>
      </trkpt>
      <trkpt lat="48.66509" lon="7.2963">
        <ele>570</ele>
        <time>2013-04-07T10:01:22.000Z</time>
      </trkpt>
      <trkpt lat="48.66507" lon="7.29619">
        <ele>571</ele>
        <time>2013-04-07T10:01:25.000Z</time>
      </trkpt>
      <trkpt lat="48.66501" lon="7.2962">
        <ele>571</ele>
        <time>2013-04-07T10:01:29.000Z</time>
      </trkpt>
      <trkpt lat="48.66496" lon="7.29609">
        <ele>576</ele>
        <time>2013-04-07T10:01:33.000Z</time>
      </trkpt>
      <trkpt lat="48.66491" lon="7.29611">
        <ele>576</ele>
        <time>2013-04-07T10:01:37.000Z</time>
      </trkpt>
      <trkpt lat="48.66491" lon="7.29606">
        <ele>576</ele>
        <time>2013-04-07T10:01:39.000Z</time>
      </trkpt>
      <trkpt lat="48.6649" lon="7.29602">
        <ele>576</ele>
        <time>2013-04-07T10:01:41.000Z</time>
      </trkpt>
      <trkpt lat="48.66489" lon="7.296">
        <ele>576</ele>
        <time>2013-04-07T10:01:43.000Z</time>
      </trkpt>
      <trkpt lat="48.66487" lon="7.29598">
        <ele>576</ele>
        <time>2013-04-07T10:01:45.000Z</time>
      </trkpt>
      <trkpt lat="48.66479" lon="7.29596">
        <ele>576</ele>
        <time>2013-04-07T10:01:49.000Z</time>
      </trkpt>
      <trkpt lat="48.66478" lon="7.29589">
        <ele>576</ele>
        <time>2013-04-07T10:01:52.000Z</time>
      </trkpt>
      <trkpt lat="48.66474" lon="7.29582">
        <ele>578</ele>
        <time>2013-04-07T10:01:56.000Z</time>
      </trkpt>
      <trkpt lat="48.66467" lon="7.29582">
        <ele>578</ele>
        <time>2013-04-07T10:01:58.000Z</time>
      </trkpt>
      <trkpt lat="48.66465" lon="7.29575">
        <ele>577</ele>
        <time>2013-04-07T10:02:02.000Z</time>
      </trkpt>
      <trkpt lat="48.66463" lon="7.29569">
        <ele>577</ele>
        <time>2013-04-07T10:02:05.000Z</time>
      </trkpt>
      <trkpt lat="48.66457" lon="7.29568">
        <ele>578</ele>
        <time>2013-04-07T10:02:09.000Z</time>
      </trkpt>
      <trkpt lat="48.66452" lon="7.29566">
        <ele>578</ele>
        <time>2013-04-07T10:02:12.000Z</time>
      </trkpt>
      <trkpt lat="48.66451" lon="7.29557">
        <ele>578</ele>
        <time>2013-04-07T10:02:14.000Z</time>
      </trkpt>
      <trkpt lat="48.6646" lon="7.29555">
        <ele>577</ele>
        <time>2013-04-07T10:02:16.000Z</time>
      </trkpt>
      <trkpt lat="48.66442" lon="7.29549">
        <ele>578</ele>
        <time>2013-04-07T10:02:20.000Z</time>
      </trkpt>
      <trkpt lat="48.66439" lon="7.29545">
        <ele>578</ele>
        <time>2013-04-07T10:02:23.000Z</time>
      </trkpt>
      <trkpt lat="48.66435" lon="7.29542">
        <ele>578</ele>
        <time>2013-04-07T10:02:26.000Z</time>
      </trkpt>
      <trkpt lat="48.66429" lon="7.29532">
        <ele>578</ele>
        <time>2013-04-07T10:02:29.000Z</time>
      </trkpt>
      <trkpt lat="48.66428" lon="7.29534">
        <ele>578</ele>
        <time>2013-04-07T10:02:31.000Z</time>
      </trkpt>
      <trkpt lat="48.66423" lon="7.2952">
        <ele>579</ele>
        <time>2013-04-07T10:02:35.000Z</time>
      </trkpt>
      <trkpt lat="48.66418" lon="7.29513">
        <ele>580</ele>
        <time>2013-04-07T10:02:38.000Z</time>
      </trkpt>
      <trkpt lat="48.66415" lon="7.29519">
        <ele>579</ele>
        <time>2013-04-07T10:02:40.000Z</time>
      </trkpt>
      <trkpt lat="48.6641" lon="7.29514">
        <ele>579</ele>
        <time>2013-04-07T10:02:42.000Z</time>
      </trkpt>
      <trkpt lat="48.66408" lon="7.29509">
        <ele>580</ele>
        <time>2013-04-07T10:02:44.000Z</time>
      </trkpt>
      <trkpt lat="48.66407" lon="7.29501">
        <ele>580</ele>
        <time>2013-04-07T10:02:47.000Z</time>
      </trkpt>
      <trkpt lat="48.66398" lon="7.29497">
        <ele>582</ele>
        <time>2013-04-07T10:02:49.000Z</time>
      </trkpt>
      <trkpt lat="48.66392" lon="7.29491">
        <ele>582</ele>
        <time>2013-04-07T10:02:52.000Z</time>
      </trkpt>
      <trkpt lat="48.66385" lon="7.29484">
        <ele>582</ele>
        <time>2013-04-07T10:02:56.000Z</time>
      </trkpt>
      <trkpt lat="48.6638" lon="7.2948">
        <ele>582</ele>
        <time>2013-04-07T10:02:58.000Z</time>
      </trkpt>
      <trkpt lat="48.66374" lon="7.29464">
        <ele>582</ele>
        <time>2013-04-07T10:03:02.000Z</time>
      </trkpt>
      <trkpt lat="48.66372" lon="7.29463">
        <ele>582</ele>
        <time>2013-04-07T10:03:04.000Z</time>
      </trkpt>
      <trkpt lat="48.66364" lon="7.29459">
        <ele>582</ele>
        <time>2013-04-07T10:03:09.000Z</time>
      </trkpt>
      <trkpt lat="48.66362" lon="7.29454">
        <ele>583</ele>
        <time>2013-04-07T10:03:11.000Z</time>
      </trkpt>
      <trkpt lat="48.66357" lon="7.29438">
        <ele>583</ele>
        <time>2013-04-07T10:03:15.000Z</time>
      </trkpt>
      <trkpt lat="48.66356" lon="7.29441">
        <ele>583</ele>
        <time>2013-04-07T10:03:17.000Z</time>
      </trkpt>
      <trkpt lat="48.66351" lon="7.2943">
        <ele>584</ele>
        <time>2013-04-07T10:03:20.000Z</time>
      </trkpt>
      <trkpt lat="48.66345" lon="7.29432">
        <ele>584</ele>
        <time>2013-04-07T10:03:22.000Z</time>
      </trkpt>
      <trkpt lat="48.66343" lon="7.29419">
        <ele>585</ele>
        <time>2013-04-07T10:03:26.000Z</time>
      </trkpt>
      <trkpt lat="48.66339" lon="7.29403">
        <ele>586</ele>
        <time>2013-04-07T10:03:29.000Z</time>
      </trkpt>
      <trkpt lat="48.66349" lon="7.29413">
        <ele>586</ele>
        <time>2013-04-07T10:03:31.000Z</time>
      </trkpt>
      <trkpt lat="48.6633" lon="7.29397">
        <ele>586</ele>
        <time>2013-04-07T10:03:34.000Z</time>
      </trkpt>
      <trkpt lat="48.66329" lon="7.29392">
        <ele>586</ele>
        <time>2013-04-07T10:03:36.000Z</time>
      </trkpt>
      <trkpt lat="48.66325" lon="7.29375">
        <ele>587</ele>
        <time>2013-04-07T10:03:41.000Z</time>
      </trkpt>
      <trkpt lat="48.66324" lon="7.29379">
        <ele>587</ele>
        <time>2013-04-07T10:03:43.000Z</time>
      </trkpt>
      <trkpt lat="48.6632" lon="7.29367">
        <ele>587</ele>
        <time>2013-04-07T10:03:47.000Z</time>
      </trkpt>
      <trkpt lat="48.66319" lon="7.29365">
        <ele>587</ele>
        <time>2013-04-07T10:03:49.000Z</time>
      </trkpt>
      <trkpt lat="48.66311" lon="7.29362">
        <ele>587</ele>
        <time>2013-04-07T10:03:52.000Z</time>
      </trkpt>
      <trkpt lat="48.66319" lon="7.29356">
        <ele>588</ele>
        <time>2013-04-07T10:03:54.000Z</time>
      </trkpt>
      <trkpt lat="48.66305" lon="7.29348">
        <ele>587</ele>
        <time>2013-04-07T10:03:56.000Z</time>
      </trkpt>
      <trkpt lat="48.66302" lon="7.29337">
        <ele>588</ele>
        <time>2013-04-07T10:03:59.000Z</time>
      </trkpt>
      <trkpt lat="48.66299" lon="7.29329">
        <ele>591</ele>
        <time>2013-04-07T10:04:02.000Z</time>
      </trkpt>
      <trkpt lat="48.6629" lon="7.29326">
        <ele>591</ele>
        <time>2013-04-07T10:04:05.000Z</time>
      </trkpt>
      <trkpt lat="48.66296" lon="7.29315">
        <ele>591</ele>
        <time>2013-04-07T10:04:07.000Z</time>
      </trkpt>
      <trkpt lat="48.6629" lon="7.29305">
        <ele>591</ele>
        <time>2013-04-07T10:04:09.000Z</time>
      </trkpt>
      <trkpt lat="48.66283" lon="7.29296">
        <ele>591</ele>
        <time>2013-04-07T10:04:11.000Z</time>
      </trkpt>
      <trkpt lat="48.66278" lon="7.29291">
        <ele>591</ele>
        <time>2013-04-07T10:04:14.000Z</time>
      </trkpt>
      <trkpt lat="48.66272" lon="7.29272">
        <ele>592</ele>
        <time>2013-04-07T10:04:19.000Z</time>
      </trkpt>
      <trkpt lat="48.66267" lon="7.29272">
        <ele>592</ele>
        <time>2013-04-07T10:04:22.000Z</time>
      </trkpt>
      <trkpt lat="48.66266" lon="7.29258">
        <ele>593</ele>
        <time>2013-04-07T10:04:25.000Z</time>
      </trkpt>
      <trkpt lat="48.66265" lon="7.29255">
        <ele>593</ele>
        <time>2013-04-07T10:04:33.000Z</time>
      </trkpt>
      <trkpt lat="48.66262" lon="7.2925">
        <ele>594</ele>
        <time>2013-04-07T10:04:38.000Z</time>
      </trkpt>
      <trkpt lat="48.66259" lon="7.2924">
        <ele>594</ele>
        <time>2013-04-07T10:04:42.000Z</time>
      </trkpt>
      <trkpt lat="48.66257" lon="7.2923">
        <ele>593</ele>
        <time>2013-04-07T10:04:45.000Z</time>
      </trkpt>
      <trkpt lat="48.66255" lon="7.29223">
        <ele>593</ele>
        <time>2013-04-07T10:04:48.000Z</time>
      </trkpt>
      <trkpt lat="48.66252" lon="7.29214">
        <ele>593</ele>
        <time>2013-04-07T10:04:51.000Z</time>
      </trkpt>
      <trkpt lat="48.66238" lon="7.29209">
        <ele>595</ele>
        <time>2013-04-07T10:04:55.000Z</time>
      </trkpt>
      <trkpt lat="48.66243" lon="7.29203">
        <ele>596</ele>
        <time>2013-04-07T10:04:57.000Z</time>
      </trkpt>
      <trkpt lat="48.66241" lon="7.29195">
        <ele>596</ele>
        <time>2013-04-07T10:05:01.000Z</time>
      </trkpt>
      <trkpt lat="48.66244" lon="7.29196">
        <ele>596</ele>
        <time>2013-04-07T10:05:04.000Z</time>
      </trkpt>
      <trkpt lat="48.66233" lon="7.29183">
        <ele>597</ele>
        <time>2013-04-07T10:05:08.000Z</time>
      </trkpt>
      <trkpt lat="48.66228" lon="7.29182">
        <ele>597</ele>
        <time>2013-04-07T10:05:10.000Z</time>
      </trkpt>
      <trkpt lat="48.66227" lon="7.29179">
        <ele>597</ele>
        <time>2013-04-07T10:05:12.000Z</time>
      </trkpt>
      <trkpt lat="48.66226" lon="7.29177">
        <ele>597</ele>
        <time>2013-04-07T10:05:15.000Z</time>
      </trkpt>
      <trkpt lat="48.66223" lon="7.29175">
        <ele>597</ele>
        <time>2013-04-07T10:05:19.000Z</time>
      </trkpt>
      <trkpt lat="48.66218" lon="7.2917">
        <ele>597</ele>
        <time>2013-04-07T10:05:25.000Z</time>
      </trkpt>
      <trkpt lat="48.66216" lon="7.29156">
        <ele>601</ele>
        <time>2013-04-07T10:05:29.000Z</time>
      </trkpt>
      <trkpt lat="48.66214" lon="7.29163">
        <ele>601</ele>
        <time>2013-04-07T10:05:31.000Z</time>
      </trkpt>
      <trkpt lat="48.66211" lon="7.29153">
        <ele>601</ele>
        <time>2013-04-07T10:05:35.000Z</time>
      </trkpt>
      <trkpt lat="48.66209" lon="7.29142">
        <ele>602</ele>
        <time>2013-04-07T10:05:39.000Z</time>
      </trkpt>
      <trkpt lat="48.66207" lon="7.2914">
        <ele>602</ele>
        <time>2013-04-07T10:05:43.000Z</time>
      </trkpt>
      <trkpt lat="48.66204" lon="7.2913">
        <ele>602</ele>
        <time>2013-04-07T10:05:47.000Z</time>
      </trkpt>
      <trkpt lat="48.66199" lon="7.29127">
        <ele>602</ele>
        <time>2013-04-07T10:05:51.000Z</time>
      </trkpt>
      <trkpt lat="48.66198" lon="7.29124">
        <ele>603</ele>
        <time>2013-04-07T10:05:53.000Z</time>
      </trkpt>
      <trkpt lat="48.66194" lon="7.29116">
        <ele>603</ele>
        <time>2013-04-07T10:05:57.000Z</time>
      </trkpt>
      <trkpt lat="48.66189" lon="7.29102">
        <ele>604</ele>
        <time>2013-04-07T10:06:01.000Z</time>
      </trkpt>
      <trkpt lat="48.66198" lon="7.29105">
        <ele>603</ele>
        <time>2013-04-07T10:06:03.000Z</time>
      </trkpt>
      <trkpt lat="48.66185" lon="7.29095">
        <ele>605</ele>
        <time>2013-04-07T10:06:07.000Z</time>
      </trkpt>
      <trkpt lat="48.66183" lon="7.29088">
        <ele>605</ele>
        <time>2013-04-07T10:06:10.000Z</time>
      </trkpt>
      <trkpt lat="48.66181" lon="7.29083">
        <ele>607</ele>
        <time>2013-04-07T10:06:13.000Z</time>
      </trkpt>
      <trkpt lat="48.6618" lon="7.29083">
        <ele>607</ele>
        <time>2013-04-07T10:06:15.000Z</time>
      </trkpt>
      <trkpt lat="48.66177" lon="7.29077">
        <ele>608</ele>
        <time>2013-04-07T10:06:19.000Z</time>
      </trkpt>
      <trkpt lat="48.66192" lon="7.29086">
        <ele>604</ele>
        <time>2013-04-07T10:06:23.000Z</time>
      </trkpt>
      <trkpt lat="48.66174" lon="7.29078">
        <ele>608</ele>
        <time>2013-04-07T10:06:26.000Z</time>
      </trkpt>
      <trkpt lat="48.66163" lon="7.29074">
        <ele>609</ele>
        <time>2013-04-07T10:06:28.000Z</time>
      </trkpt>
      <trkpt lat="48.66156" lon="7.29066">
        <ele>609</ele>
        <time>2013-04-07T10:06:31.000Z</time>
      </trkpt>
      <trkpt lat="48.66147" lon="7.29066">
        <ele>609</ele>
        <time>2013-04-07T10:06:35.000Z</time>
      </trkpt>
      <trkpt lat="48.66142" lon="7.29067">
        <ele>609</ele>
        <time>2013-04-07T10:06:38.000Z</time>
      </trkpt>
      <trkpt lat="48.6614" lon="7.29059">
        <ele>610</ele>
        <time>2013-04-07T10:06:41.000Z</time>
      </trkpt>
      <trkpt lat="48.66138" lon="7.29055">
        <ele>610</ele>
        <time>2013-04-07T10:06:43.000Z</time>
      </trkpt>
      <trkpt lat="48.66137" lon="7.29053">
        <ele>610</ele>
        <time>2013-04-07T10:06:45.000Z</time>
      </trkpt>
      <trkpt lat="48.66134" lon="7.29052">
        <ele>610</ele>
        <time>2013-04-07T10:06:50.000Z</time>
      </trkpt>
      <trkpt lat="48.66131" lon="7.29042">
        <ele>611</ele>
        <time>2013-04-07T10:06:53.000Z</time>
      </trkpt>
      <trkpt lat="48.66125" lon="7.29038">
        <ele>611</ele>
        <time>2013-04-07T10:06:57.000Z</time>
      </trkpt>
      <trkpt lat="48.6612" lon="7.29035">
        <ele>611</ele>
        <time>2013-04-07T10:07:01.000Z</time>
      </trkpt>
      <trkpt lat="48.66125" lon="7.29027">
        <ele>611</ele>
        <time>2013-04-07T10:07:03.000Z</time>
      </trkpt>
      <trkpt lat="48.66114" lon="7.29024">
        <ele>612</ele>
        <time>2013-04-07T10:07:06.000Z</time>
      </trkpt>
      <trkpt lat="48.6611" lon="7.29014">
        <ele>613</ele>
        <time>2013-04-07T10:07:09.000Z</time>
      </trkpt>
      <trkpt lat="48.66131" lon="7.29021">
        <ele>612</ele>
        <time>2013-04-07T10:07:13.000Z</time>
      </trkpt>
      <trkpt lat="48.66112" lon="7.29013">
        <ele>612</ele>
        <time>2013-04-07T10:07:17.000Z</time>
      </trkpt>
      <trkpt lat="48.66103" lon="7.29008">
        <ele>613</ele>
        <time>2013-04-07T10:07:22.000Z</time>
      </trkpt>
      <trkpt lat="48.66096" lon="7.28995">
        <ele>617</ele>
        <time>2013-04-07T10:07:25.000Z</time>
      </trkpt>
      <trkpt lat="48.66094" lon="7.28996">
        <ele>617</ele>
        <time>2013-04-07T10:07:27.000Z</time>
      </trkpt>
      <trkpt lat="48.66092" lon="7.28995">
        <ele>617</ele>
        <time>2013-04-07T10:07:29.000Z</time>
      </trkpt>
      <trkpt lat="48.6609" lon="7.28994">
        <ele>617</ele>
        <time>2013-04-07T10:07:31.000Z</time>
      </trkpt>
      <trkpt lat="48.66086" lon="7.28991">
        <ele>617</ele>
        <time>2013-04-07T10:07:35.000Z</time>
      </trkpt>
      <trkpt lat="48.6608" lon="7.28983">
        <ele>617</ele>
        <time>2013-04-07T10:07:39.000Z</time>
      </trkpt>
      <trkpt lat="48.66088" lon="7.28988">
        <ele>618</ele>
        <time>2013-04-07T10:07:41.000Z</time>
      </trkpt>
      <trkpt lat="48.66073" lon="7.28979">
        <ele>617</ele>
        <time>2013-04-07T10:07:44.000Z</time>
      </trkpt>
      <trkpt lat="48.66068" lon="7.28977">
        <ele>617</ele>
        <time>2013-04-07T10:07:48.000Z</time>
      </trkpt>
      <trkpt lat="48.66066" lon="7.28976">
        <ele>617</ele>
        <time>2013-04-07T10:07:50.000Z</time>
      </trkpt>
      <trkpt lat="48.66059" lon="7.28973">
        <ele>616</ele>
        <time>2013-04-07T10:07:54.000Z</time>
      </trkpt>
      <trkpt lat="48.66053" lon="7.28962">
        <ele>617</ele>
        <time>2013-04-07T10:07:59.000Z</time>
      </trkpt>
      <trkpt lat="48.6605" lon="7.28963">
        <ele>616</ele>
        <time>2013-04-07T10:08:01.000Z</time>
      </trkpt>
      <trkpt lat="48.66041" lon="7.28963">
        <ele>616</ele>
        <time>2013-04-07T10:08:07.000Z</time>
      </trkpt>
      <trkpt lat="48.66034" lon="7.28957">
        <ele>616</ele>
        <time>2013-04-07T10:08:13.000Z</time>
      </trkpt>
      <trkpt lat="48.66027" lon="7.28953">
        <ele>616</ele>
        <time>2013-04-07T10:08:16.000Z</time>
      </trkpt>
      <trkpt lat="48.66021" lon="7.28949">
        <ele>616</ele>
        <time>2013-04-07T10:08:19.000Z</time>
      </trkpt>
      <trkpt lat="48.66015" lon="7.28937">
        <ele>617</ele>
        <time>2013-04-07T10:08:22.000Z</time>
      </trkpt>
      <trkpt lat="48.66007" lon="7.28934">
        <ele>618</ele>
        <time>2013-04-07T10:08:25.000Z</time>
      </trkpt>
      <trkpt lat="48.66" lon="7.28939">
        <ele>611</ele>
        <time>2013-04-07T10:08:27.000Z</time>
      </trkpt>
      <trkpt lat="48.65996" lon="7.2893">
        <ele>614</ele>
        <time>2013-04-07T10:08:30.000Z</time>
      </trkpt>
      <trkpt lat="48.65992" lon="7.28931">
        <ele>613</ele>
        <time>2013-04-07T10:08:32.000Z</time>
      </trkpt>
      <trkpt lat="48.65989" lon="7.2893">
        <ele>613</ele>
        <time>2013-04-07T10:08:34.000Z</time>
      </trkpt>
      <trkpt lat="48.65984" lon="7.28927">
        <ele>612</ele>
        <time>2013-04-07T10:08:36.000Z</time>
      </trkpt>
      <trkpt lat="48.65979" lon="7.28922">
        <ele>612</ele>
        <time>2013-04-07T10:08:38.000Z</time>
      </trkpt>
      <trkpt lat="48.65974" lon="7.28918">
        <ele>611</ele>
        <time>2013-04-07T10:08:40.000Z</time>
      </trkpt>
      <trkpt lat="48.65963" lon="7.28915">
        <ele>620</ele>
        <time>2013-04-07T10:08:43.000Z</time>
      </trkpt>
      <trkpt lat="48.65964" lon="7.28907">
        <ele>620</ele>
        <time>2013-04-07T10:08:45.000Z</time>
      </trkpt>
      <trkpt lat="48.65961" lon="7.28907">
        <ele>620</ele>
        <time>2013-04-07T10:08:47.000Z</time>
      </trkpt>
      <trkpt lat="48.65956" lon="7.28904">
        <ele>620</ele>
        <time>2013-04-07T10:08:50.000Z</time>
      </trkpt>
      <trkpt lat="48.6595" lon="7.28901">
        <ele>620</ele>
        <time>2013-04-07T10:08:52.000Z</time>
      </trkpt>
      <trkpt lat="48.65945" lon="7.28898">
        <ele>619</ele>
        <time>2013-04-07T10:08:54.000Z</time>
      </trkpt>
      <trkpt lat="48.6594" lon="7.28895">
        <ele>619</ele>
        <time>2013-04-07T10:08:56.000Z</time>
      </trkpt>
      <trkpt lat="48.65936" lon="7.28891">
        <ele>619</ele>
        <time>2013-04-07T10:08:58.000Z</time>
      </trkpt>
      <trkpt lat="48.65931" lon="7.28886">
        <ele>620</ele>
        <time>2013-04-07T10:09:01.000Z</time>
      </trkpt>
      <trkpt lat="48.65925" lon="7.28877">
        <ele>621</ele>
        <time>2013-04-07T10:09:04.000Z</time>
      </trkpt>
      <trkpt lat="48.65921" lon="7.28877">
        <ele>621</ele>
        <time>2013-04-07T10:09:06.000Z</time>
      </trkpt>
      <trkpt lat="48.65915" lon="7.28871">
        <ele>616</ele>
        <time>2013-04-07T10:09:09.000Z</time>
      </trkpt>
      <trkpt lat="48.6591" lon="7.28868">
        <ele>616</ele>
        <time>2013-04-07T10:09:12.000Z</time>
      </trkpt>
      <trkpt lat="48.65904" lon="7.2886">
        <ele>617</ele>
        <time>2013-04-07T10:09:15.000Z</time>
      </trkpt>
      <trkpt lat="48.659" lon="7.2886">
        <ele>616</ele>
        <time>2013-04-07T10:09:17.000Z</time>
      </trkpt>
      <trkpt lat="48.65892" lon="7.28854">
        <ele>617</ele>
        <time>2013-04-07T10:09:20.000Z</time>
      </trkpt>
      <trkpt lat="48.65888" lon="7.28851">
        <ele>616</ele>
        <time>2013-04-07T10:09:22.000Z</time>
      </trkpt>
      <trkpt lat="48.65879" lon="7.2884">
        <ele>616</ele>
        <time>2013-04-07T10:09:25.000Z</time>
      </trkpt>
      <trkpt lat="48.65874" lon="7.28829">
        <ele>624</ele>
        <time>2013-04-07T10:09:29.000Z</time>
      </trkpt>
      <trkpt lat="48.65872" lon="7.28828">
        <ele>624</ele>
        <time>2013-04-07T10:09:31.000Z</time>
      </trkpt>
      <trkpt lat="48.65867" lon="7.28823">
        <ele>623</ele>
        <time>2013-04-07T10:09:35.000Z</time>
      </trkpt>
      <trkpt lat="48.65864" lon="7.28818">
        <ele>623</ele>
        <time>2013-04-07T10:09:37.000Z</time>
      </trkpt>
      <trkpt lat="48.65845" lon="7.28807">
        <ele>622</ele>
        <time>2013-04-07T10:09:41.000Z</time>
      </trkpt>
      <trkpt lat="48.65849" lon="7.28805">
        <ele>623</ele>
        <time>2013-04-07T10:09:44.000Z</time>
      </trkpt>
      <trkpt lat="48.6585" lon="7.28799">
        <ele>624</ele>
        <time>2013-04-07T10:09:47.000Z</time>
      </trkpt>
      <trkpt lat="48.65844" lon="7.28797">
        <ele>624</ele>
        <time>2013-04-07T10:09:50.000Z</time>
      </trkpt>
      <trkpt lat="48.6584" lon="7.28796">
        <ele>624</ele>
        <time>2013-04-07T10:09:52.000Z</time>
      </trkpt>
      <trkpt lat="48.65836" lon="7.28785">
        <ele>624</ele>
        <time>2013-04-07T10:09:55.000Z</time>
      </trkpt>
      <trkpt lat="48.65831" lon="7.2878">
        <ele>618</ele>
        <time>2013-04-07T10:09:58.000Z</time>
      </trkpt>
      <trkpt lat="48.65828" lon="7.28778">
        <ele>618</ele>
        <time>2013-04-07T10:10:00.000Z</time>
      </trkpt>
      <trkpt lat="48.65826" lon="7.28774">
        <ele>619</ele>
        <time>2013-04-07T10:10:02.000Z</time>
      </trkpt>
      <trkpt lat="48.65821" lon="7.28769">
        <ele>619</ele>
        <time>2013-04-07T10:10:05.000Z</time>
      </trkpt>
      <trkpt lat="48.65817" lon="7.28758">
        <ele>620</ele>
        <time>2013-04-07T10:10:08.000Z</time>
      </trkpt>
      <trkpt lat="48.65813" lon="7.28761">
        <ele>619</ele>
        <time>2013-04-07T10:10:11.000Z</time>
      </trkpt>
      <trkpt lat="48.65828" lon="7.28758">
        <ele>622</ele>
        <time>2013-04-07T10:10:15.000Z</time>
      </trkpt>
      <trkpt lat="48.65807" lon="7.28748">
        <ele>626</ele>
        <time>2013-04-07T10:10:19.000Z</time>
      </trkpt>
      <trkpt lat="48.65803" lon="7.28742">
        <ele>627</ele>
        <time>2013-04-07T10:10:23.000Z</time>
      </trkpt>
      <trkpt lat="48.65799" lon="7.28739">
        <ele>626</ele>
        <time>2013-04-07T10:10:27.000Z</time>
      </trkpt>
      <trkpt lat="48.65797" lon="7.28736">
        <ele>626</ele>
        <time>2013-04-07T10:10:31.000Z</time>
      </trkpt>
      <trkpt lat="48.65792" lon="7.28731">
        <ele>626</ele>
        <time>2013-04-07T10:10:35.000Z</time>
      </trkpt>
      <trkpt lat="48.65787" lon="7.28726">
        <ele>626</ele>
        <time>2013-04-07T10:10:39.000Z</time>
      </trkpt>
      <trkpt lat="48.65785" lon="7.28723">
        <ele>627</ele>
        <time>2013-04-07T10:10:41.000Z</time>
      </trkpt>
      <trkpt lat="48.65779" lon="7.28719">
        <ele>627</ele>
        <time>2013-04-07T10:10:45.000Z</time>
      </trkpt>
      <trkpt lat="48.65776" lon="7.28717">
        <ele>627</ele>
        <time>2013-04-07T10:10:47.000Z</time>
      </trkpt>
      <trkpt lat="48.65768" lon="7.28716">
        <ele>626</ele>
        <time>2013-04-07T10:10:50.000Z</time>
      </trkpt>
      <trkpt lat="48.65765" lon="7.28706">
        <ele>628</ele>
        <time>2013-04-07T10:10:53.000Z</time>
      </trkpt>
      <trkpt lat="48.65764" lon="7.28709">
        <ele>627</ele>
        <time>2013-04-07T10:10:55.000Z</time>
      </trkpt>
      <trkpt lat="48.65762" lon="7.28699">
        <ele>628</ele>
        <time>2013-04-07T10:10:57.000Z</time>
      </trkpt>
      <trkpt lat="48.6576" lon="7.287">
        <ele>628</ele>
        <time>2013-04-07T10:10:59.000Z</time>
      </trkpt>
      <trkpt lat="48.65751" lon="7.28699">
        <ele>628</ele>
        <time>2013-04-07T10:11:05.000Z</time>
      </trkpt>
      <trkpt lat="48.65773" lon="7.28698">
        <ele>629</ele>
        <time>2013-04-07T10:11:09.000Z</time>
      </trkpt>
      <trkpt lat="48.65742" lon="7.28688">
        <ele>626</ele>
        <time>2013-04-07T10:11:13.000Z</time>
      </trkpt>
      <trkpt lat="48.65741" lon="7.28686">
        <ele>627</ele>
        <time>2013-04-07T10:11:15.000Z</time>
      </trkpt>
      <trkpt lat="48.65735" lon="7.28685">
        <ele>626</ele>
        <time>2013-04-07T10:11:19.000Z</time>
      </trkpt>
      <trkpt lat="48.6573" lon="7.28684">
        <ele>626</ele>
        <time>2013-04-07T10:11:22.000Z</time>
      </trkpt>
      <trkpt lat="48.65735" lon="7.28676">
        <ele>628</ele>
        <time>2013-04-07T10:11:24.000Z</time>
      </trkpt>
      <trkpt lat="48.6573" lon="7.28673">
        <ele>627</ele>
        <time>2013-04-07T10:11:26.000Z</time>
      </trkpt>
      <trkpt lat="48.65718" lon="7.2867">
        <ele>626</ele>
        <time>2013-04-07T10:11:29.000Z</time>
      </trkpt>
      <trkpt lat="48.65713" lon="7.28668">
        <ele>626</ele>
        <time>2013-04-07T10:11:32.000Z</time>
      </trkpt>
      <trkpt lat="48.65704" lon="7.28667">
        <ele>625</ele>
        <time>2013-04-07T10:11:36.000Z</time>
      </trkpt>
      <trkpt lat="48.657" lon="7.28664">
        <ele>634</ele>
        <time>2013-04-07T10:11:39.000Z</time>
      </trkpt>
      <trkpt lat="48.65696" lon="7.28658">
        <ele>634</ele>
        <time>2013-04-07T10:11:41.000Z</time>
      </trkpt>
      <trkpt lat="48.65692" lon="7.28658">
        <ele>634</ele>
        <time>2013-04-07T10:11:44.000Z</time>
      </trkpt>
      <trkpt lat="48.6569" lon="7.28657">
        <ele>634</ele>
        <time>2013-04-07T10:11:46.000Z</time>
      </trkpt>
      <trkpt lat="48.65681" lon="7.2866">
        <ele>633</ele>
        <time>2013-04-07T10:11:49.000Z</time>
      </trkpt>
      <trkpt lat="48.65681" lon="7.28654">
        <ele>633</ele>
        <time>2013-04-07T10:11:51.000Z</time>
      </trkpt>
      <trkpt lat="48.65676" lon="7.28651">
        <ele>633</ele>
        <time>2013-04-07T10:11:54.000Z</time>
      </trkpt>
      <trkpt lat="48.65668" lon="7.28652">
        <ele>632</ele>
        <time>2013-04-07T10:11:58.000Z</time>
      </trkpt>
      <trkpt lat="48.65663" lon="7.28645">
        <ele>633</ele>
        <time>2013-04-07T10:12:01.000Z</time>
      </trkpt>
      <trkpt lat="48.65685" lon="7.28659">
        <ele>633</ele>
        <time>2013-04-07T10:12:05.000Z</time>
      </trkpt>
      <trkpt lat="48.65649" lon="7.2864">
        <ele>634</ele>
        <time>2013-04-07T10:12:09.000Z</time>
      </trkpt>
      <trkpt lat="48.65641" lon="7.28641">
        <ele>635</ele>
        <time>2013-04-07T10:12:13.000Z</time>
      </trkpt>
      <trkpt lat="48.65635" lon="7.28641">
        <ele>635</ele>
        <time>2013-04-07T10:12:17.000Z</time>
      </trkpt>
      <trkpt lat="48.6563" lon="7.2864">
        <ele>635</ele>
        <time>2013-04-07T10:12:21.000Z</time>
      </trkpt>
      <trkpt lat="48.65629" lon="7.28632">
        <ele>635</ele>
        <time>2013-04-07T10:12:23.000Z</time>
      </trkpt>
      <trkpt lat="48.65623" lon="7.28631">
        <ele>636</ele>
        <time>2013-04-07T10:12:29.000Z</time>
      </trkpt>
      <trkpt lat="48.65616" lon="7.28626">
        <ele>636</ele>
        <time>2013-04-07T10:12:36.000Z</time>
      </trkpt>
      <trkpt lat="48.65612" lon="7.28629">
        <ele>636</ele>
        <time>2013-04-07T10:12:40.000Z</time>
      </trkpt>
      <trkpt lat="48.65606" lon="7.28612">
        <ele>637</ele>
        <time>2013-04-07T10:12:43.000Z</time>
      </trkpt>
      <trkpt lat="48.65602" lon="7.28612">
        <ele>637</ele>
        <time>2013-04-07T10:12:46.000Z</time>
      </trkpt>
      <trkpt lat="48.65606" lon="7.28623">
        <ele>636</ele>
        <time>2013-04-07T10:12:49.000Z</time>
      </trkpt>
      <trkpt lat="48.65592" lon="7.28603">
        <ele>638</ele>
        <time>2013-04-07T10:12:53.000Z</time>
      </trkpt>
      <trkpt lat="48.65588" lon="7.28596">
        <ele>639</ele>
        <time>2013-04-07T10:12:55.000Z</time>
      </trkpt>
      <trkpt lat="48.65583" lon="7.28598">
        <ele>641</ele>
        <time>2013-04-07T10:12:59.000Z</time>
      </trkpt>
      <trkpt lat="48.65582" lon="7.28596">
        <ele>641</ele>
        <time>2013-04-07T10:13:01.000Z</time>
      </trkpt>
      <trkpt lat="48.65577" lon="7.28594">
        <ele>641</ele>
        <time>2013-04-07T10:13:07.000Z</time>
      </trkpt>
      <trkpt lat="48.65569" lon="7.2859">
        <ele>641</ele>
        <time>2013-04-07T10:13:13.000Z</time>
      </trkpt>
      <trkpt lat="48.65565" lon="7.28584">
        <ele>641</ele>
        <time>2013-04-07T10:13:17.000Z</time>
      </trkpt>
      <trkpt lat="48.65563" lon="7.28585">
        <ele>641</ele>
        <time>2013-04-07T10:13:24.000Z</time>
      </trkpt>
      <trkpt lat="48.65563" lon="7.28585">
        <ele>641</ele>
        <time>2013-04-07T10:13:44.000Z</time>
      </trkpt>
      <trkpt lat="48.65575" lon="7.28587">
        <ele>641</ele>
        <time>2013-04-07T10:14:28.000Z</time>
      </trkpt>
      <trkpt lat="48.65562" lon="7.28586">
        <ele>641</ele>
        <time>2013-04-07T10:14:39.000Z</time>
      </trkpt>
      <trkpt lat="48.65554" lon="7.28581">
        <ele>640</ele>
        <time>2013-04-07T10:14:45.000Z</time>
      </trkpt>
      <trkpt lat="48.65556" lon="7.28587">
        <ele>641</ele>
        <time>2013-04-07T10:15:01.000Z</time>
      </trkpt>
      <trkpt lat="48.65556" lon="7.28587">
        <ele>641</ele>
        <time>2013-04-07T10:15:21.000Z</time>
      </trkpt>
      <trkpt lat="48.65549" lon="7.28588">
        <ele>642</ele>
        <time>2013-04-07T10:16:41.000Z</time>
      </trkpt>
      <trkpt lat="48.65549" lon="7.28582">
        <ele>640</ele>
        <time>2013-04-07T10:16:58.000Z</time>
      </trkpt>
      <trkpt lat="48.65549" lon="7.28582">
        <ele>640</ele>
        <time>2013-04-07T10:17:18.000Z</time>
      </trkpt>
      <trkpt lat="48.65547" lon="7.28578">
        <ele>640</ele>
        <time>2013-04-07T10:17:30.000Z</time>
      </trkpt>
      <trkpt lat="48.65546" lon="7.28578">
        <ele>640</ele>
        <time>2013-04-07T10:17:37.000Z</time>
      </trkpt>
      <trkpt lat="48.65542" lon="7.28575">
        <ele>640</ele>
        <time>2013-04-07T10:17:43.000Z</time>
      </trkpt>
      <trkpt lat="48.65549" lon="7.2858">
        <ele>640</ele>
        <time>2013-04-07T10:17:46.000Z</time>
      </trkpt>
      <trkpt lat="48.65537" lon="7.28575">
        <ele>641</ele>
        <time>2013-04-07T10:17:49.000Z</time>
      </trkpt>
      <trkpt lat="48.65536" lon="7.28572">
        <ele>640</ele>
        <time>2013-04-07T10:18:01.000Z</time>
      </trkpt>
      <trkpt lat="48.65536" lon="7.28572">
        <ele>640</ele>
        <time>2013-04-07T10:18:21.000Z</time>
      </trkpt>
      <trkpt lat="48.65555" lon="7.28575">
        <ele>640</ele>
        <time>2013-04-07T10:18:46.000Z</time>
      </trkpt>
      <trkpt lat="48.65555" lon="7.28575">
        <ele>640</ele>
        <time>2013-04-07T10:19:06.000Z</time>
      </trkpt>
      <trkpt lat="48.65533" lon="7.28574">
        <ele>641</ele>
        <time>2013-04-07T10:19:09.000Z</time>
      </trkpt>
      <trkpt lat="48.65533" lon="7.28574">
        <ele>641</ele>
        <time>2013-04-07T10:19:29.000Z</time>
      </trkpt>
      <trkpt lat="48.65541" lon="7.28572">
        <ele>640</ele>
        <time>2013-04-07T10:20:57.000Z</time>
      </trkpt>
      <trkpt lat="48.65541" lon="7.28572">
        <ele>640</ele>
        <time>2013-04-07T10:21:17.000Z</time>
      </trkpt>
      <trkpt lat="48.65532" lon="7.28566">
        <ele>640</ele>
        <time>2013-04-07T10:21:46.000Z</time>
      </trkpt>
      <trkpt lat="48.65532" lon="7.28566">
        <ele>640</ele>
        <time>2013-04-07T10:22:06.000Z</time>
      </trkpt>
      <trkpt lat="48.65532" lon="7.28569">
        <ele>640</ele>
        <time>2013-04-07T10:25:09.000Z</time>
      </trkpt>
      <trkpt lat="48.65532" lon="7.28569">
        <ele>640</ele>
        <time>2013-04-07T10:25:29.000Z</time>
      </trkpt>
      <trkpt lat="48.65533" lon="7.28571">
        <ele>641</ele>
        <time>2013-04-07T10:26:16.000Z</time>
      </trkpt>
      <trkpt lat="48.65533" lon="7.28571">
        <ele>641</ele>
        <time>2013-04-07T10:26:36.000Z</time>
      </trkpt>
      <trkpt lat="48.65534" lon="7.28571">
        <ele>641</ele>
        <time>2013-04-07T10:26:44.000Z</time>
      </trkpt>
      <trkpt lat="48.65534" lon="7.28571">
        <ele>641</ele>
        <time>2013-04-07T10:27:04.000Z</time>
      </trkpt>
      <trkpt lat="48.65537" lon="7.28578">
        <ele>641</ele>
        <time>2013-04-07T10:27:10.000Z</time>
      </trkpt>
      <trkpt lat="48.6556" lon="7.28532">
        <ele>638</ele>
        <time>2013-04-07T10:27:16.000Z</time>
      </trkpt>
      <trkpt lat="48.6557" lon="7.28522">
        <ele>638</ele>
        <time>2013-04-07T10:27:18.000Z</time>
      </trkpt>
      <trkpt lat="48.65589" lon="7.28498">
        <ele>635</ele>
        <time>2013-04-07T10:27:21.000Z</time>
      </trkpt>
      <trkpt lat="48.65583" lon="7.28501">
        <ele>636</ele>
        <time>2013-04-07T10:27:23.000Z</time>
      </trkpt>
      <trkpt lat="48.65582" lon="7.28475">
        <ele>631</ele>
        <time>2013-04-07T10:27:27.000Z</time>
      </trkpt>
      <trkpt lat="48.65639" lon="7.2845">
        <ele>632</ele>
        <time>2013-04-07T10:27:33.000Z</time>
      </trkpt>
      <trkpt lat="48.65646" lon="7.28441">
        <ele>631</ele>
        <time>2013-04-07T10:27:35.000Z</time>
      </trkpt>
      <trkpt lat="48.65657" lon="7.28425">
        <ele>630</ele>
        <time>2013-04-07T10:27:38.000Z</time>
      </trkpt>
      <trkpt lat="48.65666" lon="7.28406">
        <ele>625</ele>
        <time>2013-04-07T10:27:41.000Z</time>
      </trkpt>
      <trkpt lat="48.65674" lon="7.2838">
        <ele>623</ele>
        <time>2013-04-07T10:27:44.000Z</time>
      </trkpt>
      <trkpt lat="48.6568" lon="7.28381">
        <ele>623</ele>
        <time>2013-04-07T10:27:46.000Z</time>
      </trkpt>
      <trkpt lat="48.65688" lon="7.28372">
        <ele>622</ele>
        <time>2013-04-07T10:27:48.000Z</time>
      </trkpt>
      <trkpt lat="48.65698" lon="7.28367">
        <ele>622</ele>
        <time>2013-04-07T10:27:50.000Z</time>
      </trkpt>
      <trkpt lat="48.65711" lon="7.28359">
        <ele>621</ele>
        <time>2013-04-07T10:27:52.000Z</time>
      </trkpt>
      <trkpt lat="48.65719" lon="7.28344">
        <ele>620</ele>
        <time>2013-04-07T10:27:55.000Z</time>
      </trkpt>
      <trkpt lat="48.65733" lon="7.28345">
        <ele>620</ele>
        <time>2013-04-07T10:27:57.000Z</time>
      </trkpt>
      <trkpt lat="48.65745" lon="7.28327">
        <ele>614</ele>
        <time>2013-04-07T10:27:59.000Z</time>
      </trkpt>
      <trkpt lat="48.6576" lon="7.28315">
        <ele>613</ele>
        <time>2013-04-07T10:28:02.000Z</time>
      </trkpt>
      <trkpt lat="48.65758" lon="7.2831">
        <ele>612</ele>
        <time>2013-04-07T10:28:04.000Z</time>
      </trkpt>
      <trkpt lat="48.65764" lon="7.28294">
        <ele>610</ele>
        <time>2013-04-07T10:28:07.000Z</time>
      </trkpt>
      <trkpt lat="48.65774" lon="7.28281">
        <ele>609</ele>
        <time>2013-04-07T10:28:09.000Z</time>
      </trkpt>
      <trkpt lat="48.658" lon="7.28254">
        <ele>608</ele>
        <time>2013-04-07T10:28:13.000Z</time>
      </trkpt>
      <trkpt lat="48.65813" lon="7.28247">
        <ele>601</ele>
        <time>2013-04-07T10:28:15.000Z</time>
      </trkpt>
      <trkpt lat="48.65842" lon="7.28215">
        <ele>598</ele>
        <time>2013-04-07T10:28:19.000Z</time>
      </trkpt>
      <trkpt lat="48.65864" lon="7.282">
        <ele>596</ele>
        <time>2013-04-07T10:28:22.000Z</time>
      </trkpt>
      <trkpt lat="48.65879" lon="7.2819">
        <ele>595</ele>
        <time>2013-04-07T10:28:26.000Z</time>
      </trkpt>
      <trkpt lat="48.65893" lon="7.28173">
        <ele>593</ele>
        <time>2013-04-07T10:28:29.000Z</time>
      </trkpt>
      <trkpt lat="48.65899" lon="7.28152">
        <ele>586</ele>
        <time>2013-04-07T10:28:32.000Z</time>
      </trkpt>
      <trkpt lat="48.65938" lon="7.28157">
        <ele>583</ele>
        <time>2013-04-07T10:28:36.000Z</time>
      </trkpt>
      <trkpt lat="48.65956" lon="7.28152">
        <ele>581</ele>
        <time>2013-04-07T10:28:38.000Z</time>
      </trkpt>
      <trkpt lat="48.65971" lon="7.28145">
        <ele>580</ele>
        <time>2013-04-07T10:28:40.000Z</time>
      </trkpt>
      <trkpt lat="48.65977" lon="7.28158">
        <ele>580</ele>
        <time>2013-04-07T10:28:42.000Z</time>
      </trkpt>
      <trkpt lat="48.65977" lon="7.28156">
        <ele>580</ele>
        <time>2013-04-07T10:28:44.000Z</time>
      </trkpt>
      <trkpt lat="48.65987" lon="7.28156">
        <ele>580</ele>
        <time>2013-04-07T10:28:48.000Z</time>
      </trkpt>
      <trkpt lat="48.65996" lon="7.28156">
        <ele>580</ele>
        <time>2013-04-07T10:28:50.000Z</time>
      </trkpt>
      <trkpt lat="48.66007" lon="7.28148">
        <ele>575</ele>
        <time>2013-04-07T10:28:53.000Z</time>
      </trkpt>
      <trkpt lat="48.66012" lon="7.28149">
        <ele>575</ele>
        <time>2013-04-07T10:28:55.000Z</time>
      </trkpt>
      <trkpt lat="48.66018" lon="7.28146">
        <ele>574</ele>
        <time>2013-04-07T10:28:57.000Z</time>
      </trkpt>
      <trkpt lat="48.66018" lon="7.28142">
        <ele>573</ele>
        <time>2013-04-07T10:28:59.000Z</time>
      </trkpt>
      <trkpt lat="48.66019" lon="7.28125">
        <ele>572</ele>
        <time>2013-04-07T10:29:02.000Z</time>
      </trkpt>
      <trkpt lat="48.66019" lon="7.28104">
        <ele>570</ele>
        <time>2013-04-07T10:29:05.000Z</time>
      </trkpt>
      <trkpt lat="48.66018" lon="7.28104">
        <ele>570</ele>
        <time>2013-04-07T10:29:07.000Z</time>
      </trkpt>
      <trkpt lat="48.66026" lon="7.28099">
        <ele>570</ele>
        <time>2013-04-07T10:29:10.000Z</time>
      </trkpt>
      <trkpt lat="48.66012" lon="7.28066">
        <ele>563</ele>
        <time>2013-04-07T10:29:14.000Z</time>
      </trkpt>
      <trkpt lat="48.66014" lon="7.28022">
        <ele>557</ele>
        <time>2013-04-07T10:29:17.000Z</time>
      </trkpt>
      <trkpt lat="48.6601" lon="7.28018">
        <ele>557</ele>
        <time>2013-04-07T10:29:19.000Z</time>
      </trkpt>
      <trkpt lat="48.66" lon="7.28009">
        <ele>558</ele>
        <time>2013-04-07T10:29:22.000Z</time>
      </trkpt>
      <trkpt lat="48.65991" lon="7.27997">
        <ele>554</ele>
        <time>2013-04-07T10:29:24.000Z</time>
      </trkpt>
      <trkpt lat="48.65986" lon="7.27986">
        <ele>553</ele>
        <time>2013-04-07T10:29:26.000Z</time>
      </trkpt>
      <trkpt lat="48.65981" lon="7.2797">
        <ele>552</ele>
        <time>2013-04-07T10:29:28.000Z</time>
      </trkpt>
      <trkpt lat="48.65974" lon="7.27933">
        <ele>549</ele>
        <time>2013-04-07T10:29:31.000Z</time>
      </trkpt>
      <trkpt lat="48.65967" lon="7.27912">
        <ele>540</ele>
        <time>2013-04-07T10:29:34.000Z</time>
      </trkpt>
      <trkpt lat="48.65924" lon="7.27825">
        <ele>531</ele>
        <time>2013-04-07T10:29:40.000Z</time>
      </trkpt>
      <trkpt lat="48.65914" lon="7.27796">
        <ele>529</ele>
        <time>2013-04-07T10:29:42.000Z</time>
      </trkpt>
      <trkpt lat="48.65902" lon="7.27775">
        <ele>527</ele>
        <time>2013-04-07T10:29:45.000Z</time>
      </trkpt>
      <trkpt lat="48.65891" lon="7.27763">
        <ele>527</ele>
        <time>2013-04-07T10:29:48.000Z</time>
      </trkpt>
      <trkpt lat="48.65886" lon="7.27742">
        <ele>521</ele>
        <time>2013-04-07T10:29:51.000Z</time>
      </trkpt>
      <trkpt lat="48.65873" lon="7.27701">
        <ele>519</ele>
        <time>2013-04-07T10:29:55.000Z</time>
      </trkpt>
      <trkpt lat="48.65868" lon="7.27671">
        <ele>517</ele>
        <time>2013-04-07T10:29:58.000Z</time>
      </trkpt>
      <trkpt lat="48.6587" lon="7.2766">
        <ele>511</ele>
        <time>2013-04-07T10:30:00.000Z</time>
      </trkpt>
      <trkpt lat="48.65875" lon="7.27636">
        <ele>510</ele>
        <time>2013-04-07T10:30:03.000Z</time>
      </trkpt>
      <trkpt lat="48.6589" lon="7.27609">
        <ele>509</ele>
        <time>2013-04-07T10:30:06.000Z</time>
      </trkpt>
      <trkpt lat="48.65893" lon="7.27596">
        <ele>509</ele>
        <time>2013-04-07T10:30:09.000Z</time>
      </trkpt>
      <trkpt lat="48.65902" lon="7.27594">
        <ele>509</ele>
        <time>2013-04-07T10:30:11.000Z</time>
      </trkpt>
      <trkpt lat="48.65912" lon="7.27564">
        <ele>502</ele>
        <time>2013-04-07T10:30:14.000Z</time>
      </trkpt>
      <trkpt lat="48.65927" lon="7.27536">
        <ele>500</ele>
        <time>2013-04-07T10:30:17.000Z</time>
      </trkpt>
      <trkpt lat="48.65938" lon="7.2752">
        <ele>498</ele>
        <time>2013-04-07T10:30:20.000Z</time>
      </trkpt>
      <trkpt lat="48.65944" lon="7.27506">
        <ele>497</ele>
        <time>2013-04-07T10:30:23.000Z</time>
      </trkpt>
      <trkpt lat="48.65924" lon="7.27487">
        <ele>488</ele>
        <time>2013-04-07T10:30:26.000Z</time>
      </trkpt>
      <trkpt lat="48.65902" lon="7.27483">
        <ele>484</ele>
        <time>2013-04-07T10:30:29.000Z</time>
      </trkpt>
      <trkpt lat="48.65881" lon="7.2748">
        <ele>481</ele>
        <time>2013-04-07T10:30:31.000Z</time>
      </trkpt>
      <trkpt lat="48.65872" lon="7.27477">
        <ele>480</ele>
        <time>2013-04-07T10:30:33.000Z</time>
      </trkpt>
      <trkpt lat="48.65844" lon="7.27468">
        <ele>479</ele>
        <time>2013-04-07T10:30:37.000Z</time>
      </trkpt>
      <trkpt lat="48.65829" lon="7.27467">
        <ele>474</ele>
        <time>2013-04-07T10:30:39.000Z</time>
      </trkpt>
      <trkpt lat="48.65816" lon="7.27456">
        <ele>472</ele>
        <time>2013-04-07T10:30:42.000Z</time>
      </trkpt>
      <trkpt lat="48.65796" lon="7.27452">
        <ele>471</ele>
        <time>2013-04-07T10:30:45.000Z</time>
      </trkpt>
      <trkpt lat="48.65784" lon="7.27456">
        <ele>471</ele>
        <time>2013-04-07T10:30:47.000Z</time>
      </trkpt>
      <trkpt lat="48.65777" lon="7.27452">
        <ele>471</ele>
        <time>2013-04-07T10:30:50.000Z</time>
      </trkpt>
      <trkpt lat="48.65769" lon="7.27469">
        <ele>471</ele>
        <time>2013-04-07T10:30:53.000Z</time>
      </trkpt>
      <trkpt lat="48.6576" lon="7.27493">
        <ele>470</ele>
        <time>2013-04-07T10:30:56.000Z</time>
      </trkpt>
      <trkpt lat="48.65755" lon="7.2751">
        <ele>474</ele>
        <time>2013-04-07T10:30:59.000Z</time>
      </trkpt>
      <trkpt lat="48.65747" lon="7.2754">
        <ele>477</ele>
        <time>2013-04-07T10:31:02.000Z</time>
      </trkpt>
      <trkpt lat="48.65732" lon="7.27551">
        <ele>478</ele>
        <time>2013-04-07T10:31:04.000Z</time>
      </trkpt>
      <trkpt lat="48.6573" lon="7.27561">
        <ele>479</ele>
        <time>2013-04-07T10:31:11.000Z</time>
      </trkpt>
      <trkpt lat="48.65728" lon="7.27561">
        <ele>479</ele>
        <time>2013-04-07T10:31:16.000Z</time>
      </trkpt>
      <trkpt lat="48.65726" lon="7.27562">
        <ele>479</ele>
        <time>2013-04-07T10:31:25.000Z</time>
      </trkpt>
      <trkpt lat="48.65742" lon="7.27561">
        <ele>479</ele>
        <time>2013-04-07T10:31:30.000Z</time>
      </trkpt>
      <trkpt lat="48.65722" lon="7.27562">
        <ele>479</ele>
        <time>2013-04-07T10:31:34.000Z</time>
      </trkpt>
      <trkpt lat="48.6573" lon="7.27557">
        <ele>479</ele>
        <time>2013-04-07T10:31:38.000Z</time>
      </trkpt>
      <trkpt lat="48.6573" lon="7.27557">
        <ele>479</ele>
        <time>2013-04-07T10:31:58.000Z</time>
      </trkpt>
      <trkpt lat="48.65722" lon="7.27553">
        <ele>478</ele>
        <time>2013-04-07T10:32:12.000Z</time>
      </trkpt>
      <trkpt lat="48.65722" lon="7.27553">
        <ele>478</ele>
        <time>2013-04-07T10:32:32.000Z</time>
      </trkpt>
      <trkpt lat="48.65723" lon="7.27557">
        <ele>478</ele>
        <time>2013-04-07T10:32:53.000Z</time>
      </trkpt>
      <trkpt lat="48.65723" lon="7.27557">
        <ele>478</ele>
        <time>2013-04-07T10:33:13.000Z</time>
      </trkpt>
      <trkpt lat="48.65725" lon="7.2756">
        <ele>479</ele>
        <time>2013-04-07T10:33:28.000Z</time>
      </trkpt>
      <trkpt lat="48.65724" lon="7.27557">
        <ele>478</ele>
        <time>2013-04-07T10:33:35.000Z</time>
      </trkpt>
      <trkpt lat="48.65733" lon="7.27557">
        <ele>479</ele>
        <time>2013-04-07T10:33:39.000Z</time>
      </trkpt>
      <trkpt lat="48.6572" lon="7.27558">
        <ele>479</ele>
        <time>2013-04-07T10:33:56.000Z</time>
      </trkpt>
      <trkpt lat="48.65725" lon="7.27556">
        <ele>478</ele>
        <time>2013-04-07T10:34:02.000Z</time>
      </trkpt>
      <trkpt lat="48.65725" lon="7.27556">
        <ele>478</ele>
        <time>2013-04-07T10:34:22.000Z</time>
      </trkpt>
      <trkpt lat="48.65719" lon="7.27563">
        <ele>479</ele>
        <time>2013-04-07T10:34:39.000Z</time>
      </trkpt>
      <trkpt lat="48.65718" lon="7.27558">
        <ele>479</ele>
        <time>2013-04-07T10:34:50.000Z</time>
      </trkpt>
      <trkpt lat="48.65719" lon="7.27556">
        <ele>478</ele>
        <time>2013-04-07T10:34:53.000Z</time>
      </trkpt>
      <trkpt lat="48.65711" lon="7.27557">
        <ele>478</ele>
        <time>2013-04-07T10:34:56.000Z</time>
      </trkpt>
      <trkpt lat="48.6572" lon="7.27552">
        <ele>478</ele>
        <time>2013-04-07T10:34:59.000Z</time>
      </trkpt>
      <trkpt lat="48.65717" lon="7.27548">
        <ele>478</ele>
        <time>2013-04-07T10:35:02.000Z</time>
      </trkpt>
      <trkpt lat="48.65719" lon="7.27548">
        <ele>478</ele>
        <time>2013-04-07T10:35:05.000Z</time>
      </trkpt>
      <trkpt lat="48.65721" lon="7.2754">
        <ele>478</ele>
        <time>2013-04-07T10:35:10.000Z</time>
      </trkpt>
      <trkpt lat="48.65716" lon="7.27538">
        <ele>478</ele>
        <time>2013-04-07T10:35:13.000Z</time>
      </trkpt>
      <trkpt lat="48.65718" lon="7.27538">
        <ele>478</ele>
        <time>2013-04-07T10:35:16.000Z</time>
      </trkpt>
      <trkpt lat="48.65718" lon="7.27532">
        <ele>478</ele>
        <time>2013-04-07T10:35:19.000Z</time>
      </trkpt>
      <trkpt lat="48.65718" lon="7.27528">
        <ele>477</ele>
        <time>2013-04-07T10:35:22.000Z</time>
      </trkpt>
      <trkpt lat="48.65727" lon="7.27532">
        <ele>477</ele>
        <time>2013-04-07T10:35:25.000Z</time>
      </trkpt>
      <trkpt lat="48.65718" lon="7.27525">
        <ele>477</ele>
        <time>2013-04-07T10:35:29.000Z</time>
      </trkpt>
      <trkpt lat="48.65717" lon="7.27519">
        <ele>477</ele>
        <time>2013-04-07T10:35:33.000Z</time>
      </trkpt>
      <trkpt lat="48.65715" lon="7.27518">
        <ele>477</ele>
        <time>2013-04-07T10:35:40.000Z</time>
      </trkpt>
      <trkpt lat="48.65714" lon="7.27513">
        <ele>477</ele>
        <time>2013-04-07T10:35:44.000Z</time>
      </trkpt>
      <trkpt lat="48.65714" lon="7.27511">
        <ele>477</ele>
        <time>2013-04-07T10:35:49.000Z</time>
      </trkpt>
      <trkpt lat="48.65714" lon="7.27507">
        <ele>477</ele>
        <time>2013-04-07T10:35:52.000Z</time>
      </trkpt>
      <trkpt lat="48.65713" lon="7.27504">
        <ele>477</ele>
        <time>2013-04-07T10:35:54.000Z</time>
      </trkpt>
      <trkpt lat="48.65712" lon="7.27502">
        <ele>477</ele>
        <time>2013-04-07T10:35:57.000Z</time>
      </trkpt>
      <trkpt lat="48.65712" lon="7.27498">
        <ele>478</ele>
        <time>2013-04-07T10:36:00.000Z</time>
      </trkpt>
      <trkpt lat="48.65711" lon="7.27496">
        <ele>478</ele>
        <time>2013-04-07T10:36:03.000Z</time>
      </trkpt>
      <trkpt lat="48.65708" lon="7.27492">
        <ele>479</ele>
        <time>2013-04-07T10:36:07.000Z</time>
      </trkpt>
      <trkpt lat="48.65701" lon="7.27488">
        <ele>480</ele>
        <time>2013-04-07T10:36:10.000Z</time>
      </trkpt>
      <trkpt lat="48.65704" lon="7.27488">
        <ele>479</ele>
        <time>2013-04-07T10:36:13.000Z</time>
      </trkpt>
      <trkpt lat="48.65702" lon="7.27482">
        <ele>480</ele>
        <time>2013-04-07T10:36:16.000Z</time>
      </trkpt>
      <trkpt lat="48.65704" lon="7.27475">
        <ele>480</ele>
        <time>2013-04-07T10:36:19.000Z</time>
      </trkpt>
      <trkpt lat="48.65702" lon="7.27479">
        <ele>480</ele>
        <time>2013-04-07T10:36:22.000Z</time>
      </trkpt>
      <trkpt lat="48.657" lon="7.27474">
        <ele>480</ele>
        <time>2013-04-07T10:36:25.000Z</time>
      </trkpt>
      <trkpt lat="48.65699" lon="7.27469">
        <ele>480</ele>
        <time>2013-04-07T10:36:28.000Z</time>
      </trkpt>
      <trkpt lat="48.65699" lon="7.27463">
        <ele>481</ele>
        <time>2013-04-07T10:36:33.000Z</time>
      </trkpt>
      <trkpt lat="48.65697" lon="7.2746">
        <ele>481</ele>
        <time>2013-04-07T10:36:37.000Z</time>
      </trkpt>
      <trkpt lat="48.65696" lon="7.27457">
        <ele>481</ele>
        <time>2013-04-07T10:36:40.000Z</time>
      </trkpt>
      <trkpt lat="48.65688" lon="7.27456">
        <ele>482</ele>
        <time>2013-04-07T10:36:43.000Z</time>
      </trkpt>
      <trkpt lat="48.65692" lon="7.27447">
        <ele>483</ele>
        <time>2013-04-07T10:36:46.000Z</time>
      </trkpt>
      <trkpt lat="48.6569" lon="7.2745">
        <ele>483</ele>
        <time>2013-04-07T10:36:49.000Z</time>
      </trkpt>
      <trkpt lat="48.65687" lon="7.27449">
        <ele>483</ele>
        <time>2013-04-07T10:36:52.000Z</time>
      </trkpt>
      <trkpt lat="48.65686" lon="7.27446">
        <ele>484</ele>
        <time>2013-04-07T10:36:56.000Z</time>
      </trkpt>
      <trkpt lat="48.65686" lon="7.27443">
        <ele>484</ele>
        <time>2013-04-07T10:37:00.000Z</time>
      </trkpt>
      <trkpt lat="48.65685" lon="7.27441">
        <ele>485</ele>
        <time>2013-04-07T10:37:03.000Z</time>
      </trkpt>
      <trkpt lat="48.65685" lon="7.27439">
        <ele>485</ele>
        <time>2013-04-07T10:37:06.000Z</time>
      </trkpt>
      <trkpt lat="48.65685" lon="7.27436">
        <ele>486</ele>
        <time>2013-04-07T10:37:11.000Z</time>
      </trkpt>
      <trkpt lat="48.65684" lon="7.27433">
        <ele>486</ele>
        <time>2013-04-07T10:37:14.000Z</time>
      </trkpt>
      <trkpt lat="48.65683" lon="7.2743">
        <ele>487</ele>
        <time>2013-04-07T10:37:16.000Z</time>
      </trkpt>
      <trkpt lat="48.65683" lon="7.27427">
        <ele>488</ele>
        <time>2013-04-07T10:37:19.000Z</time>
      </trkpt>
      <trkpt lat="48.65682" lon="7.27423">
        <ele>488</ele>
        <time>2013-04-07T10:37:23.000Z</time>
      </trkpt>
      <trkpt lat="48.65681" lon="7.27417">
        <ele>490</ele>
        <time>2013-04-07T10:37:28.000Z</time>
      </trkpt>
      <trkpt lat="48.65681" lon="7.27414">
        <ele>491</ele>
        <time>2013-04-07T10:37:31.000Z</time>
      </trkpt>
      <trkpt lat="48.6568" lon="7.27401">
        <ele>490</ele>
        <time>2013-04-07T10:37:37.000Z</time>
      </trkpt>
      <trkpt lat="48.65678" lon="7.27405">
        <ele>491</ele>
        <time>2013-04-07T10:37:41.000Z</time>
      </trkpt>
      <trkpt lat="48.65677" lon="7.27402">
        <ele>491</ele>
        <time>2013-04-07T10:37:45.000Z</time>
      </trkpt>
      <trkpt lat="48.65676" lon="7.27398">
        <ele>490</ele>
        <time>2013-04-07T10:37:48.000Z</time>
      </trkpt>
      <trkpt lat="48.65683" lon="7.27397">
        <ele>489</ele>
        <time>2013-04-07T10:37:51.000Z</time>
      </trkpt>
      <trkpt lat="48.65673" lon="7.27395">
        <ele>490</ele>
        <time>2013-04-07T10:37:54.000Z</time>
      </trkpt>
      <trkpt lat="48.65674" lon="7.27386">
        <ele>489</ele>
        <time>2013-04-07T10:38:05.000Z</time>
      </trkpt>
      <trkpt lat="48.65674" lon="7.27384">
        <ele>489</ele>
        <time>2013-04-07T10:38:08.000Z</time>
      </trkpt>
      <trkpt lat="48.65674" lon="7.27381">
        <ele>489</ele>
        <time>2013-04-07T10:38:11.000Z</time>
      </trkpt>
      <trkpt lat="48.65675" lon="7.27378">
        <ele>489</ele>
        <time>2013-04-07T10:38:14.000Z</time>
      </trkpt>
      <trkpt lat="48.65675" lon="7.27375">
        <ele>489</ele>
        <time>2013-04-07T10:38:17.000Z</time>
      </trkpt>
      <trkpt lat="48.65674" lon="7.27372">
        <ele>489</ele>
        <time>2013-04-07T10:38:20.000Z</time>
      </trkpt>
      <trkpt lat="48.65669" lon="7.2737">
        <ele>489</ele>
        <time>2013-04-07T10:38:31.000Z</time>
      </trkpt>
      <trkpt lat="48.65668" lon="7.27366">
        <ele>490</ele>
        <time>2013-04-07T10:38:34.000Z</time>
      </trkpt>
      <trkpt lat="48.65667" lon="7.27364">
        <ele>490</ele>
        <time>2013-04-07T10:38:38.000Z</time>
      </trkpt>
      <trkpt lat="48.65666" lon="7.27362">
        <ele>506</ele>
        <time>2013-04-07T10:38:41.000Z</time>
      </trkpt>
      <trkpt lat="48.65664" lon="7.2736">
        <ele>505</ele>
        <time>2013-04-07T10:38:45.000Z</time>
      </trkpt>
      <trkpt lat="48.65659" lon="7.27356">
        <ele>505</ele>
        <time>2013-04-07T10:38:49.000Z</time>
      </trkpt>
      <trkpt lat="48.65662" lon="7.27349">
        <ele>504</ele>
        <time>2013-04-07T10:38:52.000Z</time>
      </trkpt>
      <trkpt lat="48.65662" lon="7.27353">
        <ele>505</ele>
        <time>2013-04-07T10:38:57.000Z</time>
      </trkpt>
      <trkpt lat="48.6566" lon="7.27342">
        <ele>503</ele>
        <time>2013-04-07T10:39:01.000Z</time>
      </trkpt>
      <trkpt lat="48.65659" lon="7.27347">
        <ele>504</ele>
        <time>2013-04-07T10:39:08.000Z</time>
      </trkpt>
      <trkpt lat="48.65656" lon="7.27343">
        <ele>504</ele>
        <time>2013-04-07T10:39:12.000Z</time>
      </trkpt>
      <trkpt lat="48.65652" lon="7.27339">
        <ele>505</ele>
        <time>2013-04-07T10:39:15.000Z</time>
      </trkpt>
      <trkpt lat="48.65653" lon="7.27333">
        <ele>504</ele>
        <time>2013-04-07T10:39:22.000Z</time>
      </trkpt>
      <trkpt lat="48.65649" lon="7.2734">
        <ele>505</ele>
        <time>2013-04-07T10:39:25.000Z</time>
      </trkpt>
      <trkpt lat="48.65648" lon="7.27329">
        <ele>506</ele>
        <time>2013-04-07T10:39:30.000Z</time>
      </trkpt>
      <trkpt lat="48.65647" lon="7.27327">
        <ele>506</ele>
        <time>2013-04-07T10:39:33.000Z</time>
      </trkpt>
      <trkpt lat="48.65646" lon="7.27325">
        <ele>506</ele>
        <time>2013-04-07T10:39:41.000Z</time>
      </trkpt>
      <trkpt lat="48.65652" lon="7.27327">
        <ele>505</ele>
        <time>2013-04-07T10:39:47.000Z</time>
      </trkpt>
      <trkpt lat="48.65639" lon="7.27315">
        <ele>508</ele>
        <time>2013-04-07T10:39:54.000Z</time>
      </trkpt>
      <trkpt lat="48.65648" lon="7.27319">
        <ele>506</ele>
        <time>2013-04-07T10:39:58.000Z</time>
      </trkpt>
      <trkpt lat="48.65634" lon="7.27312">
        <ele>509</ele>
        <time>2013-04-07T10:40:04.000Z</time>
      </trkpt>
      <trkpt lat="48.65633" lon="7.27309">
        <ele>509</ele>
        <time>2013-04-07T10:40:07.000Z</time>
      </trkpt>
      <trkpt lat="48.65633" lon="7.27307">
        <ele>509</ele>
        <time>2013-04-07T10:40:11.000Z</time>
      </trkpt>
      <trkpt lat="48.65628" lon="7.27297">
        <ele>510</ele>
        <time>2013-04-07T10:40:16.000Z</time>
      </trkpt>
      <trkpt lat="48.65626" lon="7.27299">
        <ele>510</ele>
        <time>2013-04-07T10:40:22.000Z</time>
      </trkpt>
      <trkpt lat="48.65634" lon="7.27302">
        <ele>509</ele>
        <time>2013-04-07T10:40:25.000Z</time>
      </trkpt>
      <trkpt lat="48.65621" lon="7.27294">
        <ele>511</ele>
        <time>2013-04-07T10:40:32.000Z</time>
      </trkpt>
      <trkpt lat="48.65619" lon="7.27292">
        <ele>511</ele>
        <time>2013-04-07T10:40:36.000Z</time>
      </trkpt>
      <trkpt lat="48.65631" lon="7.273">
        <ele>510</ele>
        <time>2013-04-07T10:40:40.000Z</time>
      </trkpt>
      <trkpt lat="48.65614" lon="7.27292">
        <ele>511</ele>
        <time>2013-04-07T10:40:44.000Z</time>
      </trkpt>
      <trkpt lat="48.65614" lon="7.27287">
        <ele>511</ele>
        <time>2013-04-07T10:40:47.000Z</time>
      </trkpt>
      <trkpt lat="48.65611" lon="7.2728">
        <ele>512</ele>
        <time>2013-04-07T10:40:50.000Z</time>
      </trkpt>
      <trkpt lat="48.65609" lon="7.27287">
        <ele>512</ele>
        <time>2013-04-07T10:40:53.000Z</time>
      </trkpt>
      <trkpt lat="48.65605" lon="7.27286">
        <ele>512</ele>
        <time>2013-04-07T10:40:56.000Z</time>
      </trkpt>
      <trkpt lat="48.65604" lon="7.27282">
        <ele>512</ele>
        <time>2013-04-07T10:40:59.000Z</time>
      </trkpt>
      <trkpt lat="48.65601" lon="7.27279">
        <ele>512</ele>
        <time>2013-04-07T10:41:04.000Z</time>
      </trkpt>
      <trkpt lat="48.65604" lon="7.27278">
        <ele>512</ele>
        <time>2013-04-07T10:41:07.000Z</time>
      </trkpt>
      <trkpt lat="48.65596" lon="7.27278">
        <ele>513</ele>
        <time>2013-04-07T10:41:13.000Z</time>
      </trkpt>
      <trkpt lat="48.65598" lon="7.27272">
        <ele>513</ele>
        <time>2013-04-07T10:41:16.000Z</time>
      </trkpt>
      <trkpt lat="48.65593" lon="7.27277">
        <ele>513</ele>
        <time>2013-04-07T10:41:20.000Z</time>
      </trkpt>
      <trkpt lat="48.65594" lon="7.27269">
        <ele>513</ele>
        <time>2013-04-07T10:41:26.000Z</time>
      </trkpt>
      <trkpt lat="48.65591" lon="7.27264">
        <ele>514</ele>
        <time>2013-04-07T10:41:30.000Z</time>
      </trkpt>
      <trkpt lat="48.65589" lon="7.27264">
        <ele>514</ele>
        <time>2013-04-07T10:41:35.000Z</time>
      </trkpt>
      <trkpt lat="48.65598" lon="7.2727">
        <ele>513</ele>
        <time>2013-04-07T10:41:46.000Z</time>
      </trkpt>
      <trkpt lat="48.65585" lon="7.27265">
        <ele>514</ele>
        <time>2013-04-07T10:41:51.000Z</time>
      </trkpt>
      <trkpt lat="48.65582" lon="7.27262">
        <ele>520</ele>
        <time>2013-04-07T10:41:54.000Z</time>
      </trkpt>
      <trkpt lat="48.6558" lon="7.27261">
        <ele>520</ele>
        <time>2013-04-07T10:41:57.000Z</time>
      </trkpt>
      <trkpt lat="48.65596" lon="7.27259">
        <ele>513</ele>
        <time>2013-04-07T10:42:01.000Z</time>
      </trkpt>
      <trkpt lat="48.65574" lon="7.27261">
        <ele>521</ele>
        <time>2013-04-07T10:42:05.000Z</time>
      </trkpt>
      <trkpt lat="48.65569" lon="7.2726">
        <ele>522</ele>
        <time>2013-04-07T10:42:10.000Z</time>
      </trkpt>
      <trkpt lat="48.65567" lon="7.27256">
        <ele>522</ele>
        <time>2013-04-07T10:42:16.000Z</time>
      </trkpt>
      <trkpt lat="48.65565" lon="7.27253">
        <ele>522</ele>
        <time>2013-04-07T10:42:20.000Z</time>
      </trkpt>
      <trkpt lat="48.65562" lon="7.27249">
        <ele>520</ele>
        <time>2013-04-07T10:42:22.000Z</time>
      </trkpt>
      <trkpt lat="48.65557" lon="7.27244">
        <ele>521</ele>
        <time>2013-04-07T10:42:27.000Z</time>
      </trkpt>
      <trkpt lat="48.65555" lon="7.27246">
        <ele>521</ele>
        <time>2013-04-07T10:42:32.000Z</time>
      </trkpt>
      <trkpt lat="48.65554" lon="7.27241">
        <ele>522</ele>
        <time>2013-04-07T10:42:46.000Z</time>
      </trkpt>
      <trkpt lat="48.65551" lon="7.27238">
        <ele>522</ele>
        <time>2013-04-07T10:42:56.000Z</time>
      </trkpt>
      <trkpt lat="48.65549" lon="7.27241">
        <ele>522</ele>
        <time>2013-04-07T10:42:58.000Z</time>
      </trkpt>
      <trkpt lat="48.65545" lon="7.27242">
        <ele>523</ele>
        <time>2013-04-07T10:43:06.000Z</time>
      </trkpt>
      <trkpt lat="48.65551" lon="7.27247">
        <ele>522</ele>
        <time>2013-04-07T10:43:11.000Z</time>
      </trkpt>
      <trkpt lat="48.65541" lon="7.27242">
        <ele>523</ele>
        <time>2013-04-07T10:43:21.000Z</time>
      </trkpt>
      <trkpt lat="48.65543" lon="7.2725">
        <ele>523</ele>
        <time>2013-04-07T10:43:24.000Z</time>
      </trkpt>
      <trkpt lat="48.65536" lon="7.27242">
        <ele>524</ele>
        <time>2013-04-07T10:43:27.000Z</time>
      </trkpt>
      <trkpt lat="48.65536" lon="7.27252">
        <ele>526</ele>
        <time>2013-04-07T10:43:30.000Z</time>
      </trkpt>
      <trkpt lat="48.65529" lon="7.27253">
        <ele>527</ele>
        <time>2013-04-07T10:43:37.000Z</time>
      </trkpt>
      <trkpt lat="48.65523" lon="7.27251">
        <ele>528</ele>
        <time>2013-04-07T10:43:42.000Z</time>
      </trkpt>
      <trkpt lat="48.6552" lon="7.27249">
        <ele>526</ele>
        <time>2013-04-07T10:43:44.000Z</time>
      </trkpt>
      <trkpt lat="48.65516" lon="7.27247">
        <ele>527</ele>
        <time>2013-04-07T10:43:48.000Z</time>
      </trkpt>
      <trkpt lat="48.6551" lon="7.27245">
        <ele>527</ele>
        <time>2013-04-07T10:43:52.000Z</time>
      </trkpt>
      <trkpt lat="48.65508" lon="7.27244">
        <ele>528</ele>
        <time>2013-04-07T10:43:56.000Z</time>
      </trkpt>
      <trkpt lat="48.65505" lon="7.27243">
        <ele>528</ele>
        <time>2013-04-07T10:43:58.000Z</time>
      </trkpt>
      <trkpt lat="48.65499" lon="7.27232">
        <ele>534</ele>
        <time>2013-04-07T10:44:02.000Z</time>
      </trkpt>
      <trkpt lat="48.65498" lon="7.27234">
        <ele>534</ele>
        <time>2013-04-07T10:44:04.000Z</time>
      </trkpt>
      <trkpt lat="48.65494" lon="7.27232">
        <ele>534</ele>
        <time>2013-04-07T10:44:08.000Z</time>
      </trkpt>
      <trkpt lat="48.65491" lon="7.27229">
        <ele>535</ele>
        <time>2013-04-07T10:44:10.000Z</time>
      </trkpt>
      <trkpt lat="48.65488" lon="7.27226">
        <ele>535</ele>
        <time>2013-04-07T10:44:15.000Z</time>
      </trkpt>
      <trkpt lat="48.65487" lon="7.27224">
        <ele>536</ele>
        <time>2013-04-07T10:44:18.000Z</time>
      </trkpt>
      <trkpt lat="48.65481" lon="7.27223">
        <ele>536</ele>
        <time>2013-04-07T10:44:22.000Z</time>
      </trkpt>
      <trkpt lat="48.65479" lon="7.27221">
        <ele>537</ele>
        <time>2013-04-07T10:44:25.000Z</time>
      </trkpt>
      <trkpt lat="48.65476" lon="7.2722">
        <ele>537</ele>
        <time>2013-04-07T10:44:32.000Z</time>
      </trkpt>
      <trkpt lat="48.65474" lon="7.27216">
        <ele>537</ele>
        <time>2013-04-07T10:44:35.000Z</time>
      </trkpt>
      <trkpt lat="48.6547" lon="7.27216">
        <ele>538</ele>
        <time>2013-04-07T10:44:41.000Z</time>
      </trkpt>
      <trkpt lat="48.65468" lon="7.27212">
        <ele>538</ele>
        <time>2013-04-07T10:44:44.000Z</time>
      </trkpt>
      <trkpt lat="48.65463" lon="7.27212">
        <ele>538</ele>
        <time>2013-04-07T10:44:50.000Z</time>
      </trkpt>
      <trkpt lat="48.65462" lon="7.27209">
        <ele>539</ele>
        <time>2013-04-07T10:44:54.000Z</time>
      </trkpt>
      <trkpt lat="48.65458" lon="7.27206">
        <ele>539</ele>
        <time>2013-04-07T10:45:02.000Z</time>
      </trkpt>
      <trkpt lat="48.65457" lon="7.27202">
        <ele>539</ele>
        <time>2013-04-07T10:45:05.000Z</time>
      </trkpt>
      <trkpt lat="48.65456" lon="7.27201">
        <ele>539</ele>
        <time>2013-04-07T10:45:08.000Z</time>
      </trkpt>
      <trkpt lat="48.65455" lon="7.27199">
        <ele>539</ele>
        <time>2013-04-07T10:45:12.000Z</time>
      </trkpt>
      <trkpt lat="48.65453" lon="7.27197">
        <ele>540</ele>
        <time>2013-04-07T10:45:16.000Z</time>
      </trkpt>
      <trkpt lat="48.65445" lon="7.27195">
        <ele>541</ele>
        <time>2013-04-07T10:45:20.000Z</time>
      </trkpt>
      <trkpt lat="48.65449" lon="7.27192">
        <ele>540</ele>
        <time>2013-04-07T10:45:23.000Z</time>
      </trkpt>
      <trkpt lat="48.65447" lon="7.27188">
        <ele>541</ele>
        <time>2013-04-07T10:45:26.000Z</time>
      </trkpt>
      <trkpt lat="48.65449" lon="7.2718">
        <ele>540</ele>
        <time>2013-04-07T10:45:28.000Z</time>
      </trkpt>
      <trkpt lat="48.65446" lon="7.27179">
        <ele>541</ele>
        <time>2013-04-07T10:45:32.000Z</time>
      </trkpt>
      <trkpt lat="48.65445" lon="7.27176">
        <ele>541</ele>
        <time>2013-04-07T10:45:35.000Z</time>
      </trkpt>
      <trkpt lat="48.65444" lon="7.27174">
        <ele>541</ele>
        <time>2013-04-07T10:45:38.000Z</time>
      </trkpt>
      <trkpt lat="48.65443" lon="7.27172">
        <ele>542</ele>
        <time>2013-04-07T10:45:41.000Z</time>
      </trkpt>
      <trkpt lat="48.65441" lon="7.27171">
        <ele>542</ele>
        <time>2013-04-07T10:45:44.000Z</time>
      </trkpt>
      <trkpt lat="48.65433" lon="7.27164">
        <ele>545</ele>
        <time>2013-04-07T10:45:47.000Z</time>
      </trkpt>
      <trkpt lat="48.65434" lon="7.27169">
        <ele>544</ele>
        <time>2013-04-07T10:45:50.000Z</time>
      </trkpt>
      <trkpt lat="48.65432" lon="7.27164">
        <ele>545</ele>
        <time>2013-04-07T10:45:53.000Z</time>
      </trkpt>
      <trkpt lat="48.65432" lon="7.27161">
        <ele>545</ele>
        <time>2013-04-07T10:46:04.000Z</time>
      </trkpt>
      <trkpt lat="48.65431" lon="7.27164">
        <ele>545</ele>
        <time>2013-04-07T10:46:08.000Z</time>
      </trkpt>
      <trkpt lat="48.65428" lon="7.27164">
        <ele>546</ele>
        <time>2013-04-07T10:46:11.000Z</time>
      </trkpt>
      <trkpt lat="48.65427" lon="7.2716">
        <ele>546</ele>
        <time>2013-04-07T10:46:13.000Z</time>
      </trkpt>
      <trkpt lat="48.65426" lon="7.27158">
        <ele>546</ele>
        <time>2013-04-07T10:46:16.000Z</time>
      </trkpt>
      <trkpt lat="48.6542" lon="7.27157">
        <ele>547</ele>
        <time>2013-04-07T10:46:22.000Z</time>
      </trkpt>
      <trkpt lat="48.65419" lon="7.27154">
        <ele>546</ele>
        <time>2013-04-07T10:46:25.000Z</time>
      </trkpt>
      <trkpt lat="48.65418" lon="7.27152">
        <ele>546</ele>
        <time>2013-04-07T10:46:28.000Z</time>
      </trkpt>
      <trkpt lat="48.65417" lon="7.27151">
        <ele>546</ele>
        <time>2013-04-07T10:46:31.000Z</time>
      </trkpt>
      <trkpt lat="48.65415" lon="7.27149">
        <ele>553</ele>
        <time>2013-04-07T10:46:36.000Z</time>
      </trkpt>
      <trkpt lat="48.65413" lon="7.27148">
        <ele>553</ele>
        <time>2013-04-07T10:46:39.000Z</time>
      </trkpt>
      <trkpt lat="48.65411" lon="7.27146">
        <ele>553</ele>
        <time>2013-04-07T10:46:42.000Z</time>
      </trkpt>
      <trkpt lat="48.65409" lon="7.27145">
        <ele>553</ele>
        <time>2013-04-07T10:46:46.000Z</time>
      </trkpt>
      <trkpt lat="48.65407" lon="7.27144">
        <ele>554</ele>
        <time>2013-04-07T10:46:49.000Z</time>
      </trkpt>
      <trkpt lat="48.65405" lon="7.27142">
        <ele>554</ele>
        <time>2013-04-07T10:46:52.000Z</time>
      </trkpt>
      <trkpt lat="48.65404" lon="7.2714">
        <ele>554</ele>
        <time>2013-04-07T10:46:55.000Z</time>
      </trkpt>
      <trkpt lat="48.65403" lon="7.27137">
        <ele>554</ele>
        <time>2013-04-07T10:46:57.000Z</time>
      </trkpt>
      <trkpt lat="48.65404" lon="7.27134">
        <ele>554</ele>
        <time>2013-04-07T10:47:01.000Z</time>
      </trkpt>
      <trkpt lat="48.65404" lon="7.27134">
        <ele>554</ele>
        <time>2013-04-07T10:47:21.000Z</time>
      </trkpt>
      <trkpt lat="48.65404" lon="7.27127">
        <ele>555</ele>
        <time>2013-04-07T10:47:45.000Z</time>
      </trkpt>
      <trkpt lat="48.65403" lon="7.27124">
        <ele>555</ele>
        <time>2013-04-07T10:47:56.000Z</time>
      </trkpt>
      <trkpt lat="48.65403" lon="7.27124">
        <ele>555</ele>
        <time>2013-04-07T10:48:16.000Z</time>
      </trkpt>
      <trkpt lat="48.65402" lon="7.27122">
        <ele>555</ele>
        <time>2013-04-07T10:49:17.000Z</time>
      </trkpt>
      <trkpt lat="48.65402" lon="7.27122">
        <ele>555</ele>
        <time>2013-04-07T10:49:37.000Z</time>
      </trkpt>
      <trkpt lat="48.6541" lon="7.27125">
        <ele>554</ele>
        <time>2013-04-07T10:49:40.000Z</time>
      </trkpt>
      <trkpt lat="48.6541" lon="7.27125">
        <ele>554</ele>
        <time>2013-04-07T10:50:00.000Z</time>
      </trkpt>
      <trkpt lat="48.65403" lon="7.27124">
        <ele>555</ele>
        <time>2013-04-07T10:50:22.000Z</time>
      </trkpt>
      <trkpt lat="48.65403" lon="7.27119">
        <ele>555</ele>
        <time>2013-04-07T10:50:25.000Z</time>
      </trkpt>
      <trkpt lat="48.65403" lon="7.27119">
        <ele>555</ele>
        <time>2013-04-07T10:50:45.000Z</time>
      </trkpt>
      <trkpt lat="48.65399" lon="7.2712">
        <ele>555</ele>
        <time>2013-04-07T10:51:19.000Z</time>
      </trkpt>
      <trkpt lat="48.65399" lon="7.2712">
        <ele>555</ele>
        <time>2013-04-07T10:51:39.000Z</time>
      </trkpt>
      <trkpt lat="48.65407" lon="7.27112">
        <ele>554</ele>
        <time>2013-04-07T10:54:49.000Z</time>
      </trkpt>
      <trkpt lat="48.6541" lon="7.27111">
        <ele>554</ele>
        <time>2013-04-07T10:54:51.000Z</time>
      </trkpt>
      <trkpt lat="48.65415" lon="7.27103">
        <ele>554</ele>
        <time>2013-04-07T10:54:54.000Z</time>
      </trkpt>
      <trkpt lat="48.65405" lon="7.27094">
        <ele>554</ele>
        <time>2013-04-07T10:54:57.000Z</time>
      </trkpt>
      <trkpt lat="48.65423" lon="7.27084">
        <ele>549</ele>
        <time>2013-04-07T10:55:00.000Z</time>
      </trkpt>
      <trkpt lat="48.65414" lon="7.27083">
        <ele>552</ele>
        <time>2013-04-07T10:55:02.000Z</time>
      </trkpt>
      <trkpt lat="48.65409" lon="7.27072">
        <ele>555</ele>
        <time>2013-04-07T10:55:05.000Z</time>
      </trkpt>
      <trkpt lat="48.65423" lon="7.27058">
        <ele>550</ele>
        <time>2013-04-07T10:55:10.000Z</time>
      </trkpt>
      <trkpt lat="48.65422" lon="7.27048">
        <ele>550</ele>
        <time>2013-04-07T10:55:13.000Z</time>
      </trkpt>
      <trkpt lat="48.6544" lon="7.27038">
        <ele>550</ele>
        <time>2013-04-07T10:55:18.000Z</time>
      </trkpt>
      <trkpt lat="48.6545" lon="7.27016">
        <ele>550</ele>
        <time>2013-04-07T10:55:21.000Z</time>
      </trkpt>
      <trkpt lat="48.65446" lon="7.27016">
        <ele>551</ele>
        <time>2013-04-07T10:55:24.000Z</time>
      </trkpt>
      <trkpt lat="48.65445" lon="7.2701">
        <ele>551</ele>
        <time>2013-04-07T10:55:28.000Z</time>
      </trkpt>
      <trkpt lat="48.65443" lon="7.27007">
        <ele>551</ele>
        <time>2013-04-07T10:55:30.000Z</time>
      </trkpt>
      <trkpt lat="48.65438" lon="7.27002">
        <ele>552</ele>
        <time>2013-04-07T10:55:34.000Z</time>
      </trkpt>
      <trkpt lat="48.65436" lon="7.26993">
        <ele>555</ele>
        <time>2013-04-07T10:55:38.000Z</time>
      </trkpt>
      <trkpt lat="48.65435" lon="7.2699">
        <ele>555</ele>
        <time>2013-04-07T10:55:40.000Z</time>
      </trkpt>
      <trkpt lat="48.65433" lon="7.26987">
        <ele>555</ele>
        <time>2013-04-07T10:55:42.000Z</time>
      </trkpt>
      <trkpt lat="48.65427" lon="7.26981">
        <ele>555</ele>
        <time>2013-04-07T10:55:46.000Z</time>
      </trkpt>
      <trkpt lat="48.65426" lon="7.26973">
        <ele>555</ele>
        <time>2013-04-07T10:55:49.000Z</time>
      </trkpt>
      <trkpt lat="48.65426" lon="7.26968">
        <ele>555</ele>
        <time>2013-04-07T10:55:52.000Z</time>
      </trkpt>
      <trkpt lat="48.65429" lon="7.26959">
        <ele>555</ele>
        <time>2013-04-07T10:55:54.000Z</time>
      </trkpt>
      <trkpt lat="48.65433" lon="7.26951">
        <ele>555</ele>
        <time>2013-04-07T10:55:56.000Z</time>
      </trkpt>
      <trkpt lat="48.65448" lon="7.26935">
        <ele>554</ele>
        <time>2013-04-07T10:55:59.000Z</time>
      </trkpt>
      <trkpt lat="48.65455" lon="7.26924">
        <ele>554</ele>
        <time>2013-04-07T10:56:01.000Z</time>
      </trkpt>
      <trkpt lat="48.65466" lon="7.26914">
        <ele>554</ele>
        <time>2013-04-07T10:56:03.000Z</time>
      </trkpt>
      <trkpt lat="48.65478" lon="7.26902">
        <ele>553</ele>
        <time>2013-04-07T10:56:05.000Z</time>
      </trkpt>
      <trkpt lat="48.65485" lon="7.2688">
        <ele>554</ele>
        <time>2013-04-07T10:56:08.000Z</time>
      </trkpt>
      <trkpt lat="48.65482" lon="7.26864">
        <ele>554</ele>
        <time>2013-04-07T10:56:11.000Z</time>
      </trkpt>
      <trkpt lat="48.65481" lon="7.26862">
        <ele>554</ele>
        <time>2013-04-07T10:56:13.000Z</time>
      </trkpt>
      <trkpt lat="48.6548" lon="7.2686">
        <ele>554</ele>
        <time>2013-04-07T10:56:16.000Z</time>
      </trkpt>
      <trkpt lat="48.65476" lon="7.26848">
        <ele>554</ele>
        <time>2013-04-07T10:56:20.000Z</time>
      </trkpt>
      <trkpt lat="48.65474" lon="7.26847">
        <ele>554</ele>
        <time>2013-04-07T10:56:24.000Z</time>
      </trkpt>
      <trkpt lat="48.65474" lon="7.26843">
        <ele>554</ele>
        <time>2013-04-07T10:56:26.000Z</time>
      </trkpt>
      <trkpt lat="48.65473" lon="7.26836">
        <ele>554</ele>
        <time>2013-04-07T10:56:30.000Z</time>
      </trkpt>
      <trkpt lat="48.6547" lon="7.26829">
        <ele>554</ele>
        <time>2013-04-07T10:56:34.000Z</time>
      </trkpt>
      <trkpt lat="48.6547" lon="7.2682">
        <ele>554</ele>
        <time>2013-04-07T10:56:36.000Z</time>
      </trkpt>
      <trkpt lat="48.65468" lon="7.26817">
        <ele>554</ele>
        <time>2013-04-07T10:56:38.000Z</time>
      </trkpt>
      <trkpt lat="48.65467" lon="7.2681">
        <ele>555</ele>
        <time>2013-04-07T10:56:40.000Z</time>
      </trkpt>
      <trkpt lat="48.65465" lon="7.26786">
        <ele>555</ele>
        <time>2013-04-07T10:56:43.000Z</time>
      </trkpt>
      <trkpt lat="48.65461" lon="7.26764">
        <ele>555</ele>
        <time>2013-04-07T10:56:46.000Z</time>
      </trkpt>
      <trkpt lat="48.65458" lon="7.26749">
        <ele>556</ele>
        <time>2013-04-07T10:56:49.000Z</time>
      </trkpt>
      <trkpt lat="48.65453" lon="7.26744">
        <ele>557</ele>
        <time>2013-04-07T10:56:51.000Z</time>
      </trkpt>
      <trkpt lat="48.65451" lon="7.26738">
        <ele>557</ele>
        <time>2013-04-07T10:56:53.000Z</time>
      </trkpt>
      <trkpt lat="48.65449" lon="7.26722">
        <ele>557</ele>
        <time>2013-04-07T10:56:56.000Z</time>
      </trkpt>
      <trkpt lat="48.65442" lon="7.26713">
        <ele>558</ele>
        <time>2013-04-07T10:56:59.000Z</time>
      </trkpt>
      <trkpt lat="48.65438" lon="7.26706">
        <ele>558</ele>
        <time>2013-04-07T10:57:01.000Z</time>
      </trkpt>
      <trkpt lat="48.65445" lon="7.26706">
        <ele>558</ele>
        <time>2013-04-07T10:57:05.000Z</time>
      </trkpt>
      <trkpt lat="48.65433" lon="7.26702">
        <ele>558</ele>
        <time>2013-04-07T10:57:08.000Z</time>
      </trkpt>
      <trkpt lat="48.65424" lon="7.26698">
        <ele>559</ele>
        <time>2013-04-07T10:57:11.000Z</time>
      </trkpt>
      <trkpt lat="48.65417" lon="7.26698">
        <ele>559</ele>
        <time>2013-04-07T10:57:20.000Z</time>
      </trkpt>
      <trkpt lat="48.65414" lon="7.26695">
        <ele>563</ele>
        <time>2013-04-07T10:57:35.000Z</time>
      </trkpt>
      <trkpt lat="48.65413" lon="7.26691">
        <ele>563</ele>
        <time>2013-04-07T10:57:37.000Z</time>
      </trkpt>
      <trkpt lat="48.65411" lon="7.26689">
        <ele>563</ele>
        <time>2013-04-07T10:57:39.000Z</time>
      </trkpt>
      <trkpt lat="48.65398" lon="7.26686">
        <ele>563</ele>
        <time>2013-04-07T10:57:42.000Z</time>
      </trkpt>
      <trkpt lat="48.6539" lon="7.26681">
        <ele>564</ele>
        <time>2013-04-07T10:57:45.000Z</time>
      </trkpt>
      <trkpt lat="48.6538" lon="7.26684">
        <ele>564</ele>
        <time>2013-04-07T10:57:47.000Z</time>
      </trkpt>
      <trkpt lat="48.6539" lon="7.26677">
        <ele>564</ele>
        <time>2013-04-07T10:57:50.000Z</time>
      </trkpt>
      <trkpt lat="48.65351" lon="7.26666">
        <ele>565</ele>
        <time>2013-04-07T10:57:55.000Z</time>
      </trkpt>
      <trkpt lat="48.65337" lon="7.26655">
        <ele>566</ele>
        <time>2013-04-07T10:57:58.000Z</time>
      </trkpt>
      <trkpt lat="48.65309" lon="7.26647">
        <ele>563</ele>
        <time>2013-04-07T10:58:02.000Z</time>
      </trkpt>
      <trkpt lat="48.65313" lon="7.26642">
        <ele>563</ele>
        <time>2013-04-07T10:58:05.000Z</time>
      </trkpt>
      <trkpt lat="48.6521" lon="7.26596">
        <ele>556</ele>
        <time>2013-04-07T10:58:14.000Z</time>
      </trkpt>
      <trkpt lat="48.65197" lon="7.26599">
        <ele>556</ele>
        <time>2013-04-07T10:58:16.000Z</time>
      </trkpt>
      <trkpt lat="48.65186" lon="7.26591">
        <ele>556</ele>
        <time>2013-04-07T10:58:19.000Z</time>
      </trkpt>
      <trkpt lat="48.65169" lon="7.26581">
        <ele>553</ele>
        <time>2013-04-07T10:58:22.000Z</time>
      </trkpt>
      <trkpt lat="48.65154" lon="7.26571">
        <ele>549</ele>
        <time>2013-04-07T10:58:25.000Z</time>
      </trkpt>
      <trkpt lat="48.65157" lon="7.26584">
        <ele>553</ele>
        <time>2013-04-07T10:58:27.000Z</time>
      </trkpt>
      <trkpt lat="48.65099" lon="7.26564">
        <ele>545</ele>
        <time>2013-04-07T10:58:33.000Z</time>
      </trkpt>
      <trkpt lat="48.65082" lon="7.26582">
        <ele>544</ele>
        <time>2013-04-07T10:58:36.000Z</time>
      </trkpt>
      <trkpt lat="48.65051" lon="7.26603">
        <ele>541</ele>
        <time>2013-04-07T10:58:40.000Z</time>
      </trkpt>
      <trkpt lat="48.65033" lon="7.2661">
        <ele>539</ele>
        <time>2013-04-07T10:58:42.000Z</time>
      </trkpt>
      <trkpt lat="48.65009" lon="7.26606">
        <ele>537</ele>
        <time>2013-04-07T10:58:45.000Z</time>
      </trkpt>
      <trkpt lat="48.65004" lon="7.26619">
        <ele>538</ele>
        <time>2013-04-07T10:58:47.000Z</time>
      </trkpt>
      <trkpt lat="48.64974" lon="7.26595">
        <ele>529</ele>
        <time>2013-04-07T10:58:51.000Z</time>
      </trkpt>
      <trkpt lat="48.64942" lon="7.26599">
        <ele>526</ele>
        <time>2013-04-07T10:58:54.000Z</time>
      </trkpt>
      <trkpt lat="48.64933" lon="7.26598">
        <ele>525</ele>
        <time>2013-04-07T10:58:56.000Z</time>
      </trkpt>
      <trkpt lat="48.64918" lon="7.26606">
        <ele>525</ele>
        <time>2013-04-07T10:58:59.000Z</time>
      </trkpt>
      <trkpt lat="48.64904" lon="7.26618">
        <ele>526</ele>
        <time>2013-04-07T10:59:02.000Z</time>
      </trkpt>
      <trkpt lat="48.64889" lon="7.26633">
        <ele>528</ele>
        <time>2013-04-07T10:59:05.000Z</time>
      </trkpt>
      <trkpt lat="48.64885" lon="7.26629">
        <ele>528</ele>
        <time>2013-04-07T10:59:08.000Z</time>
      </trkpt>
      <trkpt lat="48.64875" lon="7.26639">
        <ele>528</ele>
        <time>2013-04-07T10:59:11.000Z</time>
      </trkpt>
      <trkpt lat="48.64872" lon="7.2664">
        <ele>528</ele>
        <time>2013-04-07T10:59:13.000Z</time>
      </trkpt>
      <trkpt lat="48.64874" lon="7.26629">
        <ele>528</ele>
        <time>2013-04-07T10:59:18.000Z</time>
      </trkpt>
      <trkpt lat="48.64869" lon="7.26622">
        <ele>528</ele>
        <time>2013-04-07T10:59:20.000Z</time>
      </trkpt>
      <trkpt lat="48.64867" lon="7.26625">
        <ele>528</ele>
        <time>2013-04-07T10:59:22.000Z</time>
      </trkpt>
      <trkpt lat="48.64865" lon="7.26615">
        <ele>529</ele>
        <time>2013-04-07T10:59:25.000Z</time>
      </trkpt>
      <trkpt lat="48.64862" lon="7.26614">
        <ele>529</ele>
        <time>2013-04-07T10:59:27.000Z</time>
      </trkpt>
      <trkpt lat="48.64859" lon="7.26604">
        <ele>529</ele>
        <time>2013-04-07T10:59:31.000Z</time>
      </trkpt>
      <trkpt lat="48.64856" lon="7.26597">
        <ele>530</ele>
        <time>2013-04-07T10:59:33.000Z</time>
      </trkpt>
      <trkpt lat="48.64854" lon="7.26598">
        <ele>530</ele>
        <time>2013-04-07T10:59:35.000Z</time>
      </trkpt>
      <trkpt lat="48.64853" lon="7.26582">
        <ele>529</ele>
        <time>2013-04-07T10:59:38.000Z</time>
      </trkpt>
      <trkpt lat="48.64853" lon="7.26584">
        <ele>531</ele>
        <time>2013-04-07T10:59:40.000Z</time>
      </trkpt>
      <trkpt lat="48.64854" lon="7.26574">
        <ele>529</ele>
        <time>2013-04-07T10:59:43.000Z</time>
      </trkpt>
      <trkpt lat="48.64856" lon="7.26558">
        <ele>527</ele>
        <time>2013-04-07T10:59:46.000Z</time>
      </trkpt>
      <trkpt lat="48.64857" lon="7.26552">
        <ele>527</ele>
        <time>2013-04-07T10:59:49.000Z</time>
      </trkpt>
      <trkpt lat="48.6486" lon="7.26539">
        <ele>526</ele>
        <time>2013-04-07T10:59:52.000Z</time>
      </trkpt>
      <trkpt lat="48.64857" lon="7.26544">
        <ele>527</ele>
        <time>2013-04-07T10:59:54.000Z</time>
      </trkpt>
      <trkpt lat="48.6486" lon="7.2653">
        <ele>526</ele>
        <time>2013-04-07T10:59:57.000Z</time>
      </trkpt>
      <trkpt lat="48.64862" lon="7.2652">
        <ele>526</ele>
        <time>2013-04-07T11:00:00.000Z</time>
      </trkpt>
      <trkpt lat="48.64862" lon="7.2651">
        <ele>526</ele>
        <time>2013-04-07T11:00:02.000Z</time>
      </trkpt>
      <trkpt lat="48.64864" lon="7.26501">
        <ele>526</ele>
        <time>2013-04-07T11:00:06.000Z</time>
      </trkpt>
      <trkpt lat="48.64864" lon="7.26495">
        <ele>523</ele>
        <time>2013-04-07T11:00:08.000Z</time>
      </trkpt>
      <trkpt lat="48.64864" lon="7.26488">
        <ele>522</ele>
        <time>2013-04-07T11:00:10.000Z</time>
      </trkpt>
      <trkpt lat="48.64862" lon="7.26481">
        <ele>522</ele>
        <time>2013-04-07T11:00:14.000Z</time>
      </trkpt>
      <trkpt lat="48.64862" lon="7.26474">
        <ele>522</ele>
        <time>2013-04-07T11:00:16.000Z</time>
      </trkpt>
      <trkpt lat="48.64861" lon="7.26468">
        <ele>522</ele>
        <time>2013-04-07T11:00:19.000Z</time>
      </trkpt>
      <trkpt lat="48.64861" lon="7.26464">
        <ele>521</ele>
        <time>2013-04-07T11:00:21.000Z</time>
      </trkpt>
      <trkpt lat="48.64862" lon="7.26451">
        <ele>520</ele>
        <time>2013-04-07T11:00:24.000Z</time>
      </trkpt>
      <trkpt lat="48.64862" lon="7.26449">
        <ele>520</ele>
        <time>2013-04-07T11:00:26.000Z</time>
      </trkpt>
      <trkpt lat="48.64861" lon="7.2644">
        <ele>520</ele>
        <time>2013-04-07T11:00:30.000Z</time>
      </trkpt>
      <trkpt lat="48.64861" lon="7.26444">
        <ele>520</ele>
        <time>2013-04-07T11:00:32.000Z</time>
      </trkpt>
      <trkpt lat="48.64857" lon="7.26433">
        <ele>521</ele>
        <time>2013-04-07T11:00:36.000Z</time>
      </trkpt>
      <trkpt lat="48.64853" lon="7.26431">
        <ele>521</ele>
        <time>2013-04-07T11:00:40.000Z</time>
      </trkpt>
      <trkpt lat="48.6485" lon="7.26426">
        <ele>522</ele>
        <time>2013-04-07T11:00:42.000Z</time>
      </trkpt>
      <trkpt lat="48.64832" lon="7.26403">
        <ele>521</ele>
        <time>2013-04-07T11:00:46.000Z</time>
      </trkpt>
      <trkpt lat="48.64814" lon="7.26392">
        <ele>518</ele>
        <time>2013-04-07T11:00:49.000Z</time>
      </trkpt>
      <trkpt lat="48.64796" lon="7.26384">
        <ele>517</ele>
        <time>2013-04-07T11:00:52.000Z</time>
      </trkpt>
      <trkpt lat="48.64786" lon="7.26374">
        <ele>516</ele>
        <time>2013-04-07T11:00:54.000Z</time>
      </trkpt>
      <trkpt lat="48.64768" lon="7.26367">
        <ele>515</ele>
        <time>2013-04-07T11:00:57.000Z</time>
      </trkpt>
      <trkpt lat="48.64759" lon="7.26364">
        <ele>515</ele>
        <time>2013-04-07T11:00:59.000Z</time>
      </trkpt>
      <trkpt lat="48.64735" lon="7.26352">
        <ele>514</ele>
        <time>2013-04-07T11:01:02.000Z</time>
      </trkpt>
      <trkpt lat="48.64728" lon="7.2634">
        <ele>513</ele>
        <time>2013-04-07T11:01:04.000Z</time>
      </trkpt>
      <trkpt lat="48.64713" lon="7.26321">
        <ele>503</ele>
        <time>2013-04-07T11:01:07.000Z</time>
      </trkpt>
      <trkpt lat="48.64688" lon="7.26304">
        <ele>503</ele>
        <time>2013-04-07T11:01:10.000Z</time>
      </trkpt>
      <trkpt lat="48.64671" lon="7.26302">
        <ele>504</ele>
        <time>2013-04-07T11:01:12.000Z</time>
      </trkpt>
      <trkpt lat="48.64658" lon="7.26299">
        <ele>504</ele>
        <time>2013-04-07T11:01:14.000Z</time>
      </trkpt>
      <trkpt lat="48.64655" lon="7.26288">
        <ele>503</ele>
        <time>2013-04-07T11:01:21.000Z</time>
      </trkpt>
      <trkpt lat="48.64656" lon="7.26285">
        <ele>503</ele>
        <time>2013-04-07T11:01:23.000Z</time>
      </trkpt>
      <trkpt lat="48.64659" lon="7.26281">
        <ele>503</ele>
        <time>2013-04-07T11:01:26.000Z</time>
      </trkpt>
      <trkpt lat="48.64663" lon="7.26281">
        <ele>503</ele>
        <time>2013-04-07T11:01:29.000Z</time>
      </trkpt>
      <trkpt lat="48.6467" lon="7.26283">
        <ele>502</ele>
        <time>2013-04-07T11:01:32.000Z</time>
      </trkpt>
      <trkpt lat="48.64673" lon="7.26287">
        <ele>502</ele>
        <time>2013-04-07T11:01:34.000Z</time>
      </trkpt>
      <trkpt lat="48.64679" lon="7.26283">
        <ele>502</ele>
        <time>2013-04-07T11:01:38.000Z</time>
      </trkpt>
      <trkpt lat="48.64684" lon="7.26273">
        <ele>501</ele>
        <time>2013-04-07T11:01:51.000Z</time>
      </trkpt>
      <trkpt lat="48.64685" lon="7.26277">
        <ele>502</ele>
        <time>2013-04-07T11:01:54.000Z</time>
      </trkpt>
      <trkpt lat="48.64678" lon="7.26281">
        <ele>502</ele>
        <time>2013-04-07T11:01:57.000Z</time>
      </trkpt>
      <trkpt lat="48.64692" lon="7.26278">
        <ele>502</ele>
        <time>2013-04-07T11:02:02.000Z</time>
      </trkpt>
      <trkpt lat="48.64695" lon="7.26278">
        <ele>502</ele>
        <time>2013-04-07T11:02:05.000Z</time>
      </trkpt>
      <trkpt lat="48.64697" lon="7.26279">
        <ele>502</ele>
        <time>2013-04-07T11:02:07.000Z</time>
      </trkpt>
      <trkpt lat="48.64703" lon="7.26276">
        <ele>501</ele>
        <time>2013-04-07T11:02:12.000Z</time>
      </trkpt>
      <trkpt lat="48.64697" lon="7.2628">
        <ele>502</ele>
        <time>2013-04-07T11:02:16.000Z</time>
      </trkpt>
      <trkpt lat="48.64706" lon="7.2627">
        <ele>501</ele>
        <time>2013-04-07T11:02:20.000Z</time>
      </trkpt>
      <trkpt lat="48.64709" lon="7.26271">
        <ele>501</ele>
        <time>2013-04-07T11:02:24.000Z</time>
      </trkpt>
      <trkpt lat="48.64713" lon="7.26272">
        <ele>501</ele>
        <time>2013-04-07T11:02:30.000Z</time>
      </trkpt>
      <trkpt lat="48.64713" lon="7.26267">
        <ele>501</ele>
        <time>2013-04-07T11:02:44.000Z</time>
      </trkpt>
      <trkpt lat="48.64715" lon="7.26257">
        <ele>500</ele>
        <time>2013-04-07T11:02:51.000Z</time>
      </trkpt>
      <trkpt lat="48.64713" lon="7.26264">
        <ele>500</ele>
        <time>2013-04-07T11:02:55.000Z</time>
      </trkpt>
      <trkpt lat="48.6471" lon="7.26264">
        <ele>501</ele>
        <time>2013-04-07T11:03:03.000Z</time>
      </trkpt>
      <trkpt lat="48.64709" lon="7.26259">
        <ele>500</ele>
        <time>2013-04-07T11:03:07.000Z</time>
      </trkpt>
      <trkpt lat="48.64708" lon="7.26257">
        <ele>500</ele>
        <time>2013-04-07T11:03:10.000Z</time>
      </trkpt>
      <trkpt lat="48.64701" lon="7.26258">
        <ele>501</ele>
        <time>2013-04-07T11:03:14.000Z</time>
      </trkpt>
      <trkpt lat="48.64696" lon="7.26252">
        <ele>501</ele>
        <time>2013-04-07T11:03:18.000Z</time>
      </trkpt>
      <trkpt lat="48.64695" lon="7.26251">
        <ele>501</ele>
        <time>2013-04-07T11:03:20.000Z</time>
      </trkpt>
      <trkpt lat="48.64695" lon="7.26244">
        <ele>506</ele>
        <time>2013-04-07T11:03:24.000Z</time>
      </trkpt>
      <trkpt lat="48.64687" lon="7.26247">
        <ele>505</ele>
        <time>2013-04-07T11:03:28.000Z</time>
      </trkpt>
      <trkpt lat="48.64682" lon="7.26246">
        <ele>505</ele>
        <time>2013-04-07T11:03:32.000Z</time>
      </trkpt>
      <trkpt lat="48.64674" lon="7.26252">
        <ele>500</ele>
        <time>2013-04-07T11:03:36.000Z</time>
      </trkpt>
      <trkpt lat="48.64671" lon="7.26251">
        <ele>500</ele>
        <time>2013-04-07T11:03:40.000Z</time>
      </trkpt>
      <trkpt lat="48.64676" lon="7.26242">
        <ele>504</ele>
        <time>2013-04-07T11:03:43.000Z</time>
      </trkpt>
      <trkpt lat="48.64676" lon="7.26237">
        <ele>505</ele>
        <time>2013-04-07T11:03:46.000Z</time>
      </trkpt>
      <trkpt lat="48.64678" lon="7.26239">
        <ele>505</ele>
        <time>2013-04-07T11:03:50.000Z</time>
      </trkpt>
      <trkpt lat="48.64682" lon="7.26246">
        <ele>505</ele>
        <time>2013-04-07T11:03:54.000Z</time>
      </trkpt>
      <trkpt lat="48.64685" lon="7.2624">
        <ele>506</ele>
        <time>2013-04-07T11:03:57.000Z</time>
      </trkpt>
      <trkpt lat="48.64687" lon="7.26238">
        <ele>506</ele>
        <time>2013-04-07T11:03:59.000Z</time>
      </trkpt>
      <trkpt lat="48.64689" lon="7.26237">
        <ele>506</ele>
        <time>2013-04-07T11:04:02.000Z</time>
      </trkpt>
      <trkpt lat="48.64696" lon="7.26227">
        <ele>508</ele>
        <time>2013-04-07T11:04:06.000Z</time>
      </trkpt>
      <trkpt lat="48.64695" lon="7.26234">
        <ele>507</ele>
        <time>2013-04-07T11:04:08.000Z</time>
      </trkpt>
      <trkpt lat="48.64701" lon="7.26223">
        <ele>508</ele>
        <time>2013-04-07T11:04:11.000Z</time>
      </trkpt>
      <trkpt lat="48.64702" lon="7.26226">
        <ele>508</ele>
        <time>2013-04-07T11:04:14.000Z</time>
      </trkpt>
      <trkpt lat="48.64697" lon="7.26231">
        <ele>507</ele>
        <time>2013-04-07T11:04:18.000Z</time>
      </trkpt>
      <trkpt lat="48.64705" lon="7.26233">
        <ele>507</ele>
        <time>2013-04-07T11:04:21.000Z</time>
      </trkpt>
      <trkpt lat="48.64707" lon="7.26229">
        <ele>508</ele>
        <time>2013-04-07T11:04:27.000Z</time>
      </trkpt>
      <trkpt lat="48.64709" lon="7.26226">
        <ele>508</ele>
        <time>2013-04-07T11:04:30.000Z</time>
      </trkpt>
      <trkpt lat="48.64715" lon="7.26219">
        <ele>509</ele>
        <time>2013-04-07T11:04:34.000Z</time>
      </trkpt>
      <trkpt lat="48.64715" lon="7.26223">
        <ele>508</ele>
        <time>2013-04-07T11:04:36.000Z</time>
      </trkpt>
      <trkpt lat="48.64719" lon="7.26222">
        <ele>508</ele>
        <time>2013-04-07T11:04:40.000Z</time>
      </trkpt>
      <trkpt lat="48.64725" lon="7.26216">
        <ele>509</ele>
        <time>2013-04-07T11:04:43.000Z</time>
      </trkpt>
      <trkpt lat="48.6473" lon="7.26216">
        <ele>508</ele>
        <time>2013-04-07T11:04:46.000Z</time>
      </trkpt>
      <trkpt lat="48.6474" lon="7.26206">
        <ele>510</ele>
        <time>2013-04-07T11:04:52.000Z</time>
      </trkpt>
      <trkpt lat="48.6474" lon="7.26211">
        <ele>509</ele>
        <time>2013-04-07T11:04:54.000Z</time>
      </trkpt>
      <trkpt lat="48.64745" lon="7.26205">
        <ele>510</ele>
        <time>2013-04-07T11:04:58.000Z</time>
      </trkpt>
      <trkpt lat="48.64747" lon="7.26205">
        <ele>510</ele>
        <time>2013-04-07T11:05:00.000Z</time>
      </trkpt>
      <trkpt lat="48.64753" lon="7.26206">
        <ele>506</ele>
        <time>2013-04-07T11:05:03.000Z</time>
      </trkpt>
      <trkpt lat="48.64755" lon="7.26201">
        <ele>507</ele>
        <time>2013-04-07T11:05:05.000Z</time>
      </trkpt>
      <trkpt lat="48.64759" lon="7.26197">
        <ele>508</ele>
        <time>2013-04-07T11:05:07.000Z</time>
      </trkpt>
      <trkpt lat="48.64761" lon="7.26198">
        <ele>508</ele>
        <time>2013-04-07T11:05:09.000Z</time>
      </trkpt>
      <trkpt lat="48.64765" lon="7.26197">
        <ele>507</ele>
        <time>2013-04-07T11:05:13.000Z</time>
      </trkpt>
      <trkpt lat="48.64779" lon="7.26191">
        <ele>507</ele>
        <time>2013-04-07T11:05:18.000Z</time>
      </trkpt>
      <trkpt lat="48.64774" lon="7.26194">
        <ele>507</ele>
        <time>2013-04-07T11:05:20.000Z</time>
      </trkpt>
      <trkpt lat="48.64787" lon="7.26193">
        <ele>507</ele>
        <time>2013-04-07T11:05:23.000Z</time>
      </trkpt>
      <trkpt lat="48.64793" lon="7.26182">
        <ele>508</ele>
        <time>2013-04-07T11:05:26.000Z</time>
      </trkpt>
      <trkpt lat="48.64795" lon="7.26181">
        <ele>508</ele>
        <time>2013-04-07T11:05:28.000Z</time>
      </trkpt>
      <trkpt lat="48.64801" lon="7.26178">
        <ele>508</ele>
        <time>2013-04-07T11:05:31.000Z</time>
      </trkpt>
      <trkpt lat="48.64805" lon="7.26176">
        <ele>508</ele>
        <time>2013-04-07T11:05:33.000Z</time>
      </trkpt>
      <trkpt lat="48.64813" lon="7.26167">
        <ele>509</ele>
        <time>2013-04-07T11:05:36.000Z</time>
      </trkpt>
      <trkpt lat="48.64819" lon="7.26168">
        <ele>509</ele>
        <time>2013-04-07T11:05:39.000Z</time>
      </trkpt>
      <trkpt lat="48.64827" lon="7.26173">
        <ele>510</ele>
        <time>2013-04-07T11:05:42.000Z</time>
      </trkpt>
      <trkpt lat="48.64834" lon="7.26164">
        <ele>513</ele>
        <time>2013-04-07T11:05:45.000Z</time>
      </trkpt>
      <trkpt lat="48.64837" lon="7.26168">
        <ele>509</ele>
        <time>2013-04-07T11:05:47.000Z</time>
      </trkpt>
      <trkpt lat="48.64841" lon="7.26166">
        <ele>514</ele>
        <time>2013-04-07T11:05:50.000Z</time>
      </trkpt>
      <trkpt lat="48.64844" lon="7.26164">
        <ele>515</ele>
        <time>2013-04-07T11:05:52.000Z</time>
      </trkpt>
      <trkpt lat="48.6485" lon="7.26165">
        <ele>515</ele>
        <time>2013-04-07T11:05:54.000Z</time>
      </trkpt>
      <trkpt lat="48.64839" lon="7.26159">
        <ele>515</ele>
        <time>2013-04-07T11:05:57.000Z</time>
      </trkpt>
      <trkpt lat="48.64862" lon="7.2616">
        <ele>516</ele>
        <time>2013-04-07T11:06:01.000Z</time>
      </trkpt>
      <trkpt lat="48.64866" lon="7.26166">
        <ele>516</ele>
        <time>2013-04-07T11:06:03.000Z</time>
      </trkpt>
      <trkpt lat="48.64872" lon="7.26154">
        <ele>516</ele>
        <time>2013-04-07T11:06:05.000Z</time>
      </trkpt>
      <trkpt lat="48.64876" lon="7.26153">
        <ele>516</ele>
        <time>2013-04-07T11:06:07.000Z</time>
      </trkpt>
      <trkpt lat="48.64881" lon="7.26145">
        <ele>517</ele>
        <time>2013-04-07T11:06:10.000Z</time>
      </trkpt>
      <trkpt lat="48.64884" lon="7.26144">
        <ele>516</ele>
        <time>2013-04-07T11:06:13.000Z</time>
      </trkpt>
      <trkpt lat="48.64888" lon="7.26138">
        <ele>517</ele>
        <time>2013-04-07T11:06:16.000Z</time>
      </trkpt>
      <trkpt lat="48.64893" lon="7.26132">
        <ele>517</ele>
        <time>2013-04-07T11:06:19.000Z</time>
      </trkpt>
      <trkpt lat="48.64898" lon="7.26127">
        <ele>518</ele>
        <time>2013-04-07T11:06:23.000Z</time>
      </trkpt>
      <trkpt lat="48.64903" lon="7.26126">
        <ele>518</ele>
        <time>2013-04-07T11:06:26.000Z</time>
      </trkpt>
      <trkpt lat="48.64908" lon="7.2612">
        <ele>519</ele>
        <time>2013-04-07T11:06:30.000Z</time>
      </trkpt>
      <trkpt lat="48.64911" lon="7.26118">
        <ele>520</ele>
        <time>2013-04-07T11:06:32.000Z</time>
      </trkpt>
      <trkpt lat="48.64916" lon="7.26113">
        <ele>521</ele>
        <time>2013-04-07T11:06:36.000Z</time>
      </trkpt>
      <trkpt lat="48.64922" lon="7.26111">
        <ele>508</ele>
        <time>2013-04-07T11:06:38.000Z</time>
      </trkpt>
      <trkpt lat="48.64923" lon="7.2611">
        <ele>508</ele>
        <time>2013-04-07T11:06:40.000Z</time>
      </trkpt>
      <trkpt lat="48.64926" lon="7.26101">
        <ele>511</ele>
        <time>2013-04-07T11:06:43.000Z</time>
      </trkpt>
      <trkpt lat="48.6493" lon="7.26091">
        <ele>514</ele>
        <time>2013-04-07T11:06:45.000Z</time>
      </trkpt>
      <trkpt lat="48.64933" lon="7.26091">
        <ele>512</ele>
        <time>2013-04-07T11:06:48.000Z</time>
      </trkpt>
      <trkpt lat="48.64928" lon="7.26085">
        <ele>517</ele>
        <time>2013-04-07T11:06:51.000Z</time>
      </trkpt>
      <trkpt lat="48.64939" lon="7.26074">
        <ele>523</ele>
        <time>2013-04-07T11:06:54.000Z</time>
      </trkpt>
      <trkpt lat="48.64933" lon="7.26077">
        <ele>524</ele>
        <time>2013-04-07T11:06:56.000Z</time>
      </trkpt>
      <trkpt lat="48.64944" lon="7.26063">
        <ele>523</ele>
        <time>2013-04-07T11:06:59.000Z</time>
      </trkpt>
      <trkpt lat="48.64947" lon="7.26055">
        <ele>523</ele>
        <time>2013-04-07T11:07:03.000Z</time>
      </trkpt>
      <trkpt lat="48.64949" lon="7.26049">
        <ele>523</ele>
        <time>2013-04-07T11:07:05.000Z</time>
      </trkpt>
      <trkpt lat="48.64952" lon="7.26043">
        <ele>524</ele>
        <time>2013-04-07T11:07:07.000Z</time>
      </trkpt>
      <trkpt lat="48.64958" lon="7.26032">
        <ele>524</ele>
        <time>2013-04-07T11:07:10.000Z</time>
      </trkpt>
      <trkpt lat="48.64952" lon="7.26034">
        <ele>525</ele>
        <time>2013-04-07T11:07:13.000Z</time>
      </trkpt>
      <trkpt lat="48.64964" lon="7.26022">
        <ele>524</ele>
        <time>2013-04-07T11:07:17.000Z</time>
      </trkpt>
      <trkpt lat="48.64965" lon="7.26023">
        <ele>524</ele>
        <time>2013-04-07T11:07:19.000Z</time>
      </trkpt>
      <trkpt lat="48.64967" lon="7.26017">
        <ele>524</ele>
        <time>2013-04-07T11:07:21.000Z</time>
      </trkpt>
      <trkpt lat="48.6497" lon="7.26009">
        <ele>524</ele>
        <time>2013-04-07T11:07:25.000Z</time>
      </trkpt>
      <trkpt lat="48.64972" lon="7.26006">
        <ele>524</ele>
        <time>2013-04-07T11:07:27.000Z</time>
      </trkpt>
      <trkpt lat="48.64977" lon="7.26003">
        <ele>523</ele>
        <time>2013-04-07T11:07:31.000Z</time>
      </trkpt>
      <trkpt lat="48.64979" lon="7.26001">
        <ele>523</ele>
        <time>2013-04-07T11:07:33.000Z</time>
      </trkpt>
      <trkpt lat="48.64983" lon="7.25988">
        <ele>534</ele>
        <time>2013-04-07T11:07:37.000Z</time>
      </trkpt>
      <trkpt lat="48.64983" lon="7.25993">
        <ele>533</ele>
        <time>2013-04-07T11:07:39.000Z</time>
      </trkpt>
      <trkpt lat="48.64988" lon="7.25988">
        <ele>532</ele>
        <time>2013-04-07T11:07:41.000Z</time>
      </trkpt>
      <trkpt lat="48.6498" lon="7.25982">
        <ele>536</ele>
        <time>2013-04-07T11:07:44.000Z</time>
      </trkpt>
      <trkpt lat="48.64996" lon="7.25977">
        <ele>534</ele>
        <time>2013-04-07T11:07:47.000Z</time>
      </trkpt>
      <trkpt lat="48.65001" lon="7.25972">
        <ele>521</ele>
        <time>2013-04-07T11:07:49.000Z</time>
      </trkpt>
      <trkpt lat="48.65006" lon="7.25968">
        <ele>521</ele>
        <time>2013-04-07T11:07:52.000Z</time>
      </trkpt>
      <trkpt lat="48.65011" lon="7.25959">
        <ele>522</ele>
        <time>2013-04-07T11:07:54.000Z</time>
      </trkpt>
      <trkpt lat="48.65005" lon="7.25953">
        <ele>524</ele>
        <time>2013-04-07T11:07:57.000Z</time>
      </trkpt>
      <trkpt lat="48.65017" lon="7.25947">
        <ele>524</ele>
        <time>2013-04-07T11:08:00.000Z</time>
      </trkpt>
      <trkpt lat="48.65026" lon="7.25943">
        <ele>524</ele>
        <time>2013-04-07T11:08:03.000Z</time>
      </trkpt>
      <trkpt lat="48.65031" lon="7.25932">
        <ele>524</ele>
        <time>2013-04-07T11:08:05.000Z</time>
      </trkpt>
      <trkpt lat="48.65036" lon="7.25927">
        <ele>524</ele>
        <time>2013-04-07T11:08:08.000Z</time>
      </trkpt>
      <trkpt lat="48.6504" lon="7.25921">
        <ele>523</ele>
        <time>2013-04-07T11:08:11.000Z</time>
      </trkpt>
      <trkpt lat="48.65043" lon="7.25914">
        <ele>534</ele>
        <time>2013-04-07T11:08:13.000Z</time>
      </trkpt>
      <trkpt lat="48.65037" lon="7.25918">
        <ele>524</ele>
        <time>2013-04-07T11:08:15.000Z</time>
      </trkpt>
      <trkpt lat="48.65036" lon="7.25904">
        <ele>535</ele>
        <time>2013-04-07T11:08:19.000Z</time>
      </trkpt>
      <trkpt lat="48.65049" lon="7.25894">
        <ele>533</ele>
        <time>2013-04-07T11:08:22.000Z</time>
      </trkpt>
      <trkpt lat="48.6506" lon="7.2588">
        <ele>533</ele>
        <time>2013-04-07T11:08:25.000Z</time>
      </trkpt>
      <trkpt lat="48.65063" lon="7.2588">
        <ele>533</ele>
        <time>2013-04-07T11:08:27.000Z</time>
      </trkpt>
      <trkpt lat="48.6507" lon="7.2586">
        <ele>533</ele>
        <time>2013-04-07T11:08:31.000Z</time>
      </trkpt>
      <trkpt lat="48.65072" lon="7.25856">
        <ele>533</ele>
        <time>2013-04-07T11:08:33.000Z</time>
      </trkpt>
      <trkpt lat="48.65076" lon="7.25842">
        <ele>533</ele>
        <time>2013-04-07T11:08:36.000Z</time>
      </trkpt>
      <trkpt lat="48.65079" lon="7.25835">
        <ele>532</ele>
        <time>2013-04-07T11:08:39.000Z</time>
      </trkpt>
      <trkpt lat="48.65081" lon="7.25834">
        <ele>531</ele>
        <time>2013-04-07T11:08:41.000Z</time>
      </trkpt>
      <trkpt lat="48.65084" lon="7.25829">
        <ele>531</ele>
        <time>2013-04-07T11:08:44.000Z</time>
      </trkpt>
      <trkpt lat="48.65088" lon="7.25816">
        <ele>530</ele>
        <time>2013-04-07T11:08:47.000Z</time>
      </trkpt>
      <trkpt lat="48.65089" lon="7.2581">
        <ele>530</ele>
        <time>2013-04-07T11:08:49.000Z</time>
      </trkpt>
      <trkpt lat="48.65092" lon="7.25802">
        <ele>530</ele>
        <time>2013-04-07T11:08:52.000Z</time>
      </trkpt>
      <trkpt lat="48.65094" lon="7.25795">
        <ele>531</ele>
        <time>2013-04-07T11:08:54.000Z</time>
      </trkpt>
      <trkpt lat="48.65095" lon="7.25787">
        <ele>531</ele>
        <time>2013-04-07T11:08:56.000Z</time>
      </trkpt>
      <trkpt lat="48.65096" lon="7.25777">
        <ele>532</ele>
        <time>2013-04-07T11:08:59.000Z</time>
      </trkpt>
      <trkpt lat="48.65095" lon="7.25772">
        <ele>533</ele>
        <time>2013-04-07T11:09:02.000Z</time>
      </trkpt>
      <trkpt lat="48.65094" lon="7.25752">
        <ele>535</ele>
        <time>2013-04-07T11:09:05.000Z</time>
      </trkpt>
      <trkpt lat="48.65092" lon="7.25754">
        <ele>536</ele>
        <time>2013-04-07T11:09:07.000Z</time>
      </trkpt>
      <trkpt lat="48.65089" lon="7.25736">
        <ele>538</ele>
        <time>2013-04-07T11:09:11.000Z</time>
      </trkpt>
      <trkpt lat="48.65088" lon="7.2573">
        <ele>538</ele>
        <time>2013-04-07T11:09:13.000Z</time>
      </trkpt>
      <trkpt lat="48.65086" lon="7.25727">
        <ele>538</ele>
        <time>2013-04-07T11:09:16.000Z</time>
      </trkpt>
      <trkpt lat="48.65082" lon="7.25718">
        <ele>544</ele>
        <time>2013-04-07T11:09:19.000Z</time>
      </trkpt>
      <trkpt lat="48.65079" lon="7.25712">
        <ele>545</ele>
        <time>2013-04-07T11:09:22.000Z</time>
      </trkpt>
      <trkpt lat="48.65076" lon="7.25692">
        <ele>545</ele>
        <time>2013-04-07T11:09:26.000Z</time>
      </trkpt>
      <trkpt lat="48.65072" lon="7.2569">
        <ele>546</ele>
        <time>2013-04-07T11:09:29.000Z</time>
      </trkpt>
      <trkpt lat="48.6507" lon="7.25681">
        <ele>545</ele>
        <time>2013-04-07T11:09:33.000Z</time>
      </trkpt>
      <trkpt lat="48.65067" lon="7.25676">
        <ele>546</ele>
        <time>2013-04-07T11:09:35.000Z</time>
      </trkpt>
      <trkpt lat="48.65066" lon="7.25668">
        <ele>546</ele>
        <time>2013-04-07T11:09:39.000Z</time>
      </trkpt>
      <trkpt lat="48.65066" lon="7.25665">
        <ele>546</ele>
        <time>2013-04-07T11:09:41.000Z</time>
      </trkpt>
      <trkpt lat="48.65084" lon="7.25673">
        <ele>542</ele>
        <time>2013-04-07T11:09:46.000Z</time>
      </trkpt>
      <trkpt lat="48.65067" lon="7.25656">
        <ele>546</ele>
        <time>2013-04-07T11:09:52.000Z</time>
      </trkpt>
      <trkpt lat="48.65067" lon="7.25656">
        <ele>546</ele>
        <time>2013-04-07T11:10:12.000Z</time>
      </trkpt>
      <trkpt lat="48.65068" lon="7.25658">
        <ele>546</ele>
        <time>2013-04-07T11:10:25.000Z</time>
      </trkpt>
      <trkpt lat="48.65069" lon="7.25647">
        <ele>546</ele>
        <time>2013-04-07T11:10:37.000Z</time>
      </trkpt>
      <trkpt lat="48.65067" lon="7.25648">
        <ele>546</ele>
        <time>2013-04-07T11:10:42.000Z</time>
      </trkpt>
      <trkpt lat="48.65066" lon="7.25646">
        <ele>546</ele>
        <time>2013-04-07T11:10:51.000Z</time>
      </trkpt>
      <trkpt lat="48.65078" lon="7.25646">
        <ele>546</ele>
        <time>2013-04-07T11:11:01.000Z</time>
      </trkpt>
      <trkpt lat="48.65078" lon="7.25646">
        <ele>546</ele>
        <time>2013-04-07T11:11:21.000Z</time>
      </trkpt>
      <trkpt lat="48.65066" lon="7.2564">
        <ele>546</ele>
        <time>2013-04-07T11:11:30.000Z</time>
      </trkpt>
      <trkpt lat="48.65068" lon="7.25644">
        <ele>546</ele>
        <time>2013-04-07T11:11:35.000Z</time>
      </trkpt>
      <trkpt lat="48.65068" lon="7.25644">
        <ele>546</ele>
        <time>2013-04-07T11:11:55.000Z</time>
      </trkpt>
      <trkpt lat="48.65064" lon="7.25647">
        <ele>546</ele>
        <time>2013-04-07T11:11:58.000Z</time>
      </trkpt>
      <trkpt lat="48.65064" lon="7.25647">
        <ele>546</ele>
        <time>2013-04-07T11:12:18.000Z</time>
      </trkpt>
      <trkpt lat="48.65066" lon="7.25644">
        <ele>546</ele>
        <time>2013-04-07T11:12:18.000Z</time>
      </trkpt>
      <trkpt lat="48.65066" lon="7.25644">
        <ele>546</ele>
        <time>2013-04-07T11:12:38.000Z</time>
      </trkpt>
      <trkpt lat="48.65055" lon="7.2564">
        <ele>547</ele>
        <time>2013-04-07T11:12:41.000Z</time>
      </trkpt>
      <trkpt lat="48.65068" lon="7.25643">
        <ele>546</ele>
        <time>2013-04-07T11:12:55.000Z</time>
      </trkpt>
      <trkpt lat="48.65068" lon="7.25643">
        <ele>546</ele>
        <time>2013-04-07T11:13:15.000Z</time>
      </trkpt>
      <trkpt lat="48.65068" lon="7.2564">
        <ele>546</ele>
        <time>2013-04-07T11:13:27.000Z</time>
      </trkpt>
      <trkpt lat="48.65068" lon="7.2564">
        <ele>546</ele>
        <time>2013-04-07T11:13:47.000Z</time>
      </trkpt>
      <trkpt lat="48.65068" lon="7.25639">
        <ele>546</ele>
        <time>2013-04-07T11:14:30.000Z</time>
      </trkpt>
      <trkpt lat="48.65068" lon="7.25639">
        <ele>546</ele>
        <time>2013-04-07T11:14:50.000Z</time>
      </trkpt>
      <trkpt lat="48.65092" lon="7.25643">
        <ele>541</ele>
        <time>2013-04-07T11:14:56.000Z</time>
      </trkpt>
      <trkpt lat="48.65067" lon="7.25633">
        <ele>546</ele>
        <time>2013-04-07T11:15:15.000Z</time>
      </trkpt>
      <trkpt lat="48.65067" lon="7.25633">
        <ele>546</ele>
        <time>2013-04-07T11:15:35.000Z</time>
      </trkpt>
      <trkpt lat="48.65068" lon="7.25635">
        <ele>546</ele>
        <time>2013-04-07T11:15:45.000Z</time>
      </trkpt>
      <trkpt lat="48.65068" lon="7.25635">
        <ele>546</ele>
        <time>2013-04-07T11:16:05.000Z</time>
      </trkpt>
      <trkpt lat="48.65053" lon="7.25636">
        <ele>547</ele>
        <time>2013-04-07T11:16:12.000Z</time>
      </trkpt>
      <trkpt lat="48.65075" lon="7.25646">
        <ele>546</ele>
        <time>2013-04-07T11:16:18.000Z</time>
      </trkpt>
      <trkpt lat="48.65081" lon="7.25648">
        <ele>546</ele>
        <time>2013-04-07T11:16:22.000Z</time>
      </trkpt>
      <trkpt lat="48.6508" lon="7.25652">
        <ele>545</ele>
        <time>2013-04-07T11:16:24.000Z</time>
      </trkpt>
      <trkpt lat="48.6508" lon="7.25652">
        <ele>545</ele>
        <time>2013-04-07T11:16:44.000Z</time>
      </trkpt>
      <trkpt lat="48.65081" lon="7.25645">
        <ele>546</ele>
        <time>2013-04-07T11:16:53.000Z</time>
      </trkpt>
      <trkpt lat="48.65079" lon="7.25649">
        <ele>546</ele>
        <time>2013-04-07T11:16:58.000Z</time>
      </trkpt>
      <trkpt lat="48.65084" lon="7.25652">
        <ele>542</ele>
        <time>2013-04-07T11:17:04.000Z</time>
      </trkpt>
      <trkpt lat="48.65075" lon="7.25655">
        <ele>545</ele>
        <time>2013-04-07T11:17:07.000Z</time>
      </trkpt>
      <trkpt lat="48.65074" lon="7.25651">
        <ele>546</ele>
        <time>2013-04-07T11:17:11.000Z</time>
      </trkpt>
      <trkpt lat="48.65071" lon="7.25649">
        <ele>546</ele>
        <time>2013-04-07T11:17:17.000Z</time>
      </trkpt>
      <trkpt lat="48.6507" lon="7.25644">
        <ele>546</ele>
        <time>2013-04-07T11:17:20.000Z</time>
      </trkpt>
      <trkpt lat="48.65084" lon="7.25647">
        <ele>542</ele>
        <time>2013-04-07T11:17:23.000Z</time>
      </trkpt>
      <trkpt lat="48.65084" lon="7.25647">
        <ele>542</ele>
        <time>2013-04-07T11:17:43.000Z</time>
      </trkpt>
      <trkpt lat="48.65068" lon="7.2565">
        <ele>546</ele>
        <time>2013-04-07T11:18:07.000Z</time>
      </trkpt>
      <trkpt lat="48.65068" lon="7.2565">
        <ele>546</ele>
        <time>2013-04-07T11:18:27.000Z</time>
      </trkpt>
      <trkpt lat="48.65077" lon="7.25646">
        <ele>546</ele>
        <time>2013-04-07T11:18:34.000Z</time>
      </trkpt>
      <trkpt lat="48.6507" lon="7.25653">
        <ele>546</ele>
        <time>2013-04-07T11:18:40.000Z</time>
      </trkpt>
      <trkpt lat="48.65075" lon="7.25648">
        <ele>546</ele>
        <time>2013-04-07T11:18:56.000Z</time>
      </trkpt>
      <trkpt lat="48.65073" lon="7.25649">
        <ele>546</ele>
        <time>2013-04-07T11:19:08.000Z</time>
      </trkpt>
      <trkpt lat="48.65073" lon="7.25649">
        <ele>546</ele>
        <time>2013-04-07T11:19:28.000Z</time>
      </trkpt>
      <trkpt lat="48.65072" lon="7.25649">
        <ele>546</ele>
        <time>2013-04-07T11:19:47.000Z</time>
      </trkpt>
      <trkpt lat="48.65088" lon="7.25655">
        <ele>542</ele>
        <time>2013-04-07T11:19:53.000Z</time>
      </trkpt>
      <trkpt lat="48.65073" lon="7.25644">
        <ele>546</ele>
        <time>2013-04-07T11:20:04.000Z</time>
      </trkpt>
      <trkpt lat="48.65073" lon="7.25644">
        <ele>546</ele>
        <time>2013-04-07T11:20:24.000Z</time>
      </trkpt>
      <trkpt lat="48.6507" lon="7.25647">
        <ele>546</ele>
        <time>2013-04-07T11:20:53.000Z</time>
      </trkpt>
      <trkpt lat="48.65078" lon="7.25639">
        <ele>546</ele>
        <time>2013-04-07T11:20:58.000Z</time>
      </trkpt>
      <trkpt lat="48.65078" lon="7.25639">
        <ele>546</ele>
        <time>2013-04-07T11:21:18.000Z</time>
      </trkpt>
      <trkpt lat="48.65076" lon="7.2564">
        <ele>546</ele>
        <time>2013-04-07T11:21:39.000Z</time>
      </trkpt>
      <trkpt lat="48.65076" lon="7.2564">
        <ele>546</ele>
        <time>2013-04-07T11:21:59.000Z</time>
      </trkpt>
      <trkpt lat="48.65073" lon="7.25641">
        <ele>546</ele>
        <time>2013-04-07T11:22:15.000Z</time>
      </trkpt>
      <trkpt lat="48.65073" lon="7.25641">
        <ele>546</ele>
        <time>2013-04-07T11:22:35.000Z</time>
      </trkpt>
      <trkpt lat="48.65079" lon="7.25648">
        <ele>546</ele>
        <time>2013-04-07T11:22:36.000Z</time>
      </trkpt>
      <trkpt lat="48.65073" lon="7.25638">
        <ele>546</ele>
        <time>2013-04-07T11:22:56.000Z</time>
      </trkpt>
      <trkpt lat="48.65071" lon="7.25643">
        <ele>546</ele>
        <time>2013-04-07T11:22:58.000Z</time>
      </trkpt>
      <trkpt lat="48.65069" lon="7.25647">
        <ele>546</ele>
        <time>2013-04-07T11:23:01.000Z</time>
      </trkpt>
      <trkpt lat="48.65069" lon="7.25647">
        <ele>546</ele>
        <time>2013-04-07T11:23:21.000Z</time>
      </trkpt>
      <trkpt lat="48.65089" lon="7.25644">
        <ele>542</ele>
        <time>2013-04-07T11:23:24.000Z</time>
      </trkpt>
      <trkpt lat="48.65067" lon="7.25645">
        <ele>546</ele>
        <time>2013-04-07T11:23:38.000Z</time>
      </trkpt>
      <trkpt lat="48.65067" lon="7.25641">
        <ele>546</ele>
        <time>2013-04-07T11:23:42.000Z</time>
      </trkpt>
      <trkpt lat="48.65066" lon="7.25638">
        <ele>546</ele>
        <time>2013-04-07T11:23:46.000Z</time>
      </trkpt>
      <trkpt lat="48.65065" lon="7.25635">
        <ele>546</ele>
        <time>2013-04-07T11:23:50.000Z</time>
      </trkpt>
      <trkpt lat="48.65069" lon="7.25637">
        <ele>546</ele>
        <time>2013-04-07T11:23:54.000Z</time>
      </trkpt>
      <trkpt lat="48.65063" lon="7.25624">
        <ele>546</ele>
        <time>2013-04-07T11:23:57.000Z</time>
      </trkpt>
      <trkpt lat="48.65062" lon="7.25624">
        <ele>546</ele>
        <time>2013-04-07T11:24:05.000Z</time>
      </trkpt>
      <trkpt lat="48.65059" lon="7.25617">
        <ele>546</ele>
        <time>2013-04-07T11:24:09.000Z</time>
      </trkpt>
      <trkpt lat="48.65057" lon="7.25616">
        <ele>546</ele>
        <time>2013-04-07T11:24:11.000Z</time>
      </trkpt>
      <trkpt lat="48.65054" lon="7.25611">
        <ele>546</ele>
        <time>2013-04-07T11:24:15.000Z</time>
      </trkpt>
      <trkpt lat="48.65053" lon="7.25603">
        <ele>546</ele>
        <time>2013-04-07T11:24:17.000Z</time>
      </trkpt>
      <trkpt lat="48.65053" lon="7.25595">
        <ele>546</ele>
        <time>2013-04-07T11:24:20.000Z</time>
      </trkpt>
      <trkpt lat="48.65057" lon="7.25587">
        <ele>546</ele>
        <time>2013-04-07T11:24:23.000Z</time>
      </trkpt>
      <trkpt lat="48.65066" lon="7.25583">
        <ele>543</ele>
        <time>2013-04-07T11:24:26.000Z</time>
      </trkpt>
      <trkpt lat="48.65068" lon="7.25585">
        <ele>545</ele>
        <time>2013-04-07T11:24:28.000Z</time>
      </trkpt>
      <trkpt lat="48.6507" lon="7.25586">
        <ele>545</ele>
        <time>2013-04-07T11:24:30.000Z</time>
      </trkpt>
      <trkpt lat="48.65073" lon="7.25586">
        <ele>544</ele>
        <time>2013-04-07T11:24:32.000Z</time>
      </trkpt>
      <trkpt lat="48.65082" lon="7.25591">
        <ele>544</ele>
        <time>2013-04-07T11:24:35.000Z</time>
      </trkpt>
      <trkpt lat="48.65086" lon="7.25586">
        <ele>543</ele>
        <time>2013-04-07T11:24:37.000Z</time>
      </trkpt>
      <trkpt lat="48.65091" lon="7.25589">
        <ele>542</ele>
        <time>2013-04-07T11:24:39.000Z</time>
      </trkpt>
      <trkpt lat="48.65094" lon="7.25592">
        <ele>542</ele>
        <time>2013-04-07T11:24:41.000Z</time>
      </trkpt>
      <trkpt lat="48.65101" lon="7.25588">
        <ele>541</ele>
        <time>2013-04-07T11:24:43.000Z</time>
      </trkpt>
      <trkpt lat="48.65111" lon="7.25576">
        <ele>537</ele>
        <time>2013-04-07T11:24:46.000Z</time>
      </trkpt>
      <trkpt lat="48.65116" lon="7.25572">
        <ele>537</ele>
        <time>2013-04-07T11:24:48.000Z</time>
      </trkpt>
      <trkpt lat="48.6512" lon="7.25577">
        <ele>537</ele>
        <time>2013-04-07T11:24:50.000Z</time>
      </trkpt>
      <trkpt lat="48.65125" lon="7.25579">
        <ele>536</ele>
        <time>2013-04-07T11:24:52.000Z</time>
      </trkpt>
      <trkpt lat="48.65131" lon="7.25576">
        <ele>536</ele>
        <time>2013-04-07T11:24:55.000Z</time>
      </trkpt>
      <trkpt lat="48.65137" lon="7.25571">
        <ele>535</ele>
        <time>2013-04-07T11:24:57.000Z</time>
      </trkpt>
      <trkpt lat="48.65141" lon="7.25579">
        <ele>535</ele>
        <time>2013-04-07T11:24:59.000Z</time>
      </trkpt>
      <trkpt lat="48.65145" lon="7.25576">
        <ele>535</ele>
        <time>2013-04-07T11:25:01.000Z</time>
      </trkpt>
      <trkpt lat="48.65152" lon="7.25578">
        <ele>535</ele>
        <time>2013-04-07T11:25:04.000Z</time>
      </trkpt>
      <trkpt lat="48.65161" lon="7.25579">
        <ele>535</ele>
        <time>2013-04-07T11:25:07.000Z</time>
      </trkpt>
      <trkpt lat="48.65171" lon="7.25587">
        <ele>535</ele>
        <time>2013-04-07T11:25:10.000Z</time>
      </trkpt>
      <trkpt lat="48.65178" lon="7.25592">
        <ele>534</ele>
        <time>2013-04-07T11:25:13.000Z</time>
      </trkpt>
      <trkpt lat="48.65163" lon="7.25581">
        <ele>535</ele>
        <time>2013-04-07T11:25:16.000Z</time>
      </trkpt>
      <trkpt lat="48.65175" lon="7.25585">
        <ele>534</ele>
        <time>2013-04-07T11:25:19.000Z</time>
      </trkpt>
      <trkpt lat="48.65207" lon="7.25589">
        <ele>533</ele>
        <time>2013-04-07T11:25:23.000Z</time>
      </trkpt>
      <trkpt lat="48.65216" lon="7.25586">
        <ele>533</ele>
        <time>2013-04-07T11:25:26.000Z</time>
      </trkpt>
      <trkpt lat="48.65226" lon="7.25584">
        <ele>532</ele>
        <time>2013-04-07T11:25:29.000Z</time>
      </trkpt>
      <trkpt lat="48.65233" lon="7.2558">
        <ele>531</ele>
        <time>2013-04-07T11:25:31.000Z</time>
      </trkpt>
      <trkpt lat="48.65249" lon="7.25578">
        <ele>531</ele>
        <time>2013-04-07T11:25:34.000Z</time>
      </trkpt>
      <trkpt lat="48.65255" lon="7.25568">
        <ele>530</ele>
        <time>2013-04-07T11:25:36.000Z</time>
      </trkpt>
      <trkpt lat="48.65282" lon="7.25556">
        <ele>529</ele>
        <time>2013-04-07T11:25:40.000Z</time>
      </trkpt>
      <trkpt lat="48.65277" lon="7.25546">
        <ele>529</ele>
        <time>2013-04-07T11:25:42.000Z</time>
      </trkpt>
      <trkpt lat="48.65319" lon="7.25536">
        <ele>528</ele>
        <time>2013-04-07T11:25:47.000Z</time>
      </trkpt>
      <trkpt lat="48.65326" lon="7.25535">
        <ele>528</ele>
        <time>2013-04-07T11:25:49.000Z</time>
      </trkpt>
      <trkpt lat="48.65334" lon="7.25528">
        <ele>528</ele>
        <time>2013-04-07T11:25:51.000Z</time>
      </trkpt>
      <trkpt lat="48.6534" lon="7.25523">
        <ele>528</ele>
        <time>2013-04-07T11:25:53.000Z</time>
      </trkpt>
      <trkpt lat="48.65348" lon="7.25518">
        <ele>528</ele>
        <time>2013-04-07T11:25:55.000Z</time>
      </trkpt>
      <trkpt lat="48.65358" lon="7.25506">
        <ele>528</ele>
        <time>2013-04-07T11:25:58.000Z</time>
      </trkpt>
      <trkpt lat="48.65366" lon="7.25499">
        <ele>529</ele>
        <time>2013-04-07T11:26:01.000Z</time>
      </trkpt>
      <trkpt lat="48.65375" lon="7.25488">
        <ele>530</ele>
        <time>2013-04-07T11:26:04.000Z</time>
      </trkpt>
      <trkpt lat="48.65378" lon="7.25485">
        <ele>530</ele>
        <time>2013-04-07T11:26:06.000Z</time>
      </trkpt>
      <trkpt lat="48.65383" lon="7.25478">
        <ele>530</ele>
        <time>2013-04-07T11:26:08.000Z</time>
      </trkpt>
      <trkpt lat="48.65388" lon="7.25472">
        <ele>530</ele>
        <time>2013-04-07T11:26:10.000Z</time>
      </trkpt>
      <trkpt lat="48.65389" lon="7.2546">
        <ele>530</ele>
        <time>2013-04-07T11:26:12.000Z</time>
      </trkpt>
      <trkpt lat="48.65401" lon="7.25453">
        <ele>530</ele>
        <time>2013-04-07T11:26:14.000Z</time>
      </trkpt>
      <trkpt lat="48.65407" lon="7.25446">
        <ele>530</ele>
        <time>2013-04-07T11:26:16.000Z</time>
      </trkpt>
      <trkpt lat="48.65411" lon="7.25438">
        <ele>531</ele>
        <time>2013-04-07T11:26:18.000Z</time>
      </trkpt>
      <trkpt lat="48.65419" lon="7.25421">
        <ele>533</ele>
        <time>2013-04-07T11:26:21.000Z</time>
      </trkpt>
      <trkpt lat="48.65424" lon="7.25415">
        <ele>532</ele>
        <time>2013-04-07T11:26:23.000Z</time>
      </trkpt>
      <trkpt lat="48.6543" lon="7.25409">
        <ele>533</ele>
        <time>2013-04-07T11:26:25.000Z</time>
      </trkpt>
      <trkpt lat="48.65438" lon="7.25407">
        <ele>533</ele>
        <time>2013-04-07T11:26:27.000Z</time>
      </trkpt>
      <trkpt lat="48.65442" lon="7.25412">
        <ele>533</ele>
        <time>2013-04-07T11:26:29.000Z</time>
      </trkpt>
      <trkpt lat="48.65445" lon="7.25411">
        <ele>533</ele>
        <time>2013-04-07T11:26:31.000Z</time>
      </trkpt>
      <trkpt lat="48.65449" lon="7.25412">
        <ele>534</ele>
        <time>2013-04-07T11:26:35.000Z</time>
      </trkpt>
      <trkpt lat="48.65451" lon="7.25412">
        <ele>534</ele>
        <time>2013-04-07T11:26:37.000Z</time>
      </trkpt>
      <trkpt lat="48.65457" lon="7.25415">
        <ele>534</ele>
        <time>2013-04-07T11:26:40.000Z</time>
      </trkpt>
      <trkpt lat="48.65466" lon="7.2542">
        <ele>537</ele>
        <time>2013-04-07T11:26:44.000Z</time>
      </trkpt>
      <trkpt lat="48.65472" lon="7.25422">
        <ele>537</ele>
        <time>2013-04-07T11:26:48.000Z</time>
      </trkpt>
      <trkpt lat="48.65477" lon="7.25421">
        <ele>538</ele>
        <time>2013-04-07T11:26:50.000Z</time>
      </trkpt>
      <trkpt lat="48.65484" lon="7.2542">
        <ele>538</ele>
        <time>2013-04-07T11:26:54.000Z</time>
      </trkpt>
      <trkpt lat="48.65485" lon="7.25425">
        <ele>538</ele>
        <time>2013-04-07T11:26:56.000Z</time>
      </trkpt>
      <trkpt lat="48.65491" lon="7.25427">
        <ele>539</ele>
        <time>2013-04-07T11:27:00.000Z</time>
      </trkpt>
      <trkpt lat="48.65493" lon="7.2543">
        <ele>538</ele>
        <time>2013-04-07T11:27:02.000Z</time>
      </trkpt>
      <trkpt lat="48.65495" lon="7.25432">
        <ele>538</ele>
        <time>2013-04-07T11:27:04.000Z</time>
      </trkpt>
      <trkpt lat="48.65504" lon="7.25434">
        <ele>541</ele>
        <time>2013-04-07T11:27:08.000Z</time>
      </trkpt>
      <trkpt lat="48.65477" lon="7.25433">
        <ele>537</ele>
        <time>2013-04-07T11:27:12.000Z</time>
      </trkpt>
      <trkpt lat="48.65514" lon="7.25438">
        <ele>541</ele>
        <time>2013-04-07T11:27:17.000Z</time>
      </trkpt>
      <trkpt lat="48.65483" lon="7.25436">
        <ele>538</ele>
        <time>2013-04-07T11:27:27.000Z</time>
      </trkpt>
      <trkpt lat="48.65519" lon="7.25435">
        <ele>541</ele>
        <time>2013-04-07T11:27:32.000Z</time>
      </trkpt>
      <trkpt lat="48.65491" lon="7.25434">
        <ele>538</ele>
        <time>2013-04-07T11:27:36.000Z</time>
      </trkpt>
      <trkpt lat="48.65491" lon="7.25434">
        <ele>538</ele>
        <time>2013-04-07T11:27:56.000Z</time>
      </trkpt>
      <trkpt lat="48.65524" lon="7.25437">
        <ele>541</ele>
        <time>2013-04-07T11:28:36.000Z</time>
      </trkpt>
      <trkpt lat="48.65524" lon="7.25437">
        <ele>541</ele>
        <time>2013-04-07T11:28:56.000Z</time>
      </trkpt>
      <trkpt lat="48.65526" lon="7.2544">
        <ele>541</ele>
        <time>2013-04-07T11:29:31.000Z</time>
      </trkpt>
      <trkpt lat="48.65527" lon="7.2544">
        <ele>541</ele>
        <time>2013-04-07T11:29:45.000Z</time>
      </trkpt>
      <trkpt lat="48.6554" lon="7.25448">
        <ele>541</ele>
        <time>2013-04-07T11:29:54.000Z</time>
      </trkpt>
      <trkpt lat="48.65541" lon="7.25445">
        <ele>541</ele>
        <time>2013-04-07T11:29:57.000Z</time>
      </trkpt>
      <trkpt lat="48.65533" lon="7.25449">
        <ele>541</ele>
        <time>2013-04-07T11:30:00.000Z</time>
      </trkpt>
      <trkpt lat="48.6562" lon="7.25462">
        <ele>539</ele>
        <time>2013-04-07T11:30:08.000Z</time>
      </trkpt>
      <trkpt lat="48.65645" lon="7.25472">
        <ele>537</ele>
        <time>2013-04-07T11:30:10.000Z</time>
      </trkpt>
      <trkpt lat="48.65683" lon="7.25467">
        <ele>529</ele>
        <time>2013-04-07T11:30:13.000Z</time>
      </trkpt>
      <trkpt lat="48.65693" lon="7.25452">
        <ele>530</ele>
        <time>2013-04-07T11:30:15.000Z</time>
      </trkpt>
      <trkpt lat="48.65709" lon="7.25456">
        <ele>528</ele>
        <time>2013-04-07T11:30:17.000Z</time>
      </trkpt>
      <trkpt lat="48.65699" lon="7.25446">
        <ele>530</ele>
        <time>2013-04-07T11:30:20.000Z</time>
      </trkpt>
      <trkpt lat="48.65708" lon="7.2544">
        <ele>529</ele>
        <time>2013-04-07T11:30:23.000Z</time>
      </trkpt>
      <trkpt lat="48.65803" lon="7.25429">
        <ele>516</ele>
        <time>2013-04-07T11:30:31.000Z</time>
      </trkpt>
      <trkpt lat="48.65821" lon="7.2544">
        <ele>515</ele>
        <time>2013-04-07T11:30:34.000Z</time>
      </trkpt>
      <trkpt lat="48.65834" lon="7.25448">
        <ele>509</ele>
        <time>2013-04-07T11:30:36.000Z</time>
      </trkpt>
      <trkpt lat="48.65847" lon="7.25462">
        <ele>506</ele>
        <time>2013-04-07T11:30:38.000Z</time>
      </trkpt>
      <trkpt lat="48.65861" lon="7.25463">
        <ele>506</ele>
        <time>2013-04-07T11:30:41.000Z</time>
      </trkpt>
      <trkpt lat="48.6587" lon="7.25477">
        <ele>504</ele>
        <time>2013-04-07T11:30:43.000Z</time>
      </trkpt>
      <trkpt lat="48.65879" lon="7.25483">
        <ele>503</ele>
        <time>2013-04-07T11:30:45.000Z</time>
      </trkpt>
      <trkpt lat="48.65895" lon="7.25504">
        <ele>487</ele>
        <time>2013-04-07T11:30:48.000Z</time>
      </trkpt>
      <trkpt lat="48.65908" lon="7.25499">
        <ele>496</ele>
        <time>2013-04-07T11:30:50.000Z</time>
      </trkpt>
      <trkpt lat="48.65929" lon="7.25498">
        <ele>494</ele>
        <time>2013-04-07T11:30:53.000Z</time>
      </trkpt>
      <trkpt lat="48.65942" lon="7.25497">
        <ele>495</ele>
        <time>2013-04-07T11:30:56.000Z</time>
      </trkpt>
      <trkpt lat="48.65958" lon="7.25492">
        <ele>494</ele>
        <time>2013-04-07T11:30:59.000Z</time>
      </trkpt>
      <trkpt lat="48.6599" lon="7.25471">
        <ele>493</ele>
        <time>2013-04-07T11:31:03.000Z</time>
      </trkpt>
      <trkpt lat="48.66021" lon="7.25453">
        <ele>484</ele>
        <time>2013-04-07T11:31:06.000Z</time>
      </trkpt>
      <trkpt lat="48.66048" lon="7.25434">
        <ele>483</ele>
        <time>2013-04-07T11:31:09.000Z</time>
      </trkpt>
      <trkpt lat="48.66071" lon="7.25424">
        <ele>481</ele>
        <time>2013-04-07T11:31:12.000Z</time>
      </trkpt>
      <trkpt lat="48.66142" lon="7.25374">
        <ele>477</ele>
        <time>2013-04-07T11:31:18.000Z</time>
      </trkpt>
      <trkpt lat="48.66161" lon="7.25348">
        <ele>477</ele>
        <time>2013-04-07T11:31:20.000Z</time>
      </trkpt>
      <trkpt lat="48.66176" lon="7.25319">
        <ele>472</ele>
        <time>2013-04-07T11:31:22.000Z</time>
      </trkpt>
      <trkpt lat="48.66191" lon="7.25299">
        <ele>471</ele>
        <time>2013-04-07T11:31:25.000Z</time>
      </trkpt>
      <trkpt lat="48.66196" lon="7.25286">
        <ele>472</ele>
        <time>2013-04-07T11:31:28.000Z</time>
      </trkpt>
      <trkpt lat="48.66202" lon="7.25286">
        <ele>471</ele>
        <time>2013-04-07T11:31:30.000Z</time>
      </trkpt>
      <trkpt lat="48.66205" lon="7.25284">
        <ele>471</ele>
        <time>2013-04-07T11:31:32.000Z</time>
      </trkpt>
      <trkpt lat="48.66219" lon="7.25274">
        <ele>469</ele>
        <time>2013-04-07T11:31:35.000Z</time>
      </trkpt>
      <trkpt lat="48.6623" lon="7.2528">
        <ele>467</ele>
        <time>2013-04-07T11:31:37.000Z</time>
      </trkpt>
      <trkpt lat="48.66249" lon="7.25283">
        <ele>465</ele>
        <time>2013-04-07T11:31:40.000Z</time>
      </trkpt>
      <trkpt lat="48.66265" lon="7.25311">
        <ele>449</ele>
        <time>2013-04-07T11:31:43.000Z</time>
      </trkpt>
      <trkpt lat="48.66259" lon="7.25307">
        <ele>450</ele>
        <time>2013-04-07T11:31:46.000Z</time>
      </trkpt>
      <trkpt lat="48.66321" lon="7.25321">
        <ele>442</ele>
        <time>2013-04-07T11:31:53.000Z</time>
      </trkpt>
      <trkpt lat="48.66333" lon="7.25324">
        <ele>439</ele>
        <time>2013-04-07T11:31:55.000Z</time>
      </trkpt>
      <trkpt lat="48.66351" lon="7.25321">
        <ele>434</ele>
        <time>2013-04-07T11:31:57.000Z</time>
      </trkpt>
      <trkpt lat="48.66378" lon="7.25303">
        <ele>433</ele>
        <time>2013-04-07T11:32:00.000Z</time>
      </trkpt>
      <trkpt lat="48.66385" lon="7.25305">
        <ele>432</ele>
        <time>2013-04-07T11:32:02.000Z</time>
      </trkpt>
      <trkpt lat="48.66412" lon="7.2529">
        <ele>432</ele>
        <time>2013-04-07T11:32:07.000Z</time>
      </trkpt>
      <trkpt lat="48.66444" lon="7.25304">
        <ele>414</ele>
        <time>2013-04-07T11:32:11.000Z</time>
      </trkpt>
      <trkpt lat="48.66457" lon="7.25299">
        <ele>413</ele>
        <time>2013-04-07T11:32:14.000Z</time>
      </trkpt>
      <trkpt lat="48.66473" lon="7.25301">
        <ele>411</ele>
        <time>2013-04-07T11:32:17.000Z</time>
      </trkpt>
      <trkpt lat="48.66488" lon="7.25284">
        <ele>412</ele>
        <time>2013-04-07T11:32:20.000Z</time>
      </trkpt>
      <trkpt lat="48.66509" lon="7.25253">
        <ele>408</ele>
        <time>2013-04-07T11:32:23.000Z</time>
      </trkpt>
      <trkpt lat="48.66521" lon="7.25238">
        <ele>413</ele>
        <time>2013-04-07T11:32:25.000Z</time>
      </trkpt>
      <trkpt lat="48.66545" lon="7.25215">
        <ele>412</ele>
        <time>2013-04-07T11:32:28.000Z</time>
      </trkpt>
      <trkpt lat="48.66528" lon="7.25211">
        <ele>415</ele>
        <time>2013-04-07T11:32:30.000Z</time>
      </trkpt>
      <trkpt lat="48.6657" lon="7.25196">
        <ele>410</ele>
        <time>2013-04-07T11:32:34.000Z</time>
      </trkpt>
      <trkpt lat="48.66594" lon="7.25192">
        <ele>396</ele>
        <time>2013-04-07T11:32:36.000Z</time>
      </trkpt>
      <trkpt lat="48.66613" lon="7.25188">
        <ele>393</ele>
        <time>2013-04-07T11:32:38.000Z</time>
      </trkpt>
      <trkpt lat="48.66631" lon="7.25172">
        <ele>391</ele>
        <time>2013-04-07T11:32:41.000Z</time>
      </trkpt>
      <trkpt lat="48.66639" lon="7.25171">
        <ele>389</ele>
        <time>2013-04-07T11:32:43.000Z</time>
      </trkpt>
      <trkpt lat="48.66645" lon="7.25163">
        <ele>398</ele>
        <time>2013-04-07T11:32:45.000Z</time>
      </trkpt>
      <trkpt lat="48.66673" lon="7.25156">
        <ele>384</ele>
        <time>2013-04-07T11:32:49.000Z</time>
      </trkpt>
      <trkpt lat="48.6669" lon="7.25152">
        <ele>384</ele>
        <time>2013-04-07T11:32:52.000Z</time>
      </trkpt>
      <trkpt lat="48.66706" lon="7.25142">
        <ele>383</ele>
        <time>2013-04-07T11:32:55.000Z</time>
      </trkpt>
      <trkpt lat="48.66717" lon="7.25141">
        <ele>381</ele>
        <time>2013-04-07T11:32:58.000Z</time>
      </trkpt>
      <trkpt lat="48.66729" lon="7.25132">
        <ele>380</ele>
        <time>2013-04-07T11:33:01.000Z</time>
      </trkpt>
      <trkpt lat="48.66738" lon="7.25132">
        <ele>380</ele>
        <time>2013-04-07T11:33:04.000Z</time>
      </trkpt>
      <trkpt lat="48.66743" lon="7.25122">
        <ele>380</ele>
        <time>2013-04-07T11:33:06.000Z</time>
      </trkpt>
      <trkpt lat="48.66743" lon="7.25108">
        <ele>380</ele>
        <time>2013-04-07T11:33:09.000Z</time>
      </trkpt>
      <trkpt lat="48.66748" lon="7.25109">
        <ele>380</ele>
        <time>2013-04-07T11:33:16.000Z</time>
      </trkpt>
      <trkpt lat="48.66748" lon="7.25109">
        <ele>380</ele>
        <time>2013-04-07T11:33:36.000Z</time>
      </trkpt>
      <trkpt lat="48.66748" lon="7.25112">
        <ele>380</ele>
        <time>2013-04-07T11:33:53.000Z</time>
      </trkpt>
      <trkpt lat="48.66751" lon="7.25107">
        <ele>373</ele>
        <time>2013-04-07T11:33:56.000Z</time>
      </trkpt>
      <trkpt lat="48.66752" lon="7.25103">
        <ele>373</ele>
        <time>2013-04-07T11:34:11.000Z</time>
      </trkpt>
      <trkpt lat="48.66751" lon="7.25103">
        <ele>373</ele>
        <time>2013-04-07T11:34:22.000Z</time>
      </trkpt>
      <trkpt lat="48.66752" lon="7.251">
        <ele>373</ele>
        <time>2013-04-07T11:34:32.000Z</time>
      </trkpt>
      <trkpt lat="48.66755" lon="7.25096">
        <ele>373</ele>
        <time>2013-04-07T11:34:38.000Z</time>
      </trkpt>
      <trkpt lat="48.66752" lon="7.25098">
        <ele>373</ele>
        <time>2013-04-07T11:34:42.000Z</time>
      </trkpt>
      <trkpt lat="48.66752" lon="7.25098">
        <ele>373</ele>
        <time>2013-04-07T11:35:02.000Z</time>
      </trkpt>
      <trkpt lat="48.66754" lon="7.25092">
        <ele>374</ele>
        <time>2013-04-07T11:35:23.000Z</time>
      </trkpt>
      <trkpt lat="48.66753" lon="7.2509">
        <ele>374</ele>
        <time>2013-04-07T11:35:27.000Z</time>
      </trkpt>
      <trkpt lat="48.66758" lon="7.25093">
        <ele>373</ele>
        <time>2013-04-07T11:35:30.000Z</time>
      </trkpt>
      <trkpt lat="48.66758" lon="7.25084">
        <ele>374</ele>
        <time>2013-04-07T11:35:32.000Z</time>
      </trkpt>
      <trkpt lat="48.66763" lon="7.25082">
        <ele>376</ele>
        <time>2013-04-07T11:35:38.000Z</time>
      </trkpt>
      <trkpt lat="48.66765" lon="7.25081">
        <ele>376</ele>
        <time>2013-04-07T11:35:42.000Z</time>
      </trkpt>
      <trkpt lat="48.66768" lon="7.25074">
        <ele>376</ele>
        <time>2013-04-07T11:35:44.000Z</time>
      </trkpt>
      <trkpt lat="48.66761" lon="7.25067">
        <ele>377</ele>
        <time>2013-04-07T11:35:48.000Z</time>
      </trkpt>
      <trkpt lat="48.66774" lon="7.25062">
        <ele>376</ele>
        <time>2013-04-07T11:35:52.000Z</time>
      </trkpt>
      <trkpt lat="48.66776" lon="7.2506">
        <ele>377</ele>
        <time>2013-04-07T11:35:56.000Z</time>
      </trkpt>
      <trkpt lat="48.66779" lon="7.25054">
        <ele>377</ele>
        <time>2013-04-07T11:35:58.000Z</time>
      </trkpt>
      <trkpt lat="48.66779" lon="7.2505">
        <ele>377</ele>
        <time>2013-04-07T11:36:02.000Z</time>
      </trkpt>
      <trkpt lat="48.66782" lon="7.25044">
        <ele>378</ele>
        <time>2013-04-07T11:36:05.000Z</time>
      </trkpt>
      <trkpt lat="48.66784" lon="7.25042">
        <ele>378</ele>
        <time>2013-04-07T11:36:09.000Z</time>
      </trkpt>
      <trkpt lat="48.66793" lon="7.25028">
        <ele>378</ele>
        <time>2013-04-07T11:36:13.000Z</time>
      </trkpt>
      <trkpt lat="48.66796" lon="7.25029">
        <ele>377</ele>
        <time>2013-04-07T11:36:15.000Z</time>
      </trkpt>
      <trkpt lat="48.668" lon="7.25034">
        <ele>376</ele>
        <time>2013-04-07T11:36:17.000Z</time>
      </trkpt>
      <trkpt lat="48.66808" lon="7.2502">
        <ele>376</ele>
        <time>2013-04-07T11:36:20.000Z</time>
      </trkpt>
      <trkpt lat="48.66799" lon="7.25022">
        <ele>377</ele>
        <time>2013-04-07T11:36:22.000Z</time>
      </trkpt>
      <trkpt lat="48.66808" lon="7.25012">
        <ele>376</ele>
        <time>2013-04-07T11:36:25.000Z</time>
      </trkpt>
      <trkpt lat="48.66817" lon="7.25006">
        <ele>374</ele>
        <time>2013-04-07T11:36:27.000Z</time>
      </trkpt>
      <trkpt lat="48.66827" lon="7.25003">
        <ele>372</ele>
        <time>2013-04-07T11:36:29.000Z</time>
      </trkpt>
      <trkpt lat="48.66827" lon="7.24991">
        <ele>379</ele>
        <time>2013-04-07T11:36:32.000Z</time>
      </trkpt>
      <trkpt lat="48.66848" lon="7.24967">
        <ele>371</ele>
        <time>2013-04-07T11:36:36.000Z</time>
      </trkpt>
      <trkpt lat="48.66852" lon="7.24955">
        <ele>372</ele>
        <time>2013-04-07T11:36:38.000Z</time>
      </trkpt>
      <trkpt lat="48.66859" lon="7.24943">
        <ele>373</ele>
        <time>2013-04-07T11:36:41.000Z</time>
      </trkpt>
      <trkpt lat="48.66859" lon="7.24914">
        <ele>378</ele>
        <time>2013-04-07T11:36:44.000Z</time>
      </trkpt>
      <trkpt lat="48.66855" lon="7.24905">
        <ele>379</ele>
        <time>2013-04-07T11:36:47.000Z</time>
      </trkpt>
      <trkpt lat="48.66863" lon="7.24881">
        <ele>378</ele>
        <time>2013-04-07T11:36:50.000Z</time>
      </trkpt>
      <trkpt lat="48.66865" lon="7.2487">
        <ele>378</ele>
        <time>2013-04-07T11:36:53.000Z</time>
      </trkpt>
      <trkpt lat="48.66864" lon="7.24859">
        <ele>379</ele>
        <time>2013-04-07T11:36:55.000Z</time>
      </trkpt>
      <trkpt lat="48.66864" lon="7.24859">
        <ele>379</ele>
        <time>2013-04-07T11:37:15.000Z</time>
      </trkpt>
      <trkpt lat="48.66865" lon="7.24847">
        <ele>379</ele>
        <time>2013-04-07T11:37:27.000Z</time>
      </trkpt>
      <trkpt lat="48.66864" lon="7.2485">
        <ele>379</ele>
        <time>2013-04-07T11:37:29.000Z</time>
      </trkpt>
      <trkpt lat="48.66866" lon="7.24838">
        <ele>379</ele>
        <time>2013-04-07T11:37:32.000Z</time>
      </trkpt>
      <trkpt lat="48.66871" lon="7.24825">
        <ele>383</ele>
        <time>2013-04-07T11:37:34.000Z</time>
      </trkpt>
      <trkpt lat="48.66875" lon="7.24826">
        <ele>382</ele>
        <time>2013-04-07T11:37:36.000Z</time>
      </trkpt>
      <trkpt lat="48.66882" lon="7.24818">
        <ele>380</ele>
        <time>2013-04-07T11:37:39.000Z</time>
      </trkpt>
      <trkpt lat="48.669" lon="7.24802">
        <ele>378</ele>
        <time>2013-04-07T11:37:42.000Z</time>
      </trkpt>
      <trkpt lat="48.66911" lon="7.24795">
        <ele>378</ele>
        <time>2013-04-07T11:37:44.000Z</time>
      </trkpt>
      <trkpt lat="48.66928" lon="7.2478">
        <ele>367</ele>
        <time>2013-04-07T11:37:47.000Z</time>
      </trkpt>
      <trkpt lat="48.66944" lon="7.2477">
        <ele>367</ele>
        <time>2013-04-07T11:37:49.000Z</time>
      </trkpt>
      <trkpt lat="48.6696" lon="7.24758">
        <ele>366</ele>
        <time>2013-04-07T11:37:52.000Z</time>
      </trkpt>
      <trkpt lat="48.66983" lon="7.24757">
        <ele>364</ele>
        <time>2013-04-07T11:37:55.000Z</time>
      </trkpt>
      <trkpt lat="48.66998" lon="7.24746">
        <ele>364</ele>
        <time>2013-04-07T11:37:57.000Z</time>
      </trkpt>
      <trkpt lat="48.66994" lon="7.24736">
        <ele>370</ele>
        <time>2013-04-07T11:38:00.000Z</time>
      </trkpt>
      <trkpt lat="48.67085" lon="7.24723">
        <ele>355</ele>
        <time>2013-04-07T11:38:08.000Z</time>
      </trkpt>
      <trkpt lat="48.67106" lon="7.24715">
        <ele>356</ele>
        <time>2013-04-07T11:38:11.000Z</time>
      </trkpt>
      <trkpt lat="48.67123" lon="7.24697">
        <ele>356</ele>
        <time>2013-04-07T11:38:14.000Z</time>
      </trkpt>
      <trkpt lat="48.67126" lon="7.2468">
        <ele>356</ele>
        <time>2013-04-07T11:38:16.000Z</time>
      </trkpt>
      <trkpt lat="48.67127" lon="7.24652">
        <ele>359</ele>
        <time>2013-04-07T11:38:19.000Z</time>
      </trkpt>
      <trkpt lat="48.67128" lon="7.24646">
        <ele>359</ele>
        <time>2013-04-07T11:38:22.000Z</time>
      </trkpt>
      <trkpt lat="48.67126" lon="7.24623">
        <ele>360</ele>
        <time>2013-04-07T11:38:25.000Z</time>
      </trkpt>
      <trkpt lat="48.67123" lon="7.2461">
        <ele>361</ele>
        <time>2013-04-07T11:38:28.000Z</time>
      </trkpt>
      <trkpt lat="48.67122" lon="7.24586">
        <ele>362</ele>
        <time>2013-04-07T11:38:31.000Z</time>
      </trkpt>
      <trkpt lat="48.67125" lon="7.24567">
        <ele>365</ele>
        <time>2013-04-07T11:38:34.000Z</time>
      </trkpt>
      <trkpt lat="48.67129" lon="7.2455">
        <ele>365</ele>
        <time>2013-04-07T11:38:37.000Z</time>
      </trkpt>
      <trkpt lat="48.67137" lon="7.2454">
        <ele>363</ele>
        <time>2013-04-07T11:38:40.000Z</time>
      </trkpt>
      <trkpt lat="48.67139" lon="7.24534">
        <ele>363</ele>
        <time>2013-04-07T11:38:42.000Z</time>
      </trkpt>
      <trkpt lat="48.67142" lon="7.24514">
        <ele>361</ele>
        <time>2013-04-07T11:38:45.000Z</time>
      </trkpt>
      <trkpt lat="48.67144" lon="7.24505">
        <ele>360</ele>
        <time>2013-04-07T11:38:48.000Z</time>
      </trkpt>
      <trkpt lat="48.67145" lon="7.24494">
        <ele>362</ele>
        <time>2013-04-07T11:38:50.000Z</time>
      </trkpt>
      <trkpt lat="48.67139" lon="7.24486">
        <ele>365</ele>
        <time>2013-04-07T11:38:53.000Z</time>
      </trkpt>
      <trkpt lat="48.67147" lon="7.24463">
        <ele>365</ele>
        <time>2013-04-07T11:38:56.000Z</time>
      </trkpt>
      <trkpt lat="48.67147" lon="7.24454">
        <ele>366</ele>
        <time>2013-04-07T11:38:58.000Z</time>
      </trkpt>
      <trkpt lat="48.67147" lon="7.24439">
        <ele>365</ele>
        <time>2013-04-07T11:39:00.000Z</time>
      </trkpt>
      <trkpt lat="48.67147" lon="7.24434">
        <ele>365</ele>
        <time>2013-04-07T11:39:02.000Z</time>
      </trkpt>
      <trkpt lat="48.67148" lon="7.2442">
        <ele>363</ele>
        <time>2013-04-07T11:39:05.000Z</time>
      </trkpt>
      <trkpt lat="48.67149" lon="7.244">
        <ele>367</ele>
        <time>2013-04-07T11:39:08.000Z</time>
      </trkpt>
      <trkpt lat="48.67152" lon="7.24374">
        <ele>370</ele>
        <time>2013-04-07T11:39:11.000Z</time>
      </trkpt>
      <trkpt lat="48.67156" lon="7.24355">
        <ele>368</ele>
        <time>2013-04-07T11:39:14.000Z</time>
      </trkpt>
      <trkpt lat="48.6716" lon="7.24337">
        <ele>363</ele>
        <time>2013-04-07T11:39:16.000Z</time>
      </trkpt>
      <trkpt lat="48.67163" lon="7.24324">
        <ele>367</ele>
        <time>2013-04-07T11:39:19.000Z</time>
      </trkpt>
      <trkpt lat="48.67168" lon="7.24311">
        <ele>357</ele>
        <time>2013-04-07T11:39:21.000Z</time>
      </trkpt>
      <trkpt lat="48.67172" lon="7.24304">
        <ele>357</ele>
        <time>2013-04-07T11:39:24.000Z</time>
      </trkpt>
      <trkpt lat="48.67181" lon="7.24293">
        <ele>357</ele>
        <time>2013-04-07T11:39:27.000Z</time>
      </trkpt>
      <trkpt lat="48.67185" lon="7.24292">
        <ele>356</ele>
        <time>2013-04-07T11:39:29.000Z</time>
      </trkpt>
      <trkpt lat="48.67178" lon="7.24282">
        <ele>359</ele>
        <time>2013-04-07T11:39:32.000Z</time>
      </trkpt>
      <trkpt lat="48.67189" lon="7.24271">
        <ele>358</ele>
        <time>2013-04-07T11:39:35.000Z</time>
      </trkpt>
      <trkpt lat="48.67206" lon="7.24257">
        <ele>355</ele>
        <time>2013-04-07T11:39:38.000Z</time>
      </trkpt>
      <trkpt lat="48.67211" lon="7.24245">
        <ele>357</ele>
        <time>2013-04-07T11:39:41.000Z</time>
      </trkpt>
      <trkpt lat="48.67209" lon="7.24229">
        <ele>359</ele>
        <time>2013-04-07T11:39:44.000Z</time>
      </trkpt>
      <trkpt lat="48.67218" lon="7.24207">
        <ele>357</ele>
        <time>2013-04-07T11:39:47.000Z</time>
      </trkpt>
      <trkpt lat="48.67219" lon="7.24202">
        <ele>357</ele>
        <time>2013-04-07T11:39:49.000Z</time>
      </trkpt>
      <trkpt lat="48.6722" lon="7.24192">
        <ele>357</ele>
        <time>2013-04-07T11:39:51.000Z</time>
      </trkpt>
      <trkpt lat="48.67222" lon="7.24176">
        <ele>356</ele>
        <time>2013-04-07T11:39:54.000Z</time>
      </trkpt>
      <trkpt lat="48.67222" lon="7.24162">
        <ele>359</ele>
        <time>2013-04-07T11:39:57.000Z</time>
      </trkpt>
      <trkpt lat="48.67222" lon="7.24147">
        <ele>360</ele>
        <time>2013-04-07T11:40:00.000Z</time>
      </trkpt>
      <trkpt lat="48.67225" lon="7.24131">
        <ele>361</ele>
        <time>2013-04-07T11:40:02.000Z</time>
      </trkpt>
      <trkpt lat="48.67226" lon="7.24111">
        <ele>361</ele>
        <time>2013-04-07T11:40:04.000Z</time>
      </trkpt>
      <trkpt lat="48.67212" lon="7.24095">
        <ele>364</ele>
        <time>2013-04-07T11:40:07.000Z</time>
      </trkpt>
      <trkpt lat="48.67229" lon="7.24062">
        <ele>362</ele>
        <time>2013-04-07T11:40:10.000Z</time>
      </trkpt>
      <trkpt lat="48.67237" lon="7.24054">
        <ele>362</ele>
        <time>2013-04-07T11:40:13.000Z</time>
      </trkpt>
      <trkpt lat="48.67232" lon="7.24027">
        <ele>364</ele>
        <time>2013-04-07T11:40:16.000Z</time>
      </trkpt>
      <trkpt lat="48.67234" lon="7.24015">
        <ele>362</ele>
        <time>2013-04-07T11:40:18.000Z</time>
      </trkpt>
      <trkpt lat="48.67235" lon="7.23997">
        <ele>362</ele>
        <time>2013-04-07T11:40:21.000Z</time>
      </trkpt>
      <trkpt lat="48.67237" lon="7.23986">
        <ele>364</ele>
        <time>2013-04-07T11:40:23.000Z</time>
      </trkpt>
      <trkpt lat="48.67242" lon="7.23964">
        <ele>367</ele>
        <time>2013-04-07T11:40:26.000Z</time>
      </trkpt>
      <trkpt lat="48.67244" lon="7.23957">
        <ele>367</ele>
        <time>2013-04-07T11:40:28.000Z</time>
      </trkpt>
      <trkpt lat="48.67249" lon="7.2394">
        <ele>366</ele>
        <time>2013-04-07T11:40:31.000Z</time>
      </trkpt>
      <trkpt lat="48.67257" lon="7.23918">
        <ele>356</ele>
        <time>2013-04-07T11:40:34.000Z</time>
      </trkpt>
      <trkpt lat="48.6726" lon="7.23907">
        <ele>354</ele>
        <time>2013-04-07T11:40:37.000Z</time>
      </trkpt>
      <trkpt lat="48.67265" lon="7.23871">
        <ele>352</ele>
        <time>2013-04-07T11:40:41.000Z</time>
      </trkpt>
      <trkpt lat="48.67271" lon="7.23864">
        <ele>352</ele>
        <time>2013-04-07T11:40:43.000Z</time>
      </trkpt>
      <trkpt lat="48.67278" lon="7.23844">
        <ele>352</ele>
        <time>2013-04-07T11:40:46.000Z</time>
      </trkpt>
      <trkpt lat="48.67278" lon="7.23825">
        <ele>355</ele>
        <time>2013-04-07T11:40:49.000Z</time>
      </trkpt>
      <trkpt lat="48.67279" lon="7.23809">
        <ele>354</ele>
        <time>2013-04-07T11:40:52.000Z</time>
      </trkpt>
      <trkpt lat="48.67299" lon="7.2379">
        <ele>350</ele>
        <time>2013-04-07T11:40:55.000Z</time>
      </trkpt>
      <trkpt lat="48.67304" lon="7.23778">
        <ele>349</ele>
        <time>2013-04-07T11:40:57.000Z</time>
      </trkpt>
      <trkpt lat="48.67318" lon="7.23756">
        <ele>345</ele>
        <time>2013-04-07T11:41:00.000Z</time>
      </trkpt>
      <trkpt lat="48.67324" lon="7.23749">
        <ele>343</ele>
        <time>2013-04-07T11:41:02.000Z</time>
      </trkpt>
      <trkpt lat="48.67332" lon="7.23733">
        <ele>344</ele>
        <time>2013-04-07T11:41:05.000Z</time>
      </trkpt>
      <trkpt lat="48.67342" lon="7.23715">
        <ele>336</ele>
        <time>2013-04-07T11:41:07.000Z</time>
      </trkpt>
      <trkpt lat="48.67347" lon="7.23702">
        <ele>335</ele>
        <time>2013-04-07T11:41:09.000Z</time>
      </trkpt>
      <trkpt lat="48.67352" lon="7.2367">
        <ele>336</ele>
        <time>2013-04-07T11:41:12.000Z</time>
      </trkpt>
      <trkpt lat="48.67351" lon="7.2365">
        <ele>333</ele>
        <time>2013-04-07T11:41:14.000Z</time>
      </trkpt>
      <trkpt lat="48.67349" lon="7.23629">
        <ele>332</ele>
        <time>2013-04-07T11:41:16.000Z</time>
      </trkpt>
      <trkpt lat="48.67349" lon="7.23608">
        <ele>331</ele>
        <time>2013-04-07T11:41:19.000Z</time>
      </trkpt>
      <trkpt lat="48.67347" lon="7.23595">
        <ele>332</ele>
        <time>2013-04-07T11:41:22.000Z</time>
      </trkpt>
      <trkpt lat="48.67321" lon="7.23549">
        <ele>341</ele>
        <time>2013-04-07T11:41:27.000Z</time>
      </trkpt>
      <trkpt lat="48.67316" lon="7.23535">
        <ele>341</ele>
        <time>2013-04-07T11:41:29.000Z</time>
      </trkpt>
      <trkpt lat="48.67332" lon="7.23513">
        <ele>338</ele>
        <time>2013-04-07T11:41:33.000Z</time>
      </trkpt>
      <trkpt lat="48.67358" lon="7.23479">
        <ele>327</ele>
        <time>2013-04-07T11:41:37.000Z</time>
      </trkpt>
      <trkpt lat="48.67358" lon="7.23453">
        <ele>326</ele>
        <time>2013-04-07T11:41:40.000Z</time>
      </trkpt>
      <trkpt lat="48.67363" lon="7.23418">
        <ele>325</ele>
        <time>2013-04-07T11:41:43.000Z</time>
      </trkpt>
      <trkpt lat="48.67343" lon="7.23383">
        <ele>321</ele>
        <time>2013-04-07T11:41:46.000Z</time>
      </trkpt>
      <trkpt lat="48.67355" lon="7.23371">
        <ele>320</ele>
        <time>2013-04-07T11:41:48.000Z</time>
      </trkpt>
      <trkpt lat="48.67326" lon="7.23336">
        <ele>321</ele>
        <time>2013-04-07T11:41:52.000Z</time>
      </trkpt>
      <trkpt lat="48.67327" lon="7.23303">
        <ele>321</ele>
        <time>2013-04-07T11:41:55.000Z</time>
      </trkpt>
      <trkpt lat="48.67312" lon="7.23287">
        <ele>322</ele>
        <time>2013-04-07T11:41:57.000Z</time>
      </trkpt>
      <trkpt lat="48.6731" lon="7.2327">
        <ele>321</ele>
        <time>2013-04-07T11:42:00.000Z</time>
      </trkpt>
      <trkpt lat="48.67308" lon="7.23245">
        <ele>316</ele>
        <time>2013-04-07T11:42:03.000Z</time>
      </trkpt>
      <trkpt lat="48.67308" lon="7.23225">
        <ele>317</ele>
        <time>2013-04-07T11:42:06.000Z</time>
      </trkpt>
      <trkpt lat="48.67308" lon="7.23214">
        <ele>317</ele>
        <time>2013-04-07T11:42:09.000Z</time>
      </trkpt>
      <trkpt lat="48.67309" lon="7.232">
        <ele>317</ele>
        <time>2013-04-07T11:42:12.000Z</time>
      </trkpt>
      <trkpt lat="48.6731" lon="7.23195">
        <ele>316</ele>
        <time>2013-04-07T11:42:14.000Z</time>
      </trkpt>
      <trkpt lat="48.67311" lon="7.23178">
        <ele>315</ele>
        <time>2013-04-07T11:42:17.000Z</time>
      </trkpt>
      <trkpt lat="48.67311" lon="7.23156">
        <ele>312</ele>
        <time>2013-04-07T11:42:20.000Z</time>
      </trkpt>
      <trkpt lat="48.67311" lon="7.23148">
        <ele>313</ele>
        <time>2013-04-07T11:42:22.000Z</time>
      </trkpt>
      <trkpt lat="48.6731" lon="7.2314">
        <ele>314</ele>
        <time>2013-04-07T11:42:25.000Z</time>
      </trkpt>
      <trkpt lat="48.6731" lon="7.23134">
        <ele>314</ele>
        <time>2013-04-07T11:42:27.000Z</time>
      </trkpt>
      <trkpt lat="48.67307" lon="7.23128">
        <ele>314</ele>
        <time>2013-04-07T11:42:30.000Z</time>
      </trkpt>
      <trkpt lat="48.67307" lon="7.23119">
        <ele>314</ele>
        <time>2013-04-07T11:42:34.000Z</time>
      </trkpt>
      <trkpt lat="48.67299" lon="7.23109">
        <ele>315</ele>
        <time>2013-04-07T11:42:37.000Z</time>
      </trkpt>
      <trkpt lat="48.67298" lon="7.23089">
        <ele>315</ele>
        <time>2013-04-07T11:42:40.000Z</time>
      </trkpt>
      <trkpt lat="48.67294" lon="7.23086">
        <ele>316</ele>
        <time>2013-04-07T11:42:42.000Z</time>
      </trkpt>
      <trkpt lat="48.67288" lon="7.23076">
        <ele>314</ele>
        <time>2013-04-07T11:42:45.000Z</time>
      </trkpt>
      <trkpt lat="48.67287" lon="7.23069">
        <ele>314</ele>
        <time>2013-04-07T11:42:48.000Z</time>
      </trkpt>
      <trkpt lat="48.67281" lon="7.23053">
        <ele>314</ele>
        <time>2013-04-07T11:42:51.000Z</time>
      </trkpt>
      <trkpt lat="48.67279" lon="7.23045">
        <ele>314</ele>
        <time>2013-04-07T11:42:53.000Z</time>
      </trkpt>
      <trkpt lat="48.67273" lon="7.23032">
        <ele>314</ele>
        <time>2013-04-07T11:42:56.000Z</time>
      </trkpt>
      <trkpt lat="48.67271" lon="7.23011">
        <ele>314</ele>
        <time>2013-04-07T11:42:59.000Z</time>
      </trkpt>
      <trkpt lat="48.67268" lon="7.23007">
        <ele>315</ele>
        <time>2013-04-07T11:43:01.000Z</time>
      </trkpt>
      <trkpt lat="48.67266" lon="7.22991">
        <ele>312</ele>
        <time>2013-04-07T11:43:04.000Z</time>
      </trkpt>
      <trkpt lat="48.67258" lon="7.2298">
        <ele>312</ele>
        <time>2013-04-07T11:43:07.000Z</time>
      </trkpt>
      <trkpt lat="48.67256" lon="7.22967">
        <ele>310</ele>
        <time>2013-04-07T11:43:09.000Z</time>
      </trkpt>
      <trkpt lat="48.67249" lon="7.22941">
        <ele>319</ele>
        <time>2013-04-07T11:43:12.000Z</time>
      </trkpt>
      <trkpt lat="48.67247" lon="7.22926">
        <ele>314</ele>
        <time>2013-04-07T11:43:14.000Z</time>
      </trkpt>
      <trkpt lat="48.67244" lon="7.22917">
        <ele>310</ele>
        <time>2013-04-07T11:43:16.000Z</time>
      </trkpt>
      <trkpt lat="48.67247" lon="7.22907">
        <ele>312</ele>
        <time>2013-04-07T11:43:19.000Z</time>
      </trkpt>
      <trkpt lat="48.67247" lon="7.22896">
        <ele>315</ele>
        <time>2013-04-07T11:43:21.000Z</time>
      </trkpt>
      <trkpt lat="48.67248" lon="7.22864">
        <ele>315</ele>
        <time>2013-04-07T11:43:24.000Z</time>
      </trkpt>
      <trkpt lat="48.67244" lon="7.22844">
        <ele>310</ele>
        <time>2013-04-07T11:43:27.000Z</time>
      </trkpt>
      <trkpt lat="48.67252" lon="7.22825">
        <ele>302</ele>
        <time>2013-04-07T11:43:30.000Z</time>
      </trkpt>
      <trkpt lat="48.67249" lon="7.22794">
        <ele>312</ele>
        <time>2013-04-07T11:43:33.000Z</time>
      </trkpt>
      <trkpt lat="48.67251" lon="7.22783">
        <ele>300</ele>
        <time>2013-04-07T11:43:35.000Z</time>
      </trkpt>
      <trkpt lat="48.67243" lon="7.22768">
        <ele>307</ele>
        <time>2013-04-07T11:43:38.000Z</time>
      </trkpt>
      <trkpt lat="48.67253" lon="7.22742">
        <ele>296</ele>
        <time>2013-04-07T11:43:41.000Z</time>
      </trkpt>
      <trkpt lat="48.67263" lon="7.22732">
        <ele>298</ele>
        <time>2013-04-07T11:43:43.000Z</time>
      </trkpt>
      <trkpt lat="48.67263" lon="7.22718">
        <ele>298</ele>
        <time>2013-04-07T11:43:46.000Z</time>
      </trkpt>
      <trkpt lat="48.67262" lon="7.22698">
        <ele>298</ele>
        <time>2013-04-07T11:43:49.000Z</time>
      </trkpt>
      <trkpt lat="48.67268" lon="7.22682">
        <ele>298</ele>
        <time>2013-04-07T11:43:52.000Z</time>
      </trkpt>
      <trkpt lat="48.67278" lon="7.22671">
        <ele>299</ele>
        <time>2013-04-07T11:43:54.000Z</time>
      </trkpt>
      <trkpt lat="48.67278" lon="7.22661">
        <ele>301</ele>
        <time>2013-04-07T11:43:56.000Z</time>
      </trkpt>
      <trkpt lat="48.67281" lon="7.22641">
        <ele>302</ele>
        <time>2013-04-07T11:43:59.000Z</time>
      </trkpt>
      <trkpt lat="48.6728" lon="7.22629">
        <ele>303</ele>
        <time>2013-04-07T11:44:01.000Z</time>
      </trkpt>
      <trkpt lat="48.67284" lon="7.22604">
        <ele>303</ele>
        <time>2013-04-07T11:44:04.000Z</time>
      </trkpt>
      <trkpt lat="48.67288" lon="7.22579">
        <ele>308</ele>
        <time>2013-04-07T11:44:07.000Z</time>
      </trkpt>
      <trkpt lat="48.6729" lon="7.22551">
        <ele>309</ele>
        <time>2013-04-07T11:44:10.000Z</time>
      </trkpt>
      <trkpt lat="48.67292" lon="7.22522">
        <ele>311</ele>
        <time>2013-04-07T11:44:13.000Z</time>
      </trkpt>
      <trkpt lat="48.67289" lon="7.22504">
        <ele>311</ele>
        <time>2013-04-07T11:44:15.000Z</time>
      </trkpt>
      <trkpt lat="48.6729" lon="7.22495">
        <ele>317</ele>
        <time>2013-04-07T11:44:17.000Z</time>
      </trkpt>
      <trkpt lat="48.67269" lon="7.22467">
        <ele>316</ele>
        <time>2013-04-07T11:44:21.000Z</time>
      </trkpt>
      <trkpt lat="48.6726" lon="7.22454">
        <ele>316</ele>
        <time>2013-04-07T11:44:23.000Z</time>
      </trkpt>
      <trkpt lat="48.67245" lon="7.22442">
        <ele>315</ele>
        <time>2013-04-07T11:44:26.000Z</time>
      </trkpt>
      <trkpt lat="48.67233" lon="7.22436">
        <ele>316</ele>
        <time>2013-04-07T11:44:28.000Z</time>
      </trkpt>
      <trkpt lat="48.67214" lon="7.22417">
        <ele>318</ele>
        <time>2013-04-07T11:44:31.000Z</time>
      </trkpt>
      <trkpt lat="48.67205" lon="7.22399">
        <ele>318</ele>
        <time>2013-04-07T11:44:34.000Z</time>
      </trkpt>
      <trkpt lat="48.67205" lon="7.22337">
        <ele>316</ele>
        <time>2013-04-07T11:44:39.000Z</time>
      </trkpt>
      <trkpt lat="48.672" lon="7.22315">
        <ele>310</ele>
        <time>2013-04-07T11:44:41.000Z</time>
      </trkpt>
      <trkpt lat="48.67202" lon="7.22294">
        <ele>309</ele>
        <time>2013-04-07T11:44:44.000Z</time>
      </trkpt>
      <trkpt lat="48.67218" lon="7.22256">
        <ele>307</ele>
        <time>2013-04-07T11:44:48.000Z</time>
      </trkpt>
      <trkpt lat="48.67231" lon="7.22239">
        <ele>306</ele>
        <time>2013-04-07T11:44:50.000Z</time>
      </trkpt>
      <trkpt lat="48.67248" lon="7.22218">
        <ele>306</ele>
        <time>2013-04-07T11:44:53.000Z</time>
      </trkpt>
      <trkpt lat="48.67254" lon="7.22202">
        <ele>311</ele>
        <time>2013-04-07T11:44:56.000Z</time>
      </trkpt>
      <trkpt lat="48.67255" lon="7.22176">
        <ele>307</ele>
        <time>2013-04-07T11:44:59.000Z</time>
      </trkpt>
      <trkpt lat="48.67265" lon="7.22158">
        <ele>308</ele>
        <time>2013-04-07T11:45:01.000Z</time>
      </trkpt>
      <trkpt lat="48.67268" lon="7.22135">
        <ele>310</ele>
        <time>2013-04-07T11:45:04.000Z</time>
      </trkpt>
      <trkpt lat="48.67278" lon="7.22122">
        <ele>310</ele>
        <time>2013-04-07T11:45:07.000Z</time>
      </trkpt>
      <trkpt lat="48.67283" lon="7.22108">
        <ele>311</ele>
        <time>2013-04-07T11:45:09.000Z</time>
      </trkpt>
      <trkpt lat="48.67286" lon="7.22093">
        <ele>311</ele>
        <time>2013-04-07T11:45:12.000Z</time>
      </trkpt>
      <trkpt lat="48.67295" lon="7.22081">
        <ele>311</ele>
        <time>2013-04-07T11:45:14.000Z</time>
      </trkpt>
      <trkpt lat="48.67301" lon="7.22066">
        <ele>311</ele>
        <time>2013-04-07T11:45:17.000Z</time>
      </trkpt>
      <trkpt lat="48.67303" lon="7.22057">
        <ele>311</ele>
        <time>2013-04-07T11:45:19.000Z</time>
      </trkpt>
      <trkpt lat="48.67303" lon="7.22054">
        <ele>311</ele>
        <time>2013-04-07T11:45:21.000Z</time>
      </trkpt>
      <trkpt lat="48.67302" lon="7.22042">
        <ele>311</ele>
        <time>2013-04-07T11:45:24.000Z</time>
      </trkpt>
      <trkpt lat="48.67302" lon="7.22034">
        <ele>311</ele>
        <time>2013-04-07T11:45:27.000Z</time>
      </trkpt>
      <trkpt lat="48.67303" lon="7.22023">
        <ele>311</ele>
        <time>2013-04-07T11:45:30.000Z</time>
      </trkpt>
      <trkpt lat="48.67303" lon="7.22008">
        <ele>311</ele>
        <time>2013-04-07T11:45:33.000Z</time>
      </trkpt>
      <trkpt lat="48.6732" lon="7.21997">
        <ele>308</ele>
        <time>2013-04-07T11:45:36.000Z</time>
      </trkpt>
      <trkpt lat="48.67307" lon="7.21993">
        <ele>311</ele>
        <time>2013-04-07T11:45:39.000Z</time>
      </trkpt>
      <trkpt lat="48.67301" lon="7.21987">
        <ele>312</ele>
        <time>2013-04-07T11:45:42.000Z</time>
      </trkpt>
      <trkpt lat="48.67294" lon="7.21977">
        <ele>313</ele>
        <time>2013-04-07T11:45:45.000Z</time>
      </trkpt>
      <trkpt lat="48.6729" lon="7.21978">
        <ele>314</ele>
        <time>2013-04-07T11:45:47.000Z</time>
      </trkpt>
      <trkpt lat="48.6729" lon="7.21968">
        <ele>314</ele>
        <time>2013-04-07T11:45:50.000Z</time>
      </trkpt>
      <trkpt lat="48.67288" lon="7.21962">
        <ele>314</ele>
        <time>2013-04-07T11:45:54.000Z</time>
      </trkpt>
      <trkpt lat="48.67292" lon="7.21956">
        <ele>313</ele>
        <time>2013-04-07T11:45:56.000Z</time>
      </trkpt>
      <trkpt lat="48.67289" lon="7.21947">
        <ele>314</ele>
        <time>2013-04-07T11:45:59.000Z</time>
      </trkpt>
      <trkpt lat="48.67286" lon="7.21938">
        <ele>314</ele>
        <time>2013-04-07T11:46:01.000Z</time>
      </trkpt>
      <trkpt lat="48.67285" lon="7.21931">
        <ele>314</ele>
        <time>2013-04-07T11:46:03.000Z</time>
      </trkpt>
      <trkpt lat="48.67284" lon="7.21916">
        <ele>312</ele>
        <time>2013-04-07T11:46:06.000Z</time>
      </trkpt>
      <trkpt lat="48.67282" lon="7.21914">
        <ele>312</ele>
        <time>2013-04-07T11:46:08.000Z</time>
      </trkpt>
      <trkpt lat="48.67282" lon="7.21907">
        <ele>312</ele>
        <time>2013-04-07T11:46:10.000Z</time>
      </trkpt>
      <trkpt lat="48.67281" lon="7.21893">
        <ele>312</ele>
        <time>2013-04-07T11:46:13.000Z</time>
      </trkpt>
      <trkpt lat="48.67278" lon="7.21892">
        <ele>312</ele>
        <time>2013-04-07T11:46:15.000Z</time>
      </trkpt>
      <trkpt lat="48.67277" lon="7.21883">
        <ele>311</ele>
        <time>2013-04-07T11:46:18.000Z</time>
      </trkpt>
      <trkpt lat="48.67276" lon="7.2188">
        <ele>311</ele>
        <time>2013-04-07T11:46:20.000Z</time>
      </trkpt>
      <trkpt lat="48.67275" lon="7.21872">
        <ele>311</ele>
        <time>2013-04-07T11:46:22.000Z</time>
      </trkpt>
      <trkpt lat="48.6728" lon="7.21871">
        <ele>311</ele>
        <time>2013-04-07T11:46:25.000Z</time>
      </trkpt>
      <trkpt lat="48.67274" lon="7.21863">
        <ele>311</ele>
        <time>2013-04-07T11:46:27.000Z</time>
      </trkpt>
      <trkpt lat="48.67274" lon="7.21852">
        <ele>311</ele>
        <time>2013-04-07T11:46:31.000Z</time>
      </trkpt>
      <trkpt lat="48.67282" lon="7.21855">
        <ele>310</ele>
        <time>2013-04-07T11:46:33.000Z</time>
      </trkpt>
      <trkpt lat="48.67273" lon="7.21847">
        <ele>312</ele>
        <time>2013-04-07T11:46:35.000Z</time>
      </trkpt>
      <trkpt lat="48.67277" lon="7.21841">
        <ele>311</ele>
        <time>2013-04-07T11:46:39.000Z</time>
      </trkpt>
      <trkpt lat="48.67271" lon="7.21836">
        <ele>312</ele>
        <time>2013-04-07T11:46:41.000Z</time>
      </trkpt>
      <trkpt lat="48.6727" lon="7.21828">
        <ele>310</ele>
        <time>2013-04-07T11:46:43.000Z</time>
      </trkpt>
      <trkpt lat="48.67268" lon="7.21823">
        <ele>310</ele>
        <time>2013-04-07T11:46:47.000Z</time>
      </trkpt>
      <trkpt lat="48.67268" lon="7.21815">
        <ele>309</ele>
        <time>2013-04-07T11:46:49.000Z</time>
      </trkpt>
      <trkpt lat="48.67281" lon="7.21812">
        <ele>307</ele>
        <time>2013-04-07T11:46:53.000Z</time>
      </trkpt>
      <trkpt lat="48.67267" lon="7.21793">
        <ele>307</ele>
        <time>2013-04-07T11:46:57.000Z</time>
      </trkpt>
      <trkpt lat="48.67267" lon="7.2179">
        <ele>307</ele>
        <time>2013-04-07T11:46:59.000Z</time>
      </trkpt>
      <trkpt lat="48.67265" lon="7.2178">
        <ele>308</ele>
        <time>2013-04-07T11:47:03.000Z</time>
      </trkpt>
      <trkpt lat="48.67269" lon="7.21774">
        <ele>307</ele>
        <time>2013-04-07T11:47:06.000Z</time>
      </trkpt>
      <trkpt lat="48.67265" lon="7.2177">
        <ele>308</ele>
        <time>2013-04-07T11:47:08.000Z</time>
      </trkpt>
      <trkpt lat="48.6727" lon="7.21762">
        <ele>308</ele>
        <time>2013-04-07T11:47:12.000Z</time>
      </trkpt>
      <trkpt lat="48.67263" lon="7.21756">
        <ele>310</ele>
        <time>2013-04-07T11:47:14.000Z</time>
      </trkpt>
      <trkpt lat="48.67263" lon="7.21749">
        <ele>309</ele>
        <time>2013-04-07T11:47:16.000Z</time>
      </trkpt>
      <trkpt lat="48.67261" lon="7.21743">
        <ele>310</ele>
        <time>2013-04-07T11:47:20.000Z</time>
      </trkpt>
      <trkpt lat="48.6726" lon="7.21736">
        <ele>308</ele>
        <time>2013-04-07T11:47:22.000Z</time>
      </trkpt>
      <trkpt lat="48.67258" lon="7.21723">
        <ele>307</ele>
        <time>2013-04-07T11:47:26.000Z</time>
      </trkpt>
      <trkpt lat="48.67258" lon="7.21725">
        <ele>307</ele>
        <time>2013-04-07T11:47:28.000Z</time>
      </trkpt>
      <trkpt lat="48.67256" lon="7.21719">
        <ele>306</ele>
        <time>2013-04-07T11:47:30.000Z</time>
      </trkpt>
      <trkpt lat="48.67255" lon="7.21712">
        <ele>306</ele>
        <time>2013-04-07T11:47:34.000Z</time>
      </trkpt>
      <trkpt lat="48.67257" lon="7.21704">
        <ele>306</ele>
        <time>2013-04-07T11:47:37.000Z</time>
      </trkpt>
      <trkpt lat="48.67252" lon="7.21691">
        <ele>307</ele>
        <time>2013-04-07T11:47:41.000Z</time>
      </trkpt>
      <trkpt lat="48.67249" lon="7.21685">
        <ele>318</ele>
        <time>2013-04-07T11:47:44.000Z</time>
      </trkpt>
      <trkpt lat="48.67249" lon="7.21675">
        <ele>316</ele>
        <time>2013-04-07T11:47:46.000Z</time>
      </trkpt>
      <trkpt lat="48.67248" lon="7.21669">
        <ele>315</ele>
        <time>2013-04-07T11:47:49.000Z</time>
      </trkpt>
      <trkpt lat="48.67248" lon="7.21658">
        <ele>316</ele>
        <time>2013-04-07T11:47:52.000Z</time>
      </trkpt>
      <trkpt lat="48.67246" lon="7.21656">
        <ele>316</ele>
        <time>2013-04-07T11:47:54.000Z</time>
      </trkpt>
      <trkpt lat="48.6725" lon="7.21646">
        <ele>317</ele>
        <time>2013-04-07T11:47:57.000Z</time>
      </trkpt>
      <trkpt lat="48.67246" lon="7.21639">
        <ele>318</ele>
        <time>2013-04-07T11:48:00.000Z</time>
      </trkpt>
      <trkpt lat="48.67244" lon="7.21629">
        <ele>318</ele>
        <time>2013-04-07T11:48:02.000Z</time>
      </trkpt>
      <trkpt lat="48.67254" lon="7.21628">
        <ele>304</ele>
        <time>2013-04-07T11:48:05.000Z</time>
      </trkpt>
      <trkpt lat="48.67247" lon="7.21616">
        <ele>317</ele>
        <time>2013-04-07T11:48:07.000Z</time>
      </trkpt>
      <trkpt lat="48.67246" lon="7.21604">
        <ele>316</ele>
        <time>2013-04-07T11:48:10.000Z</time>
      </trkpt>
      <trkpt lat="48.67244" lon="7.21596">
        <ele>315</ele>
        <time>2013-04-07T11:48:12.000Z</time>
      </trkpt>
      <trkpt lat="48.67239" lon="7.21592">
        <ele>315</ele>
        <time>2013-04-07T11:48:15.000Z</time>
      </trkpt>
      <trkpt lat="48.67241" lon="7.21576">
        <ele>313</ele>
        <time>2013-04-07T11:48:18.000Z</time>
      </trkpt>
      <trkpt lat="48.67237" lon="7.21566">
        <ele>315</ele>
        <time>2013-04-07T11:48:20.000Z</time>
      </trkpt>
      <trkpt lat="48.67248" lon="7.21561">
        <ele>314</ele>
        <time>2013-04-07T11:48:22.000Z</time>
      </trkpt>
      <trkpt lat="48.67236" lon="7.21545">
        <ele>316</ele>
        <time>2013-04-07T11:48:25.000Z</time>
      </trkpt>
      <trkpt lat="48.67235" lon="7.21537">
        <ele>315</ele>
        <time>2013-04-07T11:48:27.000Z</time>
      </trkpt>
      <trkpt lat="48.67233" lon="7.21527">
        <ele>315</ele>
        <time>2013-04-07T11:48:30.000Z</time>
      </trkpt>
      <trkpt lat="48.67232" lon="7.21519">
        <ele>314</ele>
        <time>2013-04-07T11:48:33.000Z</time>
      </trkpt>
      <trkpt lat="48.67231" lon="7.21511">
        <ele>314</ele>
        <time>2013-04-07T11:48:35.000Z</time>
      </trkpt>
      <trkpt lat="48.67227" lon="7.215">
        <ele>314</ele>
        <time>2013-04-07T11:48:38.000Z</time>
      </trkpt>
      <trkpt lat="48.67225" lon="7.21493">
        <ele>313</ele>
        <time>2013-04-07T11:48:41.000Z</time>
      </trkpt>
      <trkpt lat="48.67223" lon="7.21485">
        <ele>313</ele>
        <time>2013-04-07T11:48:43.000Z</time>
      </trkpt>
      <trkpt lat="48.6722" lon="7.21478">
        <ele>313</ele>
        <time>2013-04-07T11:48:46.000Z</time>
      </trkpt>
      <trkpt lat="48.67216" lon="7.2147">
        <ele>314</ele>
        <time>2013-04-07T11:48:48.000Z</time>
      </trkpt>
      <trkpt lat="48.67211" lon="7.21462">
        <ele>314</ele>
        <time>2013-04-07T11:48:51.000Z</time>
      </trkpt>
      <trkpt lat="48.67209" lon="7.21454">
        <ele>314</ele>
        <time>2013-04-07T11:48:53.000Z</time>
      </trkpt>
      <trkpt lat="48.67207" lon="7.21449">
        <ele>314</ele>
        <time>2013-04-07T11:48:55.000Z</time>
      </trkpt>
      <trkpt lat="48.67203" lon="7.2144">
        <ele>315</ele>
        <time>2013-04-07T11:48:58.000Z</time>
      </trkpt>
      <trkpt lat="48.67197" lon="7.21435">
        <ele>316</ele>
        <time>2013-04-07T11:49:00.000Z</time>
      </trkpt>
      <trkpt lat="48.67193" lon="7.21429">
        <ele>316</ele>
        <time>2013-04-07T11:49:02.000Z</time>
      </trkpt>
      <trkpt lat="48.67189" lon="7.21412">
        <ele>315</ele>
        <time>2013-04-07T11:49:05.000Z</time>
      </trkpt>
      <trkpt lat="48.67183" lon="7.21405">
        <ele>316</ele>
        <time>2013-04-07T11:49:08.000Z</time>
      </trkpt>
      <trkpt lat="48.67179" lon="7.214">
        <ele>316</ele>
        <time>2013-04-07T11:49:10.000Z</time>
      </trkpt>
      <trkpt lat="48.67176" lon="7.21389">
        <ele>315</ele>
        <time>2013-04-07T11:49:13.000Z</time>
      </trkpt>
      <trkpt lat="48.67171" lon="7.21371">
        <ele>314</ele>
        <time>2013-04-07T11:49:16.000Z</time>
      </trkpt>
      <trkpt lat="48.6717" lon="7.21359">
        <ele>314</ele>
        <time>2013-04-07T11:49:19.000Z</time>
      </trkpt>
      <trkpt lat="48.67174" lon="7.21351">
        <ele>314</ele>
        <time>2013-04-07T11:49:21.000Z</time>
      </trkpt>
      <trkpt lat="48.67169" lon="7.21332">
        <ele>316</ele>
        <time>2013-04-07T11:49:24.000Z</time>
      </trkpt>
      <trkpt lat="48.6717" lon="7.21317">
        <ele>314</ele>
        <time>2013-04-07T11:49:27.000Z</time>
      </trkpt>
      <trkpt lat="48.67167" lon="7.21297">
        <ele>325</ele>
        <time>2013-04-07T11:49:30.000Z</time>
      </trkpt>
      <trkpt lat="48.67165" lon="7.2129">
        <ele>325</ele>
        <time>2013-04-07T11:49:32.000Z</time>
      </trkpt>
      <trkpt lat="48.67162" lon="7.21277">
        <ele>323</ele>
        <time>2013-04-07T11:49:35.000Z</time>
      </trkpt>
      <trkpt lat="48.6716" lon="7.21264">
        <ele>321</ele>
        <time>2013-04-07T11:49:37.000Z</time>
      </trkpt>
      <trkpt lat="48.67161" lon="7.21252">
        <ele>317</ele>
        <time>2013-04-07T11:49:40.000Z</time>
      </trkpt>
      <trkpt lat="48.67156" lon="7.21242">
        <ele>317</ele>
        <time>2013-04-07T11:49:42.000Z</time>
      </trkpt>
      <trkpt lat="48.67149" lon="7.21228">
        <ele>320</ele>
        <time>2013-04-07T11:49:45.000Z</time>
      </trkpt>
      <trkpt lat="48.67146" lon="7.21219">
        <ele>320</ele>
        <time>2013-04-07T11:49:47.000Z</time>
      </trkpt>
      <trkpt lat="48.67145" lon="7.2121">
        <ele>320</ele>
        <time>2013-04-07T11:49:49.000Z</time>
      </trkpt>
      <trkpt lat="48.67145" lon="7.2121">
        <ele>320</ele>
        <time>2013-04-07T11:50:09.000Z</time>
      </trkpt>
      <trkpt lat="48.6714" lon="7.21202">
        <ele>320</ele>
        <time>2013-04-07T11:50:12.000Z</time>
      </trkpt>
      <trkpt lat="48.67138" lon="7.21202">
        <ele>321</ele>
        <time>2013-04-07T11:50:14.000Z</time>
      </trkpt>
      <trkpt lat="48.67137" lon="7.21211">
        <ele>321</ele>
        <time>2013-04-07T11:50:17.000Z</time>
      </trkpt>
      <trkpt lat="48.67134" lon="7.21217">
        <ele>321</ele>
        <time>2013-04-07T11:50:20.000Z</time>
      </trkpt>
      <trkpt lat="48.67133" lon="7.21223">
        <ele>321</ele>
        <time>2013-04-07T11:50:22.000Z</time>
      </trkpt>
      <trkpt lat="48.67133" lon="7.21231">
        <ele>321</ele>
        <time>2013-04-07T11:50:25.000Z</time>
      </trkpt>
      <trkpt lat="48.67133" lon="7.21243">
        <ele>321</ele>
        <time>2013-04-07T11:50:27.000Z</time>
      </trkpt>
      <trkpt lat="48.67133" lon="7.21253">
        <ele>326</ele>
        <time>2013-04-07T11:50:30.000Z</time>
      </trkpt>
      <trkpt lat="48.67135" lon="7.21258">
        <ele>326</ele>
        <time>2013-04-07T11:50:32.000Z</time>
      </trkpt>
      <trkpt lat="48.67134" lon="7.21271">
        <ele>327</ele>
        <time>2013-04-07T11:50:35.000Z</time>
      </trkpt>
      <trkpt lat="48.67134" lon="7.21279">
        <ele>328</ele>
        <time>2013-04-07T11:50:37.000Z</time>
      </trkpt>
      <trkpt lat="48.67134" lon="7.21289">
        <ele>328</ele>
        <time>2013-04-07T11:50:40.000Z</time>
      </trkpt>
      <trkpt lat="48.67135" lon="7.21293">
        <ele>328</ele>
        <time>2013-04-07T11:50:43.000Z</time>
      </trkpt>
      <trkpt lat="48.6713" lon="7.21305">
        <ele>330</ele>
        <time>2013-04-07T11:50:46.000Z</time>
      </trkpt>
      <trkpt lat="48.67125" lon="7.21311">
        <ele>331</ele>
        <time>2013-04-07T11:50:50.000Z</time>
      </trkpt>
      <trkpt lat="48.67123" lon="7.21312">
        <ele>332</ele>
        <time>2013-04-07T11:50:53.000Z</time>
      </trkpt>
      <trkpt lat="48.67133" lon="7.21313">
        <ele>329</ele>
        <time>2013-04-07T11:50:56.000Z</time>
      </trkpt>
      <trkpt lat="48.67116" lon="7.21308">
        <ele>333</ele>
        <time>2013-04-07T11:50:59.000Z</time>
      </trkpt>
      <trkpt lat="48.6711" lon="7.2131">
        <ele>335</ele>
        <time>2013-04-07T11:51:02.000Z</time>
      </trkpt>
      <trkpt lat="48.67124" lon="7.2131">
        <ele>331</ele>
        <time>2013-04-07T11:51:06.000Z</time>
      </trkpt>
      <trkpt lat="48.67103" lon="7.21318">
        <ele>338</ele>
        <time>2013-04-07T11:51:10.000Z</time>
      </trkpt>
      <trkpt lat="48.67105" lon="7.21326">
        <ele>339</ele>
        <time>2013-04-07T11:51:14.000Z</time>
      </trkpt>
      <trkpt lat="48.67106" lon="7.21327">
        <ele>339</ele>
        <time>2013-04-07T11:51:16.000Z</time>
      </trkpt>
      <trkpt lat="48.67107" lon="7.21334">
        <ele>344</ele>
        <time>2013-04-07T11:51:20.000Z</time>
      </trkpt>
      <trkpt lat="48.67108" lon="7.21336">
        <ele>343</ele>
        <time>2013-04-07T11:51:22.000Z</time>
      </trkpt>
      <trkpt lat="48.67091" lon="7.21343">
        <ele>348</ele>
        <time>2013-04-07T11:51:26.000Z</time>
      </trkpt>
      <trkpt lat="48.6711" lon="7.21351">
        <ele>342</ele>
        <time>2013-04-07T11:51:30.000Z</time>
      </trkpt>
      <trkpt lat="48.67111" lon="7.21349">
        <ele>342</ele>
        <time>2013-04-07T11:51:33.000Z</time>
      </trkpt>
      <trkpt lat="48.6711" lon="7.21364">
        <ele>342</ele>
        <time>2013-04-07T11:51:37.000Z</time>
      </trkpt>
      <trkpt lat="48.6711" lon="7.21359">
        <ele>342</ele>
        <time>2013-04-07T11:51:39.000Z</time>
      </trkpt>
      <trkpt lat="48.67109" lon="7.21373">
        <ele>342</ele>
        <time>2013-04-07T11:51:42.000Z</time>
      </trkpt>
      <trkpt lat="48.6711" lon="7.21371">
        <ele>342</ele>
        <time>2013-04-07T11:51:46.000Z</time>
      </trkpt>
      <trkpt lat="48.67109" lon="7.21386">
        <ele>343</ele>
        <time>2013-04-07T11:51:50.000Z</time>
      </trkpt>
      <trkpt lat="48.67109" lon="7.21398">
        <ele>345</ele>
        <time>2013-04-07T11:51:54.000Z</time>
      </trkpt>
      <trkpt lat="48.6711" lon="7.21401">
        <ele>345</ele>
        <time>2013-04-07T11:51:58.000Z</time>
      </trkpt>
      <trkpt lat="48.67109" lon="7.21407">
        <ele>346</ele>
        <time>2013-04-07T11:52:00.000Z</time>
      </trkpt>
      <trkpt lat="48.6711" lon="7.21405">
        <ele>345</ele>
        <time>2013-04-07T11:52:02.000Z</time>
      </trkpt>
      <trkpt lat="48.6711" lon="7.2141">
        <ele>345</ele>
        <time>2013-04-07T11:52:06.000Z</time>
      </trkpt>
      <trkpt lat="48.67109" lon="7.21419">
        <ele>350</ele>
        <time>2013-04-07T11:52:08.000Z</time>
      </trkpt>
      <trkpt lat="48.67108" lon="7.21422">
        <ele>350</ele>
        <time>2013-04-07T11:52:11.000Z</time>
      </trkpt>
      <trkpt lat="48.67107" lon="7.21432">
        <ele>350</ele>
        <time>2013-04-07T11:52:13.000Z</time>
      </trkpt>
      <trkpt lat="48.67107" lon="7.21438">
        <ele>350</ele>
        <time>2013-04-07T11:52:16.000Z</time>
      </trkpt>
      <trkpt lat="48.67102" lon="7.21445">
        <ele>350</ele>
        <time>2013-04-07T11:52:20.000Z</time>
      </trkpt>
      <trkpt lat="48.67105" lon="7.21456">
        <ele>350</ele>
        <time>2013-04-07T11:52:22.000Z</time>
      </trkpt>
      <trkpt lat="48.67104" lon="7.21459">
        <ele>350</ele>
        <time>2013-04-07T11:52:25.000Z</time>
      </trkpt>
      <trkpt lat="48.67104" lon="7.21464">
        <ele>351</ele>
        <time>2013-04-07T11:52:27.000Z</time>
      </trkpt>
      <trkpt lat="48.67102" lon="7.21477">
        <ele>353</ele>
        <time>2013-04-07T11:52:32.000Z</time>
      </trkpt>
      <trkpt lat="48.67101" lon="7.21484">
        <ele>355</ele>
        <time>2013-04-07T11:52:34.000Z</time>
      </trkpt>
      <trkpt lat="48.67101" lon="7.21493">
        <ele>357</ele>
        <time>2013-04-07T11:52:38.000Z</time>
      </trkpt>
      <trkpt lat="48.67101" lon="7.21497">
        <ele>357</ele>
        <time>2013-04-07T11:52:40.000Z</time>
      </trkpt>
      <trkpt lat="48.67101" lon="7.2151">
        <ele>360</ele>
        <time>2013-04-07T11:52:44.000Z</time>
      </trkpt>
      <trkpt lat="48.67099" lon="7.2151">
        <ele>360</ele>
        <time>2013-04-07T11:52:46.000Z</time>
      </trkpt>
      <trkpt lat="48.67099" lon="7.21519">
        <ele>359</ele>
        <time>2013-04-07T11:52:48.000Z</time>
      </trkpt>
      <trkpt lat="48.67102" lon="7.21521">
        <ele>358</ele>
        <time>2013-04-07T11:52:52.000Z</time>
      </trkpt>
      <trkpt lat="48.67097" lon="7.21533">
        <ele>358</ele>
        <time>2013-04-07T11:52:55.000Z</time>
      </trkpt>
      <trkpt lat="48.67086" lon="7.21545">
        <ele>360</ele>
        <time>2013-04-07T11:52:59.000Z</time>
      </trkpt>
      <trkpt lat="48.67099" lon="7.21553">
        <ele>359</ele>
        <time>2013-04-07T11:53:02.000Z</time>
      </trkpt>
      <trkpt lat="48.671" lon="7.21561">
        <ele>360</ele>
        <time>2013-04-07T11:53:05.000Z</time>
      </trkpt>
      <trkpt lat="48.67099" lon="7.21569">
        <ele>362</ele>
        <time>2013-04-07T11:53:07.000Z</time>
      </trkpt>
      <trkpt lat="48.67102" lon="7.21573">
        <ele>362</ele>
        <time>2013-04-07T11:53:10.000Z</time>
      </trkpt>
      <trkpt lat="48.67096" lon="7.21585">
        <ele>367</ele>
        <time>2013-04-07T11:53:13.000Z</time>
      </trkpt>
      <trkpt lat="48.67094" lon="7.21595">
        <ele>365</ele>
        <time>2013-04-07T11:53:15.000Z</time>
      </trkpt>
      <trkpt lat="48.67094" lon="7.216">
        <ele>364</ele>
        <time>2013-04-07T11:53:19.000Z</time>
      </trkpt>
      <trkpt lat="48.67093" lon="7.21607">
        <ele>362</ele>
        <time>2013-04-07T11:53:21.000Z</time>
      </trkpt>
      <trkpt lat="48.67093" lon="7.21612">
        <ele>361</ele>
        <time>2013-04-07T11:53:24.000Z</time>
      </trkpt>
      <trkpt lat="48.67091" lon="7.21626">
        <ele>360</ele>
        <time>2013-04-07T11:53:27.000Z</time>
      </trkpt>
      <trkpt lat="48.67088" lon="7.21635">
        <ele>360</ele>
        <time>2013-04-07T11:53:29.000Z</time>
      </trkpt>
      <trkpt lat="48.67087" lon="7.21645">
        <ele>362</ele>
        <time>2013-04-07T11:53:33.000Z</time>
      </trkpt>
      <trkpt lat="48.67087" lon="7.21647">
        <ele>363</ele>
        <time>2013-04-07T11:53:35.000Z</time>
      </trkpt>
      <trkpt lat="48.67086" lon="7.21656">
        <ele>365</ele>
        <time>2013-04-07T11:53:39.000Z</time>
      </trkpt>
      <trkpt lat="48.67084" lon="7.21662">
        <ele>369</ele>
        <time>2013-04-07T11:53:41.000Z</time>
      </trkpt>
      <trkpt lat="48.67084" lon="7.2166">
        <ele>368</ele>
        <time>2013-04-07T11:53:43.000Z</time>
      </trkpt>
      <trkpt lat="48.67082" lon="7.21674">
        <ele>375</ele>
        <time>2013-04-07T11:53:47.000Z</time>
      </trkpt>
      <trkpt lat="48.67079" lon="7.21684">
        <ele>377</ele>
        <time>2013-04-07T11:53:49.000Z</time>
      </trkpt>
      <trkpt lat="48.67078" lon="7.21695">
        <ele>377</ele>
        <time>2013-04-07T11:53:53.000Z</time>
      </trkpt>
      <trkpt lat="48.67076" lon="7.21704">
        <ele>377</ele>
        <time>2013-04-07T11:53:57.000Z</time>
      </trkpt>
      <trkpt lat="48.67077" lon="7.21699">
        <ele>377</ele>
        <time>2013-04-07T11:53:59.000Z</time>
      </trkpt>
      <trkpt lat="48.67075" lon="7.21709">
        <ele>377</ele>
        <time>2013-04-07T11:54:03.000Z</time>
      </trkpt>
      <trkpt lat="48.67073" lon="7.2172">
        <ele>376</ele>
        <time>2013-04-07T11:54:05.000Z</time>
      </trkpt>
      <trkpt lat="48.67072" lon="7.21725">
        <ele>375</ele>
        <time>2013-04-07T11:54:07.000Z</time>
      </trkpt>
      <trkpt lat="48.67071" lon="7.21733">
        <ele>374</ele>
        <time>2013-04-07T11:54:10.000Z</time>
      </trkpt>
      <trkpt lat="48.67068" lon="7.21741">
        <ele>373</ele>
        <time>2013-04-07T11:54:13.000Z</time>
      </trkpt>
      <trkpt lat="48.67065" lon="7.21749">
        <ele>373</ele>
        <time>2013-04-07T11:54:17.000Z</time>
      </trkpt>
      <trkpt lat="48.67064" lon="7.21754">
        <ele>369</ele>
        <time>2013-04-07T11:54:19.000Z</time>
      </trkpt>
      <trkpt lat="48.67062" lon="7.21763">
        <ele>370</ele>
        <time>2013-04-07T11:54:22.000Z</time>
      </trkpt>
      <trkpt lat="48.67058" lon="7.21773">
        <ele>371</ele>
        <time>2013-04-07T11:54:25.000Z</time>
      </trkpt>
      <trkpt lat="48.67057" lon="7.21775">
        <ele>371</ele>
        <time>2013-04-07T11:54:27.000Z</time>
      </trkpt>
      <trkpt lat="48.67056" lon="7.21777">
        <ele>371</ele>
        <time>2013-04-07T11:54:29.000Z</time>
      </trkpt>
      <trkpt lat="48.67055" lon="7.21783">
        <ele>371</ele>
        <time>2013-04-07T11:54:32.000Z</time>
      </trkpt>
      <trkpt lat="48.67053" lon="7.21788">
        <ele>371</ele>
        <time>2013-04-07T11:54:34.000Z</time>
      </trkpt>
      <trkpt lat="48.67048" lon="7.218">
        <ele>371</ele>
        <time>2013-04-07T11:54:36.000Z</time>
      </trkpt>
      <trkpt lat="48.67057" lon="7.21799">
        <ele>370</ele>
        <time>2013-04-07T11:54:39.000Z</time>
      </trkpt>
      <trkpt lat="48.67048" lon="7.21806">
        <ele>371</ele>
        <time>2013-04-07T11:54:43.000Z</time>
      </trkpt>
      <trkpt lat="48.67038" lon="7.21817">
        <ele>372</ele>
        <time>2013-04-07T11:54:47.000Z</time>
      </trkpt>
      <trkpt lat="48.67036" lon="7.21824">
        <ele>373</ele>
        <time>2013-04-07T11:54:49.000Z</time>
      </trkpt>
      <trkpt lat="48.6703" lon="7.21832">
        <ele>374</ele>
        <time>2013-04-07T11:54:53.000Z</time>
      </trkpt>
      <trkpt lat="48.67026" lon="7.21835">
        <ele>369</ele>
        <time>2013-04-07T11:54:56.000Z</time>
      </trkpt>
      <trkpt lat="48.67022" lon="7.21839">
        <ele>370</ele>
        <time>2013-04-07T11:54:58.000Z</time>
      </trkpt>
      <trkpt lat="48.67014" lon="7.21849">
        <ele>372</ele>
        <time>2013-04-07T11:55:01.000Z</time>
      </trkpt>
      <trkpt lat="48.6703" lon="7.21857">
        <ele>366</ele>
        <time>2013-04-07T11:55:05.000Z</time>
      </trkpt>
      <trkpt lat="48.67007" lon="7.2186">
        <ele>370</ele>
        <time>2013-04-07T11:55:08.000Z</time>
      </trkpt>
      <trkpt lat="48.67002" lon="7.21859">
        <ele>371</ele>
        <time>2013-04-07T11:55:11.000Z</time>
      </trkpt>
      <trkpt lat="48.66998" lon="7.2187">
        <ele>381</ele>
        <time>2013-04-07T11:55:13.000Z</time>
      </trkpt>
      <trkpt lat="48.66993" lon="7.21867">
        <ele>382</ele>
        <time>2013-04-07T11:55:16.000Z</time>
      </trkpt>
      <trkpt lat="48.66985" lon="7.21881">
        <ele>381</ele>
        <time>2013-04-07T11:55:20.000Z</time>
      </trkpt>
      <trkpt lat="48.6698" lon="7.21887">
        <ele>380</ele>
        <time>2013-04-07T11:55:22.000Z</time>
      </trkpt>
      <trkpt lat="48.66975" lon="7.2189">
        <ele>380</ele>
        <time>2013-04-07T11:55:25.000Z</time>
      </trkpt>
      <trkpt lat="48.66979" lon="7.21886">
        <ele>381</ele>
        <time>2013-04-07T11:55:27.000Z</time>
      </trkpt>
      <trkpt lat="48.66967" lon="7.21883">
        <ele>382</ele>
        <time>2013-04-07T11:55:30.000Z</time>
      </trkpt>
      <trkpt lat="48.66972" lon="7.21889">
        <ele>381</ele>
        <time>2013-04-07T11:55:33.000Z</time>
      </trkpt>
      <trkpt lat="48.66957" lon="7.21892">
        <ele>382</ele>
        <time>2013-04-07T11:55:38.000Z</time>
      </trkpt>
      <trkpt lat="48.66949" lon="7.21892">
        <ele>383</ele>
        <time>2013-04-07T11:55:42.000Z</time>
      </trkpt>
      <trkpt lat="48.66955" lon="7.21889">
        <ele>383</ele>
        <time>2013-04-07T11:55:44.000Z</time>
      </trkpt>
      <trkpt lat="48.66941" lon="7.21894">
        <ele>383</ele>
        <time>2013-04-07T11:55:48.000Z</time>
      </trkpt>
      <trkpt lat="48.66935" lon="7.21893">
        <ele>383</ele>
        <time>2013-04-07T11:55:51.000Z</time>
      </trkpt>
      <trkpt lat="48.66933" lon="7.21897">
        <ele>383</ele>
        <time>2013-04-07T11:55:53.000Z</time>
      </trkpt>
      <trkpt lat="48.66927" lon="7.21897">
        <ele>383</ele>
        <time>2013-04-07T11:55:57.000Z</time>
      </trkpt>
      <trkpt lat="48.66922" lon="7.21903">
        <ele>382</ele>
        <time>2013-04-07T11:55:59.000Z</time>
      </trkpt>
      <trkpt lat="48.6692" lon="7.21901">
        <ele>382</ele>
        <time>2013-04-07T11:56:01.000Z</time>
      </trkpt>
      <trkpt lat="48.66932" lon="7.21897">
        <ele>383</ele>
        <time>2013-04-07T11:56:05.000Z</time>
      </trkpt>
      <trkpt lat="48.66908" lon="7.21902">
        <ele>386</ele>
        <time>2013-04-07T11:56:09.000Z</time>
      </trkpt>
      <trkpt lat="48.66901" lon="7.219">
        <ele>387</ele>
        <time>2013-04-07T11:56:12.000Z</time>
      </trkpt>
      <trkpt lat="48.66895" lon="7.21905">
        <ele>387</ele>
        <time>2013-04-07T11:56:14.000Z</time>
      </trkpt>
      <trkpt lat="48.6689" lon="7.21901">
        <ele>387</ele>
        <time>2013-04-07T11:56:17.000Z</time>
      </trkpt>
      <trkpt lat="48.66883" lon="7.219">
        <ele>388</ele>
        <time>2013-04-07T11:56:19.000Z</time>
      </trkpt>
      <trkpt lat="48.66901" lon="7.21899">
        <ele>387</ele>
        <time>2013-04-07T11:56:22.000Z</time>
      </trkpt>
      <trkpt lat="48.66871" lon="7.21892">
        <ele>389</ele>
        <time>2013-04-07T11:56:27.000Z</time>
      </trkpt>
      <trkpt lat="48.66866" lon="7.2189">
        <ele>389</ele>
        <time>2013-04-07T11:56:29.000Z</time>
      </trkpt>
      <trkpt lat="48.66859" lon="7.21883">
        <ele>390</ele>
        <time>2013-04-07T11:56:32.000Z</time>
      </trkpt>
      <trkpt lat="48.66852" lon="7.21883">
        <ele>389</ele>
        <time>2013-04-07T11:56:35.000Z</time>
      </trkpt>
      <trkpt lat="48.66847" lon="7.21872">
        <ele>391</ele>
        <time>2013-04-07T11:56:38.000Z</time>
      </trkpt>
      <trkpt lat="48.6684" lon="7.21875">
        <ele>391</ele>
        <time>2013-04-07T11:56:41.000Z</time>
      </trkpt>
      <trkpt lat="48.66837" lon="7.2187">
        <ele>392</ele>
        <time>2013-04-07T11:56:44.000Z</time>
      </trkpt>
      <trkpt lat="48.66833" lon="7.21868">
        <ele>387</ele>
        <time>2013-04-07T11:56:46.000Z</time>
      </trkpt>
      <trkpt lat="48.66838" lon="7.21865">
        <ele>393</ele>
        <time>2013-04-07T11:56:48.000Z</time>
      </trkpt>
      <trkpt lat="48.66834" lon="7.21861">
        <ele>394</ele>
        <time>2013-04-07T11:56:51.000Z</time>
      </trkpt>
      <trkpt lat="48.66819" lon="7.21854">
        <ele>390</ele>
        <time>2013-04-07T11:56:54.000Z</time>
      </trkpt>
      <trkpt lat="48.66829" lon="7.21852">
        <ele>392</ele>
        <time>2013-04-07T11:56:57.000Z</time>
      </trkpt>
      <trkpt lat="48.66809" lon="7.21842">
        <ele>390</ele>
        <time>2013-04-07T11:57:01.000Z</time>
      </trkpt>
      <trkpt lat="48.66813" lon="7.21837">
        <ele>392</ele>
        <time>2013-04-07T11:57:05.000Z</time>
      </trkpt>
      <trkpt lat="48.66795" lon="7.21826">
        <ele>401</ele>
        <time>2013-04-07T11:57:09.000Z</time>
      </trkpt>
      <trkpt lat="48.6679" lon="7.21816">
        <ele>401</ele>
        <time>2013-04-07T11:57:12.000Z</time>
      </trkpt>
      <trkpt lat="48.66787" lon="7.21811">
        <ele>400</ele>
        <time>2013-04-07T11:57:15.000Z</time>
      </trkpt>
      <trkpt lat="48.66782" lon="7.21806">
        <ele>400</ele>
        <time>2013-04-07T11:57:18.000Z</time>
      </trkpt>
      <trkpt lat="48.66778" lon="7.21802">
        <ele>400</ele>
        <time>2013-04-07T11:57:20.000Z</time>
      </trkpt>
      <trkpt lat="48.66773" lon="7.21804">
        <ele>399</ele>
        <time>2013-04-07T11:57:22.000Z</time>
      </trkpt>
      <trkpt lat="48.66769" lon="7.21792">
        <ele>401</ele>
        <time>2013-04-07T11:57:25.000Z</time>
      </trkpt>
      <trkpt lat="48.66765" lon="7.21791">
        <ele>400</ele>
        <time>2013-04-07T11:57:28.000Z</time>
      </trkpt>
      <trkpt lat="48.66761" lon="7.21783">
        <ele>401</ele>
        <time>2013-04-07T11:57:31.000Z</time>
      </trkpt>
      <trkpt lat="48.66756" lon="7.21782">
        <ele>401</ele>
        <time>2013-04-07T11:57:33.000Z</time>
      </trkpt>
      <trkpt lat="48.66753" lon="7.21776">
        <ele>401</ele>
        <time>2013-04-07T11:57:36.000Z</time>
      </trkpt>
      <trkpt lat="48.66751" lon="7.2177">
        <ele>401</ele>
        <time>2013-04-07T11:57:38.000Z</time>
      </trkpt>
      <trkpt lat="48.66747" lon="7.21767">
        <ele>392</ele>
        <time>2013-04-07T11:57:40.000Z</time>
      </trkpt>
      <trkpt lat="48.66745" lon="7.21762">
        <ele>394</ele>
        <time>2013-04-07T11:57:42.000Z</time>
      </trkpt>
      <trkpt lat="48.66742" lon="7.21755">
        <ele>395</ele>
        <time>2013-04-07T11:57:45.000Z</time>
      </trkpt>
      <trkpt lat="48.66739" lon="7.21751">
        <ele>395</ele>
        <time>2013-04-07T11:57:47.000Z</time>
      </trkpt>
      <trkpt lat="48.66734" lon="7.21744">
        <ele>401</ele>
        <time>2013-04-07T11:57:50.000Z</time>
      </trkpt>
      <trkpt lat="48.66732" lon="7.21733">
        <ele>401</ele>
        <time>2013-04-07T11:57:52.000Z</time>
      </trkpt>
      <trkpt lat="48.66727" lon="7.21727">
        <ele>401</ele>
        <time>2013-04-07T11:57:56.000Z</time>
      </trkpt>
      <trkpt lat="48.66724" lon="7.21719">
        <ele>402</ele>
        <time>2013-04-07T11:57:58.000Z</time>
      </trkpt>
      <trkpt lat="48.6672" lon="7.21718">
        <ele>401</ele>
        <time>2013-04-07T11:58:01.000Z</time>
      </trkpt>
      <trkpt lat="48.66715" lon="7.2171">
        <ele>402</ele>
        <time>2013-04-07T11:58:06.000Z</time>
      </trkpt>
      <trkpt lat="48.66713" lon="7.21705">
        <ele>402</ele>
        <time>2013-04-07T11:58:08.000Z</time>
      </trkpt>
      <trkpt lat="48.66708" lon="7.21695">
        <ele>403</ele>
        <time>2013-04-07T11:58:11.000Z</time>
      </trkpt>
      <trkpt lat="48.66711" lon="7.21699">
        <ele>403</ele>
        <time>2013-04-07T11:58:13.000Z</time>
      </trkpt>
      <trkpt lat="48.66707" lon="7.21692">
        <ele>403</ele>
        <time>2013-04-07T11:58:15.000Z</time>
      </trkpt>
      <trkpt lat="48.66705" lon="7.21684">
        <ele>403</ele>
        <time>2013-04-07T11:58:19.000Z</time>
      </trkpt>
      <trkpt lat="48.66698" lon="7.21666">
        <ele>416</ele>
        <time>2013-04-07T11:58:22.000Z</time>
      </trkpt>
      <trkpt lat="48.66694" lon="7.21651">
        <ele>416</ele>
        <time>2013-04-07T11:58:25.000Z</time>
      </trkpt>
      <trkpt lat="48.66689" lon="7.21649">
        <ele>415</ele>
        <time>2013-04-07T11:58:28.000Z</time>
      </trkpt>
      <trkpt lat="48.66684" lon="7.21632">
        <ele>418</ele>
        <time>2013-04-07T11:58:31.000Z</time>
      </trkpt>
      <trkpt lat="48.66682" lon="7.2163">
        <ele>418</ele>
        <time>2013-04-07T11:58:34.000Z</time>
      </trkpt>
      <trkpt lat="48.66681" lon="7.21628">
        <ele>418</ele>
        <time>2013-04-07T11:58:38.000Z</time>
      </trkpt>
      <trkpt lat="48.66679" lon="7.2162">
        <ele>419</ele>
        <time>2013-04-07T11:58:43.000Z</time>
      </trkpt>
      <trkpt lat="48.66674" lon="7.21618">
        <ele>419</ele>
        <time>2013-04-07T11:58:47.000Z</time>
      </trkpt>
      <trkpt lat="48.66672" lon="7.21611">
        <ele>420</ele>
        <time>2013-04-07T11:58:50.000Z</time>
      </trkpt>
      <trkpt lat="48.66669" lon="7.21605">
        <ele>420</ele>
        <time>2013-04-07T11:58:53.000Z</time>
      </trkpt>
      <trkpt lat="48.66665" lon="7.21599">
        <ele>415</ele>
        <time>2013-04-07T11:58:55.000Z</time>
      </trkpt>
      <trkpt lat="48.66656" lon="7.21591">
        <ele>416</ele>
        <time>2013-04-07T11:58:58.000Z</time>
      </trkpt>
      <trkpt lat="48.6665" lon="7.21588">
        <ele>415</ele>
        <time>2013-04-07T11:59:00.000Z</time>
      </trkpt>
      <trkpt lat="48.66654" lon="7.2158">
        <ele>423</ele>
        <time>2013-04-07T11:59:04.000Z</time>
      </trkpt>
      <trkpt lat="48.66635" lon="7.2156">
        <ele>426</ele>
        <time>2013-04-07T11:59:08.000Z</time>
      </trkpt>
      <trkpt lat="48.6663" lon="7.2155">
        <ele>427</ele>
        <time>2013-04-07T11:59:11.000Z</time>
      </trkpt>
      <trkpt lat="48.66625" lon="7.21548">
        <ele>427</ele>
        <time>2013-04-07T11:59:14.000Z</time>
      </trkpt>
      <trkpt lat="48.66621" lon="7.21538">
        <ele>428</ele>
        <time>2013-04-07T11:59:17.000Z</time>
      </trkpt>
      <trkpt lat="48.66618" lon="7.21539">
        <ele>428</ele>
        <time>2013-04-07T11:59:19.000Z</time>
      </trkpt>
      <trkpt lat="48.66613" lon="7.21537">
        <ele>428</ele>
        <time>2013-04-07T11:59:22.000Z</time>
      </trkpt>
      <trkpt lat="48.66609" lon="7.21534">
        <ele>428</ele>
        <time>2013-04-07T11:59:25.000Z</time>
      </trkpt>
      <trkpt lat="48.66607" lon="7.21524">
        <ele>429</ele>
        <time>2013-04-07T11:59:29.000Z</time>
      </trkpt>
      <trkpt lat="48.666" lon="7.21518">
        <ele>430</ele>
        <time>2013-04-07T11:59:32.000Z</time>
      </trkpt>
      <trkpt lat="48.66599" lon="7.21524">
        <ele>429</ele>
        <time>2013-04-07T11:59:34.000Z</time>
      </trkpt>
      <trkpt lat="48.66595" lon="7.21523">
        <ele>429</ele>
        <time>2013-04-07T11:59:38.000Z</time>
      </trkpt>
      <trkpt lat="48.66594" lon="7.21532">
        <ele>428</ele>
        <time>2013-04-07T11:59:41.000Z</time>
      </trkpt>
      <trkpt lat="48.66594" lon="7.21539">
        <ele>427</ele>
        <time>2013-04-07T11:59:45.000Z</time>
      </trkpt>
      <trkpt lat="48.66593" lon="7.21541">
        <ele>427</ele>
        <time>2013-04-07T11:59:49.000Z</time>
      </trkpt>
      <trkpt lat="48.66603" lon="7.21557">
        <ele>425</ele>
        <time>2013-04-07T11:59:53.000Z</time>
      </trkpt>
      <trkpt lat="48.66589" lon="7.21554">
        <ele>425</ele>
        <time>2013-04-07T11:59:56.000Z</time>
      </trkpt>
      <trkpt lat="48.66587" lon="7.21562">
        <ele>424</ele>
        <time>2013-04-07T11:59:58.000Z</time>
      </trkpt>
      <trkpt lat="48.6659" lon="7.21566">
        <ele>423</ele>
        <time>2013-04-07T12:00:00.000Z</time>
      </trkpt>
      <trkpt lat="48.66586" lon="7.21574">
        <ele>421</ele>
        <time>2013-04-07T12:00:03.000Z</time>
      </trkpt>
      <trkpt lat="48.66581" lon="7.21584">
        <ele>419</ele>
        <time>2013-04-07T12:00:07.000Z</time>
      </trkpt>
      <trkpt lat="48.66579" lon="7.21593">
        <ele>422</ele>
        <time>2013-04-07T12:00:11.000Z</time>
      </trkpt>
      <trkpt lat="48.66574" lon="7.21605">
        <ele>424</ele>
        <time>2013-04-07T12:00:14.000Z</time>
      </trkpt>
      <trkpt lat="48.66575" lon="7.21602">
        <ele>423</ele>
        <time>2013-04-07T12:00:16.000Z</time>
      </trkpt>
      <trkpt lat="48.66572" lon="7.21606">
        <ele>424</ele>
        <time>2013-04-07T12:00:18.000Z</time>
      </trkpt>
      <trkpt lat="48.66567" lon="7.21609">
        <ele>425</ele>
        <time>2013-04-07T12:00:22.000Z</time>
      </trkpt>
      <trkpt lat="48.66565" lon="7.21613">
        <ele>425</ele>
        <time>2013-04-07T12:00:24.000Z</time>
      </trkpt>
      <trkpt lat="48.6656" lon="7.21622">
        <ele>426</ele>
        <time>2013-04-07T12:00:28.000Z</time>
      </trkpt>
      <trkpt lat="48.66558" lon="7.21623">
        <ele>426</ele>
        <time>2013-04-07T12:00:32.000Z</time>
      </trkpt>
      <trkpt lat="48.66552" lon="7.21623">
        <ele>427</ele>
        <time>2013-04-07T12:00:35.000Z</time>
      </trkpt>
      <trkpt lat="48.6655" lon="7.21626">
        <ele>427</ele>
        <time>2013-04-07T12:00:37.000Z</time>
      </trkpt>
      <trkpt lat="48.66543" lon="7.21633">
        <ele>428</ele>
        <time>2013-04-07T12:00:41.000Z</time>
      </trkpt>
      <trkpt lat="48.66537" lon="7.21635">
        <ele>429</ele>
        <time>2013-04-07T12:00:44.000Z</time>
      </trkpt>
      <trkpt lat="48.66534" lon="7.21634">
        <ele>429</ele>
        <time>2013-04-07T12:00:46.000Z</time>
      </trkpt>
      <trkpt lat="48.66529" lon="7.21638">
        <ele>430</ele>
        <time>2013-04-07T12:00:49.000Z</time>
      </trkpt>
      <trkpt lat="48.66525" lon="7.21641">
        <ele>431</ele>
        <time>2013-04-07T12:00:51.000Z</time>
      </trkpt>
      <trkpt lat="48.66521" lon="7.21647">
        <ele>431</ele>
        <time>2013-04-07T12:00:53.000Z</time>
      </trkpt>
      <trkpt lat="48.66516" lon="7.21656">
        <ele>432</ele>
        <time>2013-04-07T12:00:55.000Z</time>
      </trkpt>
      <trkpt lat="48.66512" lon="7.21663">
        <ele>434</ele>
        <time>2013-04-07T12:00:58.000Z</time>
      </trkpt>
      <trkpt lat="48.6651" lon="7.21663">
        <ele>434</ele>
        <time>2013-04-07T12:01:00.000Z</time>
      </trkpt>
      <trkpt lat="48.66509" lon="7.21668">
        <ele>431</ele>
        <time>2013-04-07T12:01:04.000Z</time>
      </trkpt>
      <trkpt lat="48.66507" lon="7.21677">
        <ele>429</ele>
        <time>2013-04-07T12:01:06.000Z</time>
      </trkpt>
      <trkpt lat="48.66506" lon="7.21683">
        <ele>427</ele>
        <time>2013-04-07T12:01:09.000Z</time>
      </trkpt>
      <trkpt lat="48.66504" lon="7.21691">
        <ele>425</ele>
        <time>2013-04-07T12:01:11.000Z</time>
      </trkpt>
      <trkpt lat="48.66502" lon="7.21696">
        <ele>424</ele>
        <time>2013-04-07T12:01:13.000Z</time>
      </trkpt>
      <trkpt lat="48.66498" lon="7.21703">
        <ele>441</ele>
        <time>2013-04-07T12:01:16.000Z</time>
      </trkpt>
      <trkpt lat="48.66504" lon="7.21705">
        <ele>422</ele>
        <time>2013-04-07T12:01:18.000Z</time>
      </trkpt>
      <trkpt lat="48.66495" lon="7.21711">
        <ele>441</ele>
        <time>2013-04-07T12:01:20.000Z</time>
      </trkpt>
      <trkpt lat="48.66495" lon="7.21714">
        <ele>441</ele>
        <time>2013-04-07T12:01:23.000Z</time>
      </trkpt>
      <trkpt lat="48.66481" lon="7.2173">
        <ele>440</ele>
        <time>2013-04-07T12:01:27.000Z</time>
      </trkpt>
      <trkpt lat="48.66493" lon="7.21744">
        <ele>433</ele>
        <time>2013-04-07T12:01:30.000Z</time>
      </trkpt>
      <trkpt lat="48.66479" lon="7.21743">
        <ele>439</ele>
        <time>2013-04-07T12:01:32.000Z</time>
      </trkpt>
      <trkpt lat="48.66476" lon="7.21752">
        <ele>433</ele>
        <time>2013-04-07T12:01:36.000Z</time>
      </trkpt>
      <trkpt lat="48.66476" lon="7.21754">
        <ele>433</ele>
        <time>2013-04-07T12:01:38.000Z</time>
      </trkpt>
      <trkpt lat="48.66475" lon="7.21758">
        <ele>434</ele>
        <time>2013-04-07T12:01:42.000Z</time>
      </trkpt>
      <trkpt lat="48.66494" lon="7.21772">
        <ele>431</ele>
        <time>2013-04-07T12:01:46.000Z</time>
      </trkpt>
      <trkpt lat="48.66471" lon="7.21769">
        <ele>434</ele>
        <time>2013-04-07T12:01:49.000Z</time>
      </trkpt>
      <trkpt lat="48.66486" lon="7.2177">
        <ele>432</ele>
        <time>2013-04-07T12:01:51.000Z</time>
      </trkpt>
      <trkpt lat="48.66468" lon="7.21779">
        <ele>435</ele>
        <time>2013-04-07T12:01:53.000Z</time>
      </trkpt>
      <trkpt lat="48.66481" lon="7.21782">
        <ele>432</ele>
        <time>2013-04-07T12:01:56.000Z</time>
      </trkpt>
      <trkpt lat="48.66463" lon="7.2179">
        <ele>435</ele>
        <time>2013-04-07T12:01:59.000Z</time>
      </trkpt>
      <trkpt lat="48.6646" lon="7.21798">
        <ele>435</ele>
        <time>2013-04-07T12:02:01.000Z</time>
      </trkpt>
      <trkpt lat="48.66457" lon="7.21805">
        <ele>435</ele>
        <time>2013-04-07T12:02:04.000Z</time>
      </trkpt>
      <trkpt lat="48.66456" lon="7.21806">
        <ele>435</ele>
        <time>2013-04-07T12:02:06.000Z</time>
      </trkpt>
      <trkpt lat="48.66455" lon="7.2181">
        <ele>435</ele>
        <time>2013-04-07T12:02:09.000Z</time>
      </trkpt>
      <trkpt lat="48.66449" lon="7.21819">
        <ele>436</ele>
        <time>2013-04-07T12:02:12.000Z</time>
      </trkpt>
      <trkpt lat="48.66442" lon="7.2182">
        <ele>437</ele>
        <time>2013-04-07T12:02:15.000Z</time>
      </trkpt>
      <trkpt lat="48.66437" lon="7.21822">
        <ele>438</ele>
        <time>2013-04-07T12:02:21.000Z</time>
      </trkpt>
      <trkpt lat="48.66434" lon="7.21818">
        <ele>439</ele>
        <time>2013-04-07T12:02:24.000Z</time>
      </trkpt>
      <trkpt lat="48.66434" lon="7.21827">
        <ele>439</ele>
        <time>2013-04-07T12:02:27.000Z</time>
      </trkpt>
      <trkpt lat="48.66432" lon="7.21821">
        <ele>439</ele>
        <time>2013-04-07T12:02:30.000Z</time>
      </trkpt>
      <trkpt lat="48.6643" lon="7.21833">
        <ele>440</ele>
        <time>2013-04-07T12:02:32.000Z</time>
      </trkpt>
      <trkpt lat="48.66428" lon="7.21828">
        <ele>440</ele>
        <time>2013-04-07T12:02:34.000Z</time>
      </trkpt>
      <trkpt lat="48.66425" lon="7.21835">
        <ele>438</ele>
        <time>2013-04-07T12:02:37.000Z</time>
      </trkpt>
      <trkpt lat="48.66418" lon="7.21857">
        <ele>432</ele>
        <time>2013-04-07T12:02:41.000Z</time>
      </trkpt>
      <trkpt lat="48.66415" lon="7.21858">
        <ele>444</ele>
        <time>2013-04-07T12:02:44.000Z</time>
      </trkpt>
      <trkpt lat="48.66413" lon="7.21865">
        <ele>444</ele>
        <time>2013-04-07T12:02:46.000Z</time>
      </trkpt>
      <trkpt lat="48.66409" lon="7.21873">
        <ele>443</ele>
        <time>2013-04-07T12:02:49.000Z</time>
      </trkpt>
      <trkpt lat="48.66409" lon="7.21868">
        <ele>444</ele>
        <time>2013-04-07T12:02:51.000Z</time>
      </trkpt>
      <trkpt lat="48.66402" lon="7.21879">
        <ele>443</ele>
        <time>2013-04-07T12:02:54.000Z</time>
      </trkpt>
      <trkpt lat="48.66397" lon="7.21881">
        <ele>443</ele>
        <time>2013-04-07T12:02:58.000Z</time>
      </trkpt>
      <trkpt lat="48.66395" lon="7.21884">
        <ele>443</ele>
        <time>2013-04-07T12:03:00.000Z</time>
      </trkpt>
      <trkpt lat="48.66387" lon="7.2189">
        <ele>444</ele>
        <time>2013-04-07T12:03:04.000Z</time>
      </trkpt>
      <trkpt lat="48.66384" lon="7.21896">
        <ele>443</ele>
        <time>2013-04-07T12:03:06.000Z</time>
      </trkpt>
      <trkpt lat="48.66375" lon="7.21902">
        <ele>444</ele>
        <time>2013-04-07T12:03:10.000Z</time>
      </trkpt>
      <trkpt lat="48.6637" lon="7.21908">
        <ele>445</ele>
        <time>2013-04-07T12:03:12.000Z</time>
      </trkpt>
      <trkpt lat="48.66364" lon="7.21904">
        <ele>446</ele>
        <time>2013-04-07T12:03:14.000Z</time>
      </trkpt>
      <trkpt lat="48.66359" lon="7.21909">
        <ele>446</ele>
        <time>2013-04-07T12:03:17.000Z</time>
      </trkpt>
      <trkpt lat="48.66354" lon="7.21916">
        <ele>447</ele>
        <time>2013-04-07T12:03:19.000Z</time>
      </trkpt>
      <trkpt lat="48.6635" lon="7.2192">
        <ele>441</ele>
        <time>2013-04-07T12:03:22.000Z</time>
      </trkpt>
      <trkpt lat="48.66348" lon="7.21921">
        <ele>441</ele>
        <time>2013-04-07T12:03:26.000Z</time>
      </trkpt>
      <trkpt lat="48.66347" lon="7.21921">
        <ele>442</ele>
        <time>2013-04-07T12:03:30.000Z</time>
      </trkpt>
      <trkpt lat="48.6635" lon="7.21921">
        <ele>441</ele>
        <time>2013-04-07T12:03:32.000Z</time>
      </trkpt>
      <trkpt lat="48.66342" lon="7.21929">
        <ele>442</ele>
        <time>2013-04-07T12:03:38.000Z</time>
      </trkpt>
      <trkpt lat="48.66344" lon="7.21925">
        <ele>442</ele>
        <time>2013-04-07T12:03:48.000Z</time>
      </trkpt>
      <trkpt lat="48.66339" lon="7.21934">
        <ele>441</ele>
        <time>2013-04-07T12:03:54.000Z</time>
      </trkpt>
      <trkpt lat="48.66338" lon="7.21932">
        <ele>441</ele>
        <time>2013-04-07T12:03:59.000Z</time>
      </trkpt>
      <trkpt lat="48.66336" lon="7.21932">
        <ele>442</ele>
        <time>2013-04-07T12:04:02.000Z</time>
      </trkpt>
      <trkpt lat="48.66335" lon="7.21932">
        <ele>442</ele>
        <time>2013-04-07T12:04:06.000Z</time>
      </trkpt>
      <trkpt lat="48.66328" lon="7.2193">
        <ele>452</ele>
        <time>2013-04-07T12:04:11.000Z</time>
      </trkpt>
      <trkpt lat="48.66327" lon="7.21937">
        <ele>452</ele>
        <time>2013-04-07T12:04:13.000Z</time>
      </trkpt>
      <trkpt lat="48.66322" lon="7.21942">
        <ele>453</ele>
        <time>2013-04-07T12:04:16.000Z</time>
      </trkpt>
      <trkpt lat="48.66317" lon="7.21939">
        <ele>453</ele>
        <time>2013-04-07T12:04:18.000Z</time>
      </trkpt>
      <trkpt lat="48.6631" lon="7.21952">
        <ele>454</ele>
        <time>2013-04-07T12:04:21.000Z</time>
      </trkpt>
      <trkpt lat="48.66307" lon="7.21954">
        <ele>454</ele>
        <time>2013-04-07T12:04:24.000Z</time>
      </trkpt>
      <trkpt lat="48.66304" lon="7.21968">
        <ele>454</ele>
        <time>2013-04-07T12:04:27.000Z</time>
      </trkpt>
      <trkpt lat="48.66304" lon="7.21977">
        <ele>453</ele>
        <time>2013-04-07T12:04:30.000Z</time>
      </trkpt>
      <trkpt lat="48.66301" lon="7.21985">
        <ele>452</ele>
        <time>2013-04-07T12:04:32.000Z</time>
      </trkpt>
      <trkpt lat="48.66308" lon="7.21988">
        <ele>451</ele>
        <time>2013-04-07T12:04:35.000Z</time>
      </trkpt>
      <trkpt lat="48.66296" lon="7.21998">
        <ele>453</ele>
        <time>2013-04-07T12:04:38.000Z</time>
      </trkpt>
      <trkpt lat="48.66296" lon="7.22004">
        <ele>449</ele>
        <time>2013-04-07T12:04:40.000Z</time>
      </trkpt>
      <trkpt lat="48.66296" lon="7.22011">
        <ele>449</ele>
        <time>2013-04-07T12:04:44.000Z</time>
      </trkpt>
      <trkpt lat="48.66294" lon="7.22028">
        <ele>449</ele>
        <time>2013-04-07T12:04:47.000Z</time>
      </trkpt>
      <trkpt lat="48.66293" lon="7.22037">
        <ele>449</ele>
        <time>2013-04-07T12:04:50.000Z</time>
      </trkpt>
      <trkpt lat="48.66293" lon="7.22049">
        <ele>449</ele>
        <time>2013-04-07T12:04:53.000Z</time>
      </trkpt>
      <trkpt lat="48.66292" lon="7.22051">
        <ele>449</ele>
        <time>2013-04-07T12:04:56.000Z</time>
      </trkpt>
      <trkpt lat="48.66294" lon="7.22059">
        <ele>448</ele>
        <time>2013-04-07T12:04:59.000Z</time>
      </trkpt>
      <trkpt lat="48.66286" lon="7.22069">
        <ele>450</ele>
        <time>2013-04-07T12:05:02.000Z</time>
      </trkpt>
      <trkpt lat="48.66285" lon="7.22071">
        <ele>450</ele>
        <time>2013-04-07T12:05:04.000Z</time>
      </trkpt>
      <trkpt lat="48.66282" lon="7.22087">
        <ele>447</ele>
        <time>2013-04-07T12:05:07.000Z</time>
      </trkpt>
      <trkpt lat="48.66292" lon="7.22092">
        <ele>444</ele>
        <time>2013-04-07T12:05:11.000Z</time>
      </trkpt>
      <trkpt lat="48.66275" lon="7.22103">
        <ele>447</ele>
        <time>2013-04-07T12:05:15.000Z</time>
      </trkpt>
      <trkpt lat="48.66273" lon="7.2211">
        <ele>447</ele>
        <time>2013-04-07T12:05:18.000Z</time>
      </trkpt>
      <trkpt lat="48.6627" lon="7.22118">
        <ele>446</ele>
        <time>2013-04-07T12:05:21.000Z</time>
      </trkpt>
      <trkpt lat="48.66268" lon="7.22127">
        <ele>446</ele>
        <time>2013-04-07T12:05:25.000Z</time>
      </trkpt>
      <trkpt lat="48.66265" lon="7.2213">
        <ele>446</ele>
        <time>2013-04-07T12:05:27.000Z</time>
      </trkpt>
      <trkpt lat="48.6626" lon="7.22137">
        <ele>446</ele>
        <time>2013-04-07T12:05:31.000Z</time>
      </trkpt>
      <trkpt lat="48.66258" lon="7.22143">
        <ele>446</ele>
        <time>2013-04-07T12:05:33.000Z</time>
      </trkpt>
      <trkpt lat="48.66255" lon="7.22149">
        <ele>447</ele>
        <time>2013-04-07T12:05:36.000Z</time>
      </trkpt>
      <trkpt lat="48.66264" lon="7.22155">
        <ele>446</ele>
        <time>2013-04-07T12:05:39.000Z</time>
      </trkpt>
      <trkpt lat="48.66256" lon="7.22162">
        <ele>448</ele>
        <time>2013-04-07T12:05:43.000Z</time>
      </trkpt>
      <trkpt lat="48.66238" lon="7.22174">
        <ele>450</ele>
        <time>2013-04-07T12:05:47.000Z</time>
      </trkpt>
      <trkpt lat="48.66251" lon="7.22179">
        <ele>442</ele>
        <time>2013-04-07T12:05:51.000Z</time>
      </trkpt>
      <trkpt lat="48.66228" lon="7.22186">
        <ele>450</ele>
        <time>2013-04-07T12:05:55.000Z</time>
      </trkpt>
      <trkpt lat="48.66223" lon="7.22193">
        <ele>450</ele>
        <time>2013-04-07T12:05:59.000Z</time>
      </trkpt>
      <trkpt lat="48.66216" lon="7.22198">
        <ele>450</ele>
        <time>2013-04-07T12:06:05.000Z</time>
      </trkpt>
      <trkpt lat="48.66213" lon="7.22198">
        <ele>451</ele>
        <time>2013-04-07T12:06:07.000Z</time>
      </trkpt>
      <trkpt lat="48.66205" lon="7.22196">
        <ele>452</ele>
        <time>2013-04-07T12:06:11.000Z</time>
      </trkpt>
      <trkpt lat="48.66203" lon="7.22201">
        <ele>451</ele>
        <time>2013-04-07T12:06:13.000Z</time>
      </trkpt>
      <trkpt lat="48.66198" lon="7.22201">
        <ele>452</ele>
        <time>2013-04-07T12:06:17.000Z</time>
      </trkpt>
      <trkpt lat="48.66191" lon="7.22205">
        <ele>452</ele>
        <time>2013-04-07T12:06:21.000Z</time>
      </trkpt>
      <trkpt lat="48.66187" lon="7.22208">
        <ele>452</ele>
        <time>2013-04-07T12:06:23.000Z</time>
      </trkpt>
      <trkpt lat="48.66181" lon="7.22212">
        <ele>452</ele>
        <time>2013-04-07T12:06:25.000Z</time>
      </trkpt>
      <trkpt lat="48.6619" lon="7.22215">
        <ele>451</ele>
        <time>2013-04-07T12:06:27.000Z</time>
      </trkpt>
      <trkpt lat="48.66173" lon="7.22214">
        <ele>452</ele>
        <time>2013-04-07T12:06:30.000Z</time>
      </trkpt>
      <trkpt lat="48.66166" lon="7.2222">
        <ele>459</ele>
        <time>2013-04-07T12:06:32.000Z</time>
      </trkpt>
      <trkpt lat="48.66162" lon="7.22219">
        <ele>459</ele>
        <time>2013-04-07T12:06:35.000Z</time>
      </trkpt>
      <trkpt lat="48.66156" lon="7.22214">
        <ele>461</ele>
        <time>2013-04-07T12:06:37.000Z</time>
      </trkpt>
      <trkpt lat="48.6616" lon="7.22221">
        <ele>459</ele>
        <time>2013-04-07T12:06:40.000Z</time>
      </trkpt>
      <trkpt lat="48.66146" lon="7.22221">
        <ele>460</ele>
        <time>2013-04-07T12:06:43.000Z</time>
      </trkpt>
      <trkpt lat="48.66143" lon="7.22223">
        <ele>460</ele>
        <time>2013-04-07T12:06:45.000Z</time>
      </trkpt>
      <trkpt lat="48.66137" lon="7.22223">
        <ele>461</ele>
        <time>2013-04-07T12:06:49.000Z</time>
      </trkpt>
      <trkpt lat="48.66143" lon="7.2223">
        <ele>459</ele>
        <time>2013-04-07T12:06:51.000Z</time>
      </trkpt>
      <trkpt lat="48.66127" lon="7.22232">
        <ele>461</ele>
        <time>2013-04-07T12:06:55.000Z</time>
      </trkpt>
      <trkpt lat="48.66137" lon="7.22229">
        <ele>460</ele>
        <time>2013-04-07T12:06:57.000Z</time>
      </trkpt>
      <trkpt lat="48.66122" lon="7.22231">
        <ele>461</ele>
        <time>2013-04-07T12:07:01.000Z</time>
      </trkpt>
      <trkpt lat="48.66129" lon="7.22232">
        <ele>461</ele>
        <time>2013-04-07T12:07:04.000Z</time>
      </trkpt>
      <trkpt lat="48.66114" lon="7.22232">
        <ele>462</ele>
        <time>2013-04-07T12:07:07.000Z</time>
      </trkpt>
      <trkpt lat="48.66106" lon="7.22235">
        <ele>461</ele>
        <time>2013-04-07T12:07:11.000Z</time>
      </trkpt>
      <trkpt lat="48.66101" lon="7.22234">
        <ele>462</ele>
        <time>2013-04-07T12:07:15.000Z</time>
      </trkpt>
      <trkpt lat="48.66092" lon="7.22235">
        <ele>461</ele>
        <time>2013-04-07T12:07:19.000Z</time>
      </trkpt>
      <trkpt lat="48.6609" lon="7.22234">
        <ele>461</ele>
        <time>2013-04-07T12:07:21.000Z</time>
      </trkpt>
      <trkpt lat="48.66084" lon="7.22238">
        <ele>460</ele>
        <time>2013-04-07T12:07:25.000Z</time>
      </trkpt>
      <trkpt lat="48.66079" lon="7.2224">
        <ele>464</ele>
        <time>2013-04-07T12:07:27.000Z</time>
      </trkpt>
      <trkpt lat="48.66088" lon="7.22237">
        <ele>460</ele>
        <time>2013-04-07T12:07:30.000Z</time>
      </trkpt>
      <trkpt lat="48.66069" lon="7.22241">
        <ele>467</ele>
        <time>2013-04-07T12:07:33.000Z</time>
      </trkpt>
      <trkpt lat="48.66066" lon="7.22242">
        <ele>468</ele>
        <time>2013-04-07T12:07:36.000Z</time>
      </trkpt>
      <trkpt lat="48.66065" lon="7.22243">
        <ele>468</ele>
        <time>2013-04-07T12:07:38.000Z</time>
      </trkpt>
      <trkpt lat="48.66063" lon="7.22244">
        <ele>469</ele>
        <time>2013-04-07T12:07:41.000Z</time>
      </trkpt>
      <trkpt lat="48.66056" lon="7.22242">
        <ele>471</ele>
        <time>2013-04-07T12:07:44.000Z</time>
      </trkpt>
      <trkpt lat="48.66052" lon="7.22245">
        <ele>471</ele>
        <time>2013-04-07T12:07:47.000Z</time>
      </trkpt>
      <trkpt lat="48.66048" lon="7.22247">
        <ele>472</ele>
        <time>2013-04-07T12:07:50.000Z</time>
      </trkpt>
      <trkpt lat="48.6604" lon="7.22255">
        <ele>457</ele>
        <time>2013-04-07T12:07:53.000Z</time>
      </trkpt>
      <trkpt lat="48.6604" lon="7.2225">
        <ele>457</ele>
        <time>2013-04-07T12:07:56.000Z</time>
      </trkpt>
      <trkpt lat="48.66036" lon="7.22258">
        <ele>458</ele>
        <time>2013-04-07T12:07:59.000Z</time>
      </trkpt>
      <trkpt lat="48.66034" lon="7.22256">
        <ele>458</ele>
        <time>2013-04-07T12:08:02.000Z</time>
      </trkpt>
      <trkpt lat="48.66029" lon="7.22261">
        <ele>459</ele>
        <time>2013-04-07T12:08:06.000Z</time>
      </trkpt>
      <trkpt lat="48.66043" lon="7.22258">
        <ele>457</ele>
        <time>2013-04-07T12:08:10.000Z</time>
      </trkpt>
      <trkpt lat="48.66016" lon="7.22265">
        <ele>461</ele>
        <time>2013-04-07T12:08:14.000Z</time>
      </trkpt>
      <trkpt lat="48.66014" lon="7.22268">
        <ele>461</ele>
        <time>2013-04-07T12:08:16.000Z</time>
      </trkpt>
      <trkpt lat="48.66014" lon="7.22271">
        <ele>460</ele>
        <time>2013-04-07T12:08:18.000Z</time>
      </trkpt>
      <trkpt lat="48.65998" lon="7.22283">
        <ele>470</ele>
        <time>2013-04-07T12:08:22.000Z</time>
      </trkpt>
      <trkpt lat="48.65994" lon="7.22283">
        <ele>470</ele>
        <time>2013-04-07T12:08:24.000Z</time>
      </trkpt>
      <trkpt lat="48.65987" lon="7.22296">
        <ele>469</ele>
        <time>2013-04-07T12:08:27.000Z</time>
      </trkpt>
      <trkpt lat="48.65981" lon="7.22302">
        <ele>469</ele>
        <time>2013-04-07T12:08:30.000Z</time>
      </trkpt>
      <trkpt lat="48.6598" lon="7.22303">
        <ele>469</ele>
        <time>2013-04-07T12:08:32.000Z</time>
      </trkpt>
      <trkpt lat="48.65977" lon="7.22306">
        <ele>469</ele>
        <time>2013-04-07T12:08:35.000Z</time>
      </trkpt>
      <trkpt lat="48.65971" lon="7.2231">
        <ele>469</ele>
        <time>2013-04-07T12:08:38.000Z</time>
      </trkpt>
      <trkpt lat="48.65968" lon="7.22318">
        <ele>469</ele>
        <time>2013-04-07T12:08:41.000Z</time>
      </trkpt>
      <trkpt lat="48.65966" lon="7.22322">
        <ele>469</ele>
        <time>2013-04-07T12:08:43.000Z</time>
      </trkpt>
      <trkpt lat="48.65965" lon="7.22325">
        <ele>469</ele>
        <time>2013-04-07T12:08:45.000Z</time>
      </trkpt>
      <trkpt lat="48.65962" lon="7.22329">
        <ele>469</ele>
        <time>2013-04-07T12:08:47.000Z</time>
      </trkpt>
      <trkpt lat="48.6596" lon="7.22331">
        <ele>469</ele>
        <time>2013-04-07T12:08:49.000Z</time>
      </trkpt>
      <trkpt lat="48.65953" lon="7.22343">
        <ele>463</ele>
        <time>2013-04-07T12:08:53.000Z</time>
      </trkpt>
      <trkpt lat="48.65947" lon="7.22343">
        <ele>464</ele>
        <time>2013-04-07T12:08:57.000Z</time>
      </trkpt>
      <trkpt lat="48.65944" lon="7.22344">
        <ele>465</ele>
        <time>2013-04-07T12:08:59.000Z</time>
      </trkpt>
      <trkpt lat="48.65939" lon="7.22359">
        <ele>465</ele>
        <time>2013-04-07T12:09:02.000Z</time>
      </trkpt>
      <trkpt lat="48.65936" lon="7.22367">
        <ele>464</ele>
        <time>2013-04-07T12:09:05.000Z</time>
      </trkpt>
      <trkpt lat="48.65935" lon="7.22365">
        <ele>465</ele>
        <time>2013-04-07T12:09:08.000Z</time>
      </trkpt>
      <trkpt lat="48.6593" lon="7.22379">
        <ele>465</ele>
        <time>2013-04-07T12:09:11.000Z</time>
      </trkpt>
      <trkpt lat="48.65926" lon="7.22389">
        <ele>465</ele>
        <time>2013-04-07T12:09:16.000Z</time>
      </trkpt>
      <trkpt lat="48.65922" lon="7.22403">
        <ele>468</ele>
        <time>2013-04-07T12:09:19.000Z</time>
      </trkpt>
      <trkpt lat="48.6592" lon="7.22405">
        <ele>469</ele>
        <time>2013-04-07T12:09:21.000Z</time>
      </trkpt>
      <trkpt lat="48.65916" lon="7.22418">
        <ele>474</ele>
        <time>2013-04-07T12:09:25.000Z</time>
      </trkpt>
      <trkpt lat="48.65915" lon="7.22419">
        <ele>475</ele>
        <time>2013-04-07T12:09:27.000Z</time>
      </trkpt>
      <trkpt lat="48.65911" lon="7.22428">
        <ele>476</ele>
        <time>2013-04-07T12:09:31.000Z</time>
      </trkpt>
      <trkpt lat="48.65911" lon="7.22429">
        <ele>476</ele>
        <time>2013-04-07T12:09:33.000Z</time>
      </trkpt>
      <trkpt lat="48.65909" lon="7.22434">
        <ele>477</ele>
        <time>2013-04-07T12:09:37.000Z</time>
      </trkpt>
      <trkpt lat="48.65908" lon="7.2244">
        <ele>477</ele>
        <time>2013-04-07T12:09:39.000Z</time>
      </trkpt>
      <trkpt lat="48.65906" lon="7.22455">
        <ele>478</ele>
        <time>2013-04-07T12:09:43.000Z</time>
      </trkpt>
      <trkpt lat="48.65905" lon="7.22458">
        <ele>478</ele>
        <time>2013-04-07T12:09:47.000Z</time>
      </trkpt>
      <trkpt lat="48.65903" lon="7.22469">
        <ele>478</ele>
        <time>2013-04-07T12:09:51.000Z</time>
      </trkpt>
      <trkpt lat="48.65903" lon="7.22471">
        <ele>478</ele>
        <time>2013-04-07T12:09:53.000Z</time>
      </trkpt>
      <trkpt lat="48.65899" lon="7.22483">
        <ele>477</ele>
        <time>2013-04-07T12:09:57.000Z</time>
      </trkpt>
      <trkpt lat="48.65901" lon="7.22486">
        <ele>477</ele>
        <time>2013-04-07T12:09:59.000Z</time>
      </trkpt>
      <trkpt lat="48.659" lon="7.22481">
        <ele>477</ele>
        <time>2013-04-07T12:10:03.000Z</time>
      </trkpt>
      <trkpt lat="48.65899" lon="7.22484">
        <ele>477</ele>
        <time>2013-04-07T12:10:06.000Z</time>
      </trkpt>
      <trkpt lat="48.65899" lon="7.22477">
        <ele>478</ele>
        <time>2013-04-07T12:10:08.000Z</time>
      </trkpt>
      <trkpt lat="48.65898" lon="7.22474">
        <ele>478</ele>
        <time>2013-04-07T12:10:11.000Z</time>
      </trkpt>
      <trkpt lat="48.65897" lon="7.22472">
        <ele>478</ele>
        <time>2013-04-07T12:10:14.000Z</time>
      </trkpt>
      <trkpt lat="48.65904" lon="7.22475">
        <ele>477</ele>
        <time>2013-04-07T12:10:17.000Z</time>
      </trkpt>
      <trkpt lat="48.65893" lon="7.22473">
        <ele>478</ele>
        <time>2013-04-07T12:10:20.000Z</time>
      </trkpt>
      <trkpt lat="48.65893" lon="7.22462">
        <ele>478</ele>
        <time>2013-04-07T12:10:22.000Z</time>
      </trkpt>
      <trkpt lat="48.65892" lon="7.22455">
        <ele>478</ele>
        <time>2013-04-07T12:10:26.000Z</time>
      </trkpt>
      <trkpt lat="48.65891" lon="7.22442">
        <ele>478</ele>
        <time>2013-04-07T12:10:30.000Z</time>
      </trkpt>
      <trkpt lat="48.65889" lon="7.22435">
        <ele>478</ele>
        <time>2013-04-07T12:10:33.000Z</time>
      </trkpt>
      <trkpt lat="48.65887" lon="7.22428">
        <ele>478</ele>
        <time>2013-04-07T12:10:36.000Z</time>
      </trkpt>
      <trkpt lat="48.65886" lon="7.2242">
        <ele>478</ele>
        <time>2013-04-07T12:10:39.000Z</time>
      </trkpt>
      <trkpt lat="48.65882" lon="7.22417">
        <ele>478</ele>
        <time>2013-04-07T12:10:42.000Z</time>
      </trkpt>
      <trkpt lat="48.65882" lon="7.22411">
        <ele>477</ele>
        <time>2013-04-07T12:10:44.000Z</time>
      </trkpt>
      <trkpt lat="48.65881" lon="7.22406">
        <ele>477</ele>
        <time>2013-04-07T12:10:47.000Z</time>
      </trkpt>
      <trkpt lat="48.6588" lon="7.22398">
        <ele>477</ele>
        <time>2013-04-07T12:10:51.000Z</time>
      </trkpt>
      <trkpt lat="48.65881" lon="7.22388">
        <ele>477</ele>
        <time>2013-04-07T12:10:55.000Z</time>
      </trkpt>
      <trkpt lat="48.65882" lon="7.22366">
        <ele>477</ele>
        <time>2013-04-07T12:10:59.000Z</time>
      </trkpt>
      <trkpt lat="48.65887" lon="7.22364">
        <ele>477</ele>
        <time>2013-04-07T12:11:03.000Z</time>
      </trkpt>
      <trkpt lat="48.65883" lon="7.22343">
        <ele>477</ele>
        <time>2013-04-07T12:11:07.000Z</time>
      </trkpt>
      <trkpt lat="48.65886" lon="7.22337">
        <ele>477</ele>
        <time>2013-04-07T12:11:11.000Z</time>
      </trkpt>
      <trkpt lat="48.65887" lon="7.22332">
        <ele>479</ele>
        <time>2013-04-07T12:11:13.000Z</time>
      </trkpt>
      <trkpt lat="48.65878" lon="7.22328">
        <ele>479</ele>
        <time>2013-04-07T12:11:17.000Z</time>
      </trkpt>
      <trkpt lat="48.6589" lon="7.22319">
        <ele>479</ele>
        <time>2013-04-07T12:11:21.000Z</time>
      </trkpt>
      <trkpt lat="48.659" lon="7.2231">
        <ele>480</ele>
        <time>2013-04-07T12:11:23.000Z</time>
      </trkpt>
      <trkpt lat="48.65899" lon="7.22314">
        <ele>479</ele>
        <time>2013-04-07T12:11:25.000Z</time>
      </trkpt>
      <trkpt lat="48.65903" lon="7.22303">
        <ele>480</ele>
        <time>2013-04-07T12:11:28.000Z</time>
      </trkpt>
      <trkpt lat="48.65907" lon="7.22293">
        <ele>481</ele>
        <time>2013-04-07T12:11:30.000Z</time>
      </trkpt>
      <trkpt lat="48.65909" lon="7.22294">
        <ele>481</ele>
        <time>2013-04-07T12:11:33.000Z</time>
      </trkpt>
      <trkpt lat="48.65907" lon="7.22286">
        <ele>481</ele>
        <time>2013-04-07T12:11:36.000Z</time>
      </trkpt>
      <trkpt lat="48.65912" lon="7.22286">
        <ele>482</ele>
        <time>2013-04-07T12:11:38.000Z</time>
      </trkpt>
      <trkpt lat="48.65907" lon="7.22277">
        <ele>483</ele>
        <time>2013-04-07T12:11:42.000Z</time>
      </trkpt>
      <trkpt lat="48.65918" lon="7.22266">
        <ele>482</ele>
        <time>2013-04-07T12:11:45.000Z</time>
      </trkpt>
      <trkpt lat="48.65918" lon="7.2227">
        <ele>481</ele>
        <time>2013-04-07T12:11:48.000Z</time>
      </trkpt>
      <trkpt lat="48.65919" lon="7.22269">
        <ele>481</ele>
        <time>2013-04-07T12:11:50.000Z</time>
      </trkpt>
      <trkpt lat="48.65921" lon="7.22264">
        <ele>482</ele>
        <time>2013-04-07T12:11:52.000Z</time>
      </trkpt>
      <trkpt lat="48.65922" lon="7.2226">
        <ele>483</ele>
        <time>2013-04-07T12:11:54.000Z</time>
      </trkpt>
      <trkpt lat="48.65923" lon="7.22254">
        <ele>485</ele>
        <time>2013-04-07T12:11:58.000Z</time>
      </trkpt>
      <trkpt lat="48.65924" lon="7.22246">
        <ele>490</ele>
        <time>2013-04-07T12:12:01.000Z</time>
      </trkpt>
      <trkpt lat="48.65927" lon="7.22252">
        <ele>484</ele>
        <time>2013-04-07T12:12:03.000Z</time>
      </trkpt>
      <trkpt lat="48.65929" lon="7.22238">
        <ele>490</ele>
        <time>2013-04-07T12:12:07.000Z</time>
      </trkpt>
      <trkpt lat="48.65932" lon="7.22237">
        <ele>490</ele>
        <time>2013-04-07T12:12:11.000Z</time>
      </trkpt>
      <trkpt lat="48.65934" lon="7.22232">
        <ele>491</ele>
        <time>2013-04-07T12:12:13.000Z</time>
      </trkpt>
      <trkpt lat="48.65939" lon="7.22219">
        <ele>492</ele>
        <time>2013-04-07T12:12:17.000Z</time>
      </trkpt>
      <trkpt lat="48.65939" lon="7.22224">
        <ele>491</ele>
        <time>2013-04-07T12:12:19.000Z</time>
      </trkpt>
      <trkpt lat="48.65944" lon="7.22214">
        <ele>492</ele>
        <time>2013-04-07T12:12:23.000Z</time>
      </trkpt>
      <trkpt lat="48.65948" lon="7.22209">
        <ele>493</ele>
        <time>2013-04-07T12:12:25.000Z</time>
      </trkpt>
      <trkpt lat="48.65936" lon="7.22212">
        <ele>493</ele>
        <time>2013-04-07T12:12:29.000Z</time>
      </trkpt>
      <trkpt lat="48.65958" lon="7.22205">
        <ele>492</ele>
        <time>2013-04-07T12:12:33.000Z</time>
      </trkpt>
      <trkpt lat="48.65963" lon="7.222">
        <ele>492</ele>
        <time>2013-04-07T12:12:37.000Z</time>
      </trkpt>
      <trkpt lat="48.65966" lon="7.22194">
        <ele>493</ele>
        <time>2013-04-07T12:12:39.000Z</time>
      </trkpt>
      <trkpt lat="48.65976" lon="7.22181">
        <ele>494</ele>
        <time>2013-04-07T12:12:43.000Z</time>
      </trkpt>
      <trkpt lat="48.65979" lon="7.22176">
        <ele>494</ele>
        <time>2013-04-07T12:12:45.000Z</time>
      </trkpt>
      <trkpt lat="48.65983" lon="7.22182">
        <ele>494</ele>
        <time>2013-04-07T12:12:48.000Z</time>
      </trkpt>
      <trkpt lat="48.65987" lon="7.22174">
        <ele>494</ele>
        <time>2013-04-07T12:12:51.000Z</time>
      </trkpt>
      <trkpt lat="48.6599" lon="7.22171">
        <ele>495</ele>
        <time>2013-04-07T12:12:53.000Z</time>
      </trkpt>
      <trkpt lat="48.65992" lon="7.22169">
        <ele>495</ele>
        <time>2013-04-07T12:12:56.000Z</time>
      </trkpt>
      <trkpt lat="48.65999" lon="7.22164">
        <ele>498</ele>
        <time>2013-04-07T12:12:59.000Z</time>
      </trkpt>
      <trkpt lat="48.66006" lon="7.22157">
        <ele>498</ele>
        <time>2013-04-07T12:13:03.000Z</time>
      </trkpt>
      <trkpt lat="48.65998" lon="7.2216">
        <ele>500</ele>
        <time>2013-04-07T12:13:05.000Z</time>
      </trkpt>
      <trkpt lat="48.66013" lon="7.22148">
        <ele>500</ele>
        <time>2013-04-07T12:13:09.000Z</time>
      </trkpt>
      <trkpt lat="48.66015" lon="7.22151">
        <ele>500</ele>
        <time>2013-04-07T12:13:11.000Z</time>
      </trkpt>
      <trkpt lat="48.66018" lon="7.22143">
        <ele>501</ele>
        <time>2013-04-07T12:13:13.000Z</time>
      </trkpt>
      <trkpt lat="48.66023" lon="7.22141">
        <ele>501</ele>
        <time>2013-04-07T12:13:17.000Z</time>
      </trkpt>
      <trkpt lat="48.66029" lon="7.22134">
        <ele>501</ele>
        <time>2013-04-07T12:13:21.000Z</time>
      </trkpt>
      <trkpt lat="48.66037" lon="7.22131">
        <ele>501</ele>
        <time>2013-04-07T12:13:25.000Z</time>
      </trkpt>
      <trkpt lat="48.66044" lon="7.22128">
        <ele>501</ele>
        <time>2013-04-07T12:13:28.000Z</time>
      </trkpt>
      <trkpt lat="48.66055" lon="7.22122">
        <ele>502</ele>
        <time>2013-04-07T12:13:31.000Z</time>
      </trkpt>
      <trkpt lat="48.66062" lon="7.22121">
        <ele>502</ele>
        <time>2013-04-07T12:13:33.000Z</time>
      </trkpt>
      <trkpt lat="48.66075" lon="7.22111">
        <ele>503</ele>
        <time>2013-04-07T12:13:36.000Z</time>
      </trkpt>
      <trkpt lat="48.66092" lon="7.22099">
        <ele>498</ele>
        <time>2013-04-07T12:13:38.000Z</time>
      </trkpt>
      <trkpt lat="48.66103" lon="7.22087">
        <ele>497</ele>
        <time>2013-04-07T12:13:41.000Z</time>
      </trkpt>
      <trkpt lat="48.66113" lon="7.22073">
        <ele>503</ele>
        <time>2013-04-07T12:13:43.000Z</time>
      </trkpt>
      <trkpt lat="48.66107" lon="7.22075">
        <ele>504</ele>
        <time>2013-04-07T12:13:45.000Z</time>
      </trkpt>
      <trkpt lat="48.66113" lon="7.22059">
        <ele>504</ele>
        <time>2013-04-07T12:13:48.000Z</time>
      </trkpt>
      <trkpt lat="48.66126" lon="7.22046">
        <ele>502</ele>
        <time>2013-04-07T12:13:51.000Z</time>
      </trkpt>
      <trkpt lat="48.66132" lon="7.22025">
        <ele>503</ele>
        <time>2013-04-07T12:13:54.000Z</time>
      </trkpt>
      <trkpt lat="48.66137" lon="7.22005">
        <ele>502</ele>
        <time>2013-04-07T12:13:57.000Z</time>
      </trkpt>
      <trkpt lat="48.66164" lon="7.21926">
        <ele>507</ele>
        <time>2013-04-07T12:14:03.000Z</time>
      </trkpt>
      <trkpt lat="48.66173" lon="7.21911">
        <ele>502</ele>
        <time>2013-04-07T12:14:05.000Z</time>
      </trkpt>
      <trkpt lat="48.66159" lon="7.21897">
        <ele>511</ele>
        <time>2013-04-07T12:14:08.000Z</time>
      </trkpt>
      <trkpt lat="48.66192" lon="7.21879">
        <ele>497</ele>
        <time>2013-04-07T12:14:12.000Z</time>
      </trkpt>
      <trkpt lat="48.66191" lon="7.21874">
        <ele>498</ele>
        <time>2013-04-07T12:14:14.000Z</time>
      </trkpt>
      <trkpt lat="48.66204" lon="7.21871">
        <ele>496</ele>
        <time>2013-04-07T12:14:17.000Z</time>
      </trkpt>
      <trkpt lat="48.6621" lon="7.21866">
        <ele>495</ele>
        <time>2013-04-07T12:14:19.000Z</time>
      </trkpt>
      <trkpt lat="48.66216" lon="7.21864">
        <ele>495</ele>
        <time>2013-04-07T12:14:22.000Z</time>
      </trkpt>
      <trkpt lat="48.66223" lon="7.21853">
        <ele>494</ele>
        <time>2013-04-07T12:14:24.000Z</time>
      </trkpt>
      <trkpt lat="48.66228" lon="7.21846">
        <ele>493</ele>
        <time>2013-04-07T12:14:27.000Z</time>
      </trkpt>
      <trkpt lat="48.66237" lon="7.21833">
        <ele>491</ele>
        <time>2013-04-07T12:14:30.000Z</time>
      </trkpt>
      <trkpt lat="48.66244" lon="7.21831">
        <ele>492</ele>
        <time>2013-04-07T12:14:32.000Z</time>
      </trkpt>
      <trkpt lat="48.66233" lon="7.21821">
        <ele>498</ele>
        <time>2013-04-07T12:14:35.000Z</time>
      </trkpt>
      <trkpt lat="48.66264" lon="7.218">
        <ele>487</ele>
        <time>2013-04-07T12:14:39.000Z</time>
      </trkpt>
      <trkpt lat="48.66275" lon="7.21795">
        <ele>486</ele>
        <time>2013-04-07T12:14:42.000Z</time>
      </trkpt>
      <trkpt lat="48.66277" lon="7.21792">
        <ele>486</ele>
        <time>2013-04-07T12:14:44.000Z</time>
      </trkpt>
      <trkpt lat="48.66289" lon="7.21764">
        <ele>487</ele>
        <time>2013-04-07T12:14:48.000Z</time>
      </trkpt>
      <trkpt lat="48.66298" lon="7.21745">
        <ele>494</ele>
        <time>2013-04-07T12:14:51.000Z</time>
      </trkpt>
      <trkpt lat="48.66305" lon="7.21734">
        <ele>493</ele>
        <time>2013-04-07T12:14:53.000Z</time>
      </trkpt>
      <trkpt lat="48.66315" lon="7.21725">
        <ele>492</ele>
        <time>2013-04-07T12:14:56.000Z</time>
      </trkpt>
      <trkpt lat="48.66319" lon="7.21708">
        <ele>494</ele>
        <time>2013-04-07T12:14:59.000Z</time>
      </trkpt>
      <trkpt lat="48.66318" lon="7.21696">
        <ele>495</ele>
        <time>2013-04-07T12:15:02.000Z</time>
      </trkpt>
      <trkpt lat="48.66329" lon="7.21677">
        <ele>495</ele>
        <time>2013-04-07T12:15:05.000Z</time>
      </trkpt>
      <trkpt lat="48.6633" lon="7.21668">
        <ele>494</ele>
        <time>2013-04-07T12:15:07.000Z</time>
      </trkpt>
      <trkpt lat="48.66332" lon="7.21659">
        <ele>496</ele>
        <time>2013-04-07T12:15:10.000Z</time>
      </trkpt>
      <trkpt lat="48.66335" lon="7.21656">
        <ele>491</ele>
        <time>2013-04-07T12:15:12.000Z</time>
      </trkpt>
      <trkpt lat="48.66336" lon="7.21644">
        <ele>490</ele>
        <time>2013-04-07T12:15:16.000Z</time>
      </trkpt>
      <trkpt lat="48.66338" lon="7.21636">
        <ele>490</ele>
        <time>2013-04-07T12:15:18.000Z</time>
      </trkpt>
      <trkpt lat="48.66339" lon="7.21633">
        <ele>490</ele>
        <time>2013-04-07T12:15:20.000Z</time>
      </trkpt>
      <trkpt lat="48.6633" lon="7.21632">
        <ele>501</ele>
        <time>2013-04-07T12:15:23.000Z</time>
      </trkpt>
      <trkpt lat="48.66342" lon="7.21609">
        <ele>492</ele>
        <time>2013-04-07T12:15:27.000Z</time>
      </trkpt>
      <trkpt lat="48.66343" lon="7.21602">
        <ele>493</ele>
        <time>2013-04-07T12:15:30.000Z</time>
      </trkpt>
      <trkpt lat="48.66346" lon="7.21591">
        <ele>495</ele>
        <time>2013-04-07T12:15:33.000Z</time>
      </trkpt>
      <trkpt lat="48.66348" lon="7.21584">
        <ele>495</ele>
        <time>2013-04-07T12:15:36.000Z</time>
      </trkpt>
      <trkpt lat="48.6635" lon="7.21575">
        <ele>499</ele>
        <time>2013-04-07T12:15:38.000Z</time>
      </trkpt>
      <trkpt lat="48.66351" lon="7.2157">
        <ele>499</ele>
        <time>2013-04-07T12:15:40.000Z</time>
      </trkpt>
      <trkpt lat="48.66354" lon="7.21561">
        <ele>498</ele>
        <time>2013-04-07T12:15:43.000Z</time>
      </trkpt>
      <trkpt lat="48.66358" lon="7.21559">
        <ele>498</ele>
        <time>2013-04-07T12:15:46.000Z</time>
      </trkpt>
      <trkpt lat="48.66361" lon="7.21549">
        <ele>497</ele>
        <time>2013-04-07T12:15:49.000Z</time>
      </trkpt>
      <trkpt lat="48.66364" lon="7.21541">
        <ele>498</ele>
        <time>2013-04-07T12:15:51.000Z</time>
      </trkpt>
      <trkpt lat="48.66339" lon="7.21537">
        <ele>500</ele>
        <time>2013-04-07T12:15:55.000Z</time>
      </trkpt>
      <trkpt lat="48.66368" lon="7.21528">
        <ele>498</ele>
        <time>2013-04-07T12:15:59.000Z</time>
      </trkpt>
      <trkpt lat="48.66368" lon="7.21532">
        <ele>498</ele>
        <time>2013-04-07T12:16:02.000Z</time>
      </trkpt>
      <trkpt lat="48.66371" lon="7.21524">
        <ele>498</ele>
        <time>2013-04-07T12:16:04.000Z</time>
      </trkpt>
      <trkpt lat="48.6637" lon="7.21528">
        <ele>498</ele>
        <time>2013-04-07T12:16:06.000Z</time>
      </trkpt>
      <trkpt lat="48.66373" lon="7.21524">
        <ele>497</ele>
        <time>2013-04-07T12:16:10.000Z</time>
      </trkpt>
      <trkpt lat="48.66376" lon="7.21513">
        <ele>498</ele>
        <time>2013-04-07T12:16:14.000Z</time>
      </trkpt>
      <trkpt lat="48.66372" lon="7.21517">
        <ele>498</ele>
        <time>2013-04-07T12:16:18.000Z</time>
      </trkpt>
      <trkpt lat="48.66379" lon="7.21503">
        <ele>498</ele>
        <time>2013-04-07T12:16:22.000Z</time>
      </trkpt>
      <trkpt lat="48.6638" lon="7.21506">
        <ele>497</ele>
        <time>2013-04-07T12:16:24.000Z</time>
      </trkpt>
      <trkpt lat="48.66381" lon="7.21499">
        <ele>504</ele>
        <time>2013-04-07T12:16:26.000Z</time>
      </trkpt>
      <trkpt lat="48.66384" lon="7.21497">
        <ele>504</ele>
        <time>2013-04-07T12:16:30.000Z</time>
      </trkpt>
      <trkpt lat="48.6638" lon="7.21488">
        <ele>505</ele>
        <time>2013-04-07T12:16:34.000Z</time>
      </trkpt>
      <trkpt lat="48.66387" lon="7.2149">
        <ele>504</ele>
        <time>2013-04-07T12:16:39.000Z</time>
      </trkpt>
      <trkpt lat="48.66391" lon="7.21474">
        <ele>505</ele>
        <time>2013-04-07T12:16:44.000Z</time>
      </trkpt>
      <trkpt lat="48.66391" lon="7.21473">
        <ele>505</ele>
        <time>2013-04-07T12:16:55.000Z</time>
      </trkpt>
      <trkpt lat="48.66372" lon="7.21466">
        <ele>507</ele>
        <time>2013-04-07T12:17:03.000Z</time>
      </trkpt>
      <trkpt lat="48.66395" lon="7.21465">
        <ele>506</ele>
        <time>2013-04-07T12:17:10.000Z</time>
      </trkpt>
      <trkpt lat="48.66386" lon="7.21466">
        <ele>506</ele>
        <time>2013-04-07T12:17:24.000Z</time>
      </trkpt>
      <trkpt lat="48.66396" lon="7.21459">
        <ele>506</ele>
        <time>2013-04-07T12:17:29.000Z</time>
      </trkpt>
      <trkpt lat="48.66396" lon="7.21458">
        <ele>506</ele>
        <time>2013-04-07T12:17:48.000Z</time>
      </trkpt>
      <trkpt lat="48.66396" lon="7.21458">
        <ele>506</ele>
        <time>2013-04-07T12:18:08.000Z</time>
      </trkpt>
      <trkpt lat="48.66397" lon="7.21458">
        <ele>506</ele>
        <time>2013-04-07T12:18:13.000Z</time>
      </trkpt>
      <trkpt lat="48.66398" lon="7.21458">
        <ele>506</ele>
        <time>2013-04-07T12:18:19.000Z</time>
      </trkpt>
      <trkpt lat="48.66399" lon="7.21458">
        <ele>506</ele>
        <time>2013-04-07T12:18:27.000Z</time>
      </trkpt>
      <trkpt lat="48.66399" lon="7.21458">
        <ele>506</ele>
        <time>2013-04-07T12:18:47.000Z</time>
      </trkpt>
      <trkpt lat="48.66401" lon="7.21458">
        <ele>506</ele>
        <time>2013-04-07T12:19:49.000Z</time>
      </trkpt>
      <trkpt lat="48.66401" lon="7.21458">
        <ele>506</ele>
        <time>2013-04-07T12:20:09.000Z</time>
      </trkpt>
      <trkpt lat="48.66402" lon="7.21459">
        <ele>506</ele>
        <time>2013-04-07T12:20:13.000Z</time>
      </trkpt>
      <trkpt lat="48.66402" lon="7.21459">
        <ele>506</ele>
        <time>2013-04-07T12:20:33.000Z</time>
      </trkpt>
      <trkpt lat="48.66415" lon="7.21459">
        <ele>505</ele>
        <time>2013-04-07T12:20:33.000Z</time>
      </trkpt>
      <trkpt lat="48.66415" lon="7.21459">
        <ele>505</ele>
        <time>2013-04-07T12:20:53.000Z</time>
      </trkpt>
      <trkpt lat="48.66405" lon="7.21462">
        <ele>505</ele>
        <time>2013-04-07T12:21:00.000Z</time>
      </trkpt>
      <trkpt lat="48.66405" lon="7.21459">
        <ele>506</ele>
        <time>2013-04-07T12:21:04.000Z</time>
      </trkpt>
      <trkpt lat="48.66405" lon="7.21459">
        <ele>506</ele>
        <time>2013-04-07T12:21:24.000Z</time>
      </trkpt>
      <trkpt lat="48.66406" lon="7.21448">
        <ele>507</ele>
        <time>2013-04-07T12:21:44.000Z</time>
      </trkpt>
      <trkpt lat="48.66406" lon="7.21448">
        <ele>507</ele>
        <time>2013-04-07T12:22:04.000Z</time>
      </trkpt>
      <trkpt lat="48.66407" lon="7.21451">
        <ele>507</ele>
        <time>2013-04-07T12:22:15.000Z</time>
      </trkpt>
      <trkpt lat="48.66399" lon="7.21451">
        <ele>507</ele>
        <time>2013-04-07T12:22:23.000Z</time>
      </trkpt>
      <trkpt lat="48.66409" lon="7.21452">
        <ele>506</ele>
        <time>2013-04-07T12:22:29.000Z</time>
      </trkpt>
      <trkpt lat="48.66409" lon="7.21452">
        <ele>506</ele>
        <time>2013-04-07T12:22:49.000Z</time>
      </trkpt>
      <trkpt lat="48.6641" lon="7.21447">
        <ele>507</ele>
        <time>2013-04-07T12:22:51.000Z</time>
      </trkpt>
      <trkpt lat="48.66412" lon="7.21442">
        <ele>507</ele>
        <time>2013-04-07T12:22:55.000Z</time>
      </trkpt>
      <trkpt lat="48.66412" lon="7.21442">
        <ele>507</ele>
        <time>2013-04-07T12:23:15.000Z</time>
      </trkpt>
      <trkpt lat="48.66412" lon="7.21448">
        <ele>507</ele>
        <time>2013-04-07T12:23:23.000Z</time>
      </trkpt>
      <trkpt lat="48.66416" lon="7.21442">
        <ele>507</ele>
        <time>2013-04-07T12:23:30.000Z</time>
      </trkpt>
      <trkpt lat="48.66413" lon="7.21447">
        <ele>507</ele>
        <time>2013-04-07T12:23:42.000Z</time>
      </trkpt>
      <trkpt lat="48.66416" lon="7.21449">
        <ele>507</ele>
        <time>2013-04-07T12:23:53.000Z</time>
      </trkpt>
      <trkpt lat="48.66422" lon="7.21425">
        <ele>503</ele>
        <time>2013-04-07T12:23:57.000Z</time>
      </trkpt>
      <trkpt lat="48.66482" lon="7.2135">
        <ele>503</ele>
        <time>2013-04-07T12:24:04.000Z</time>
      </trkpt>
      <trkpt lat="48.66504" lon="7.21329">
        <ele>501</ele>
        <time>2013-04-07T12:24:07.000Z</time>
      </trkpt>
      <trkpt lat="48.66519" lon="7.21319">
        <ele>500</ele>
        <time>2013-04-07T12:24:10.000Z</time>
      </trkpt>
      <trkpt lat="48.6653" lon="7.21307">
        <ele>500</ele>
        <time>2013-04-07T12:24:12.000Z</time>
      </trkpt>
      <trkpt lat="48.66552" lon="7.21297">
        <ele>498</ele>
        <time>2013-04-07T12:24:15.000Z</time>
      </trkpt>
      <trkpt lat="48.66544" lon="7.21293">
        <ele>499</ele>
        <time>2013-04-07T12:24:17.000Z</time>
      </trkpt>
      <trkpt lat="48.66563" lon="7.21295">
        <ele>497</ele>
        <time>2013-04-07T12:24:20.000Z</time>
      </trkpt>
      <trkpt lat="48.66576" lon="7.21297">
        <ele>496</ele>
        <time>2013-04-07T12:24:23.000Z</time>
      </trkpt>
      <trkpt lat="48.66597" lon="7.21299">
        <ele>487</ele>
        <time>2013-04-07T12:24:26.000Z</time>
      </trkpt>
      <trkpt lat="48.66608" lon="7.21289">
        <ele>488</ele>
        <time>2013-04-07T12:24:28.000Z</time>
      </trkpt>
      <trkpt lat="48.66614" lon="7.21296">
        <ele>488</ele>
        <time>2013-04-07T12:24:31.000Z</time>
      </trkpt>
      <trkpt lat="48.66611" lon="7.21284">
        <ele>489</ele>
        <time>2013-04-07T12:24:34.000Z</time>
      </trkpt>
      <trkpt lat="48.66619" lon="7.21282">
        <ele>488</ele>
        <time>2013-04-07T12:24:37.000Z</time>
      </trkpt>
      <trkpt lat="48.66628" lon="7.21271">
        <ele>488</ele>
        <time>2013-04-07T12:24:40.000Z</time>
      </trkpt>
      <trkpt lat="48.66684" lon="7.21225">
        <ele>479</ele>
        <time>2013-04-07T12:24:47.000Z</time>
      </trkpt>
      <trkpt lat="48.66702" lon="7.21186">
        <ele>476</ele>
        <time>2013-04-07T12:24:50.000Z</time>
      </trkpt>
      <trkpt lat="48.66705" lon="7.21162">
        <ele>475</ele>
        <time>2013-04-07T12:24:52.000Z</time>
      </trkpt>
      <trkpt lat="48.66711" lon="7.21139">
        <ele>474</ele>
        <time>2013-04-07T12:24:55.000Z</time>
      </trkpt>
      <trkpt lat="48.66719" lon="7.21112">
        <ele>474</ele>
        <time>2013-04-07T12:24:58.000Z</time>
      </trkpt>
      <trkpt lat="48.66715" lon="7.21058">
        <ele>474</ele>
        <time>2013-04-07T12:25:02.000Z</time>
      </trkpt>
      <trkpt lat="48.66722" lon="7.21021">
        <ele>474</ele>
        <time>2013-04-07T12:25:05.000Z</time>
      </trkpt>
      <trkpt lat="48.66738" lon="7.20994">
        <ele>471</ele>
        <time>2013-04-07T12:25:08.000Z</time>
      </trkpt>
      <trkpt lat="48.66737" lon="7.20964">
        <ele>471</ele>
        <time>2013-04-07T12:25:10.000Z</time>
      </trkpt>
      <trkpt lat="48.66739" lon="7.20938">
        <ele>471</ele>
        <time>2013-04-07T12:25:12.000Z</time>
      </trkpt>
      <trkpt lat="48.66741" lon="7.20913">
        <ele>469</ele>
        <time>2013-04-07T12:25:15.000Z</time>
      </trkpt>
      <trkpt lat="48.6674" lon="7.20904">
        <ele>467</ele>
        <time>2013-04-07T12:25:17.000Z</time>
      </trkpt>
      <trkpt lat="48.66725" lon="7.20886">
        <ele>463</ele>
        <time>2013-04-07T12:25:20.000Z</time>
      </trkpt>
      <trkpt lat="48.66724" lon="7.20896">
        <ele>464</ele>
        <time>2013-04-07T12:25:22.000Z</time>
      </trkpt>
      <trkpt lat="48.66719" lon="7.20904">
        <ele>464</ele>
        <time>2013-04-07T12:25:25.000Z</time>
      </trkpt>
      <trkpt lat="48.66713" lon="7.20922">
        <ele>470</ele>
        <time>2013-04-07T12:25:29.000Z</time>
      </trkpt>
      <trkpt lat="48.6671" lon="7.20918">
        <ele>470</ele>
        <time>2013-04-07T12:25:31.000Z</time>
      </trkpt>
      <trkpt lat="48.66705" lon="7.2092">
        <ele>469</ele>
        <time>2013-04-07T12:25:34.000Z</time>
      </trkpt>
      <trkpt lat="48.66698" lon="7.20919">
        <ele>469</ele>
        <time>2013-04-07T12:25:36.000Z</time>
      </trkpt>
      <trkpt lat="48.66711" lon="7.20912">
        <ele>463</ele>
        <time>2013-04-07T12:25:39.000Z</time>
      </trkpt>
      <trkpt lat="48.66701" lon="7.20895">
        <ele>462</ele>
        <time>2013-04-07T12:25:41.000Z</time>
      </trkpt>
      <trkpt lat="48.66705" lon="7.20884">
        <ele>461</ele>
        <time>2013-04-07T12:25:43.000Z</time>
      </trkpt>
      <trkpt lat="48.66711" lon="7.2085">
        <ele>459</ele>
        <time>2013-04-07T12:25:47.000Z</time>
      </trkpt>
      <trkpt lat="48.66717" lon="7.20837">
        <ele>460</ele>
        <time>2013-04-07T12:25:50.000Z</time>
      </trkpt>
      <trkpt lat="48.66722" lon="7.20823">
        <ele>452</ele>
        <time>2013-04-07T12:25:52.000Z</time>
      </trkpt>
      <trkpt lat="48.66734" lon="7.20801">
        <ele>451</ele>
        <time>2013-04-07T12:25:55.000Z</time>
      </trkpt>
      <trkpt lat="48.66739" lon="7.20789">
        <ele>450</ele>
        <time>2013-04-07T12:25:57.000Z</time>
      </trkpt>
      <trkpt lat="48.66747" lon="7.20756">
        <ele>452</ele>
        <time>2013-04-07T12:26:01.000Z</time>
      </trkpt>
      <trkpt lat="48.66747" lon="7.20729">
        <ele>441</ele>
        <time>2013-04-07T12:26:04.000Z</time>
      </trkpt>
      <trkpt lat="48.66758" lon="7.207">
        <ele>452</ele>
        <time>2013-04-07T12:26:07.000Z</time>
      </trkpt>
      <trkpt lat="48.66759" lon="7.20707">
        <ele>453</ele>
        <time>2013-04-07T12:26:09.000Z</time>
      </trkpt>
      <trkpt lat="48.6676" lon="7.20694">
        <ele>451</ele>
        <time>2013-04-07T12:26:12.000Z</time>
      </trkpt>
      <trkpt lat="48.66761" lon="7.20691">
        <ele>451</ele>
        <time>2013-04-07T12:26:15.000Z</time>
      </trkpt>
      <trkpt lat="48.66763" lon="7.20684">
        <ele>450</ele>
        <time>2013-04-07T12:26:17.000Z</time>
      </trkpt>
      <trkpt lat="48.66751" lon="7.20674">
        <ele>445</ele>
        <time>2013-04-07T12:26:20.000Z</time>
      </trkpt>
      <trkpt lat="48.66777" lon="7.20644">
        <ele>443</ele>
        <time>2013-04-07T12:26:24.000Z</time>
      </trkpt>
      <trkpt lat="48.6678" lon="7.20634">
        <ele>443</ele>
        <time>2013-04-07T12:26:27.000Z</time>
      </trkpt>
      <trkpt lat="48.6678" lon="7.20624">
        <ele>442</ele>
        <time>2013-04-07T12:26:30.000Z</time>
      </trkpt>
      <trkpt lat="48.66777" lon="7.20619">
        <ele>441</ele>
        <time>2013-04-07T12:26:34.000Z</time>
      </trkpt>
      <trkpt lat="48.66775" lon="7.20608">
        <ele>439</ele>
        <time>2013-04-07T12:26:36.000Z</time>
      </trkpt>
      <trkpt lat="48.66783" lon="7.20599">
        <ele>440</ele>
        <time>2013-04-07T12:26:39.000Z</time>
      </trkpt>
      <trkpt lat="48.66789" lon="7.20584">
        <ele>440</ele>
        <time>2013-04-07T12:26:42.000Z</time>
      </trkpt>
      <trkpt lat="48.66799" lon="7.20555">
        <ele>431</ele>
        <time>2013-04-07T12:26:45.000Z</time>
      </trkpt>
      <trkpt lat="48.66813" lon="7.20537">
        <ele>432</ele>
        <time>2013-04-07T12:26:48.000Z</time>
      </trkpt>
      <trkpt lat="48.66825" lon="7.20506">
        <ele>433</ele>
        <time>2013-04-07T12:26:51.000Z</time>
      </trkpt>
      <trkpt lat="48.66829" lon="7.20483">
        <ele>424</ele>
        <time>2013-04-07T12:26:54.000Z</time>
      </trkpt>
      <trkpt lat="48.66828" lon="7.20472">
        <ele>419</ele>
        <time>2013-04-07T12:26:56.000Z</time>
      </trkpt>
      <trkpt lat="48.66838" lon="7.20432">
        <ele>424</ele>
        <time>2013-04-07T12:27:00.000Z</time>
      </trkpt>
      <trkpt lat="48.66875" lon="7.20362">
        <ele>415</ele>
        <time>2013-04-07T12:27:05.000Z</time>
      </trkpt>
      <trkpt lat="48.66882" lon="7.20331">
        <ele>403</ele>
        <time>2013-04-07T12:27:08.000Z</time>
      </trkpt>
      <trkpt lat="48.66961" lon="7.20316">
        <ele>408</ele>
        <time>2013-04-07T12:27:14.000Z</time>
      </trkpt>
      <trkpt lat="48.66998" lon="7.20319">
        <ele>411</ele>
        <time>2013-04-07T12:27:17.000Z</time>
      </trkpt>
      <trkpt lat="48.67025" lon="7.20313">
        <ele>411</ele>
        <time>2013-04-07T12:27:20.000Z</time>
      </trkpt>
      <trkpt lat="48.67012" lon="7.20313">
        <ele>411</ele>
        <time>2013-04-07T12:27:23.000Z</time>
      </trkpt>
      <trkpt lat="48.67039" lon="7.20301">
        <ele>410</ele>
        <time>2013-04-07T12:27:27.000Z</time>
      </trkpt>
      <trkpt lat="48.67042" lon="7.20293">
        <ele>409</ele>
        <time>2013-04-07T12:27:29.000Z</time>
      </trkpt>
      <trkpt lat="48.67048" lon="7.20284">
        <ele>409</ele>
        <time>2013-04-07T12:27:32.000Z</time>
      </trkpt>
      <trkpt lat="48.67052" lon="7.20279">
        <ele>409</ele>
        <time>2013-04-07T12:27:34.000Z</time>
      </trkpt>
      <trkpt lat="48.67056" lon="7.20273">
        <ele>408</ele>
        <time>2013-04-07T12:27:36.000Z</time>
      </trkpt>
      <trkpt lat="48.6706" lon="7.20267">
        <ele>408</ele>
        <time>2013-04-07T12:27:38.000Z</time>
      </trkpt>
      <trkpt lat="48.67071" lon="7.20258">
        <ele>408</ele>
        <time>2013-04-07T12:27:41.000Z</time>
      </trkpt>
      <trkpt lat="48.67074" lon="7.20261">
        <ele>408</ele>
        <time>2013-04-07T12:27:43.000Z</time>
      </trkpt>
      <trkpt lat="48.67078" lon="7.20256">
        <ele>408</ele>
        <time>2013-04-07T12:27:46.000Z</time>
      </trkpt>
      <trkpt lat="48.6708" lon="7.20253">
        <ele>407</ele>
        <time>2013-04-07T12:27:48.000Z</time>
      </trkpt>
      <trkpt lat="48.67085" lon="7.20251">
        <ele>407</ele>
        <time>2013-04-07T12:27:50.000Z</time>
      </trkpt>
      <trkpt lat="48.67093" lon="7.20241">
        <ele>402</ele>
        <time>2013-04-07T12:27:53.000Z</time>
      </trkpt>
      <trkpt lat="48.67086" lon="7.2024">
        <ele>403</ele>
        <time>2013-04-07T12:27:55.000Z</time>
      </trkpt>
      <trkpt lat="48.67095" lon="7.20233">
        <ele>400</ele>
        <time>2013-04-07T12:27:57.000Z</time>
      </trkpt>
      <trkpt lat="48.67112" lon="7.20218">
        <ele>396</ele>
        <time>2013-04-07T12:28:00.000Z</time>
      </trkpt>
      <trkpt lat="48.67128" lon="7.20212">
        <ele>395</ele>
        <time>2013-04-07T12:28:03.000Z</time>
      </trkpt>
      <trkpt lat="48.67136" lon="7.20203">
        <ele>394</ele>
        <time>2013-04-07T12:28:06.000Z</time>
      </trkpt>
      <trkpt lat="48.67142" lon="7.20196">
        <ele>393</ele>
        <time>2013-04-07T12:28:08.000Z</time>
      </trkpt>
      <trkpt lat="48.6715" lon="7.20204">
        <ele>394</ele>
        <time>2013-04-07T12:28:10.000Z</time>
      </trkpt>
      <trkpt lat="48.67166" lon="7.20198">
        <ele>393</ele>
        <time>2013-04-07T12:28:13.000Z</time>
      </trkpt>
      <trkpt lat="48.6717" lon="7.20196">
        <ele>384</ele>
        <time>2013-04-07T12:28:15.000Z</time>
      </trkpt>
      <trkpt lat="48.67168" lon="7.2018">
        <ele>384</ele>
        <time>2013-04-07T12:28:18.000Z</time>
      </trkpt>
      <trkpt lat="48.67159" lon="7.20162">
        <ele>382</ele>
        <time>2013-04-07T12:28:21.000Z</time>
      </trkpt>
      <trkpt lat="48.67167" lon="7.20153">
        <ele>378</ele>
        <time>2013-04-07T12:28:24.000Z</time>
      </trkpt>
      <trkpt lat="48.67181" lon="7.20141">
        <ele>372</ele>
        <time>2013-04-07T12:28:27.000Z</time>
      </trkpt>
      <trkpt lat="48.67192" lon="7.20141">
        <ele>371</ele>
        <time>2013-04-07T12:28:30.000Z</time>
      </trkpt>
      <trkpt lat="48.67284" lon="7.20171">
        <ele>354</ele>
        <time>2013-04-07T12:28:38.000Z</time>
      </trkpt>
      <trkpt lat="48.67296" lon="7.202">
        <ele>352</ele>
        <time>2013-04-07T12:28:41.000Z</time>
      </trkpt>
      <trkpt lat="48.67294" lon="7.20223">
        <ele>352</ele>
        <time>2013-04-07T12:28:43.000Z</time>
      </trkpt>
      <trkpt lat="48.67289" lon="7.20249">
        <ele>353</ele>
        <time>2013-04-07T12:28:46.000Z</time>
      </trkpt>
      <trkpt lat="48.67284" lon="7.20276">
        <ele>352</ele>
        <time>2013-04-07T12:28:48.000Z</time>
      </trkpt>
      <trkpt lat="48.67277" lon="7.20313">
        <ele>353</ele>
        <time>2013-04-07T12:28:51.000Z</time>
      </trkpt>
      <trkpt lat="48.67275" lon="7.20329">
        <ele>354</ele>
        <time>2013-04-07T12:28:55.000Z</time>
      </trkpt>
      <trkpt lat="48.67278" lon="7.20323">
        <ele>353</ele>
        <time>2013-04-07T12:28:58.000Z</time>
      </trkpt>
      <trkpt lat="48.67317" lon="7.2025">
        <ele>344</ele>
        <time>2013-04-07T12:29:05.000Z</time>
      </trkpt>
      <trkpt lat="48.67335" lon="7.20214">
        <ele>329</ele>
        <time>2013-04-07T12:29:08.000Z</time>
      </trkpt>
      <trkpt lat="48.6734" lon="7.2019">
        <ele>331</ele>
        <time>2013-04-07T12:29:10.000Z</time>
      </trkpt>
      <trkpt lat="48.67342" lon="7.20166">
        <ele>333</ele>
        <time>2013-04-07T12:29:12.000Z</time>
      </trkpt>
      <trkpt lat="48.67337" lon="7.20143">
        <ele>328</ele>
        <time>2013-04-07T12:29:14.000Z</time>
      </trkpt>
      <trkpt lat="48.67318" lon="7.20112">
        <ele>341</ele>
        <time>2013-04-07T12:29:17.000Z</time>
      </trkpt>
      <trkpt lat="48.67311" lon="7.20096">
        <ele>340</ele>
        <time>2013-04-07T12:29:19.000Z</time>
      </trkpt>
      <trkpt lat="48.67302" lon="7.20075">
        <ele>332</ele>
        <time>2013-04-07T12:29:21.000Z</time>
      </trkpt>
      <trkpt lat="48.67281" lon="7.20044">
        <ele>333</ele>
        <time>2013-04-07T12:29:24.000Z</time>
      </trkpt>
      <trkpt lat="48.6727" lon="7.20026">
        <ele>332</ele>
        <time>2013-04-07T12:29:26.000Z</time>
      </trkpt>
      <trkpt lat="48.67254" lon="7.20011">
        <ele>333</ele>
        <time>2013-04-07T12:29:28.000Z</time>
      </trkpt>
      <trkpt lat="48.67255" lon="7.20006">
        <ele>333</ele>
        <time>2013-04-07T12:29:31.000Z</time>
      </trkpt>
      <trkpt lat="48.67247" lon="7.19999">
        <ele>332</ele>
        <time>2013-04-07T12:29:36.000Z</time>
      </trkpt>
      <trkpt lat="48.67241" lon="7.1998">
        <ele>329</ele>
        <time>2013-04-07T12:29:39.000Z</time>
      </trkpt>
      <trkpt lat="48.67245" lon="7.19975">
        <ele>328</ele>
        <time>2013-04-07T12:29:41.000Z</time>
      </trkpt>
      <trkpt lat="48.67252" lon="7.19972">
        <ele>319</ele>
        <time>2013-04-07T12:29:43.000Z</time>
      </trkpt>
      <trkpt lat="48.67244" lon="7.19952">
        <ele>324</ele>
        <time>2013-04-07T12:29:46.000Z</time>
      </trkpt>
      <trkpt lat="48.67237" lon="7.1995">
        <ele>324</ele>
        <time>2013-04-07T12:29:49.000Z</time>
      </trkpt>
      <trkpt lat="48.67237" lon="7.19941">
        <ele>322</ele>
        <time>2013-04-07T12:29:51.000Z</time>
      </trkpt>
      <trkpt lat="48.6723" lon="7.19918">
        <ele>320</ele>
        <time>2013-04-07T12:29:55.000Z</time>
      </trkpt>
      <trkpt lat="48.67232" lon="7.19887">
        <ele>311</ele>
        <time>2013-04-07T12:29:58.000Z</time>
      </trkpt>
      <trkpt lat="48.67239" lon="7.19861">
        <ele>307</ele>
        <time>2013-04-07T12:30:01.000Z</time>
      </trkpt>
      <trkpt lat="48.67243" lon="7.19848">
        <ele>305</ele>
        <time>2013-04-07T12:30:03.000Z</time>
      </trkpt>
      <trkpt lat="48.67253" lon="7.19833">
        <ele>298</ele>
        <time>2013-04-07T12:30:06.000Z</time>
      </trkpt>
      <trkpt lat="48.6726" lon="7.19821">
        <ele>293</ele>
        <time>2013-04-07T12:30:08.000Z</time>
      </trkpt>
      <trkpt lat="48.6727" lon="7.19808">
        <ele>290</ele>
        <time>2013-04-07T12:30:10.000Z</time>
      </trkpt>
      <trkpt lat="48.67257" lon="7.19802">
        <ele>290</ele>
        <time>2013-04-07T12:30:13.000Z</time>
      </trkpt>
      <trkpt lat="48.67293" lon="7.19797">
        <ele>288</ele>
        <time>2013-04-07T12:30:17.000Z</time>
      </trkpt>
      <trkpt lat="48.67302" lon="7.19773">
        <ele>286</ele>
        <time>2013-04-07T12:30:20.000Z</time>
      </trkpt>
      <trkpt lat="48.67293" lon="7.19758">
        <ele>285</ele>
        <time>2013-04-07T12:30:22.000Z</time>
      </trkpt>
      <trkpt lat="48.67314" lon="7.19747">
        <ele>276</ele>
        <time>2013-04-07T12:30:25.000Z</time>
      </trkpt>
      <trkpt lat="48.67344" lon="7.19749">
        <ele>276</ele>
        <time>2013-04-07T12:30:28.000Z</time>
      </trkpt>
      <trkpt lat="48.67375" lon="7.19754">
        <ele>279</ele>
        <time>2013-04-07T12:30:31.000Z</time>
      </trkpt>
      <trkpt lat="48.67397" lon="7.19767">
        <ele>277</ele>
        <time>2013-04-07T12:30:34.000Z</time>
      </trkpt>
      <trkpt lat="48.67413" lon="7.19779">
        <ele>278</ele>
        <time>2013-04-07T12:30:36.000Z</time>
      </trkpt>
      <trkpt lat="48.67429" lon="7.19788">
        <ele>271</ele>
        <time>2013-04-07T12:30:39.000Z</time>
      </trkpt>
      <trkpt lat="48.67439" lon="7.19787">
        <ele>270</ele>
        <time>2013-04-07T12:30:41.000Z</time>
      </trkpt>
      <trkpt lat="48.67444" lon="7.19794">
        <ele>271</ele>
        <time>2013-04-07T12:30:43.000Z</time>
      </trkpt>
      <trkpt lat="48.67453" lon="7.19789">
        <ele>269</ele>
        <time>2013-04-07T12:30:46.000Z</time>
      </trkpt>
      <trkpt lat="48.67455" lon="7.19782">
        <ele>269</ele>
        <time>2013-04-07T12:30:48.000Z</time>
      </trkpt>
      <trkpt lat="48.67439" lon="7.19751">
        <ele>269</ele>
        <time>2013-04-07T12:30:52.000Z</time>
      </trkpt>
      <trkpt lat="48.67439" lon="7.19725">
        <ele>261</ele>
        <time>2013-04-07T12:30:54.000Z</time>
      </trkpt>
      <trkpt lat="48.67438" lon="7.19699">
        <ele>259</ele>
        <time>2013-04-07T12:30:56.000Z</time>
      </trkpt>
      <trkpt lat="48.67444" lon="7.19689">
        <ele>258</ele>
        <time>2013-04-07T12:30:58.000Z</time>
      </trkpt>
      <trkpt lat="48.67447" lon="7.19678">
        <ele>258</ele>
        <time>2013-04-07T12:31:02.000Z</time>
      </trkpt>
      <trkpt lat="48.67449" lon="7.19672">
        <ele>258</ele>
        <time>2013-04-07T12:31:05.000Z</time>
      </trkpt>
      <trkpt lat="48.67439" lon="7.19671">
        <ele>258</ele>
        <time>2013-04-07T12:31:08.000Z</time>
      </trkpt>
      <trkpt lat="48.67452" lon="7.19662">
        <ele>256</ele>
        <time>2013-04-07T12:31:13.000Z</time>
      </trkpt>
      <trkpt lat="48.67452" lon="7.19664">
        <ele>256</ele>
        <time>2013-04-07T12:31:16.000Z</time>
      </trkpt>
      <trkpt lat="48.67454" lon="7.19655">
        <ele>256</ele>
        <time>2013-04-07T12:31:26.000Z</time>
      </trkpt>
      <trkpt lat="48.67456" lon="7.1965">
        <ele>256</ele>
        <time>2013-04-07T12:31:44.000Z</time>
      </trkpt>
      <trkpt lat="48.67455" lon="7.19652">
        <ele>256</ele>
        <time>2013-04-07T12:31:49.000Z</time>
      </trkpt>
      <trkpt lat="48.67456" lon="7.19646">
        <ele>256</ele>
        <time>2013-04-07T12:31:53.000Z</time>
      </trkpt>
      <trkpt lat="48.67455" lon="7.19642">
        <ele>256</ele>
        <time>2013-04-07T12:31:59.000Z</time>
      </trkpt>
      <trkpt lat="48.67456" lon="7.19637">
        <ele>256</ele>
        <time>2013-04-07T12:32:10.000Z</time>
      </trkpt>
      <trkpt lat="48.67455" lon="7.19637">
        <ele>256</ele>
        <time>2013-04-07T12:32:24.000Z</time>
      </trkpt>
      <trkpt lat="48.67464" lon="7.19639">
        <ele>256</ele>
        <time>2013-04-07T12:32:36.000Z</time>
      </trkpt>
      <trkpt lat="48.67464" lon="7.19639">
        <ele>256</ele>
        <time>2013-04-07T12:32:56.000Z</time>
      </trkpt>
    </trkseg>
  </trk>
</gpx>